<?xml version="1.0" encoding="UTF-8" standalone="no" ?>
<gpx xmlns="http://www.topografix.com/GPX/1/1" xmlns:xsi="http://www.w3.org/2001/XMLSchema-instance" xsi:schemaLocation="http://www.topografix.com/GPX/1/1 http://www.topografix.com/GPX/1/1/gpx.xsd" version="1.1" creator="VisuGPX - https://www.visugpx.com">
  <metadata>
    <name>VTT du mercredi 19 septembre 2018 (à 3)</name>
    <desc><![CDATA[Nous n'étions que trois car Ghislaine est partie faire de la marche nordique. On a exploré le bois Jean Mouret (km 2 à 3,5) avec un passage bien mou [ce bois peut être parcouru par d'autres lignes de coupe et aussi en sens contaire]. Chute de Chris au km 4. Ramassage de noix à la sortie de Scye. Le reste du parcours est classique (Christian nous a fait passer à Vide Bourse). Au total beaucoup de raidillons qui nous ont laissés sur les genoux (pas notre coach)
Grand beau temps, terrain archi sec, température élévée.
Cet après-midi piscine !
PS : je crois avoir trouvé le réglage adéquat pour les dénivelés.]]></desc>
  </metadata>
  <wpt lat="47.68628" lon="6.0454">
    <ele>229</ele>
    <name><![CDATA[0000035]]></name>
  </wpt>
  <wpt lat="47.68628" lon="6.0454">
    <ele>229</ele>
    <name><![CDATA[0000035]]></name>
  </wpt>
  <wpt lat="47.68624" lon="6.04545">
    <ele>229</ele>
    <name><![CDATA[0000037]]></name>
  </wpt>
  <trk>
    <name><![CDATA[2018-09-19 09:32]]></name>
    <trkseg>
      <trkpt lat="47.68628" lon="6.0454">
        <ele>229</ele>
        <time>2018-09-19T07:32:08Z</time>
      </trkpt>
      <trkpt lat="47.68632" lon="6.04534">
        <ele>229</ele>
        <time>2018-09-19T07:32:17Z</time>
      </trkpt>
      <trkpt lat="47.68634" lon="6.04526">
        <ele>229</ele>
        <time>2018-09-19T07:32:20Z</time>
      </trkpt>
      <trkpt lat="47.68631" lon="6.0452">
        <ele>229</ele>
        <time>2018-09-19T07:32:23Z</time>
      </trkpt>
      <trkpt lat="47.68625" lon="6.04515">
        <ele>229</ele>
        <time>2018-09-19T07:32:25Z</time>
      </trkpt>
      <trkpt lat="47.68617" lon="6.04509">
        <ele>228</ele>
        <time>2018-09-19T07:32:26Z</time>
      </trkpt>
      <trkpt lat="47.68609" lon="6.04504">
        <ele>227</ele>
        <time>2018-09-19T07:32:28Z</time>
      </trkpt>
      <trkpt lat="47.686" lon="6.04499">
        <ele>225</ele>
        <time>2018-09-19T07:32:30Z</time>
      </trkpt>
      <trkpt lat="47.68596" lon="6.04496">
        <ele>225</ele>
        <time>2018-09-19T07:32:31Z</time>
      </trkpt>
      <trkpt lat="47.68591" lon="6.04493">
        <ele>224</ele>
        <time>2018-09-19T07:32:32Z</time>
      </trkpt>
      <trkpt lat="47.68585" lon="6.04489">
        <ele>224</ele>
        <time>2018-09-19T07:32:33Z</time>
      </trkpt>
      <trkpt lat="47.68579" lon="6.04485">
        <ele>222</ele>
        <time>2018-09-19T07:32:34Z</time>
      </trkpt>
      <trkpt lat="47.68574" lon="6.04481">
        <ele>222</ele>
        <time>2018-09-19T07:32:35Z</time>
      </trkpt>
      <trkpt lat="47.68569" lon="6.04478">
        <ele>221</ele>
        <time>2018-09-19T07:32:36Z</time>
      </trkpt>
      <trkpt lat="47.68563" lon="6.04474">
        <ele>221</ele>
        <time>2018-09-19T07:32:37Z</time>
      </trkpt>
      <trkpt lat="47.68558" lon="6.0447">
        <ele>221</ele>
        <time>2018-09-19T07:32:38Z</time>
      </trkpt>
      <trkpt lat="47.68552" lon="6.04467">
        <ele>220</ele>
        <time>2018-09-19T07:32:39Z</time>
      </trkpt>
      <trkpt lat="47.68547" lon="6.04463">
        <ele>220</ele>
        <time>2018-09-19T07:32:40Z</time>
      </trkpt>
      <trkpt lat="47.68541" lon="6.04458">
        <ele>220</ele>
        <time>2018-09-19T07:32:41Z</time>
      </trkpt>
      <trkpt lat="47.68535" lon="6.04454">
        <ele>220</ele>
        <time>2018-09-19T07:32:42Z</time>
      </trkpt>
      <trkpt lat="47.6853" lon="6.04449">
        <ele>220</ele>
        <time>2018-09-19T07:32:43Z</time>
      </trkpt>
      <trkpt lat="47.68524" lon="6.04445">
        <ele>219</ele>
        <time>2018-09-19T07:32:44Z</time>
      </trkpt>
      <trkpt lat="47.68518" lon="6.04441">
        <ele>219</ele>
        <time>2018-09-19T07:32:45Z</time>
      </trkpt>
      <trkpt lat="47.68512" lon="6.04437">
        <ele>219</ele>
        <time>2018-09-19T07:32:46Z</time>
      </trkpt>
      <trkpt lat="47.68505" lon="6.04433">
        <ele>218</ele>
        <time>2018-09-19T07:32:47Z</time>
      </trkpt>
      <trkpt lat="47.68499" lon="6.0443">
        <ele>217</ele>
        <time>2018-09-19T07:32:48Z</time>
      </trkpt>
      <trkpt lat="47.68493" lon="6.04427">
        <ele>217</ele>
        <time>2018-09-19T07:32:49Z</time>
      </trkpt>
      <trkpt lat="47.68486" lon="6.04426">
        <ele>217</ele>
        <time>2018-09-19T07:32:50Z</time>
      </trkpt>
      <trkpt lat="47.68479" lon="6.04426">
        <ele>216</ele>
        <time>2018-09-19T07:32:51Z</time>
      </trkpt>
      <trkpt lat="47.68472" lon="6.04426">
        <ele>216</ele>
        <time>2018-09-19T07:32:52Z</time>
      </trkpt>
      <trkpt lat="47.68466" lon="6.04427">
        <ele>216</ele>
        <time>2018-09-19T07:32:53Z</time>
      </trkpt>
      <trkpt lat="47.68459" lon="6.04427">
        <ele>216</ele>
        <time>2018-09-19T07:32:54Z</time>
      </trkpt>
      <trkpt lat="47.68452" lon="6.04427">
        <ele>216</ele>
        <time>2018-09-19T07:32:55Z</time>
      </trkpt>
      <trkpt lat="47.68446" lon="6.04428">
        <ele>215</ele>
        <time>2018-09-19T07:32:56Z</time>
      </trkpt>
      <trkpt lat="47.68439" lon="6.04427">
        <ele>215</ele>
        <time>2018-09-19T07:32:57Z</time>
      </trkpt>
      <trkpt lat="47.68432" lon="6.04428">
        <ele>215</ele>
        <time>2018-09-19T07:32:58Z</time>
      </trkpt>
      <trkpt lat="47.68426" lon="6.04428">
        <ele>214</ele>
        <time>2018-09-19T07:32:59Z</time>
      </trkpt>
      <trkpt lat="47.68419" lon="6.04428">
        <ele>214</ele>
        <time>2018-09-19T07:33:00Z</time>
      </trkpt>
      <trkpt lat="47.68412" lon="6.04428">
        <ele>213</ele>
        <time>2018-09-19T07:33:01Z</time>
      </trkpt>
      <trkpt lat="47.68405" lon="6.04428">
        <ele>213</ele>
        <time>2018-09-19T07:33:02Z</time>
      </trkpt>
      <trkpt lat="47.68399" lon="6.04429">
        <ele>213</ele>
        <time>2018-09-19T07:33:03Z</time>
      </trkpt>
      <trkpt lat="47.68393" lon="6.04428">
        <ele>213</ele>
        <time>2018-09-19T07:33:04Z</time>
      </trkpt>
      <trkpt lat="47.68387" lon="6.04428">
        <ele>213</ele>
        <time>2018-09-19T07:33:05Z</time>
      </trkpt>
      <trkpt lat="47.68382" lon="6.04428">
        <ele>213</ele>
        <time>2018-09-19T07:33:06Z</time>
      </trkpt>
      <trkpt lat="47.68376" lon="6.04427">
        <ele>213</ele>
        <time>2018-09-19T07:33:07Z</time>
      </trkpt>
      <trkpt lat="47.6837" lon="6.04426">
        <ele>213</ele>
        <time>2018-09-19T07:33:08Z</time>
      </trkpt>
      <trkpt lat="47.68364" lon="6.04426">
        <ele>212</ele>
        <time>2018-09-19T07:33:09Z</time>
      </trkpt>
      <trkpt lat="47.68357" lon="6.04426">
        <ele>212</ele>
        <time>2018-09-19T07:33:10Z</time>
      </trkpt>
      <trkpt lat="47.68351" lon="6.04426">
        <ele>212</ele>
        <time>2018-09-19T07:33:11Z</time>
      </trkpt>
      <trkpt lat="47.68344" lon="6.04425">
        <ele>212</ele>
        <time>2018-09-19T07:33:12Z</time>
      </trkpt>
      <trkpt lat="47.68338" lon="6.04425">
        <ele>212</ele>
        <time>2018-09-19T07:33:13Z</time>
      </trkpt>
      <trkpt lat="47.68332" lon="6.04425">
        <ele>211</ele>
        <time>2018-09-19T07:33:14Z</time>
      </trkpt>
      <trkpt lat="47.68326" lon="6.04425">
        <ele>211</ele>
        <time>2018-09-19T07:33:15Z</time>
      </trkpt>
      <trkpt lat="47.6832" lon="6.04424">
        <ele>211</ele>
        <time>2018-09-19T07:33:16Z</time>
      </trkpt>
      <trkpt lat="47.68313" lon="6.04424">
        <ele>211</ele>
        <time>2018-09-19T07:33:17Z</time>
      </trkpt>
      <trkpt lat="47.68307" lon="6.04422">
        <ele>211</ele>
        <time>2018-09-19T07:33:18Z</time>
      </trkpt>
      <trkpt lat="47.68301" lon="6.04421">
        <ele>211</ele>
        <time>2018-09-19T07:33:19Z</time>
      </trkpt>
      <trkpt lat="47.68295" lon="6.0442">
        <ele>211</ele>
        <time>2018-09-19T07:33:20Z</time>
      </trkpt>
      <trkpt lat="47.68289" lon="6.04419">
        <ele>211</ele>
        <time>2018-09-19T07:33:21Z</time>
      </trkpt>
      <trkpt lat="47.68283" lon="6.04418">
        <ele>211</ele>
        <time>2018-09-19T07:33:22Z</time>
      </trkpt>
      <trkpt lat="47.68278" lon="6.04416">
        <ele>210</ele>
        <time>2018-09-19T07:33:23Z</time>
      </trkpt>
      <trkpt lat="47.68272" lon="6.04415">
        <ele>210</ele>
        <time>2018-09-19T07:33:24Z</time>
      </trkpt>
      <trkpt lat="47.68267" lon="6.04413">
        <ele>210</ele>
        <time>2018-09-19T07:33:25Z</time>
      </trkpt>
      <trkpt lat="47.68262" lon="6.04411">
        <ele>210</ele>
        <time>2018-09-19T07:33:26Z</time>
      </trkpt>
      <trkpt lat="47.68257" lon="6.04409">
        <ele>210</ele>
        <time>2018-09-19T07:33:27Z</time>
      </trkpt>
      <trkpt lat="47.68252" lon="6.04407">
        <ele>210</ele>
        <time>2018-09-19T07:33:28Z</time>
      </trkpt>
      <trkpt lat="47.68247" lon="6.04403">
        <ele>210</ele>
        <time>2018-09-19T07:33:29Z</time>
      </trkpt>
      <trkpt lat="47.68242" lon="6.04401">
        <ele>210</ele>
        <time>2018-09-19T07:33:30Z</time>
      </trkpt>
      <trkpt lat="47.68236" lon="6.04397">
        <ele>210</ele>
        <time>2018-09-19T07:33:31Z</time>
      </trkpt>
      <trkpt lat="47.68231" lon="6.04394">
        <ele>210</ele>
        <time>2018-09-19T07:33:32Z</time>
      </trkpt>
      <trkpt lat="47.68227" lon="6.04391">
        <ele>210</ele>
        <time>2018-09-19T07:33:33Z</time>
      </trkpt>
      <trkpt lat="47.68222" lon="6.04388">
        <ele>210</ele>
        <time>2018-09-19T07:33:34Z</time>
      </trkpt>
      <trkpt lat="47.68217" lon="6.04385">
        <ele>210</ele>
        <time>2018-09-19T07:33:35Z</time>
      </trkpt>
      <trkpt lat="47.68212" lon="6.04382">
        <ele>210</ele>
        <time>2018-09-19T07:33:36Z</time>
      </trkpt>
      <trkpt lat="47.68207" lon="6.04378">
        <ele>210</ele>
        <time>2018-09-19T07:33:37Z</time>
      </trkpt>
      <trkpt lat="47.68203" lon="6.04375">
        <ele>210</ele>
        <time>2018-09-19T07:33:38Z</time>
      </trkpt>
      <trkpt lat="47.68199" lon="6.04371">
        <ele>210</ele>
        <time>2018-09-19T07:33:39Z</time>
      </trkpt>
      <trkpt lat="47.68195" lon="6.04368">
        <ele>210</ele>
        <time>2018-09-19T07:33:40Z</time>
      </trkpt>
      <trkpt lat="47.68191" lon="6.04365">
        <ele>210</ele>
        <time>2018-09-19T07:33:41Z</time>
      </trkpt>
      <trkpt lat="47.68186" lon="6.04362">
        <ele>210</ele>
        <time>2018-09-19T07:33:42Z</time>
      </trkpt>
      <trkpt lat="47.68182" lon="6.0436">
        <ele>210</ele>
        <time>2018-09-19T07:33:43Z</time>
      </trkpt>
      <trkpt lat="47.68177" lon="6.04358">
        <ele>210</ele>
        <time>2018-09-19T07:33:44Z</time>
      </trkpt>
      <trkpt lat="47.68173" lon="6.04358">
        <ele>210</ele>
        <time>2018-09-19T07:33:45Z</time>
      </trkpt>
      <trkpt lat="47.68168" lon="6.04358">
        <ele>210</ele>
        <time>2018-09-19T07:33:46Z</time>
      </trkpt>
      <trkpt lat="47.68159" lon="6.04361">
        <ele>209</ele>
        <time>2018-09-19T07:33:48Z</time>
      </trkpt>
      <trkpt lat="47.68155" lon="6.04362">
        <ele>209</ele>
        <time>2018-09-19T07:33:49Z</time>
      </trkpt>
      <trkpt lat="47.6815" lon="6.04364">
        <ele>209</ele>
        <time>2018-09-19T07:33:50Z</time>
      </trkpt>
      <trkpt lat="47.68146" lon="6.04366">
        <ele>209</ele>
        <time>2018-09-19T07:33:51Z</time>
      </trkpt>
      <trkpt lat="47.68141" lon="6.04368">
        <ele>209</ele>
        <time>2018-09-19T07:33:52Z</time>
      </trkpt>
      <trkpt lat="47.68136" lon="6.0437">
        <ele>209</ele>
        <time>2018-09-19T07:33:53Z</time>
      </trkpt>
      <trkpt lat="47.68132" lon="6.04372">
        <ele>209</ele>
        <time>2018-09-19T07:33:54Z</time>
      </trkpt>
      <trkpt lat="47.68127" lon="6.04373">
        <ele>209</ele>
        <time>2018-09-19T07:33:55Z</time>
      </trkpt>
      <trkpt lat="47.68122" lon="6.04375">
        <ele>209</ele>
        <time>2018-09-19T07:33:56Z</time>
      </trkpt>
      <trkpt lat="47.68113" lon="6.04379">
        <ele>209</ele>
        <time>2018-09-19T07:33:58Z</time>
      </trkpt>
      <trkpt lat="47.68105" lon="6.04382">
        <ele>209</ele>
        <time>2018-09-19T07:34:00Z</time>
      </trkpt>
      <trkpt lat="47.68096" lon="6.04385">
        <ele>209</ele>
        <time>2018-09-19T07:34:02Z</time>
      </trkpt>
      <trkpt lat="47.68088" lon="6.04389">
        <ele>209</ele>
        <time>2018-09-19T07:34:04Z</time>
      </trkpt>
      <trkpt lat="47.6808" lon="6.04392">
        <ele>209</ele>
        <time>2018-09-19T07:34:06Z</time>
      </trkpt>
      <trkpt lat="47.68072" lon="6.04395">
        <ele>209</ele>
        <time>2018-09-19T07:34:08Z</time>
      </trkpt>
      <trkpt lat="47.68065" lon="6.04397">
        <ele>209</ele>
        <time>2018-09-19T07:34:10Z</time>
      </trkpt>
      <trkpt lat="47.68057" lon="6.04401">
        <ele>209</ele>
        <time>2018-09-19T07:34:12Z</time>
      </trkpt>
      <trkpt lat="47.68051" lon="6.04407">
        <ele>209</ele>
        <time>2018-09-19T07:34:14Z</time>
      </trkpt>
      <trkpt lat="47.68046" lon="6.04414">
        <ele>209</ele>
        <time>2018-09-19T07:34:17Z</time>
      </trkpt>
      <trkpt lat="47.68042" lon="6.04421">
        <ele>209</ele>
        <time>2018-09-19T07:34:19Z</time>
      </trkpt>
      <trkpt lat="47.68037" lon="6.04427">
        <ele>209</ele>
        <time>2018-09-19T07:34:21Z</time>
      </trkpt>
      <trkpt lat="47.68032" lon="6.04431">
        <ele>210</ele>
        <time>2018-09-19T07:34:23Z</time>
      </trkpt>
      <trkpt lat="47.68026" lon="6.04433">
        <ele>210</ele>
        <time>2018-09-19T07:34:25Z</time>
      </trkpt>
      <trkpt lat="47.6802" lon="6.04433">
        <ele>210</ele>
        <time>2018-09-19T07:34:27Z</time>
      </trkpt>
      <trkpt lat="47.68014" lon="6.04429">
        <ele>210</ele>
        <time>2018-09-19T07:34:29Z</time>
      </trkpt>
      <trkpt lat="47.68002" lon="6.04424">
        <ele>211</ele>
        <time>2018-09-19T07:34:31Z</time>
      </trkpt>
      <trkpt lat="47.67994" lon="6.04422">
        <ele>211</ele>
        <time>2018-09-19T07:34:33Z</time>
      </trkpt>
      <trkpt lat="47.67986" lon="6.04423">
        <ele>211</ele>
        <time>2018-09-19T07:34:35Z</time>
      </trkpt>
      <trkpt lat="47.67979" lon="6.04424">
        <ele>211</ele>
        <time>2018-09-19T07:34:37Z</time>
      </trkpt>
      <trkpt lat="47.67972" lon="6.04426">
        <ele>211</ele>
        <time>2018-09-19T07:34:39Z</time>
      </trkpt>
      <trkpt lat="47.67965" lon="6.04427">
        <ele>211</ele>
        <time>2018-09-19T07:34:41Z</time>
      </trkpt>
      <trkpt lat="47.67957" lon="6.04427">
        <ele>212</ele>
        <time>2018-09-19T07:34:43Z</time>
      </trkpt>
      <trkpt lat="47.67949" lon="6.04426">
        <ele>212</ele>
        <time>2018-09-19T07:34:45Z</time>
      </trkpt>
      <trkpt lat="47.67941" lon="6.04425">
        <ele>211</ele>
        <time>2018-09-19T07:34:47Z</time>
      </trkpt>
      <trkpt lat="47.67933" lon="6.04424">
        <ele>211</ele>
        <time>2018-09-19T07:34:49Z</time>
      </trkpt>
      <trkpt lat="47.67925" lon="6.04423">
        <ele>211</ele>
        <time>2018-09-19T07:34:51Z</time>
      </trkpt>
      <trkpt lat="47.67918" lon="6.04422">
        <ele>211</ele>
        <time>2018-09-19T07:34:53Z</time>
      </trkpt>
      <trkpt lat="47.67911" lon="6.04422">
        <ele>213</ele>
        <time>2018-09-19T07:34:55Z</time>
      </trkpt>
      <trkpt lat="47.67903" lon="6.0442">
        <ele>214</ele>
        <time>2018-09-19T07:34:57Z</time>
      </trkpt>
      <trkpt lat="47.67896" lon="6.04419">
        <ele>214</ele>
        <time>2018-09-19T07:34:59Z</time>
      </trkpt>
      <trkpt lat="47.67891" lon="6.04418">
        <ele>215</ele>
        <time>2018-09-19T07:35:01Z</time>
      </trkpt>
      <trkpt lat="47.67886" lon="6.04418">
        <ele>215</ele>
        <time>2018-09-19T07:35:03Z</time>
      </trkpt>
      <trkpt lat="47.6788" lon="6.04417">
        <ele>216</ele>
        <time>2018-09-19T07:35:05Z</time>
      </trkpt>
      <trkpt lat="47.67872" lon="6.04417">
        <ele>216</ele>
        <time>2018-09-19T07:35:07Z</time>
      </trkpt>
      <trkpt lat="47.67865" lon="6.04417">
        <ele>217</ele>
        <time>2018-09-19T07:35:09Z</time>
      </trkpt>
      <trkpt lat="47.67858" lon="6.04417">
        <ele>217</ele>
        <time>2018-09-19T07:35:11Z</time>
      </trkpt>
      <trkpt lat="47.67851" lon="6.04416">
        <ele>215</ele>
        <time>2018-09-19T07:35:13Z</time>
      </trkpt>
      <trkpt lat="47.67845" lon="6.04416">
        <ele>216</ele>
        <time>2018-09-19T07:35:15Z</time>
      </trkpt>
      <trkpt lat="47.67838" lon="6.04415">
        <ele>217</ele>
        <time>2018-09-19T07:35:17Z</time>
      </trkpt>
      <trkpt lat="47.67833" lon="6.04414">
        <ele>218</ele>
        <time>2018-09-19T07:35:19Z</time>
      </trkpt>
      <trkpt lat="47.67827" lon="6.04413">
        <ele>218</ele>
        <time>2018-09-19T07:35:21Z</time>
      </trkpt>
      <trkpt lat="47.67821" lon="6.04411">
        <ele>219</ele>
        <time>2018-09-19T07:35:23Z</time>
      </trkpt>
      <trkpt lat="47.67816" lon="6.04409">
        <ele>219</ele>
        <time>2018-09-19T07:35:25Z</time>
      </trkpt>
      <trkpt lat="47.6781" lon="6.04407">
        <ele>219</ele>
        <time>2018-09-19T07:35:27Z</time>
      </trkpt>
      <trkpt lat="47.67804" lon="6.04405">
        <ele>219</ele>
        <time>2018-09-19T07:35:29Z</time>
      </trkpt>
      <trkpt lat="47.67799" lon="6.04403">
        <ele>220</ele>
        <time>2018-09-19T07:35:31Z</time>
      </trkpt>
      <trkpt lat="47.67793" lon="6.04401">
        <ele>220</ele>
        <time>2018-09-19T07:35:33Z</time>
      </trkpt>
      <trkpt lat="47.67788" lon="6.04398">
        <ele>220</ele>
        <time>2018-09-19T07:35:35Z</time>
      </trkpt>
      <trkpt lat="47.67783" lon="6.04396">
        <ele>221</ele>
        <time>2018-09-19T07:35:37Z</time>
      </trkpt>
      <trkpt lat="47.67777" lon="6.04394">
        <ele>221</ele>
        <time>2018-09-19T07:35:39Z</time>
      </trkpt>
      <trkpt lat="47.67771" lon="6.04392">
        <ele>221</ele>
        <time>2018-09-19T07:35:41Z</time>
      </trkpt>
      <trkpt lat="47.67766" lon="6.04389">
        <ele>221</ele>
        <time>2018-09-19T07:35:43Z</time>
      </trkpt>
      <trkpt lat="47.67761" lon="6.04386">
        <ele>221</ele>
        <time>2018-09-19T07:35:45Z</time>
      </trkpt>
      <trkpt lat="47.67756" lon="6.04384">
        <ele>221</ele>
        <time>2018-09-19T07:35:47Z</time>
      </trkpt>
      <trkpt lat="47.67752" lon="6.04382">
        <ele>221</ele>
        <time>2018-09-19T07:35:49Z</time>
      </trkpt>
      <trkpt lat="47.67747" lon="6.0438">
        <ele>228</ele>
        <time>2018-09-19T07:35:51Z</time>
      </trkpt>
      <trkpt lat="47.67742" lon="6.04377">
        <ele>228</ele>
        <time>2018-09-19T07:35:53Z</time>
      </trkpt>
      <trkpt lat="47.67737" lon="6.04374">
        <ele>228</ele>
        <time>2018-09-19T07:35:55Z</time>
      </trkpt>
      <trkpt lat="47.67732" lon="6.04372">
        <ele>228</ele>
        <time>2018-09-19T07:35:57Z</time>
      </trkpt>
      <trkpt lat="47.67728" lon="6.0437">
        <ele>228</ele>
        <time>2018-09-19T07:35:59Z</time>
      </trkpt>
      <trkpt lat="47.67723" lon="6.04367">
        <ele>228</ele>
        <time>2018-09-19T07:36:01Z</time>
      </trkpt>
      <trkpt lat="47.67718" lon="6.04364">
        <ele>228</ele>
        <time>2018-09-19T07:36:03Z</time>
      </trkpt>
      <trkpt lat="47.67713" lon="6.0436">
        <ele>228</ele>
        <time>2018-09-19T07:36:05Z</time>
      </trkpt>
      <trkpt lat="47.67708" lon="6.04357">
        <ele>229</ele>
        <time>2018-09-19T07:36:07Z</time>
      </trkpt>
      <trkpt lat="47.67703" lon="6.04353">
        <ele>229</ele>
        <time>2018-09-19T07:36:08Z</time>
      </trkpt>
      <trkpt lat="47.67699" lon="6.0435">
        <ele>229</ele>
        <time>2018-09-19T07:36:10Z</time>
      </trkpt>
      <trkpt lat="47.67695" lon="6.04347">
        <ele>229</ele>
        <time>2018-09-19T07:36:12Z</time>
      </trkpt>
      <trkpt lat="47.6769" lon="6.04344">
        <ele>230</ele>
        <time>2018-09-19T07:36:14Z</time>
      </trkpt>
      <trkpt lat="47.67686" lon="6.0434">
        <ele>230</ele>
        <time>2018-09-19T07:36:16Z</time>
      </trkpt>
      <trkpt lat="47.67681" lon="6.04336">
        <ele>230</ele>
        <time>2018-09-19T07:36:18Z</time>
      </trkpt>
      <trkpt lat="47.67676" lon="6.04332">
        <ele>226</ele>
        <time>2018-09-19T07:36:20Z</time>
      </trkpt>
      <trkpt lat="47.67673" lon="6.04329">
        <ele>227</ele>
        <time>2018-09-19T07:36:22Z</time>
      </trkpt>
      <trkpt lat="47.67668" lon="6.04324">
        <ele>226</ele>
        <time>2018-09-19T07:36:24Z</time>
      </trkpt>
      <trkpt lat="47.67663" lon="6.04317">
        <ele>232</ele>
        <time>2018-09-19T07:36:26Z</time>
      </trkpt>
      <trkpt lat="47.67658" lon="6.0431">
        <ele>232</ele>
        <time>2018-09-19T07:36:28Z</time>
      </trkpt>
      <trkpt lat="47.67654" lon="6.04303">
        <ele>231</ele>
        <time>2018-09-19T07:36:30Z</time>
      </trkpt>
      <trkpt lat="47.67649" lon="6.04296">
        <ele>231</ele>
        <time>2018-09-19T07:36:32Z</time>
      </trkpt>
      <trkpt lat="47.67645" lon="6.04291">
        <ele>231</ele>
        <time>2018-09-19T07:36:34Z</time>
      </trkpt>
      <trkpt lat="47.67642" lon="6.04286">
        <ele>231</ele>
        <time>2018-09-19T07:36:36Z</time>
      </trkpt>
      <trkpt lat="47.67638" lon="6.04281">
        <ele>231</ele>
        <time>2018-09-19T07:36:38Z</time>
      </trkpt>
      <trkpt lat="47.67633" lon="6.04274">
        <ele>231</ele>
        <time>2018-09-19T07:36:40Z</time>
      </trkpt>
      <trkpt lat="47.67626" lon="6.04264">
        <ele>231</ele>
        <time>2018-09-19T07:36:42Z</time>
      </trkpt>
      <trkpt lat="47.67623" lon="6.04259">
        <ele>232</ele>
        <time>2018-09-19T07:36:43Z</time>
      </trkpt>
      <trkpt lat="47.67617" lon="6.04251">
        <ele>232</ele>
        <time>2018-09-19T07:36:45Z</time>
      </trkpt>
      <trkpt lat="47.67612" lon="6.04243">
        <ele>225</ele>
        <time>2018-09-19T07:36:47Z</time>
      </trkpt>
      <trkpt lat="47.67607" lon="6.04236">
        <ele>226</ele>
        <time>2018-09-19T07:36:49Z</time>
      </trkpt>
      <trkpt lat="47.67602" lon="6.0423">
        <ele>226</ele>
        <time>2018-09-19T07:36:51Z</time>
      </trkpt>
      <trkpt lat="47.67596" lon="6.04224">
        <ele>226</ele>
        <time>2018-09-19T07:36:53Z</time>
      </trkpt>
      <trkpt lat="47.6759" lon="6.04216">
        <ele>225</ele>
        <time>2018-09-19T07:36:55Z</time>
      </trkpt>
      <trkpt lat="47.67584" lon="6.0421">
        <ele>224</ele>
        <time>2018-09-19T07:36:57Z</time>
      </trkpt>
      <trkpt lat="47.67579" lon="6.04204">
        <ele>234</ele>
        <time>2018-09-19T07:36:59Z</time>
      </trkpt>
      <trkpt lat="47.67574" lon="6.04198">
        <ele>233</ele>
        <time>2018-09-19T07:37:01Z</time>
      </trkpt>
      <trkpt lat="47.67569" lon="6.04193">
        <ele>233</ele>
        <time>2018-09-19T07:37:03Z</time>
      </trkpt>
      <trkpt lat="47.67565" lon="6.04188">
        <ele>233</ele>
        <time>2018-09-19T07:37:05Z</time>
      </trkpt>
      <trkpt lat="47.6756" lon="6.04182">
        <ele>233</ele>
        <time>2018-09-19T07:37:07Z</time>
      </trkpt>
      <trkpt lat="47.67554" lon="6.04175">
        <ele>233</ele>
        <time>2018-09-19T07:37:09Z</time>
      </trkpt>
      <trkpt lat="47.67548" lon="6.04168">
        <ele>234</ele>
        <time>2018-09-19T07:37:11Z</time>
      </trkpt>
      <trkpt lat="47.67541" lon="6.0416">
        <ele>228</ele>
        <time>2018-09-19T07:37:13Z</time>
      </trkpt>
      <trkpt lat="47.67536" lon="6.04153">
        <ele>228</ele>
        <time>2018-09-19T07:37:15Z</time>
      </trkpt>
      <trkpt lat="47.6753" lon="6.04145">
        <ele>229</ele>
        <time>2018-09-19T07:37:17Z</time>
      </trkpt>
      <trkpt lat="47.67524" lon="6.04138">
        <ele>229</ele>
        <time>2018-09-19T07:37:19Z</time>
      </trkpt>
      <trkpt lat="47.67518" lon="6.04131">
        <ele>229</ele>
        <time>2018-09-19T07:37:21Z</time>
      </trkpt>
      <trkpt lat="47.67513" lon="6.04125">
        <ele>229</ele>
        <time>2018-09-19T07:37:23Z</time>
      </trkpt>
      <trkpt lat="47.67507" lon="6.04118">
        <ele>228</ele>
        <time>2018-09-19T07:37:25Z</time>
      </trkpt>
      <trkpt lat="47.67502" lon="6.04111">
        <ele>228</ele>
        <time>2018-09-19T07:37:27Z</time>
      </trkpt>
      <trkpt lat="47.67497" lon="6.04104">
        <ele>237</ele>
        <time>2018-09-19T07:37:29Z</time>
      </trkpt>
      <trkpt lat="47.67493" lon="6.04098">
        <ele>236</ele>
        <time>2018-09-19T07:37:31Z</time>
      </trkpt>
      <trkpt lat="47.67489" lon="6.04092">
        <ele>235</ele>
        <time>2018-09-19T07:37:33Z</time>
      </trkpt>
      <trkpt lat="47.67485" lon="6.04086">
        <ele>236</ele>
        <time>2018-09-19T07:37:35Z</time>
      </trkpt>
      <trkpt lat="47.6748" lon="6.04079">
        <ele>232</ele>
        <time>2018-09-19T07:37:37Z</time>
      </trkpt>
      <trkpt lat="47.67476" lon="6.04072">
        <ele>232</ele>
        <time>2018-09-19T07:37:39Z</time>
      </trkpt>
      <trkpt lat="47.67473" lon="6.04066">
        <ele>232</ele>
        <time>2018-09-19T07:37:41Z</time>
      </trkpt>
      <trkpt lat="47.67469" lon="6.04059">
        <ele>232</ele>
        <time>2018-09-19T07:37:43Z</time>
      </trkpt>
      <trkpt lat="47.67465" lon="6.04052">
        <ele>233</ele>
        <time>2018-09-19T07:37:45Z</time>
      </trkpt>
      <trkpt lat="47.6746" lon="6.04044">
        <ele>232</ele>
        <time>2018-09-19T07:37:47Z</time>
      </trkpt>
      <trkpt lat="47.67456" lon="6.04035">
        <ele>232</ele>
        <time>2018-09-19T07:37:49Z</time>
      </trkpt>
      <trkpt lat="47.67446" lon="6.04018">
        <ele>233</ele>
        <time>2018-09-19T07:37:51Z</time>
      </trkpt>
      <trkpt lat="47.67441" lon="6.04013">
        <ele>233</ele>
        <time>2018-09-19T07:37:52Z</time>
      </trkpt>
      <trkpt lat="47.67438" lon="6.04008">
        <ele>233</ele>
        <time>2018-09-19T07:37:53Z</time>
      </trkpt>
      <trkpt lat="47.67435" lon="6.04003">
        <ele>234</ele>
        <time>2018-09-19T07:37:54Z</time>
      </trkpt>
      <trkpt lat="47.67432" lon="6.03998">
        <ele>228</ele>
        <time>2018-09-19T07:37:55Z</time>
      </trkpt>
      <trkpt lat="47.67428" lon="6.03993">
        <ele>229</ele>
        <time>2018-09-19T07:37:56Z</time>
      </trkpt>
      <trkpt lat="47.67424" lon="6.03988">
        <ele>229</ele>
        <time>2018-09-19T07:37:57Z</time>
      </trkpt>
      <trkpt lat="47.67421" lon="6.03982">
        <ele>227</ele>
        <time>2018-09-19T07:37:58Z</time>
      </trkpt>
      <trkpt lat="47.67417" lon="6.03976">
        <ele>226</ele>
        <time>2018-09-19T07:37:59Z</time>
      </trkpt>
      <trkpt lat="47.67413" lon="6.0397">
        <ele>234</ele>
        <time>2018-09-19T07:38:00Z</time>
      </trkpt>
      <trkpt lat="47.6741" lon="6.03964">
        <ele>234</ele>
        <time>2018-09-19T07:38:01Z</time>
      </trkpt>
      <trkpt lat="47.67407" lon="6.03958">
        <ele>233</ele>
        <time>2018-09-19T07:38:02Z</time>
      </trkpt>
      <trkpt lat="47.67404" lon="6.03953">
        <ele>232</ele>
        <time>2018-09-19T07:38:03Z</time>
      </trkpt>
      <trkpt lat="47.67399" lon="6.03943">
        <ele>231</ele>
        <time>2018-09-19T07:38:05Z</time>
      </trkpt>
      <trkpt lat="47.67394" lon="6.03936">
        <ele>231</ele>
        <time>2018-09-19T07:38:07Z</time>
      </trkpt>
      <trkpt lat="47.6739" lon="6.0393">
        <ele>231</ele>
        <time>2018-09-19T07:38:08Z</time>
      </trkpt>
      <trkpt lat="47.67386" lon="6.03927">
        <ele>231</ele>
        <time>2018-09-19T07:38:10Z</time>
      </trkpt>
      <trkpt lat="47.6738" lon="6.03921">
        <ele>232</ele>
        <time>2018-09-19T07:38:12Z</time>
      </trkpt>
      <trkpt lat="47.67375" lon="6.03916">
        <ele>226</ele>
        <time>2018-09-19T07:38:14Z</time>
      </trkpt>
      <trkpt lat="47.67368" lon="6.0391">
        <ele>227</ele>
        <time>2018-09-19T07:38:16Z</time>
      </trkpt>
      <trkpt lat="47.67362" lon="6.03904">
        <ele>228</ele>
        <time>2018-09-19T07:38:18Z</time>
      </trkpt>
      <trkpt lat="47.67356" lon="6.03897">
        <ele>228</ele>
        <time>2018-09-19T07:38:20Z</time>
      </trkpt>
      <trkpt lat="47.6735" lon="6.0389">
        <ele>228</ele>
        <time>2018-09-19T07:38:22Z</time>
      </trkpt>
      <trkpt lat="47.67346" lon="6.03884">
        <ele>228</ele>
        <time>2018-09-19T07:38:24Z</time>
      </trkpt>
      <trkpt lat="47.67342" lon="6.03878">
        <ele>228</ele>
        <time>2018-09-19T07:38:26Z</time>
      </trkpt>
      <trkpt lat="47.67337" lon="6.03871">
        <ele>228</ele>
        <time>2018-09-19T07:38:28Z</time>
      </trkpt>
      <trkpt lat="47.67334" lon="6.03866">
        <ele>228</ele>
        <time>2018-09-19T07:38:30Z</time>
      </trkpt>
      <trkpt lat="47.67331" lon="6.03861">
        <ele>237</ele>
        <time>2018-09-19T07:38:32Z</time>
      </trkpt>
      <trkpt lat="47.67328" lon="6.03856">
        <ele>236</ele>
        <time>2018-09-19T07:38:34Z</time>
      </trkpt>
      <trkpt lat="47.67324" lon="6.0385">
        <ele>235</ele>
        <time>2018-09-19T07:38:36Z</time>
      </trkpt>
      <trkpt lat="47.67321" lon="6.03845">
        <ele>235</ele>
        <time>2018-09-19T07:38:38Z</time>
      </trkpt>
      <trkpt lat="47.67317" lon="6.03838">
        <ele>235</ele>
        <time>2018-09-19T07:38:41Z</time>
      </trkpt>
      <trkpt lat="47.67313" lon="6.03831">
        <ele>233</ele>
        <time>2018-09-19T07:38:43Z</time>
      </trkpt>
      <trkpt lat="47.6731" lon="6.03824">
        <ele>233</ele>
        <time>2018-09-19T07:38:45Z</time>
      </trkpt>
      <trkpt lat="47.67305" lon="6.03817">
        <ele>233</ele>
        <time>2018-09-19T07:38:48Z</time>
      </trkpt>
      <trkpt lat="47.67302" lon="6.03811">
        <ele>234</ele>
        <time>2018-09-19T07:38:51Z</time>
      </trkpt>
      <trkpt lat="47.67298" lon="6.03805">
        <ele>234</ele>
        <time>2018-09-19T07:38:56Z</time>
      </trkpt>
      <trkpt lat="47.67293" lon="6.03801">
        <ele>234</ele>
        <time>2018-09-19T07:38:59Z</time>
      </trkpt>
      <trkpt lat="47.67288" lon="6.03794">
        <ele>234</ele>
        <time>2018-09-19T07:39:02Z</time>
      </trkpt>
      <trkpt lat="47.67285" lon="6.03788">
        <ele>235</ele>
        <time>2018-09-19T07:39:04Z</time>
      </trkpt>
      <trkpt lat="47.67281" lon="6.03781">
        <ele>235</ele>
        <time>2018-09-19T07:39:07Z</time>
      </trkpt>
      <trkpt lat="47.67278" lon="6.03772">
        <ele>235</ele>
        <time>2018-09-19T07:39:10Z</time>
      </trkpt>
      <trkpt lat="47.67275" lon="6.03767">
        <ele>235</ele>
        <time>2018-09-19T07:39:12Z</time>
      </trkpt>
      <trkpt lat="47.67271" lon="6.0376">
        <ele>236</ele>
        <time>2018-09-19T07:39:15Z</time>
      </trkpt>
      <trkpt lat="47.67268" lon="6.03754">
        <ele>237</ele>
        <time>2018-09-19T07:39:17Z</time>
      </trkpt>
      <trkpt lat="47.67263" lon="6.03748">
        <ele>234</ele>
        <time>2018-09-19T07:39:20Z</time>
      </trkpt>
      <trkpt lat="47.67259" lon="6.03742">
        <ele>235</ele>
        <time>2018-09-19T07:39:23Z</time>
      </trkpt>
      <trkpt lat="47.67256" lon="6.03735">
        <ele>234</ele>
        <time>2018-09-19T07:39:26Z</time>
      </trkpt>
      <trkpt lat="47.67252" lon="6.03728">
        <ele>232</ele>
        <time>2018-09-19T07:39:29Z</time>
      </trkpt>
      <trkpt lat="47.67248" lon="6.03722">
        <ele>242</ele>
        <time>2018-09-19T07:39:32Z</time>
      </trkpt>
      <trkpt lat="47.67245" lon="6.03716">
        <ele>242</ele>
        <time>2018-09-19T07:39:35Z</time>
      </trkpt>
      <trkpt lat="47.67241" lon="6.0371">
        <ele>242</ele>
        <time>2018-09-19T07:39:38Z</time>
      </trkpt>
      <trkpt lat="47.67238" lon="6.03705">
        <ele>242</ele>
        <time>2018-09-19T07:39:41Z</time>
      </trkpt>
      <trkpt lat="47.67235" lon="6.03698">
        <ele>242</ele>
        <time>2018-09-19T07:39:46Z</time>
      </trkpt>
      <trkpt lat="47.67232" lon="6.03691">
        <ele>241</ele>
        <time>2018-09-19T07:39:49Z</time>
      </trkpt>
      <trkpt lat="47.67229" lon="6.03684">
        <ele>241</ele>
        <time>2018-09-19T07:39:53Z</time>
      </trkpt>
      <trkpt lat="47.67225" lon="6.03678">
        <ele>241</ele>
        <time>2018-09-19T07:39:58Z</time>
      </trkpt>
      <trkpt lat="47.67222" lon="6.03672">
        <ele>241</ele>
        <time>2018-09-19T07:40:01Z</time>
      </trkpt>
      <trkpt lat="47.67219" lon="6.03664">
        <ele>239</ele>
        <time>2018-09-19T07:40:04Z</time>
      </trkpt>
      <trkpt lat="47.67217" lon="6.03658">
        <ele>239</ele>
        <time>2018-09-19T07:40:06Z</time>
      </trkpt>
      <trkpt lat="47.67214" lon="6.03652">
        <ele>240</ele>
        <time>2018-09-19T07:40:08Z</time>
      </trkpt>
      <trkpt lat="47.67211" lon="6.03646">
        <ele>240</ele>
        <time>2018-09-19T07:40:10Z</time>
      </trkpt>
      <trkpt lat="47.67209" lon="6.0364">
        <ele>240</ele>
        <time>2018-09-19T07:40:12Z</time>
      </trkpt>
      <trkpt lat="47.67206" lon="6.03633">
        <ele>241</ele>
        <time>2018-09-19T07:40:14Z</time>
      </trkpt>
      <trkpt lat="47.67203" lon="6.03627">
        <ele>241</ele>
        <time>2018-09-19T07:40:16Z</time>
      </trkpt>
      <trkpt lat="47.67199" lon="6.03619">
        <ele>241</ele>
        <time>2018-09-19T07:40:19Z</time>
      </trkpt>
      <trkpt lat="47.67195" lon="6.03612">
        <ele>242</ele>
        <time>2018-09-19T07:40:22Z</time>
      </trkpt>
      <trkpt lat="47.67192" lon="6.03605">
        <ele>242</ele>
        <time>2018-09-19T07:40:25Z</time>
      </trkpt>
      <trkpt lat="47.67189" lon="6.03599">
        <ele>243</ele>
        <time>2018-09-19T07:40:28Z</time>
      </trkpt>
      <trkpt lat="47.67186" lon="6.03594">
        <ele>244</ele>
        <time>2018-09-19T07:40:31Z</time>
      </trkpt>
      <trkpt lat="47.67183" lon="6.03588">
        <ele>245</ele>
        <time>2018-09-19T07:40:34Z</time>
      </trkpt>
      <trkpt lat="47.67178" lon="6.0358">
        <ele>244</ele>
        <time>2018-09-19T07:40:37Z</time>
      </trkpt>
      <trkpt lat="47.67175" lon="6.03575">
        <ele>244</ele>
        <time>2018-09-19T07:40:39Z</time>
      </trkpt>
      <trkpt lat="47.67171" lon="6.03569">
        <ele>243</ele>
        <time>2018-09-19T07:40:42Z</time>
      </trkpt>
      <trkpt lat="47.67167" lon="6.03563">
        <ele>242</ele>
        <time>2018-09-19T07:40:45Z</time>
      </trkpt>
      <trkpt lat="47.67163" lon="6.03557">
        <ele>248</ele>
        <time>2018-09-19T07:40:48Z</time>
      </trkpt>
      <trkpt lat="47.67159" lon="6.03549">
        <ele>247</ele>
        <time>2018-09-19T07:40:51Z</time>
      </trkpt>
      <trkpt lat="47.67156" lon="6.03543">
        <ele>247</ele>
        <time>2018-09-19T07:40:53Z</time>
      </trkpt>
      <trkpt lat="47.67151" lon="6.03535">
        <ele>247</ele>
        <time>2018-09-19T07:40:55Z</time>
      </trkpt>
      <trkpt lat="47.67142" lon="6.03517">
        <ele>246</ele>
        <time>2018-09-19T07:40:57Z</time>
      </trkpt>
      <trkpt lat="47.67138" lon="6.03512">
        <ele>246</ele>
        <time>2018-09-19T07:40:58Z</time>
      </trkpt>
      <trkpt lat="47.67134" lon="6.03507">
        <ele>246</ele>
        <time>2018-09-19T07:40:59Z</time>
      </trkpt>
      <trkpt lat="47.6713" lon="6.03502">
        <ele>246</ele>
        <time>2018-09-19T07:41:00Z</time>
      </trkpt>
      <trkpt lat="47.67128" lon="6.03496">
        <ele>242</ele>
        <time>2018-09-19T07:41:01Z</time>
      </trkpt>
      <trkpt lat="47.67124" lon="6.03491">
        <ele>242</ele>
        <time>2018-09-19T07:41:03Z</time>
      </trkpt>
      <trkpt lat="47.67119" lon="6.03483">
        <ele>242</ele>
        <time>2018-09-19T07:41:04Z</time>
      </trkpt>
      <trkpt lat="47.67116" lon="6.03477">
        <ele>242</ele>
        <time>2018-09-19T07:41:06Z</time>
      </trkpt>
      <trkpt lat="47.67111" lon="6.03469">
        <ele>242</ele>
        <time>2018-09-19T07:41:08Z</time>
      </trkpt>
      <trkpt lat="47.67101" lon="6.03453">
        <ele>242</ele>
        <time>2018-09-19T07:41:10Z</time>
      </trkpt>
      <trkpt lat="47.67098" lon="6.03447">
        <ele>242</ele>
        <time>2018-09-19T07:41:12Z</time>
      </trkpt>
      <trkpt lat="47.67092" lon="6.0344">
        <ele>242</ele>
        <time>2018-09-19T07:41:14Z</time>
      </trkpt>
      <trkpt lat="47.67087" lon="6.03433">
        <ele>242</ele>
        <time>2018-09-19T07:41:16Z</time>
      </trkpt>
      <trkpt lat="47.67083" lon="6.03426">
        <ele>243</ele>
        <time>2018-09-19T07:41:18Z</time>
      </trkpt>
      <trkpt lat="47.67077" lon="6.03417">
        <ele>242</ele>
        <time>2018-09-19T07:41:20Z</time>
      </trkpt>
      <trkpt lat="47.67071" lon="6.03409">
        <ele>242</ele>
        <time>2018-09-19T07:41:22Z</time>
      </trkpt>
      <trkpt lat="47.67066" lon="6.03402">
        <ele>241</ele>
        <time>2018-09-19T07:41:24Z</time>
      </trkpt>
      <trkpt lat="47.6706" lon="6.03395">
        <ele>241</ele>
        <time>2018-09-19T07:41:26Z</time>
      </trkpt>
      <trkpt lat="47.67055" lon="6.03389">
        <ele>241</ele>
        <time>2018-09-19T07:41:28Z</time>
      </trkpt>
      <trkpt lat="47.67051" lon="6.03383">
        <ele>241</ele>
        <time>2018-09-19T07:41:30Z</time>
      </trkpt>
      <trkpt lat="47.67047" lon="6.0338">
        <ele>241</ele>
        <time>2018-09-19T07:41:32Z</time>
      </trkpt>
      <trkpt lat="47.67043" lon="6.03378">
        <ele>241</ele>
        <time>2018-09-19T07:41:37Z</time>
      </trkpt>
      <trkpt lat="47.67036" lon="6.0338">
        <ele>241</ele>
        <time>2018-09-19T07:41:42Z</time>
      </trkpt>
      <trkpt lat="47.67031" lon="6.03383">
        <ele>241</ele>
        <time>2018-09-19T07:41:45Z</time>
      </trkpt>
      <trkpt lat="47.67026" lon="6.03387">
        <ele>242</ele>
        <time>2018-09-19T07:41:47Z</time>
      </trkpt>
      <trkpt lat="47.67022" lon="6.03392">
        <ele>242</ele>
        <time>2018-09-19T07:41:49Z</time>
      </trkpt>
      <trkpt lat="47.67017" lon="6.03398">
        <ele>242</ele>
        <time>2018-09-19T07:41:51Z</time>
      </trkpt>
      <trkpt lat="47.67012" lon="6.03404">
        <ele>242</ele>
        <time>2018-09-19T07:41:53Z</time>
      </trkpt>
      <trkpt lat="47.67007" lon="6.03409">
        <ele>243</ele>
        <time>2018-09-19T07:41:55Z</time>
      </trkpt>
      <trkpt lat="47.67" lon="6.03417">
        <ele>244</ele>
        <time>2018-09-19T07:41:57Z</time>
      </trkpt>
      <trkpt lat="47.66994" lon="6.03424">
        <ele>244</ele>
        <time>2018-09-19T07:41:59Z</time>
      </trkpt>
      <trkpt lat="47.66988" lon="6.03431">
        <ele>244</ele>
        <time>2018-09-19T07:42:01Z</time>
      </trkpt>
      <trkpt lat="47.66983" lon="6.03436">
        <ele>244</ele>
        <time>2018-09-19T07:42:03Z</time>
      </trkpt>
      <trkpt lat="47.66978" lon="6.03442">
        <ele>244</ele>
        <time>2018-09-19T07:42:05Z</time>
      </trkpt>
      <trkpt lat="47.66973" lon="6.0345">
        <ele>244</ele>
        <time>2018-09-19T07:42:07Z</time>
      </trkpt>
      <trkpt lat="47.66969" lon="6.03455">
        <ele>244</ele>
        <time>2018-09-19T07:42:08Z</time>
      </trkpt>
      <trkpt lat="47.66966" lon="6.0346">
        <ele>244</ele>
        <time>2018-09-19T07:42:09Z</time>
      </trkpt>
      <trkpt lat="47.66962" lon="6.03466">
        <ele>244</ele>
        <time>2018-09-19T07:42:10Z</time>
      </trkpt>
      <trkpt lat="47.66958" lon="6.03471">
        <ele>244</ele>
        <time>2018-09-19T07:42:11Z</time>
      </trkpt>
      <trkpt lat="47.66952" lon="6.03479">
        <ele>244</ele>
        <time>2018-09-19T07:42:13Z</time>
      </trkpt>
      <trkpt lat="47.66948" lon="6.03483">
        <ele>244</ele>
        <time>2018-09-19T07:42:14Z</time>
      </trkpt>
      <trkpt lat="47.66942" lon="6.0349">
        <ele>244</ele>
        <time>2018-09-19T07:42:16Z</time>
      </trkpt>
      <trkpt lat="47.66937" lon="6.03495">
        <ele>245</ele>
        <time>2018-09-19T07:42:18Z</time>
      </trkpt>
      <trkpt lat="47.66933" lon="6.03499">
        <ele>245</ele>
        <time>2018-09-19T07:42:20Z</time>
      </trkpt>
      <trkpt lat="47.66929" lon="6.03504">
        <ele>246</ele>
        <time>2018-09-19T07:42:22Z</time>
      </trkpt>
      <trkpt lat="47.66926" lon="6.03509">
        <ele>247</ele>
        <time>2018-09-19T07:42:24Z</time>
      </trkpt>
      <trkpt lat="47.66922" lon="6.03516">
        <ele>247</ele>
        <time>2018-09-19T07:42:27Z</time>
      </trkpt>
      <trkpt lat="47.66918" lon="6.03523">
        <ele>247</ele>
        <time>2018-09-19T07:42:30Z</time>
      </trkpt>
      <trkpt lat="47.66911" lon="6.03528">
        <ele>245</ele>
        <time>2018-09-19T07:42:33Z</time>
      </trkpt>
      <trkpt lat="47.66905" lon="6.03532">
        <ele>245</ele>
        <time>2018-09-19T07:42:35Z</time>
      </trkpt>
      <trkpt lat="47.66899" lon="6.03536">
        <ele>244</ele>
        <time>2018-09-19T07:42:37Z</time>
      </trkpt>
      <trkpt lat="47.66894" lon="6.03539">
        <ele>244</ele>
        <time>2018-09-19T07:42:39Z</time>
      </trkpt>
      <trkpt lat="47.66888" lon="6.03545">
        <ele>244</ele>
        <time>2018-09-19T07:42:41Z</time>
      </trkpt>
      <trkpt lat="47.66885" lon="6.0355">
        <ele>244</ele>
        <time>2018-09-19T07:42:43Z</time>
      </trkpt>
      <trkpt lat="47.66882" lon="6.03556">
        <ele>244</ele>
        <time>2018-09-19T07:42:45Z</time>
      </trkpt>
      <trkpt lat="47.6688" lon="6.03562">
        <ele>244</ele>
        <time>2018-09-19T07:42:47Z</time>
      </trkpt>
      <trkpt lat="47.66876" lon="6.03569">
        <ele>244</ele>
        <time>2018-09-19T07:42:50Z</time>
      </trkpt>
      <trkpt lat="47.66873" lon="6.03574">
        <ele>244</ele>
        <time>2018-09-19T07:42:52Z</time>
      </trkpt>
      <trkpt lat="47.66869" lon="6.0358">
        <ele>243</ele>
        <time>2018-09-19T07:42:54Z</time>
      </trkpt>
      <trkpt lat="47.66865" lon="6.03585">
        <ele>245</ele>
        <time>2018-09-19T07:42:56Z</time>
      </trkpt>
      <trkpt lat="47.6686" lon="6.03592">
        <ele>245</ele>
        <time>2018-09-19T07:42:58Z</time>
      </trkpt>
      <trkpt lat="47.66856" lon="6.03603">
        <ele>245</ele>
        <time>2018-09-19T07:43:00Z</time>
      </trkpt>
      <trkpt lat="47.66854" lon="6.03611">
        <ele>246</ele>
        <time>2018-09-19T07:43:02Z</time>
      </trkpt>
      <trkpt lat="47.66854" lon="6.0362">
        <ele>246</ele>
        <time>2018-09-19T07:43:05Z</time>
      </trkpt>
      <trkpt lat="47.66855" lon="6.03627">
        <ele>247</ele>
        <time>2018-09-19T07:43:09Z</time>
      </trkpt>
      <trkpt lat="47.66858" lon="6.03634">
        <ele>247</ele>
        <time>2018-09-19T07:43:12Z</time>
      </trkpt>
      <trkpt lat="47.66862" lon="6.03641">
        <ele>247</ele>
        <time>2018-09-19T07:43:15Z</time>
      </trkpt>
      <trkpt lat="47.66865" lon="6.03646">
        <ele>247</ele>
        <time>2018-09-19T07:43:17Z</time>
      </trkpt>
      <trkpt lat="47.66869" lon="6.03652">
        <ele>248</ele>
        <time>2018-09-19T07:43:20Z</time>
      </trkpt>
      <trkpt lat="47.66872" lon="6.03658">
        <ele>248</ele>
        <time>2018-09-19T07:43:23Z</time>
      </trkpt>
      <trkpt lat="47.66876" lon="6.03664">
        <ele>248</ele>
        <time>2018-09-19T07:43:27Z</time>
      </trkpt>
      <trkpt lat="47.66879" lon="6.0367">
        <ele>251</ele>
        <time>2018-09-19T07:43:30Z</time>
      </trkpt>
      <trkpt lat="47.66881" lon="6.03678">
        <ele>251</ele>
        <time>2018-09-19T07:43:34Z</time>
      </trkpt>
      <trkpt lat="47.66881" lon="6.03684">
        <ele>252</ele>
        <time>2018-09-19T07:43:38Z</time>
      </trkpt>
      <trkpt lat="47.6688" lon="6.03691">
        <ele>252</ele>
        <time>2018-09-19T07:43:42Z</time>
      </trkpt>
      <trkpt lat="47.66876" lon="6.03696">
        <ele>252</ele>
        <time>2018-09-19T07:43:46Z</time>
      </trkpt>
      <trkpt lat="47.66872" lon="6.03702">
        <ele>252</ele>
        <time>2018-09-19T07:43:52Z</time>
      </trkpt>
      <trkpt lat="47.6687" lon="6.03708">
        <ele>252</ele>
        <time>2018-09-19T07:43:55Z</time>
      </trkpt>
      <trkpt lat="47.66869" lon="6.03717">
        <ele>252</ele>
        <time>2018-09-19T07:43:58Z</time>
      </trkpt>
      <trkpt lat="47.66867" lon="6.03727">
        <ele>253</ele>
        <time>2018-09-19T07:44:01Z</time>
      </trkpt>
      <trkpt lat="47.66864" lon="6.03734">
        <ele>253</ele>
        <time>2018-09-19T07:44:03Z</time>
      </trkpt>
      <trkpt lat="47.66862" lon="6.03742">
        <ele>253</ele>
        <time>2018-09-19T07:44:05Z</time>
      </trkpt>
      <trkpt lat="47.66861" lon="6.03749">
        <ele>253</ele>
        <time>2018-09-19T07:44:08Z</time>
      </trkpt>
      <trkpt lat="47.66859" lon="6.03756">
        <ele>257</ele>
        <time>2018-09-19T07:44:11Z</time>
      </trkpt>
      <trkpt lat="47.66858" lon="6.03764">
        <ele>257</ele>
        <time>2018-09-19T07:44:15Z</time>
      </trkpt>
      <trkpt lat="47.66856" lon="6.0377">
        <ele>257</ele>
        <time>2018-09-19T07:44:20Z</time>
      </trkpt>
      <trkpt lat="47.66853" lon="6.03776">
        <ele>258</ele>
        <time>2018-09-19T07:44:25Z</time>
      </trkpt>
      <trkpt lat="47.66849" lon="6.03781">
        <ele>258</ele>
        <time>2018-09-19T07:44:29Z</time>
      </trkpt>
      <trkpt lat="47.66847" lon="6.03789">
        <ele>258</ele>
        <time>2018-09-19T07:44:32Z</time>
      </trkpt>
      <trkpt lat="47.66845" lon="6.03798">
        <ele>259</ele>
        <time>2018-09-19T07:44:35Z</time>
      </trkpt>
      <trkpt lat="47.66842" lon="6.03805">
        <ele>259</ele>
        <time>2018-09-19T07:44:38Z</time>
      </trkpt>
      <trkpt lat="47.66839" lon="6.03811">
        <ele>260</ele>
        <time>2018-09-19T07:44:41Z</time>
      </trkpt>
      <trkpt lat="47.66836" lon="6.03816">
        <ele>260</ele>
        <time>2018-09-19T07:44:44Z</time>
      </trkpt>
      <trkpt lat="47.66833" lon="6.03821">
        <ele>261</ele>
        <time>2018-09-19T07:44:48Z</time>
      </trkpt>
      <trkpt lat="47.66829" lon="6.03828">
        <ele>261</ele>
        <time>2018-09-19T07:44:53Z</time>
      </trkpt>
      <trkpt lat="47.66825" lon="6.03833">
        <ele>261</ele>
        <time>2018-09-19T07:44:58Z</time>
      </trkpt>
      <trkpt lat="47.66821" lon="6.03839">
        <ele>264</ele>
        <time>2018-09-19T07:45:03Z</time>
      </trkpt>
      <trkpt lat="47.66819" lon="6.03844">
        <ele>264</ele>
        <time>2018-09-19T07:45:07Z</time>
      </trkpt>
      <trkpt lat="47.66816" lon="6.0385">
        <ele>264</ele>
        <time>2018-09-19T07:45:14Z</time>
      </trkpt>
      <trkpt lat="47.66813" lon="6.03858">
        <ele>265</ele>
        <time>2018-09-19T07:45:19Z</time>
      </trkpt>
      <trkpt lat="47.6681" lon="6.03865">
        <ele>265</ele>
        <time>2018-09-19T07:45:21Z</time>
      </trkpt>
      <trkpt lat="47.66808" lon="6.03873">
        <ele>266</ele>
        <time>2018-09-19T07:45:24Z</time>
      </trkpt>
      <trkpt lat="47.66805" lon="6.0388">
        <ele>266</ele>
        <time>2018-09-19T07:45:28Z</time>
      </trkpt>
      <trkpt lat="47.66802" lon="6.03887">
        <ele>266</ele>
        <time>2018-09-19T07:45:32Z</time>
      </trkpt>
      <trkpt lat="47.66799" lon="6.03894">
        <ele>266</ele>
        <time>2018-09-19T07:45:36Z</time>
      </trkpt>
      <trkpt lat="47.66796" lon="6.03899">
        <ele>267</ele>
        <time>2018-09-19T07:45:41Z</time>
      </trkpt>
      <trkpt lat="47.66792" lon="6.03906">
        <ele>267</ele>
        <time>2018-09-19T07:45:46Z</time>
      </trkpt>
      <trkpt lat="47.6679" lon="6.03912">
        <ele>267</ele>
        <time>2018-09-19T07:45:50Z</time>
      </trkpt>
      <trkpt lat="47.66789" lon="6.03919">
        <ele>269</ele>
        <time>2018-09-19T07:45:53Z</time>
      </trkpt>
      <trkpt lat="47.66786" lon="6.03926">
        <ele>269</ele>
        <time>2018-09-19T07:45:57Z</time>
      </trkpt>
      <trkpt lat="47.66784" lon="6.03933">
        <ele>269</ele>
        <time>2018-09-19T07:46:02Z</time>
      </trkpt>
      <trkpt lat="47.66781" lon="6.03939">
        <ele>269</ele>
        <time>2018-09-19T07:46:06Z</time>
      </trkpt>
      <trkpt lat="47.66778" lon="6.03945">
        <ele>269</ele>
        <time>2018-09-19T07:46:10Z</time>
      </trkpt>
      <trkpt lat="47.66775" lon="6.03951">
        <ele>270</ele>
        <time>2018-09-19T07:46:15Z</time>
      </trkpt>
      <trkpt lat="47.66773" lon="6.03957">
        <ele>270</ele>
        <time>2018-09-19T07:46:18Z</time>
      </trkpt>
      <trkpt lat="47.6677" lon="6.03964">
        <ele>270</ele>
        <time>2018-09-19T07:46:20Z</time>
      </trkpt>
      <trkpt lat="47.66767" lon="6.03972">
        <ele>270</ele>
        <time>2018-09-19T07:46:23Z</time>
      </trkpt>
      <trkpt lat="47.66764" lon="6.03978">
        <ele>270</ele>
        <time>2018-09-19T07:46:27Z</time>
      </trkpt>
      <trkpt lat="47.6676" lon="6.03985">
        <ele>270</ele>
        <time>2018-09-19T07:46:32Z</time>
      </trkpt>
      <trkpt lat="47.66758" lon="6.03992">
        <ele>271</ele>
        <time>2018-09-19T07:46:35Z</time>
      </trkpt>
      <trkpt lat="47.66755" lon="6.03998">
        <ele>271</ele>
        <time>2018-09-19T07:46:38Z</time>
      </trkpt>
      <trkpt lat="47.66752" lon="6.04005">
        <ele>271</ele>
        <time>2018-09-19T07:46:42Z</time>
      </trkpt>
      <trkpt lat="47.66749" lon="6.04011">
        <ele>270</ele>
        <time>2018-09-19T07:46:46Z</time>
      </trkpt>
      <trkpt lat="47.66746" lon="6.04018">
        <ele>270</ele>
        <time>2018-09-19T07:46:50Z</time>
      </trkpt>
      <trkpt lat="47.66743" lon="6.04026">
        <ele>270</ele>
        <time>2018-09-19T07:46:54Z</time>
      </trkpt>
      <trkpt lat="47.66741" lon="6.04032">
        <ele>270</ele>
        <time>2018-09-19T07:46:57Z</time>
      </trkpt>
      <trkpt lat="47.66738" lon="6.0404">
        <ele>270</ele>
        <time>2018-09-19T07:47:01Z</time>
      </trkpt>
      <trkpt lat="47.66734" lon="6.04047">
        <ele>270</ele>
        <time>2018-09-19T07:47:05Z</time>
      </trkpt>
      <trkpt lat="47.6673" lon="6.0405">
        <ele>270</ele>
        <time>2018-09-19T07:47:11Z</time>
      </trkpt>
      <trkpt lat="47.66726" lon="6.04053">
        <ele>270</ele>
        <time>2018-09-19T07:47:29Z</time>
      </trkpt>
      <trkpt lat="47.66721" lon="6.04056">
        <ele>270</ele>
        <time>2018-09-19T07:47:40Z</time>
      </trkpt>
      <trkpt lat="47.66716" lon="6.04061">
        <ele>269</ele>
        <time>2018-09-19T07:47:43Z</time>
      </trkpt>
      <trkpt lat="47.66711" lon="6.04066">
        <ele>269</ele>
        <time>2018-09-19T07:47:46Z</time>
      </trkpt>
      <trkpt lat="47.66707" lon="6.04073">
        <ele>269</ele>
        <time>2018-09-19T07:47:49Z</time>
      </trkpt>
      <trkpt lat="47.66703" lon="6.0408">
        <ele>269</ele>
        <time>2018-09-19T07:47:52Z</time>
      </trkpt>
      <trkpt lat="47.66702" lon="6.04089">
        <ele>269</ele>
        <time>2018-09-19T07:47:56Z</time>
      </trkpt>
      <trkpt lat="47.66704" lon="6.04097">
        <ele>269</ele>
        <time>2018-09-19T07:48:00Z</time>
      </trkpt>
      <trkpt lat="47.66704" lon="6.04104">
        <ele>269</ele>
        <time>2018-09-19T07:48:05Z</time>
      </trkpt>
      <trkpt lat="47.66703" lon="6.04111">
        <ele>269</ele>
        <time>2018-09-19T07:48:10Z</time>
      </trkpt>
      <trkpt lat="47.667" lon="6.04116">
        <ele>269</ele>
        <time>2018-09-19T07:48:13Z</time>
      </trkpt>
      <trkpt lat="47.66698" lon="6.04122">
        <ele>269</ele>
        <time>2018-09-19T07:48:16Z</time>
      </trkpt>
      <trkpt lat="47.66695" lon="6.04128">
        <ele>269</ele>
        <time>2018-09-19T07:48:20Z</time>
      </trkpt>
      <trkpt lat="47.66692" lon="6.04133">
        <ele>269</ele>
        <time>2018-09-19T07:48:24Z</time>
      </trkpt>
      <trkpt lat="47.66688" lon="6.0414">
        <ele>268</ele>
        <time>2018-09-19T07:48:28Z</time>
      </trkpt>
      <trkpt lat="47.66684" lon="6.04144">
        <ele>268</ele>
        <time>2018-09-19T07:48:32Z</time>
      </trkpt>
      <trkpt lat="47.6668" lon="6.04147">
        <ele>268</ele>
        <time>2018-09-19T07:49:02Z</time>
      </trkpt>
      <trkpt lat="47.66675" lon="6.04145">
        <ele>268</ele>
        <time>2018-09-19T07:49:05Z</time>
      </trkpt>
      <trkpt lat="47.6667" lon="6.04144">
        <ele>268</ele>
        <time>2018-09-19T07:49:09Z</time>
      </trkpt>
      <trkpt lat="47.66666" lon="6.04142">
        <ele>265</ele>
        <time>2018-09-19T07:49:12Z</time>
      </trkpt>
      <trkpt lat="47.66661" lon="6.04138">
        <ele>265</ele>
        <time>2018-09-19T07:49:15Z</time>
      </trkpt>
      <trkpt lat="47.66656" lon="6.04136">
        <ele>265</ele>
        <time>2018-09-19T07:49:18Z</time>
      </trkpt>
      <trkpt lat="47.6665" lon="6.04132">
        <ele>264</ele>
        <time>2018-09-19T07:49:21Z</time>
      </trkpt>
      <trkpt lat="47.66646" lon="6.04129">
        <ele>264</ele>
        <time>2018-09-19T07:49:23Z</time>
      </trkpt>
      <trkpt lat="47.66641" lon="6.04128">
        <ele>264</ele>
        <time>2018-09-19T07:49:25Z</time>
      </trkpt>
      <trkpt lat="47.66636" lon="6.0413">
        <ele>264</ele>
        <time>2018-09-19T07:49:28Z</time>
      </trkpt>
      <trkpt lat="47.66631" lon="6.04134">
        <ele>264</ele>
        <time>2018-09-19T07:49:32Z</time>
      </trkpt>
      <trkpt lat="47.66627" lon="6.0414">
        <ele>264</ele>
        <time>2018-09-19T07:49:36Z</time>
      </trkpt>
      <trkpt lat="47.66625" lon="6.04147">
        <ele>264</ele>
        <time>2018-09-19T07:49:39Z</time>
      </trkpt>
      <trkpt lat="47.66621" lon="6.04154">
        <ele>263</ele>
        <time>2018-09-19T07:49:42Z</time>
      </trkpt>
      <trkpt lat="47.66618" lon="6.0416">
        <ele>263</ele>
        <time>2018-09-19T07:49:45Z</time>
      </trkpt>
      <trkpt lat="47.66615" lon="6.04166">
        <ele>263</ele>
        <time>2018-09-19T07:49:48Z</time>
      </trkpt>
      <trkpt lat="47.66612" lon="6.04172">
        <ele>263</ele>
        <time>2018-09-19T07:49:51Z</time>
      </trkpt>
      <trkpt lat="47.66609" lon="6.04179">
        <ele>263</ele>
        <time>2018-09-19T07:49:55Z</time>
      </trkpt>
      <trkpt lat="47.66608" lon="6.04186">
        <ele>263</ele>
        <time>2018-09-19T07:49:58Z</time>
      </trkpt>
      <trkpt lat="47.66606" lon="6.04194">
        <ele>263</ele>
        <time>2018-09-19T07:50:02Z</time>
      </trkpt>
      <trkpt lat="47.66602" lon="6.04201">
        <ele>263</ele>
        <time>2018-09-19T07:50:05Z</time>
      </trkpt>
      <trkpt lat="47.66598" lon="6.04208">
        <ele>263</ele>
        <time>2018-09-19T07:50:08Z</time>
      </trkpt>
      <trkpt lat="47.66596" lon="6.04214">
        <ele>263</ele>
        <time>2018-09-19T07:50:11Z</time>
      </trkpt>
      <trkpt lat="47.66593" lon="6.04222">
        <ele>262</ele>
        <time>2018-09-19T07:50:13Z</time>
      </trkpt>
      <trkpt lat="47.66588" lon="6.04231">
        <ele>262</ele>
        <time>2018-09-19T07:50:15Z</time>
      </trkpt>
      <trkpt lat="47.66586" lon="6.04239">
        <ele>261</ele>
        <time>2018-09-19T07:50:17Z</time>
      </trkpt>
      <trkpt lat="47.66582" lon="6.04246">
        <ele>260</ele>
        <time>2018-09-19T07:50:19Z</time>
      </trkpt>
      <trkpt lat="47.66579" lon="6.04254">
        <ele>260</ele>
        <time>2018-09-19T07:50:21Z</time>
      </trkpt>
      <trkpt lat="47.66576" lon="6.0426">
        <ele>259</ele>
        <time>2018-09-19T07:50:23Z</time>
      </trkpt>
      <trkpt lat="47.66574" lon="6.04267">
        <ele>259</ele>
        <time>2018-09-19T07:50:25Z</time>
      </trkpt>
      <trkpt lat="47.66571" lon="6.04275">
        <ele>259</ele>
        <time>2018-09-19T07:50:28Z</time>
      </trkpt>
      <trkpt lat="47.66567" lon="6.04282">
        <ele>259</ele>
        <time>2018-09-19T07:50:30Z</time>
      </trkpt>
      <trkpt lat="47.66562" lon="6.0429">
        <ele>259</ele>
        <time>2018-09-19T07:50:32Z</time>
      </trkpt>
      <trkpt lat="47.66559" lon="6.04298">
        <ele>259</ele>
        <time>2018-09-19T07:50:34Z</time>
      </trkpt>
      <trkpt lat="47.66556" lon="6.04307">
        <ele>259</ele>
        <time>2018-09-19T07:50:36Z</time>
      </trkpt>
      <trkpt lat="47.66554" lon="6.04313">
        <ele>259</ele>
        <time>2018-09-19T07:50:37Z</time>
      </trkpt>
      <trkpt lat="47.66552" lon="6.0432">
        <ele>259</ele>
        <time>2018-09-19T07:50:38Z</time>
      </trkpt>
      <trkpt lat="47.66551" lon="6.04327">
        <ele>259</ele>
        <time>2018-09-19T07:50:39Z</time>
      </trkpt>
      <trkpt lat="47.66548" lon="6.04337">
        <ele>261</ele>
        <time>2018-09-19T07:50:41Z</time>
      </trkpt>
      <trkpt lat="47.66546" lon="6.04344">
        <ele>261</ele>
        <time>2018-09-19T07:50:43Z</time>
      </trkpt>
      <trkpt lat="47.66543" lon="6.04352">
        <ele>261</ele>
        <time>2018-09-19T07:50:46Z</time>
      </trkpt>
      <trkpt lat="47.6654" lon="6.04358">
        <ele>261</ele>
        <time>2018-09-19T07:50:49Z</time>
      </trkpt>
      <trkpt lat="47.66537" lon="6.04363">
        <ele>261</ele>
        <time>2018-09-19T07:50:52Z</time>
      </trkpt>
      <trkpt lat="47.66533" lon="6.04369">
        <ele>261</ele>
        <time>2018-09-19T07:50:55Z</time>
      </trkpt>
      <trkpt lat="47.66531" lon="6.04375">
        <ele>261</ele>
        <time>2018-09-19T07:50:59Z</time>
      </trkpt>
      <trkpt lat="47.66527" lon="6.04382">
        <ele>261</ele>
        <time>2018-09-19T07:51:03Z</time>
      </trkpt>
      <trkpt lat="47.66523" lon="6.04388">
        <ele>261</ele>
        <time>2018-09-19T07:51:07Z</time>
      </trkpt>
      <trkpt lat="47.6652" lon="6.04395">
        <ele>261</ele>
        <time>2018-09-19T07:51:10Z</time>
      </trkpt>
      <trkpt lat="47.66518" lon="6.04401">
        <ele>261</ele>
        <time>2018-09-19T07:51:13Z</time>
      </trkpt>
      <trkpt lat="47.66516" lon="6.04411">
        <ele>261</ele>
        <time>2018-09-19T07:51:16Z</time>
      </trkpt>
      <trkpt lat="47.66514" lon="6.04419">
        <ele>261</ele>
        <time>2018-09-19T07:51:19Z</time>
      </trkpt>
      <trkpt lat="47.66511" lon="6.04426">
        <ele>261</ele>
        <time>2018-09-19T07:51:22Z</time>
      </trkpt>
      <trkpt lat="47.66507" lon="6.04431">
        <ele>261</ele>
        <time>2018-09-19T07:51:25Z</time>
      </trkpt>
      <trkpt lat="47.66504" lon="6.04437">
        <ele>261</ele>
        <time>2018-09-19T07:51:27Z</time>
      </trkpt>
      <trkpt lat="47.66501" lon="6.04443">
        <ele>261</ele>
        <time>2018-09-19T07:51:29Z</time>
      </trkpt>
      <trkpt lat="47.66498" lon="6.04451">
        <ele>258</ele>
        <time>2018-09-19T07:51:32Z</time>
      </trkpt>
      <trkpt lat="47.66495" lon="6.04457">
        <ele>257</ele>
        <time>2018-09-19T07:51:36Z</time>
      </trkpt>
      <trkpt lat="47.66493" lon="6.04463">
        <ele>257</ele>
        <time>2018-09-19T07:51:40Z</time>
      </trkpt>
      <trkpt lat="47.6649" lon="6.04469">
        <ele>257</ele>
        <time>2018-09-19T07:51:43Z</time>
      </trkpt>
      <trkpt lat="47.66486" lon="6.04478">
        <ele>257</ele>
        <time>2018-09-19T07:51:45Z</time>
      </trkpt>
      <trkpt lat="47.66483" lon="6.04486">
        <ele>257</ele>
        <time>2018-09-19T07:51:47Z</time>
      </trkpt>
      <trkpt lat="47.66481" lon="6.04495">
        <ele>257</ele>
        <time>2018-09-19T07:51:49Z</time>
      </trkpt>
      <trkpt lat="47.66478" lon="6.04501">
        <ele>257</ele>
        <time>2018-09-19T07:51:51Z</time>
      </trkpt>
      <trkpt lat="47.66476" lon="6.04509">
        <ele>256</ele>
        <time>2018-09-19T07:51:54Z</time>
      </trkpt>
      <trkpt lat="47.66473" lon="6.04517">
        <ele>256</ele>
        <time>2018-09-19T07:51:58Z</time>
      </trkpt>
      <trkpt lat="47.6647" lon="6.04523">
        <ele>256</ele>
        <time>2018-09-19T07:52:02Z</time>
      </trkpt>
      <trkpt lat="47.66466" lon="6.04529">
        <ele>255</ele>
        <time>2018-09-19T07:52:04Z</time>
      </trkpt>
      <trkpt lat="47.66462" lon="6.04534">
        <ele>255</ele>
        <time>2018-09-19T07:52:06Z</time>
      </trkpt>
      <trkpt lat="47.66459" lon="6.04539">
        <ele>255</ele>
        <time>2018-09-19T07:52:10Z</time>
      </trkpt>
      <trkpt lat="47.66457" lon="6.04546">
        <ele>255</ele>
        <time>2018-09-19T07:52:32Z</time>
      </trkpt>
      <trkpt lat="47.66455" lon="6.04553">
        <ele>254</ele>
        <time>2018-09-19T07:52:36Z</time>
      </trkpt>
      <trkpt lat="47.66453" lon="6.04561">
        <ele>254</ele>
        <time>2018-09-19T07:52:40Z</time>
      </trkpt>
      <trkpt lat="47.6645" lon="6.04568">
        <ele>254</ele>
        <time>2018-09-19T07:52:43Z</time>
      </trkpt>
      <trkpt lat="47.66449" lon="6.04575">
        <ele>254</ele>
        <time>2018-09-19T07:52:54Z</time>
      </trkpt>
      <trkpt lat="47.66448" lon="6.04582">
        <ele>254</ele>
        <time>2018-09-19T07:53:02Z</time>
      </trkpt>
      <trkpt lat="47.6645" lon="6.04588">
        <ele>252</ele>
        <time>2018-09-19T07:53:23Z</time>
      </trkpt>
      <trkpt lat="47.66455" lon="6.04589">
        <ele>253</ele>
        <time>2018-09-19T07:53:38Z</time>
      </trkpt>
      <trkpt lat="47.66459" lon="6.04587">
        <ele>253</ele>
        <time>2018-09-19T07:53:42Z</time>
      </trkpt>
      <trkpt lat="47.66463" lon="6.04583">
        <ele>255</ele>
        <time>2018-09-19T07:53:48Z</time>
      </trkpt>
      <trkpt lat="47.66467" lon="6.0458">
        <ele>255</ele>
        <time>2018-09-19T07:54:00Z</time>
      </trkpt>
      <trkpt lat="47.66472" lon="6.04582">
        <ele>255</ele>
        <time>2018-09-19T07:54:39Z</time>
      </trkpt>
      <trkpt lat="47.66478" lon="6.04585">
        <ele>254</ele>
        <time>2018-09-19T07:54:56Z</time>
      </trkpt>
      <trkpt lat="47.66484" lon="6.04588">
        <ele>255</ele>
        <time>2018-09-19T07:54:59Z</time>
      </trkpt>
      <trkpt lat="47.66488" lon="6.0459">
        <ele>255</ele>
        <time>2018-09-19T07:55:01Z</time>
      </trkpt>
      <trkpt lat="47.66494" lon="6.04593">
        <ele>255</ele>
        <time>2018-09-19T07:55:04Z</time>
      </trkpt>
      <trkpt lat="47.66499" lon="6.04595">
        <ele>255</ele>
        <time>2018-09-19T07:55:07Z</time>
      </trkpt>
      <trkpt lat="47.66504" lon="6.04598">
        <ele>258</ele>
        <time>2018-09-19T07:55:11Z</time>
      </trkpt>
      <trkpt lat="47.6651" lon="6.046">
        <ele>258</ele>
        <time>2018-09-19T07:55:14Z</time>
      </trkpt>
      <trkpt lat="47.66516" lon="6.04601">
        <ele>258</ele>
        <time>2018-09-19T07:55:18Z</time>
      </trkpt>
      <trkpt lat="47.66522" lon="6.04603">
        <ele>259</ele>
        <time>2018-09-19T07:55:22Z</time>
      </trkpt>
      <trkpt lat="47.66526" lon="6.04606">
        <ele>259</ele>
        <time>2018-09-19T07:55:25Z</time>
      </trkpt>
      <trkpt lat="47.66532" lon="6.04609">
        <ele>259</ele>
        <time>2018-09-19T07:55:29Z</time>
      </trkpt>
      <trkpt lat="47.66536" lon="6.04612">
        <ele>259</ele>
        <time>2018-09-19T07:55:33Z</time>
      </trkpt>
      <trkpt lat="47.66542" lon="6.04613">
        <ele>259</ele>
        <time>2018-09-19T07:55:37Z</time>
      </trkpt>
      <trkpt lat="47.66547" lon="6.04613">
        <ele>260</ele>
        <time>2018-09-19T07:55:42Z</time>
      </trkpt>
      <trkpt lat="47.66552" lon="6.04614">
        <ele>260</ele>
        <time>2018-09-19T07:55:46Z</time>
      </trkpt>
      <trkpt lat="47.66558" lon="6.04614">
        <ele>260</ele>
        <time>2018-09-19T07:55:49Z</time>
      </trkpt>
      <trkpt lat="47.66564" lon="6.04614">
        <ele>260</ele>
        <time>2018-09-19T07:55:52Z</time>
      </trkpt>
      <trkpt lat="47.66569" lon="6.04615">
        <ele>260</ele>
        <time>2018-09-19T07:55:55Z</time>
      </trkpt>
      <trkpt lat="47.66573" lon="6.04617">
        <ele>260</ele>
        <time>2018-09-19T07:55:58Z</time>
      </trkpt>
      <trkpt lat="47.66578" lon="6.04619">
        <ele>260</ele>
        <time>2018-09-19T07:56:01Z</time>
      </trkpt>
      <trkpt lat="47.66583" lon="6.04623">
        <ele>260</ele>
        <time>2018-09-19T07:56:05Z</time>
      </trkpt>
      <trkpt lat="47.66588" lon="6.04625">
        <ele>264</ele>
        <time>2018-09-19T07:56:08Z</time>
      </trkpt>
      <trkpt lat="47.66593" lon="6.04627">
        <ele>264</ele>
        <time>2018-09-19T07:56:11Z</time>
      </trkpt>
      <trkpt lat="47.66598" lon="6.04629">
        <ele>264</ele>
        <time>2018-09-19T07:56:15Z</time>
      </trkpt>
      <trkpt lat="47.66604" lon="6.04632">
        <ele>264</ele>
        <time>2018-09-19T07:56:19Z</time>
      </trkpt>
      <trkpt lat="47.66609" lon="6.04634">
        <ele>264</ele>
        <time>2018-09-19T07:56:21Z</time>
      </trkpt>
      <trkpt lat="47.66614" lon="6.04636">
        <ele>264</ele>
        <time>2018-09-19T07:56:23Z</time>
      </trkpt>
      <trkpt lat="47.66619" lon="6.04637">
        <ele>264</ele>
        <time>2018-09-19T07:56:25Z</time>
      </trkpt>
      <trkpt lat="47.66624" lon="6.04638">
        <ele>264</ele>
        <time>2018-09-19T07:56:27Z</time>
      </trkpt>
      <trkpt lat="47.66629" lon="6.0464">
        <ele>265</ele>
        <time>2018-09-19T07:56:30Z</time>
      </trkpt>
      <trkpt lat="47.66635" lon="6.04641">
        <ele>265</ele>
        <time>2018-09-19T07:56:33Z</time>
      </trkpt>
      <trkpt lat="47.66639" lon="6.04644">
        <ele>265</ele>
        <time>2018-09-19T07:56:36Z</time>
      </trkpt>
      <trkpt lat="47.66645" lon="6.04648">
        <ele>265</ele>
        <time>2018-09-19T07:56:40Z</time>
      </trkpt>
      <trkpt lat="47.66648" lon="6.04654">
        <ele>265</ele>
        <time>2018-09-19T07:56:43Z</time>
      </trkpt>
      <trkpt lat="47.66652" lon="6.04661">
        <ele>265</ele>
        <time>2018-09-19T07:56:46Z</time>
      </trkpt>
      <trkpt lat="47.66655" lon="6.04669">
        <ele>264</ele>
        <time>2018-09-19T07:56:49Z</time>
      </trkpt>
      <trkpt lat="47.66656" lon="6.04676">
        <ele>264</ele>
        <time>2018-09-19T07:56:51Z</time>
      </trkpt>
      <trkpt lat="47.66657" lon="6.04683">
        <ele>263</ele>
        <time>2018-09-19T07:56:53Z</time>
      </trkpt>
      <trkpt lat="47.66655" lon="6.04692">
        <ele>263</ele>
        <time>2018-09-19T07:56:55Z</time>
      </trkpt>
      <trkpt lat="47.66652" lon="6.047">
        <ele>262</ele>
        <time>2018-09-19T07:56:57Z</time>
      </trkpt>
      <trkpt lat="47.66648" lon="6.04708">
        <ele>262</ele>
        <time>2018-09-19T07:56:59Z</time>
      </trkpt>
      <trkpt lat="47.66643" lon="6.04716">
        <ele>261</ele>
        <time>2018-09-19T07:57:01Z</time>
      </trkpt>
      <trkpt lat="47.66636" lon="6.04726">
        <ele>261</ele>
        <time>2018-09-19T07:57:02Z</time>
      </trkpt>
      <trkpt lat="47.66631" lon="6.04737">
        <ele>261</ele>
        <time>2018-09-19T07:57:04Z</time>
      </trkpt>
      <trkpt lat="47.66626" lon="6.04747">
        <ele>260</ele>
        <time>2018-09-19T07:57:06Z</time>
      </trkpt>
      <trkpt lat="47.66623" lon="6.04753">
        <ele>258</ele>
        <time>2018-09-19T07:57:07Z</time>
      </trkpt>
      <trkpt lat="47.66619" lon="6.04762">
        <ele>258</ele>
        <time>2018-09-19T07:57:09Z</time>
      </trkpt>
      <trkpt lat="47.66614" lon="6.04772">
        <ele>257</ele>
        <time>2018-09-19T07:57:11Z</time>
      </trkpt>
      <trkpt lat="47.66611" lon="6.0478">
        <ele>257</ele>
        <time>2018-09-19T07:57:13Z</time>
      </trkpt>
      <trkpt lat="47.66606" lon="6.04787">
        <ele>257</ele>
        <time>2018-09-19T07:57:15Z</time>
      </trkpt>
      <trkpt lat="47.666" lon="6.04797">
        <ele>257</ele>
        <time>2018-09-19T07:57:19Z</time>
      </trkpt>
      <trkpt lat="47.66596" lon="6.04803">
        <ele>257</ele>
        <time>2018-09-19T07:57:21Z</time>
      </trkpt>
      <trkpt lat="47.66592" lon="6.04809">
        <ele>256</ele>
        <time>2018-09-19T07:57:23Z</time>
      </trkpt>
      <trkpt lat="47.66588" lon="6.04818">
        <ele>256</ele>
        <time>2018-09-19T07:57:25Z</time>
      </trkpt>
      <trkpt lat="47.66584" lon="6.04825">
        <ele>256</ele>
        <time>2018-09-19T07:57:27Z</time>
      </trkpt>
      <trkpt lat="47.6658" lon="6.04834">
        <ele>254</ele>
        <time>2018-09-19T07:57:29Z</time>
      </trkpt>
      <trkpt lat="47.66575" lon="6.04843">
        <ele>253</ele>
        <time>2018-09-19T07:57:31Z</time>
      </trkpt>
      <trkpt lat="47.6657" lon="6.04852">
        <ele>252</ele>
        <time>2018-09-19T07:57:33Z</time>
      </trkpt>
      <trkpt lat="47.66562" lon="6.04866">
        <ele>251</ele>
        <time>2018-09-19T07:57:34Z</time>
      </trkpt>
      <trkpt lat="47.66559" lon="6.04872">
        <ele>250</ele>
        <time>2018-09-19T07:57:35Z</time>
      </trkpt>
      <trkpt lat="47.66553" lon="6.04882">
        <ele>250</ele>
        <time>2018-09-19T07:57:37Z</time>
      </trkpt>
      <trkpt lat="47.66548" lon="6.04893">
        <ele>249</ele>
        <time>2018-09-19T07:57:39Z</time>
      </trkpt>
      <trkpt lat="47.66545" lon="6.04899">
        <ele>249</ele>
        <time>2018-09-19T07:57:41Z</time>
      </trkpt>
      <trkpt lat="47.66543" lon="6.04905">
        <ele>249</ele>
        <time>2018-09-19T07:57:45Z</time>
      </trkpt>
      <trkpt lat="47.6654" lon="6.04911">
        <ele>249</ele>
        <time>2018-09-19T07:57:48Z</time>
      </trkpt>
      <trkpt lat="47.66538" lon="6.04918">
        <ele>245</ele>
        <time>2018-09-19T07:59:11Z</time>
      </trkpt>
      <trkpt lat="47.66535" lon="6.04923">
        <ele>245</ele>
        <time>2018-09-19T08:00:00Z</time>
      </trkpt>
      <trkpt lat="47.66531" lon="6.04928">
        <ele>245</ele>
        <time>2018-09-19T08:00:09Z</time>
      </trkpt>
      <trkpt lat="47.66527" lon="6.04936">
        <ele>245</ele>
        <time>2018-09-19T08:00:12Z</time>
      </trkpt>
      <trkpt lat="47.66523" lon="6.04944">
        <ele>244</ele>
        <time>2018-09-19T08:00:15Z</time>
      </trkpt>
      <trkpt lat="47.66521" lon="6.04949">
        <ele>244</ele>
        <time>2018-09-19T08:00:17Z</time>
      </trkpt>
      <trkpt lat="47.66517" lon="6.04957">
        <ele>244</ele>
        <time>2018-09-19T08:00:20Z</time>
      </trkpt>
      <trkpt lat="47.66513" lon="6.04965">
        <ele>243</ele>
        <time>2018-09-19T08:00:23Z</time>
      </trkpt>
      <trkpt lat="47.66509" lon="6.04971">
        <ele>243</ele>
        <time>2018-09-19T08:00:25Z</time>
      </trkpt>
      <trkpt lat="47.66506" lon="6.04977">
        <ele>243</ele>
        <time>2018-09-19T08:00:27Z</time>
      </trkpt>
      <trkpt lat="47.66503" lon="6.04984">
        <ele>242</ele>
        <time>2018-09-19T08:00:29Z</time>
      </trkpt>
      <trkpt lat="47.66499" lon="6.0499">
        <ele>240</ele>
        <time>2018-09-19T08:00:31Z</time>
      </trkpt>
      <trkpt lat="47.66496" lon="6.04996">
        <ele>240</ele>
        <time>2018-09-19T08:00:33Z</time>
      </trkpt>
      <trkpt lat="47.66493" lon="6.05003">
        <ele>241</ele>
        <time>2018-09-19T08:00:36Z</time>
      </trkpt>
      <trkpt lat="47.66491" lon="6.05009">
        <ele>241</ele>
        <time>2018-09-19T08:00:39Z</time>
      </trkpt>
      <trkpt lat="47.66487" lon="6.05014">
        <ele>241</ele>
        <time>2018-09-19T08:00:42Z</time>
      </trkpt>
      <trkpt lat="47.66483" lon="6.0502">
        <ele>242</ele>
        <time>2018-09-19T08:00:45Z</time>
      </trkpt>
      <trkpt lat="47.6648" lon="6.05025">
        <ele>242</ele>
        <time>2018-09-19T08:00:48Z</time>
      </trkpt>
      <trkpt lat="47.66475" lon="6.05026">
        <ele>242</ele>
        <time>2018-09-19T08:00:58Z</time>
      </trkpt>
      <trkpt lat="47.66471" lon="6.0503">
        <ele>242</ele>
        <time>2018-09-19T08:01:07Z</time>
      </trkpt>
      <trkpt lat="47.66469" lon="6.05037">
        <ele>242</ele>
        <time>2018-09-19T08:01:13Z</time>
      </trkpt>
      <trkpt lat="47.6647" lon="6.05043">
        <ele>243</ele>
        <time>2018-09-19T08:01:18Z</time>
      </trkpt>
      <trkpt lat="47.66473" lon="6.05049">
        <ele>243</ele>
        <time>2018-09-19T08:01:23Z</time>
      </trkpt>
      <trkpt lat="47.66475" lon="6.05056">
        <ele>243</ele>
        <time>2018-09-19T08:01:29Z</time>
      </trkpt>
      <trkpt lat="47.66476" lon="6.05063">
        <ele>243</ele>
        <time>2018-09-19T08:01:34Z</time>
      </trkpt>
      <trkpt lat="47.66476" lon="6.0507">
        <ele>243</ele>
        <time>2018-09-19T08:01:44Z</time>
      </trkpt>
      <trkpt lat="47.66473" lon="6.05076">
        <ele>243</ele>
        <time>2018-09-19T08:01:51Z</time>
      </trkpt>
      <trkpt lat="47.66469" lon="6.05079">
        <ele>243</ele>
        <time>2018-09-19T08:01:57Z</time>
      </trkpt>
      <trkpt lat="47.66466" lon="6.05084">
        <ele>246</ele>
        <time>2018-09-19T08:02:05Z</time>
      </trkpt>
      <trkpt lat="47.66462" lon="6.05089">
        <ele>246</ele>
        <time>2018-09-19T08:02:11Z</time>
      </trkpt>
      <trkpt lat="47.66458" lon="6.05094">
        <ele>247</ele>
        <time>2018-09-19T08:02:17Z</time>
      </trkpt>
      <trkpt lat="47.66455" lon="6.05098">
        <ele>247</ele>
        <time>2018-09-19T08:02:24Z</time>
      </trkpt>
      <trkpt lat="47.6645" lon="6.05102">
        <ele>247</ele>
        <time>2018-09-19T08:02:32Z</time>
      </trkpt>
      <trkpt lat="47.66446" lon="6.05104">
        <ele>247</ele>
        <time>2018-09-19T08:02:39Z</time>
      </trkpt>
      <trkpt lat="47.66441" lon="6.05106">
        <ele>248</ele>
        <time>2018-09-19T08:03:15Z</time>
      </trkpt>
      <trkpt lat="47.66436" lon="6.05108">
        <ele>248</ele>
        <time>2018-09-19T08:03:54Z</time>
      </trkpt>
      <trkpt lat="47.66431" lon="6.05112">
        <ele>248</ele>
        <time>2018-09-19T08:03:57Z</time>
      </trkpt>
      <trkpt lat="47.66427" lon="6.05117">
        <ele>248</ele>
        <time>2018-09-19T08:04:00Z</time>
      </trkpt>
      <trkpt lat="47.66423" lon="6.05123">
        <ele>249</ele>
        <time>2018-09-19T08:04:04Z</time>
      </trkpt>
      <trkpt lat="47.6642" lon="6.05129">
        <ele>249</ele>
        <time>2018-09-19T08:04:07Z</time>
      </trkpt>
      <trkpt lat="47.66418" lon="6.05135">
        <ele>249</ele>
        <time>2018-09-19T08:04:11Z</time>
      </trkpt>
      <trkpt lat="47.66415" lon="6.05141">
        <ele>252</ele>
        <time>2018-09-19T08:04:18Z</time>
      </trkpt>
      <trkpt lat="47.66413" lon="6.05147">
        <ele>253</ele>
        <time>2018-09-19T08:04:23Z</time>
      </trkpt>
      <trkpt lat="47.66411" lon="6.05155">
        <ele>253</ele>
        <time>2018-09-19T08:04:28Z</time>
      </trkpt>
      <trkpt lat="47.66408" lon="6.05161">
        <ele>253</ele>
        <time>2018-09-19T08:04:32Z</time>
      </trkpt>
      <trkpt lat="47.66405" lon="6.05167">
        <ele>255</ele>
        <time>2018-09-19T08:04:37Z</time>
      </trkpt>
      <trkpt lat="47.66404" lon="6.05174">
        <ele>255</ele>
        <time>2018-09-19T08:04:43Z</time>
      </trkpt>
      <trkpt lat="47.66399" lon="6.05179">
        <ele>255</ele>
        <time>2018-09-19T08:04:50Z</time>
      </trkpt>
      <trkpt lat="47.66396" lon="6.05183">
        <ele>256</ele>
        <time>2018-09-19T08:04:54Z</time>
      </trkpt>
      <trkpt lat="47.66394" lon="6.05189">
        <ele>256</ele>
        <time>2018-09-19T08:04:59Z</time>
      </trkpt>
      <trkpt lat="47.66391" lon="6.05196">
        <ele>256</ele>
        <time>2018-09-19T08:05:04Z</time>
      </trkpt>
      <trkpt lat="47.66388" lon="6.05203">
        <ele>256</ele>
        <time>2018-09-19T08:05:08Z</time>
      </trkpt>
      <trkpt lat="47.66386" lon="6.0521">
        <ele>256</ele>
        <time>2018-09-19T08:05:11Z</time>
      </trkpt>
      <trkpt lat="47.66383" lon="6.05217">
        <ele>257</ele>
        <time>2018-09-19T08:05:14Z</time>
      </trkpt>
      <trkpt lat="47.6638" lon="6.05222">
        <ele>257</ele>
        <time>2018-09-19T08:05:17Z</time>
      </trkpt>
      <trkpt lat="47.66377" lon="6.05226">
        <ele>257</ele>
        <time>2018-09-19T08:05:20Z</time>
      </trkpt>
      <trkpt lat="47.66373" lon="6.05231">
        <ele>257</ele>
        <time>2018-09-19T08:05:25Z</time>
      </trkpt>
      <trkpt lat="47.6637" lon="6.05236">
        <ele>257</ele>
        <time>2018-09-19T08:05:31Z</time>
      </trkpt>
      <trkpt lat="47.66367" lon="6.05242">
        <ele>257</ele>
        <time>2018-09-19T08:05:37Z</time>
      </trkpt>
      <trkpt lat="47.66364" lon="6.05248">
        <ele>257</ele>
        <time>2018-09-19T08:05:41Z</time>
      </trkpt>
      <trkpt lat="47.66361" lon="6.05253">
        <ele>258</ele>
        <time>2018-09-19T08:05:45Z</time>
      </trkpt>
      <trkpt lat="47.66357" lon="6.05258">
        <ele>258</ele>
        <time>2018-09-19T08:05:49Z</time>
      </trkpt>
      <trkpt lat="47.66355" lon="6.05265">
        <ele>258</ele>
        <time>2018-09-19T08:05:54Z</time>
      </trkpt>
      <trkpt lat="47.66352" lon="6.05271">
        <ele>258</ele>
        <time>2018-09-19T08:05:58Z</time>
      </trkpt>
      <trkpt lat="47.66349" lon="6.05277">
        <ele>258</ele>
        <time>2018-09-19T08:06:02Z</time>
      </trkpt>
      <trkpt lat="47.66346" lon="6.05283">
        <ele>259</ele>
        <time>2018-09-19T08:06:05Z</time>
      </trkpt>
      <trkpt lat="47.66343" lon="6.05289">
        <ele>259</ele>
        <time>2018-09-19T08:06:09Z</time>
      </trkpt>
      <trkpt lat="47.6634" lon="6.05294">
        <ele>259</ele>
        <time>2018-09-19T08:06:36Z</time>
      </trkpt>
      <trkpt lat="47.66337" lon="6.053">
        <ele>259</ele>
        <time>2018-09-19T08:06:48Z</time>
      </trkpt>
      <trkpt lat="47.66333" lon="6.05305">
        <ele>260</ele>
        <time>2018-09-19T08:06:51Z</time>
      </trkpt>
      <trkpt lat="47.6633" lon="6.05309">
        <ele>260</ele>
        <time>2018-09-19T08:06:54Z</time>
      </trkpt>
      <trkpt lat="47.66325" lon="6.05315">
        <ele>260</ele>
        <time>2018-09-19T08:06:58Z</time>
      </trkpt>
      <trkpt lat="47.66321" lon="6.05321">
        <ele>260</ele>
        <time>2018-09-19T08:07:01Z</time>
      </trkpt>
      <trkpt lat="47.66317" lon="6.05327">
        <ele>260</ele>
        <time>2018-09-19T08:07:04Z</time>
      </trkpt>
      <trkpt lat="47.66313" lon="6.05334">
        <ele>260</ele>
        <time>2018-09-19T08:07:07Z</time>
      </trkpt>
      <trkpt lat="47.66311" lon="6.05339">
        <ele>260</ele>
        <time>2018-09-19T08:07:09Z</time>
      </trkpt>
      <trkpt lat="47.66308" lon="6.05347">
        <ele>259</ele>
        <time>2018-09-19T08:07:11Z</time>
      </trkpt>
      <trkpt lat="47.66304" lon="6.05353">
        <ele>259</ele>
        <time>2018-09-19T08:07:13Z</time>
      </trkpt>
      <trkpt lat="47.663" lon="6.05359">
        <ele>259</ele>
        <time>2018-09-19T08:07:15Z</time>
      </trkpt>
      <trkpt lat="47.66296" lon="6.05365">
        <ele>259</ele>
        <time>2018-09-19T08:07:17Z</time>
      </trkpt>
      <trkpt lat="47.66292" lon="6.05374">
        <ele>259</ele>
        <time>2018-09-19T08:07:19Z</time>
      </trkpt>
      <trkpt lat="47.66288" lon="6.05384">
        <ele>259</ele>
        <time>2018-09-19T08:07:21Z</time>
      </trkpt>
      <trkpt lat="47.66283" lon="6.05394">
        <ele>259</ele>
        <time>2018-09-19T08:07:23Z</time>
      </trkpt>
      <trkpt lat="47.66278" lon="6.05404">
        <ele>258</ele>
        <time>2018-09-19T08:07:25Z</time>
      </trkpt>
      <trkpt lat="47.66273" lon="6.05414">
        <ele>258</ele>
        <time>2018-09-19T08:07:27Z</time>
      </trkpt>
      <trkpt lat="47.66269" lon="6.05422">
        <ele>256</ele>
        <time>2018-09-19T08:07:29Z</time>
      </trkpt>
      <trkpt lat="47.66265" lon="6.05429">
        <ele>256</ele>
        <time>2018-09-19T08:07:31Z</time>
      </trkpt>
      <trkpt lat="47.66261" lon="6.05435">
        <ele>256</ele>
        <time>2018-09-19T08:07:33Z</time>
      </trkpt>
      <trkpt lat="47.66257" lon="6.05441">
        <ele>256</ele>
        <time>2018-09-19T08:07:35Z</time>
      </trkpt>
      <trkpt lat="47.66254" lon="6.05448">
        <ele>256</ele>
        <time>2018-09-19T08:07:37Z</time>
      </trkpt>
      <trkpt lat="47.66251" lon="6.05454">
        <ele>255</ele>
        <time>2018-09-19T08:07:39Z</time>
      </trkpt>
      <trkpt lat="47.66248" lon="6.05459">
        <ele>254</ele>
        <time>2018-09-19T08:07:41Z</time>
      </trkpt>
      <trkpt lat="47.66244" lon="6.05464">
        <ele>253</ele>
        <time>2018-09-19T08:07:43Z</time>
      </trkpt>
      <trkpt lat="47.66241" lon="6.0547">
        <ele>253</ele>
        <time>2018-09-19T08:07:45Z</time>
      </trkpt>
      <trkpt lat="47.66236" lon="6.05477">
        <ele>253</ele>
        <time>2018-09-19T08:07:47Z</time>
      </trkpt>
      <trkpt lat="47.6623" lon="6.05486">
        <ele>253</ele>
        <time>2018-09-19T08:07:49Z</time>
      </trkpt>
      <trkpt lat="47.66226" lon="6.05494">
        <ele>253</ele>
        <time>2018-09-19T08:07:51Z</time>
      </trkpt>
      <trkpt lat="47.66222" lon="6.05501">
        <ele>253</ele>
        <time>2018-09-19T08:07:53Z</time>
      </trkpt>
      <trkpt lat="47.66218" lon="6.05507">
        <ele>253</ele>
        <time>2018-09-19T08:07:55Z</time>
      </trkpt>
      <trkpt lat="47.66216" lon="6.05514">
        <ele>253</ele>
        <time>2018-09-19T08:07:57Z</time>
      </trkpt>
      <trkpt lat="47.66214" lon="6.05525">
        <ele>253</ele>
        <time>2018-09-19T08:07:59Z</time>
      </trkpt>
      <trkpt lat="47.66212" lon="6.05533">
        <ele>253</ele>
        <time>2018-09-19T08:08:00Z</time>
      </trkpt>
      <trkpt lat="47.66211" lon="6.0554">
        <ele>253</ele>
        <time>2018-09-19T08:08:01Z</time>
      </trkpt>
      <trkpt lat="47.66209" lon="6.05551">
        <ele>253</ele>
        <time>2018-09-19T08:08:03Z</time>
      </trkpt>
      <trkpt lat="47.66207" lon="6.0556">
        <ele>253</ele>
        <time>2018-09-19T08:08:05Z</time>
      </trkpt>
      <trkpt lat="47.66206" lon="6.05567">
        <ele>253</ele>
        <time>2018-09-19T08:08:07Z</time>
      </trkpt>
      <trkpt lat="47.66204" lon="6.05575">
        <ele>253</ele>
        <time>2018-09-19T08:08:10Z</time>
      </trkpt>
      <trkpt lat="47.66203" lon="6.05582">
        <ele>253</ele>
        <time>2018-09-19T08:08:13Z</time>
      </trkpt>
      <trkpt lat="47.66201" lon="6.0559">
        <ele>251</ele>
        <time>2018-09-19T08:08:17Z</time>
      </trkpt>
      <trkpt lat="47.66201" lon="6.05597">
        <ele>251</ele>
        <time>2018-09-19T08:08:20Z</time>
      </trkpt>
      <trkpt lat="47.66202" lon="6.05605">
        <ele>251</ele>
        <time>2018-09-19T08:08:24Z</time>
      </trkpt>
      <trkpt lat="47.66203" lon="6.05612">
        <ele>251</ele>
        <time>2018-09-19T08:08:27Z</time>
      </trkpt>
      <trkpt lat="47.66204" lon="6.05619">
        <ele>251</ele>
        <time>2018-09-19T08:08:31Z</time>
      </trkpt>
      <trkpt lat="47.662" lon="6.05621">
        <ele>251</ele>
        <time>2018-09-19T08:08:36Z</time>
      </trkpt>
      <trkpt lat="47.66195" lon="6.05621">
        <ele>251</ele>
        <time>2018-09-19T08:08:40Z</time>
      </trkpt>
      <trkpt lat="47.66189" lon="6.0562">
        <ele>250</ele>
        <time>2018-09-19T08:08:44Z</time>
      </trkpt>
      <trkpt lat="47.66184" lon="6.0562">
        <ele>250</ele>
        <time>2018-09-19T08:08:47Z</time>
      </trkpt>
      <trkpt lat="47.66178" lon="6.0562">
        <ele>250</ele>
        <time>2018-09-19T08:08:50Z</time>
      </trkpt>
      <trkpt lat="47.66172" lon="6.05621">
        <ele>250</ele>
        <time>2018-09-19T08:08:53Z</time>
      </trkpt>
      <trkpt lat="47.66166" lon="6.05622">
        <ele>249</ele>
        <time>2018-09-19T08:08:56Z</time>
      </trkpt>
      <trkpt lat="47.6616" lon="6.05622">
        <ele>249</ele>
        <time>2018-09-19T08:08:59Z</time>
      </trkpt>
      <trkpt lat="47.66154" lon="6.05622">
        <ele>249</ele>
        <time>2018-09-19T08:09:02Z</time>
      </trkpt>
      <trkpt lat="47.66148" lon="6.05621">
        <ele>249</ele>
        <time>2018-09-19T08:09:04Z</time>
      </trkpt>
      <trkpt lat="47.66143" lon="6.05621">
        <ele>249</ele>
        <time>2018-09-19T08:09:06Z</time>
      </trkpt>
      <trkpt lat="47.66135" lon="6.05621">
        <ele>249</ele>
        <time>2018-09-19T08:09:08Z</time>
      </trkpt>
      <trkpt lat="47.66127" lon="6.0562">
        <ele>249</ele>
        <time>2018-09-19T08:09:10Z</time>
      </trkpt>
      <trkpt lat="47.66119" lon="6.05619">
        <ele>249</ele>
        <time>2018-09-19T08:09:12Z</time>
      </trkpt>
      <trkpt lat="47.66111" lon="6.05618">
        <ele>249</ele>
        <time>2018-09-19T08:09:14Z</time>
      </trkpt>
      <trkpt lat="47.66104" lon="6.05618">
        <ele>249</ele>
        <time>2018-09-19T08:09:16Z</time>
      </trkpt>
      <trkpt lat="47.66095" lon="6.05617">
        <ele>249</ele>
        <time>2018-09-19T08:09:18Z</time>
      </trkpt>
      <trkpt lat="47.66087" lon="6.05618">
        <ele>249</ele>
        <time>2018-09-19T08:09:20Z</time>
      </trkpt>
      <trkpt lat="47.66082" lon="6.05618">
        <ele>246</ele>
        <time>2018-09-19T08:09:21Z</time>
      </trkpt>
      <trkpt lat="47.66076" lon="6.05619">
        <ele>246</ele>
        <time>2018-09-19T08:09:22Z</time>
      </trkpt>
      <trkpt lat="47.66071" lon="6.05619">
        <ele>246</ele>
        <time>2018-09-19T08:09:23Z</time>
      </trkpt>
      <trkpt lat="47.66065" lon="6.0562">
        <ele>246</ele>
        <time>2018-09-19T08:09:24Z</time>
      </trkpt>
      <trkpt lat="47.6606" lon="6.05621">
        <ele>245</ele>
        <time>2018-09-19T08:09:25Z</time>
      </trkpt>
      <trkpt lat="47.66044" lon="6.05626">
        <ele>244</ele>
        <time>2018-09-19T08:09:26Z</time>
      </trkpt>
      <trkpt lat="47.66038" lon="6.05631">
        <ele>244</ele>
        <time>2018-09-19T08:09:27Z</time>
      </trkpt>
      <trkpt lat="47.66031" lon="6.05634">
        <ele>243</ele>
        <time>2018-09-19T08:09:28Z</time>
      </trkpt>
      <trkpt lat="47.66025" lon="6.05639">
        <ele>243</ele>
        <time>2018-09-19T08:09:29Z</time>
      </trkpt>
      <trkpt lat="47.66019" lon="6.05644">
        <ele>242</ele>
        <time>2018-09-19T08:09:30Z</time>
      </trkpt>
      <trkpt lat="47.66014" lon="6.05648">
        <ele>241</ele>
        <time>2018-09-19T08:09:31Z</time>
      </trkpt>
      <trkpt lat="47.66009" lon="6.05651">
        <ele>240</ele>
        <time>2018-09-19T08:09:32Z</time>
      </trkpt>
      <trkpt lat="47.66005" lon="6.05655">
        <ele>239</ele>
        <time>2018-09-19T08:09:33Z</time>
      </trkpt>
      <trkpt lat="47.66" lon="6.05659">
        <ele>238</ele>
        <time>2018-09-19T08:09:34Z</time>
      </trkpt>
      <trkpt lat="47.65995" lon="6.05663">
        <ele>236</ele>
        <time>2018-09-19T08:09:35Z</time>
      </trkpt>
      <trkpt lat="47.65991" lon="6.05666">
        <ele>236</ele>
        <time>2018-09-19T08:09:36Z</time>
      </trkpt>
      <trkpt lat="47.65986" lon="6.0567">
        <ele>234</ele>
        <time>2018-09-19T08:09:37Z</time>
      </trkpt>
      <trkpt lat="47.6598" lon="6.05673">
        <ele>233</ele>
        <time>2018-09-19T08:09:38Z</time>
      </trkpt>
      <trkpt lat="47.65974" lon="6.05675">
        <ele>233</ele>
        <time>2018-09-19T08:09:39Z</time>
      </trkpt>
      <trkpt lat="47.65968" lon="6.05677">
        <ele>232</ele>
        <time>2018-09-19T08:09:40Z</time>
      </trkpt>
      <trkpt lat="47.65961" lon="6.05678">
        <ele>232</ele>
        <time>2018-09-19T08:09:41Z</time>
      </trkpt>
      <trkpt lat="47.65955" lon="6.05677">
        <ele>232</ele>
        <time>2018-09-19T08:09:42Z</time>
      </trkpt>
      <trkpt lat="47.65949" lon="6.05676">
        <ele>232</ele>
        <time>2018-09-19T08:09:43Z</time>
      </trkpt>
      <trkpt lat="47.65943" lon="6.05674">
        <ele>232</ele>
        <time>2018-09-19T08:09:44Z</time>
      </trkpt>
      <trkpt lat="47.65937" lon="6.05673">
        <ele>232</ele>
        <time>2018-09-19T08:09:45Z</time>
      </trkpt>
      <trkpt lat="47.6593" lon="6.05672">
        <ele>232</ele>
        <time>2018-09-19T08:09:46Z</time>
      </trkpt>
      <trkpt lat="47.65924" lon="6.05671">
        <ele>232</ele>
        <time>2018-09-19T08:09:47Z</time>
      </trkpt>
      <trkpt lat="47.65918" lon="6.0567">
        <ele>232</ele>
        <time>2018-09-19T08:09:48Z</time>
      </trkpt>
      <trkpt lat="47.65912" lon="6.05669">
        <ele>231</ele>
        <time>2018-09-19T08:09:49Z</time>
      </trkpt>
      <trkpt lat="47.65906" lon="6.05669">
        <ele>229</ele>
        <time>2018-09-19T08:09:50Z</time>
      </trkpt>
      <trkpt lat="47.65899" lon="6.05668">
        <ele>228</ele>
        <time>2018-09-19T08:09:51Z</time>
      </trkpt>
      <trkpt lat="47.65891" lon="6.05669">
        <ele>227</ele>
        <time>2018-09-19T08:09:52Z</time>
      </trkpt>
      <trkpt lat="47.65883" lon="6.0567">
        <ele>227</ele>
        <time>2018-09-19T08:09:53Z</time>
      </trkpt>
      <trkpt lat="47.65876" lon="6.05672">
        <ele>226</ele>
        <time>2018-09-19T08:09:54Z</time>
      </trkpt>
      <trkpt lat="47.65868" lon="6.05673">
        <ele>225</ele>
        <time>2018-09-19T08:09:55Z</time>
      </trkpt>
      <trkpt lat="47.65861" lon="6.05676">
        <ele>225</ele>
        <time>2018-09-19T08:09:56Z</time>
      </trkpt>
      <trkpt lat="47.65854" lon="6.05681">
        <ele>225</ele>
        <time>2018-09-19T08:09:57Z</time>
      </trkpt>
      <trkpt lat="47.65848" lon="6.05687">
        <ele>224</ele>
        <time>2018-09-19T08:09:58Z</time>
      </trkpt>
      <trkpt lat="47.65841" lon="6.05693">
        <ele>224</ele>
        <time>2018-09-19T08:09:59Z</time>
      </trkpt>
      <trkpt lat="47.65834" lon="6.05699">
        <ele>224</ele>
        <time>2018-09-19T08:10:00Z</time>
      </trkpt>
      <trkpt lat="47.65828" lon="6.05704">
        <ele>220</ele>
        <time>2018-09-19T08:10:01Z</time>
      </trkpt>
      <trkpt lat="47.65822" lon="6.05709">
        <ele>220</ele>
        <time>2018-09-19T08:10:02Z</time>
      </trkpt>
      <trkpt lat="47.65817" lon="6.05714">
        <ele>219</ele>
        <time>2018-09-19T08:10:03Z</time>
      </trkpt>
      <trkpt lat="47.65812" lon="6.05717">
        <ele>219</ele>
        <time>2018-09-19T08:10:04Z</time>
      </trkpt>
      <trkpt lat="47.65808" lon="6.0572">
        <ele>219</ele>
        <time>2018-09-19T08:10:05Z</time>
      </trkpt>
      <trkpt lat="47.65804" lon="6.05724">
        <ele>219</ele>
        <time>2018-09-19T08:10:06Z</time>
      </trkpt>
      <trkpt lat="47.658" lon="6.05727">
        <ele>219</ele>
        <time>2018-09-19T08:10:07Z</time>
      </trkpt>
      <trkpt lat="47.65796" lon="6.0573">
        <ele>219</ele>
        <time>2018-09-19T08:10:08Z</time>
      </trkpt>
      <trkpt lat="47.65791" lon="6.05733">
        <ele>218</ele>
        <time>2018-09-19T08:10:09Z</time>
      </trkpt>
      <trkpt lat="47.65786" lon="6.05735">
        <ele>218</ele>
        <time>2018-09-19T08:10:10Z</time>
      </trkpt>
      <trkpt lat="47.6578" lon="6.05738">
        <ele>218</ele>
        <time>2018-09-19T08:10:11Z</time>
      </trkpt>
      <trkpt lat="47.65774" lon="6.05741">
        <ele>218</ele>
        <time>2018-09-19T08:10:12Z</time>
      </trkpt>
      <trkpt lat="47.65769" lon="6.05747">
        <ele>217</ele>
        <time>2018-09-19T08:10:13Z</time>
      </trkpt>
      <trkpt lat="47.65763" lon="6.05752">
        <ele>216</ele>
        <time>2018-09-19T08:10:14Z</time>
      </trkpt>
      <trkpt lat="47.65758" lon="6.05757">
        <ele>216</ele>
        <time>2018-09-19T08:10:15Z</time>
      </trkpt>
      <trkpt lat="47.65753" lon="6.05762">
        <ele>216</ele>
        <time>2018-09-19T08:10:16Z</time>
      </trkpt>
      <trkpt lat="47.65749" lon="6.05767">
        <ele>216</ele>
        <time>2018-09-19T08:10:17Z</time>
      </trkpt>
      <trkpt lat="47.65745" lon="6.05772">
        <ele>216</ele>
        <time>2018-09-19T08:10:18Z</time>
      </trkpt>
      <trkpt lat="47.6574" lon="6.05776">
        <ele>216</ele>
        <time>2018-09-19T08:10:19Z</time>
      </trkpt>
      <trkpt lat="47.65735" lon="6.05778">
        <ele>216</ele>
        <time>2018-09-19T08:10:20Z</time>
      </trkpt>
      <trkpt lat="47.65728" lon="6.05781">
        <ele>216</ele>
        <time>2018-09-19T08:10:21Z</time>
      </trkpt>
      <trkpt lat="47.65722" lon="6.05782">
        <ele>216</ele>
        <time>2018-09-19T08:10:22Z</time>
      </trkpt>
      <trkpt lat="47.65715" lon="6.05782">
        <ele>216</ele>
        <time>2018-09-19T08:10:23Z</time>
      </trkpt>
      <trkpt lat="47.65709" lon="6.05782">
        <ele>216</ele>
        <time>2018-09-19T08:10:24Z</time>
      </trkpt>
      <trkpt lat="47.65703" lon="6.05781">
        <ele>216</ele>
        <time>2018-09-19T08:10:25Z</time>
      </trkpt>
      <trkpt lat="47.65697" lon="6.0578">
        <ele>216</ele>
        <time>2018-09-19T08:10:26Z</time>
      </trkpt>
      <trkpt lat="47.6569" lon="6.05779">
        <ele>216</ele>
        <time>2018-09-19T08:10:27Z</time>
      </trkpt>
      <trkpt lat="47.65685" lon="6.05778">
        <ele>216</ele>
        <time>2018-09-19T08:10:28Z</time>
      </trkpt>
      <trkpt lat="47.65679" lon="6.05778">
        <ele>216</ele>
        <time>2018-09-19T08:10:29Z</time>
      </trkpt>
      <trkpt lat="47.65673" lon="6.05779">
        <ele>216</ele>
        <time>2018-09-19T08:10:30Z</time>
      </trkpt>
      <trkpt lat="47.65668" lon="6.05779">
        <ele>216</ele>
        <time>2018-09-19T08:10:31Z</time>
      </trkpt>
      <trkpt lat="47.65664" lon="6.05779">
        <ele>216</ele>
        <time>2018-09-19T08:10:32Z</time>
      </trkpt>
      <trkpt lat="47.65658" lon="6.05779">
        <ele>216</ele>
        <time>2018-09-19T08:10:33Z</time>
      </trkpt>
      <trkpt lat="47.65654" lon="6.05778">
        <ele>216</ele>
        <time>2018-09-19T08:10:34Z</time>
      </trkpt>
      <trkpt lat="47.65649" lon="6.05775">
        <ele>216</ele>
        <time>2018-09-19T08:10:35Z</time>
      </trkpt>
      <trkpt lat="47.65642" lon="6.05769">
        <ele>216</ele>
        <time>2018-09-19T08:10:37Z</time>
      </trkpt>
      <trkpt lat="47.65636" lon="6.05761">
        <ele>216</ele>
        <time>2018-09-19T08:10:39Z</time>
      </trkpt>
      <trkpt lat="47.65631" lon="6.05753">
        <ele>217</ele>
        <time>2018-09-19T08:10:41Z</time>
      </trkpt>
      <trkpt lat="47.65627" lon="6.05745">
        <ele>216</ele>
        <time>2018-09-19T08:10:43Z</time>
      </trkpt>
      <trkpt lat="47.65621" lon="6.05737">
        <ele>216</ele>
        <time>2018-09-19T08:10:45Z</time>
      </trkpt>
      <trkpt lat="47.65616" lon="6.05727">
        <ele>216</ele>
        <time>2018-09-19T08:10:47Z</time>
      </trkpt>
      <trkpt lat="47.6561" lon="6.0572">
        <ele>216</ele>
        <time>2018-09-19T08:10:49Z</time>
      </trkpt>
      <trkpt lat="47.65605" lon="6.05713">
        <ele>216</ele>
        <time>2018-09-19T08:10:51Z</time>
      </trkpt>
      <trkpt lat="47.65603" lon="6.05707">
        <ele>216</ele>
        <time>2018-09-19T08:10:53Z</time>
      </trkpt>
      <trkpt lat="47.656" lon="6.05701">
        <ele>216</ele>
        <time>2018-09-19T08:10:54Z</time>
      </trkpt>
      <trkpt lat="47.65595" lon="6.05693">
        <ele>216</ele>
        <time>2018-09-19T08:10:57Z</time>
      </trkpt>
      <trkpt lat="47.6559" lon="6.05688">
        <ele>216</ele>
        <time>2018-09-19T08:10:59Z</time>
      </trkpt>
      <trkpt lat="47.65584" lon="6.05682">
        <ele>216</ele>
        <time>2018-09-19T08:11:01Z</time>
      </trkpt>
      <trkpt lat="47.65577" lon="6.05677">
        <ele>217</ele>
        <time>2018-09-19T08:11:03Z</time>
      </trkpt>
      <trkpt lat="47.65572" lon="6.05673">
        <ele>217</ele>
        <time>2018-09-19T08:11:05Z</time>
      </trkpt>
      <trkpt lat="47.65568" lon="6.05669">
        <ele>217</ele>
        <time>2018-09-19T08:11:08Z</time>
      </trkpt>
      <trkpt lat="47.65564" lon="6.05665">
        <ele>217</ele>
        <time>2018-09-19T08:13:06Z</time>
      </trkpt>
      <trkpt lat="47.65561" lon="6.05661">
        <ele>217</ele>
        <time>2018-09-19T08:13:10Z</time>
      </trkpt>
      <trkpt lat="47.65557" lon="6.05657">
        <ele>217</ele>
        <time>2018-09-19T08:13:13Z</time>
      </trkpt>
      <trkpt lat="47.65553" lon="6.05653">
        <ele>217</ele>
        <time>2018-09-19T08:13:17Z</time>
      </trkpt>
      <trkpt lat="47.65547" lon="6.05651">
        <ele>217</ele>
        <time>2018-09-19T08:13:20Z</time>
      </trkpt>
      <trkpt lat="47.6554" lon="6.05652">
        <ele>218</ele>
        <time>2018-09-19T08:13:23Z</time>
      </trkpt>
      <trkpt lat="47.65535" lon="6.05655">
        <ele>218</ele>
        <time>2018-09-19T08:13:25Z</time>
      </trkpt>
      <trkpt lat="47.6553" lon="6.0566">
        <ele>218</ele>
        <time>2018-09-19T08:13:27Z</time>
      </trkpt>
      <trkpt lat="47.65526" lon="6.05666">
        <ele>218</ele>
        <time>2018-09-19T08:13:29Z</time>
      </trkpt>
      <trkpt lat="47.65522" lon="6.05672">
        <ele>219</ele>
        <time>2018-09-19T08:13:31Z</time>
      </trkpt>
      <trkpt lat="47.65519" lon="6.05677">
        <ele>219</ele>
        <time>2018-09-19T08:13:33Z</time>
      </trkpt>
      <trkpt lat="47.65514" lon="6.05682">
        <ele>219</ele>
        <time>2018-09-19T08:13:35Z</time>
      </trkpt>
      <trkpt lat="47.6551" lon="6.05684">
        <ele>220</ele>
        <time>2018-09-19T08:13:37Z</time>
      </trkpt>
      <trkpt lat="47.65505" lon="6.05685">
        <ele>220</ele>
        <time>2018-09-19T08:13:39Z</time>
      </trkpt>
      <trkpt lat="47.655" lon="6.05681">
        <ele>220</ele>
        <time>2018-09-19T08:13:42Z</time>
      </trkpt>
      <trkpt lat="47.65498" lon="6.05673">
        <ele>222</ele>
        <time>2018-09-19T08:13:45Z</time>
      </trkpt>
      <trkpt lat="47.65496" lon="6.05667">
        <ele>221</ele>
        <time>2018-09-19T08:13:47Z</time>
      </trkpt>
      <trkpt lat="47.65495" lon="6.0566">
        <ele>222</ele>
        <time>2018-09-19T08:13:49Z</time>
      </trkpt>
      <trkpt lat="47.65494" lon="6.05653">
        <ele>223</ele>
        <time>2018-09-19T08:13:51Z</time>
      </trkpt>
      <trkpt lat="47.65493" lon="6.05644">
        <ele>223</ele>
        <time>2018-09-19T08:13:53Z</time>
      </trkpt>
      <trkpt lat="47.65492" lon="6.05635">
        <ele>224</ele>
        <time>2018-09-19T08:13:55Z</time>
      </trkpt>
      <trkpt lat="47.65492" lon="6.05626">
        <ele>224</ele>
        <time>2018-09-19T08:13:57Z</time>
      </trkpt>
      <trkpt lat="47.65491" lon="6.05616">
        <ele>223</ele>
        <time>2018-09-19T08:13:59Z</time>
      </trkpt>
      <trkpt lat="47.65491" lon="6.05606">
        <ele>223</ele>
        <time>2018-09-19T08:14:01Z</time>
      </trkpt>
      <trkpt lat="47.65491" lon="6.05598">
        <ele>222</ele>
        <time>2018-09-19T08:14:03Z</time>
      </trkpt>
      <trkpt lat="47.65491" lon="6.0559">
        <ele>221</ele>
        <time>2018-09-19T08:14:05Z</time>
      </trkpt>
      <trkpt lat="47.65491" lon="6.05582">
        <ele>221</ele>
        <time>2018-09-19T08:14:07Z</time>
      </trkpt>
      <trkpt lat="47.65491" lon="6.05573">
        <ele>221</ele>
        <time>2018-09-19T08:14:09Z</time>
      </trkpt>
      <trkpt lat="47.6549" lon="6.05563">
        <ele>222</ele>
        <time>2018-09-19T08:14:11Z</time>
      </trkpt>
      <trkpt lat="47.65489" lon="6.05551">
        <ele>222</ele>
        <time>2018-09-19T08:14:13Z</time>
      </trkpt>
      <trkpt lat="47.65488" lon="6.0554">
        <ele>222</ele>
        <time>2018-09-19T08:14:15Z</time>
      </trkpt>
      <trkpt lat="47.65487" lon="6.05527">
        <ele>222</ele>
        <time>2018-09-19T08:14:16Z</time>
      </trkpt>
      <trkpt lat="47.65484" lon="6.05515">
        <ele>221</ele>
        <time>2018-09-19T08:14:18Z</time>
      </trkpt>
      <trkpt lat="47.65483" lon="6.05503">
        <ele>221</ele>
        <time>2018-09-19T08:14:20Z</time>
      </trkpt>
      <trkpt lat="47.6548" lon="6.05493">
        <ele>220</ele>
        <time>2018-09-19T08:14:22Z</time>
      </trkpt>
      <trkpt lat="47.65475" lon="6.05488">
        <ele>220</ele>
        <time>2018-09-19T08:14:24Z</time>
      </trkpt>
      <trkpt lat="47.65471" lon="6.05485">
        <ele>221</ele>
        <time>2018-09-19T08:14:26Z</time>
      </trkpt>
      <trkpt lat="47.65466" lon="6.05482">
        <ele>221</ele>
        <time>2018-09-19T08:14:28Z</time>
      </trkpt>
      <trkpt lat="47.65462" lon="6.05479">
        <ele>221</ele>
        <time>2018-09-19T08:14:30Z</time>
      </trkpt>
      <trkpt lat="47.65457" lon="6.05476">
        <ele>222</ele>
        <time>2018-09-19T08:14:33Z</time>
      </trkpt>
      <trkpt lat="47.65452" lon="6.05472">
        <ele>222</ele>
        <time>2018-09-19T08:14:36Z</time>
      </trkpt>
      <trkpt lat="47.65448" lon="6.05468">
        <ele>222</ele>
        <time>2018-09-19T08:14:39Z</time>
      </trkpt>
      <trkpt lat="47.65444" lon="6.05464">
        <ele>222</ele>
        <time>2018-09-19T08:14:42Z</time>
      </trkpt>
      <trkpt lat="47.65439" lon="6.05459">
        <ele>222</ele>
        <time>2018-09-19T08:14:46Z</time>
      </trkpt>
      <trkpt lat="47.65435" lon="6.05453">
        <ele>222</ele>
        <time>2018-09-19T08:14:50Z</time>
      </trkpt>
      <trkpt lat="47.65432" lon="6.05447">
        <ele>222</ele>
        <time>2018-09-19T08:14:53Z</time>
      </trkpt>
      <trkpt lat="47.65428" lon="6.05441">
        <ele>223</ele>
        <time>2018-09-19T08:14:57Z</time>
      </trkpt>
      <trkpt lat="47.65425" lon="6.05435">
        <ele>223</ele>
        <time>2018-09-19T08:15:00Z</time>
      </trkpt>
      <trkpt lat="47.65421" lon="6.0543">
        <ele>223</ele>
        <time>2018-09-19T08:15:03Z</time>
      </trkpt>
      <trkpt lat="47.65418" lon="6.05425">
        <ele>223</ele>
        <time>2018-09-19T08:15:06Z</time>
      </trkpt>
      <trkpt lat="47.65414" lon="6.0542">
        <ele>225</ele>
        <time>2018-09-19T08:15:10Z</time>
      </trkpt>
      <trkpt lat="47.65409" lon="6.05415">
        <ele>225</ele>
        <time>2018-09-19T08:15:14Z</time>
      </trkpt>
      <trkpt lat="47.65405" lon="6.0541">
        <ele>225</ele>
        <time>2018-09-19T08:15:18Z</time>
      </trkpt>
      <trkpt lat="47.65401" lon="6.05406">
        <ele>226</ele>
        <time>2018-09-19T08:15:22Z</time>
      </trkpt>
      <trkpt lat="47.65397" lon="6.05402">
        <ele>226</ele>
        <time>2018-09-19T08:15:26Z</time>
      </trkpt>
      <trkpt lat="47.65393" lon="6.05398">
        <ele>226</ele>
        <time>2018-09-19T08:15:30Z</time>
      </trkpt>
      <trkpt lat="47.65388" lon="6.05393">
        <ele>227</ele>
        <time>2018-09-19T08:15:34Z</time>
      </trkpt>
      <trkpt lat="47.65384" lon="6.05389">
        <ele>227</ele>
        <time>2018-09-19T08:15:38Z</time>
      </trkpt>
      <trkpt lat="47.6538" lon="6.05385">
        <ele>227</ele>
        <time>2018-09-19T08:15:42Z</time>
      </trkpt>
      <trkpt lat="47.65376" lon="6.0538">
        <ele>227</ele>
        <time>2018-09-19T08:15:46Z</time>
      </trkpt>
      <trkpt lat="47.65373" lon="6.05375">
        <ele>227</ele>
        <time>2018-09-19T08:15:50Z</time>
      </trkpt>
      <trkpt lat="47.6537" lon="6.0537">
        <ele>227</ele>
        <time>2018-09-19T08:15:54Z</time>
      </trkpt>
      <trkpt lat="47.65367" lon="6.05365">
        <ele>228</ele>
        <time>2018-09-19T08:15:58Z</time>
      </trkpt>
      <trkpt lat="47.65363" lon="6.0536">
        <ele>228</ele>
        <time>2018-09-19T08:16:02Z</time>
      </trkpt>
      <trkpt lat="47.6536" lon="6.05353">
        <ele>228</ele>
        <time>2018-09-19T08:16:07Z</time>
      </trkpt>
      <trkpt lat="47.65358" lon="6.05347">
        <ele>228</ele>
        <time>2018-09-19T08:16:11Z</time>
      </trkpt>
      <trkpt lat="47.65354" lon="6.05341">
        <ele>229</ele>
        <time>2018-09-19T08:16:15Z</time>
      </trkpt>
      <trkpt lat="47.65351" lon="6.05335">
        <ele>229</ele>
        <time>2018-09-19T08:16:19Z</time>
      </trkpt>
      <trkpt lat="47.65348" lon="6.0533">
        <ele>228</ele>
        <time>2018-09-19T08:16:25Z</time>
      </trkpt>
      <trkpt lat="47.65346" lon="6.05324">
        <ele>228</ele>
        <time>2018-09-19T08:16:30Z</time>
      </trkpt>
      <trkpt lat="47.65344" lon="6.05318">
        <ele>228</ele>
        <time>2018-09-19T08:16:34Z</time>
      </trkpt>
      <trkpt lat="47.65341" lon="6.05312">
        <ele>227</ele>
        <time>2018-09-19T08:16:39Z</time>
      </trkpt>
      <trkpt lat="47.65342" lon="6.0532">
        <ele>228</ele>
        <time>2018-09-19T08:16:48Z</time>
      </trkpt>
      <trkpt lat="47.65345" lon="6.05326">
        <ele>228</ele>
        <time>2018-09-19T08:16:51Z</time>
      </trkpt>
      <trkpt lat="47.65349" lon="6.0533">
        <ele>228</ele>
        <time>2018-09-19T08:19:37Z</time>
      </trkpt>
      <trkpt lat="47.65344" lon="6.0533">
        <ele>229</ele>
        <time>2018-09-19T08:23:06Z</time>
      </trkpt>
      <trkpt lat="47.65348" lon="6.05326">
        <ele>228</ele>
        <time>2018-09-19T08:24:50Z</time>
      </trkpt>
      <trkpt lat="47.65346" lon="6.05319">
        <ele>228</ele>
        <time>2018-09-19T08:24:55Z</time>
      </trkpt>
      <trkpt lat="47.65343" lon="6.05312">
        <ele>227</ele>
        <time>2018-09-19T08:24:59Z</time>
      </trkpt>
      <trkpt lat="47.6534" lon="6.05306">
        <ele>227</ele>
        <time>2018-09-19T08:25:02Z</time>
      </trkpt>
      <trkpt lat="47.65338" lon="6.053">
        <ele>227</ele>
        <time>2018-09-19T08:25:05Z</time>
      </trkpt>
      <trkpt lat="47.65335" lon="6.05294">
        <ele>227</ele>
        <time>2018-09-19T08:25:08Z</time>
      </trkpt>
      <trkpt lat="47.65333" lon="6.05287">
        <ele>234</ele>
        <time>2018-09-19T08:25:11Z</time>
      </trkpt>
      <trkpt lat="47.6533" lon="6.05279">
        <ele>233</ele>
        <time>2018-09-19T08:25:15Z</time>
      </trkpt>
      <trkpt lat="47.65329" lon="6.05272">
        <ele>233</ele>
        <time>2018-09-19T08:25:18Z</time>
      </trkpt>
      <trkpt lat="47.65327" lon="6.05265">
        <ele>233</ele>
        <time>2018-09-19T08:25:21Z</time>
      </trkpt>
      <trkpt lat="47.65325" lon="6.05259">
        <ele>232</ele>
        <time>2018-09-19T08:25:24Z</time>
      </trkpt>
      <trkpt lat="47.65323" lon="6.05253">
        <ele>232</ele>
        <time>2018-09-19T08:25:27Z</time>
      </trkpt>
      <trkpt lat="47.65321" lon="6.05247">
        <ele>233</ele>
        <time>2018-09-19T08:25:30Z</time>
      </trkpt>
      <trkpt lat="47.65318" lon="6.05239">
        <ele>234</ele>
        <time>2018-09-19T08:25:34Z</time>
      </trkpt>
      <trkpt lat="47.65316" lon="6.05233">
        <ele>235</ele>
        <time>2018-09-19T08:25:38Z</time>
      </trkpt>
      <trkpt lat="47.65313" lon="6.05227">
        <ele>235</ele>
        <time>2018-09-19T08:25:42Z</time>
      </trkpt>
      <trkpt lat="47.6531" lon="6.0522">
        <ele>236</ele>
        <time>2018-09-19T08:25:46Z</time>
      </trkpt>
      <trkpt lat="47.65306" lon="6.05215">
        <ele>236</ele>
        <time>2018-09-19T08:25:50Z</time>
      </trkpt>
      <trkpt lat="47.65303" lon="6.0521">
        <ele>236</ele>
        <time>2018-09-19T08:25:53Z</time>
      </trkpt>
      <trkpt lat="47.653" lon="6.05206">
        <ele>237</ele>
        <time>2018-09-19T08:25:56Z</time>
      </trkpt>
      <trkpt lat="47.65295" lon="6.052">
        <ele>237</ele>
        <time>2018-09-19T08:26:00Z</time>
      </trkpt>
      <trkpt lat="47.65291" lon="6.05195">
        <ele>237</ele>
        <time>2018-09-19T08:26:04Z</time>
      </trkpt>
      <trkpt lat="47.65287" lon="6.0519">
        <ele>237</ele>
        <time>2018-09-19T08:26:08Z</time>
      </trkpt>
      <trkpt lat="47.65282" lon="6.05186">
        <ele>238</ele>
        <time>2018-09-19T08:26:12Z</time>
      </trkpt>
      <trkpt lat="47.65277" lon="6.05181">
        <ele>238</ele>
        <time>2018-09-19T08:26:16Z</time>
      </trkpt>
      <trkpt lat="47.65273" lon="6.05178">
        <ele>238</ele>
        <time>2018-09-19T08:26:19Z</time>
      </trkpt>
      <trkpt lat="47.65269" lon="6.05174">
        <ele>239</ele>
        <time>2018-09-19T08:26:22Z</time>
      </trkpt>
      <trkpt lat="47.65264" lon="6.0517">
        <ele>239</ele>
        <time>2018-09-19T08:26:26Z</time>
      </trkpt>
      <trkpt lat="47.65259" lon="6.05166">
        <ele>240</ele>
        <time>2018-09-19T08:26:30Z</time>
      </trkpt>
      <trkpt lat="47.65254" lon="6.05163">
        <ele>240</ele>
        <time>2018-09-19T08:26:34Z</time>
      </trkpt>
      <trkpt lat="47.65249" lon="6.0516">
        <ele>240</ele>
        <time>2018-09-19T08:26:38Z</time>
      </trkpt>
      <trkpt lat="47.65244" lon="6.05158">
        <ele>240</ele>
        <time>2018-09-19T08:26:42Z</time>
      </trkpt>
      <trkpt lat="47.6524" lon="6.05155">
        <ele>240</ele>
        <time>2018-09-19T08:26:59Z</time>
      </trkpt>
      <trkpt lat="47.65234" lon="6.05151">
        <ele>240</ele>
        <time>2018-09-19T08:27:02Z</time>
      </trkpt>
      <trkpt lat="47.6523" lon="6.05148">
        <ele>239</ele>
        <time>2018-09-19T08:27:04Z</time>
      </trkpt>
      <trkpt lat="47.65225" lon="6.05144">
        <ele>239</ele>
        <time>2018-09-19T08:27:06Z</time>
      </trkpt>
      <trkpt lat="47.65219" lon="6.05141">
        <ele>239</ele>
        <time>2018-09-19T08:27:08Z</time>
      </trkpt>
      <trkpt lat="47.65213" lon="6.05137">
        <ele>239</ele>
        <time>2018-09-19T08:27:10Z</time>
      </trkpt>
      <trkpt lat="47.652" lon="6.0513">
        <ele>239</ele>
        <time>2018-09-19T08:27:12Z</time>
      </trkpt>
      <trkpt lat="47.65192" lon="6.05127">
        <ele>238</ele>
        <time>2018-09-19T08:27:14Z</time>
      </trkpt>
      <trkpt lat="47.65185" lon="6.05125">
        <ele>238</ele>
        <time>2018-09-19T08:27:16Z</time>
      </trkpt>
      <trkpt lat="47.65178" lon="6.05122">
        <ele>238</ele>
        <time>2018-09-19T08:27:18Z</time>
      </trkpt>
      <trkpt lat="47.65171" lon="6.0512">
        <ele>238</ele>
        <time>2018-09-19T08:27:20Z</time>
      </trkpt>
      <trkpt lat="47.65163" lon="6.05116">
        <ele>238</ele>
        <time>2018-09-19T08:27:22Z</time>
      </trkpt>
      <trkpt lat="47.65155" lon="6.05114">
        <ele>238</ele>
        <time>2018-09-19T08:27:24Z</time>
      </trkpt>
      <trkpt lat="47.65147" lon="6.05112">
        <ele>238</ele>
        <time>2018-09-19T08:27:26Z</time>
      </trkpt>
      <trkpt lat="47.65139" lon="6.05109">
        <ele>238</ele>
        <time>2018-09-19T08:27:28Z</time>
      </trkpt>
      <trkpt lat="47.65132" lon="6.05107">
        <ele>238</ele>
        <time>2018-09-19T08:27:30Z</time>
      </trkpt>
      <trkpt lat="47.65126" lon="6.05104">
        <ele>238</ele>
        <time>2018-09-19T08:27:33Z</time>
      </trkpt>
      <trkpt lat="47.65116" lon="6.05099">
        <ele>238</ele>
        <time>2018-09-19T08:27:35Z</time>
      </trkpt>
      <trkpt lat="47.65108" lon="6.05094">
        <ele>238</ele>
        <time>2018-09-19T08:27:37Z</time>
      </trkpt>
      <trkpt lat="47.65103" lon="6.05091">
        <ele>237</ele>
        <time>2018-09-19T08:27:38Z</time>
      </trkpt>
      <trkpt lat="47.65096" lon="6.05086">
        <ele>237</ele>
        <time>2018-09-19T08:27:40Z</time>
      </trkpt>
      <trkpt lat="47.65089" lon="6.05081">
        <ele>236</ele>
        <time>2018-09-19T08:27:42Z</time>
      </trkpt>
      <trkpt lat="47.65082" lon="6.05076">
        <ele>236</ele>
        <time>2018-09-19T08:27:44Z</time>
      </trkpt>
      <trkpt lat="47.65076" lon="6.05072">
        <ele>236</ele>
        <time>2018-09-19T08:27:46Z</time>
      </trkpt>
      <trkpt lat="47.6507" lon="6.05067">
        <ele>235</ele>
        <time>2018-09-19T08:27:48Z</time>
      </trkpt>
      <trkpt lat="47.65063" lon="6.05062">
        <ele>235</ele>
        <time>2018-09-19T08:27:50Z</time>
      </trkpt>
      <trkpt lat="47.65057" lon="6.05058">
        <ele>235</ele>
        <time>2018-09-19T08:27:52Z</time>
      </trkpt>
      <trkpt lat="47.6505" lon="6.05053">
        <ele>235</ele>
        <time>2018-09-19T08:27:54Z</time>
      </trkpt>
      <trkpt lat="47.65044" lon="6.05046">
        <ele>235</ele>
        <time>2018-09-19T08:27:56Z</time>
      </trkpt>
      <trkpt lat="47.65038" lon="6.05041">
        <ele>234</ele>
        <time>2018-09-19T08:27:58Z</time>
      </trkpt>
      <trkpt lat="47.65031" lon="6.05035">
        <ele>234</ele>
        <time>2018-09-19T08:28:00Z</time>
      </trkpt>
      <trkpt lat="47.65024" lon="6.05029">
        <ele>234</ele>
        <time>2018-09-19T08:28:02Z</time>
      </trkpt>
      <trkpt lat="47.6502" lon="6.05025">
        <ele>234</ele>
        <time>2018-09-19T08:28:03Z</time>
      </trkpt>
      <trkpt lat="47.65016" lon="6.05021">
        <ele>234</ele>
        <time>2018-09-19T08:28:04Z</time>
      </trkpt>
      <trkpt lat="47.65012" lon="6.05017">
        <ele>234</ele>
        <time>2018-09-19T08:28:05Z</time>
      </trkpt>
      <trkpt lat="47.65008" lon="6.05014">
        <ele>234</ele>
        <time>2018-09-19T08:28:06Z</time>
      </trkpt>
      <trkpt lat="47.65003" lon="6.0501">
        <ele>234</ele>
        <time>2018-09-19T08:28:07Z</time>
      </trkpt>
      <trkpt lat="47.64998" lon="6.05005">
        <ele>233</ele>
        <time>2018-09-19T08:28:08Z</time>
      </trkpt>
      <trkpt lat="47.64994" lon="6.04999">
        <ele>233</ele>
        <time>2018-09-19T08:28:09Z</time>
      </trkpt>
      <trkpt lat="47.64989" lon="6.04993">
        <ele>234</ele>
        <time>2018-09-19T08:28:10Z</time>
      </trkpt>
      <trkpt lat="47.64984" lon="6.04987">
        <ele>234</ele>
        <time>2018-09-19T08:28:11Z</time>
      </trkpt>
      <trkpt lat="47.64979" lon="6.04981">
        <ele>234</ele>
        <time>2018-09-19T08:28:12Z</time>
      </trkpt>
      <trkpt lat="47.64974" lon="6.04975">
        <ele>234</ele>
        <time>2018-09-19T08:28:13Z</time>
      </trkpt>
      <trkpt lat="47.6497" lon="6.0497">
        <ele>234</ele>
        <time>2018-09-19T08:28:14Z</time>
      </trkpt>
      <trkpt lat="47.64966" lon="6.04965">
        <ele>234</ele>
        <time>2018-09-19T08:28:15Z</time>
      </trkpt>
      <trkpt lat="47.64962" lon="6.04961">
        <ele>234</ele>
        <time>2018-09-19T08:28:16Z</time>
      </trkpt>
      <trkpt lat="47.64958" lon="6.04957">
        <ele>234</ele>
        <time>2018-09-19T08:28:17Z</time>
      </trkpt>
      <trkpt lat="47.64952" lon="6.04949">
        <ele>234</ele>
        <time>2018-09-19T08:28:19Z</time>
      </trkpt>
      <trkpt lat="47.64945" lon="6.04943">
        <ele>234</ele>
        <time>2018-09-19T08:28:21Z</time>
      </trkpt>
      <trkpt lat="47.64941" lon="6.04936">
        <ele>234</ele>
        <time>2018-09-19T08:28:24Z</time>
      </trkpt>
      <trkpt lat="47.64936" lon="6.04931">
        <ele>235</ele>
        <time>2018-09-19T08:28:26Z</time>
      </trkpt>
      <trkpt lat="47.64932" lon="6.04926">
        <ele>235</ele>
        <time>2018-09-19T08:28:28Z</time>
      </trkpt>
      <trkpt lat="47.64928" lon="6.04921">
        <ele>235</ele>
        <time>2018-09-19T08:28:30Z</time>
      </trkpt>
      <trkpt lat="47.64923" lon="6.04916">
        <ele>235</ele>
        <time>2018-09-19T08:28:32Z</time>
      </trkpt>
      <trkpt lat="47.64918" lon="6.04911">
        <ele>235</ele>
        <time>2018-09-19T08:28:34Z</time>
      </trkpt>
      <trkpt lat="47.64914" lon="6.04905">
        <ele>236</ele>
        <time>2018-09-19T08:28:36Z</time>
      </trkpt>
      <trkpt lat="47.6491" lon="6.049">
        <ele>237</ele>
        <time>2018-09-19T08:28:38Z</time>
      </trkpt>
      <trkpt lat="47.64906" lon="6.04894">
        <ele>237</ele>
        <time>2018-09-19T08:28:40Z</time>
      </trkpt>
      <trkpt lat="47.64902" lon="6.04889">
        <ele>238</ele>
        <time>2018-09-19T08:28:42Z</time>
      </trkpt>
      <trkpt lat="47.64897" lon="6.04884">
        <ele>238</ele>
        <time>2018-09-19T08:28:44Z</time>
      </trkpt>
      <trkpt lat="47.64893" lon="6.04879">
        <ele>238</ele>
        <time>2018-09-19T08:28:46Z</time>
      </trkpt>
      <trkpt lat="47.64889" lon="6.04874">
        <ele>238</ele>
        <time>2018-09-19T08:28:48Z</time>
      </trkpt>
      <trkpt lat="47.64885" lon="6.04869">
        <ele>238</ele>
        <time>2018-09-19T08:28:50Z</time>
      </trkpt>
      <trkpt lat="47.64881" lon="6.04864">
        <ele>238</ele>
        <time>2018-09-19T08:28:52Z</time>
      </trkpt>
      <trkpt lat="47.64877" lon="6.0486">
        <ele>239</ele>
        <time>2018-09-19T08:28:54Z</time>
      </trkpt>
      <trkpt lat="47.64873" lon="6.04856">
        <ele>239</ele>
        <time>2018-09-19T08:28:56Z</time>
      </trkpt>
      <trkpt lat="47.6487" lon="6.04852">
        <ele>239</ele>
        <time>2018-09-19T08:28:58Z</time>
      </trkpt>
      <trkpt lat="47.64865" lon="6.04846">
        <ele>239</ele>
        <time>2018-09-19T08:29:01Z</time>
      </trkpt>
      <trkpt lat="47.6486" lon="6.04842">
        <ele>239</ele>
        <time>2018-09-19T08:29:04Z</time>
      </trkpt>
      <trkpt lat="47.64856" lon="6.04837">
        <ele>240</ele>
        <time>2018-09-19T08:29:07Z</time>
      </trkpt>
      <trkpt lat="47.64852" lon="6.04832">
        <ele>241</ele>
        <time>2018-09-19T08:29:10Z</time>
      </trkpt>
      <trkpt lat="47.64849" lon="6.04827">
        <ele>241</ele>
        <time>2018-09-19T08:29:13Z</time>
      </trkpt>
      <trkpt lat="47.64846" lon="6.04822">
        <ele>241</ele>
        <time>2018-09-19T08:29:16Z</time>
      </trkpt>
      <trkpt lat="47.64842" lon="6.04816">
        <ele>241</ele>
        <time>2018-09-19T08:29:20Z</time>
      </trkpt>
      <trkpt lat="47.64838" lon="6.04811">
        <ele>241</ele>
        <time>2018-09-19T08:29:24Z</time>
      </trkpt>
      <trkpt lat="47.64835" lon="6.04806">
        <ele>242</ele>
        <time>2018-09-19T08:29:28Z</time>
      </trkpt>
      <trkpt lat="47.64832" lon="6.048">
        <ele>243</ele>
        <time>2018-09-19T08:29:32Z</time>
      </trkpt>
      <trkpt lat="47.6483" lon="6.04794">
        <ele>243</ele>
        <time>2018-09-19T08:29:36Z</time>
      </trkpt>
      <trkpt lat="47.64827" lon="6.04788">
        <ele>243</ele>
        <time>2018-09-19T08:29:40Z</time>
      </trkpt>
      <trkpt lat="47.64825" lon="6.04781">
        <ele>244</ele>
        <time>2018-09-19T08:29:44Z</time>
      </trkpt>
      <trkpt lat="47.64823" lon="6.04774">
        <ele>244</ele>
        <time>2018-09-19T08:29:48Z</time>
      </trkpt>
      <trkpt lat="47.6482" lon="6.04768">
        <ele>244</ele>
        <time>2018-09-19T08:29:52Z</time>
      </trkpt>
      <trkpt lat="47.64818" lon="6.04761">
        <ele>244</ele>
        <time>2018-09-19T08:29:56Z</time>
      </trkpt>
      <trkpt lat="47.64817" lon="6.04755">
        <ele>244</ele>
        <time>2018-09-19T08:30:00Z</time>
      </trkpt>
      <trkpt lat="47.64815" lon="6.04748">
        <ele>245</ele>
        <time>2018-09-19T08:30:04Z</time>
      </trkpt>
      <trkpt lat="47.64813" lon="6.04742">
        <ele>245</ele>
        <time>2018-09-19T08:30:08Z</time>
      </trkpt>
      <trkpt lat="47.6481" lon="6.04735">
        <ele>245</ele>
        <time>2018-09-19T08:30:12Z</time>
      </trkpt>
      <trkpt lat="47.64808" lon="6.04728">
        <ele>245</ele>
        <time>2018-09-19T08:30:16Z</time>
      </trkpt>
      <trkpt lat="47.64806" lon="6.04721">
        <ele>245</ele>
        <time>2018-09-19T08:30:20Z</time>
      </trkpt>
      <trkpt lat="47.64803" lon="6.04714">
        <ele>246</ele>
        <time>2018-09-19T08:30:24Z</time>
      </trkpt>
      <trkpt lat="47.64801" lon="6.04707">
        <ele>246</ele>
        <time>2018-09-19T08:30:28Z</time>
      </trkpt>
      <trkpt lat="47.64798" lon="6.047">
        <ele>246</ele>
        <time>2018-09-19T08:30:32Z</time>
      </trkpt>
      <trkpt lat="47.64794" lon="6.04694">
        <ele>246</ele>
        <time>2018-09-19T08:30:36Z</time>
      </trkpt>
      <trkpt lat="47.64792" lon="6.04688">
        <ele>246</ele>
        <time>2018-09-19T08:30:39Z</time>
      </trkpt>
      <trkpt lat="47.64789" lon="6.04681">
        <ele>246</ele>
        <time>2018-09-19T08:30:42Z</time>
      </trkpt>
      <trkpt lat="47.64787" lon="6.04673">
        <ele>246</ele>
        <time>2018-09-19T08:30:45Z</time>
      </trkpt>
      <trkpt lat="47.64784" lon="6.04664">
        <ele>246</ele>
        <time>2018-09-19T08:30:48Z</time>
      </trkpt>
      <trkpt lat="47.64781" lon="6.04658">
        <ele>246</ele>
        <time>2018-09-19T08:30:50Z</time>
      </trkpt>
      <trkpt lat="47.64779" lon="6.04651">
        <ele>246</ele>
        <time>2018-09-19T08:30:52Z</time>
      </trkpt>
      <trkpt lat="47.64776" lon="6.04644">
        <ele>246</ele>
        <time>2018-09-19T08:30:54Z</time>
      </trkpt>
      <trkpt lat="47.64773" lon="6.04637">
        <ele>246</ele>
        <time>2018-09-19T08:30:56Z</time>
      </trkpt>
      <trkpt lat="47.6477" lon="6.04629">
        <ele>246</ele>
        <time>2018-09-19T08:30:58Z</time>
      </trkpt>
      <trkpt lat="47.64768" lon="6.0462">
        <ele>246</ele>
        <time>2018-09-19T08:31:00Z</time>
      </trkpt>
      <trkpt lat="47.64769" lon="6.04611">
        <ele>246</ele>
        <time>2018-09-19T08:31:02Z</time>
      </trkpt>
      <trkpt lat="47.64772" lon="6.04605">
        <ele>246</ele>
        <time>2018-09-19T08:31:04Z</time>
      </trkpt>
      <trkpt lat="47.64776" lon="6.04599">
        <ele>246</ele>
        <time>2018-09-19T08:31:06Z</time>
      </trkpt>
      <trkpt lat="47.64781" lon="6.04594">
        <ele>246</ele>
        <time>2018-09-19T08:31:08Z</time>
      </trkpt>
      <trkpt lat="47.64787" lon="6.04588">
        <ele>246</ele>
        <time>2018-09-19T08:31:10Z</time>
      </trkpt>
      <trkpt lat="47.64792" lon="6.04582">
        <ele>245</ele>
        <time>2018-09-19T08:31:12Z</time>
      </trkpt>
      <trkpt lat="47.64797" lon="6.04576">
        <ele>245</ele>
        <time>2018-09-19T08:31:14Z</time>
      </trkpt>
      <trkpt lat="47.64803" lon="6.0457">
        <ele>245</ele>
        <time>2018-09-19T08:31:16Z</time>
      </trkpt>
      <trkpt lat="47.64808" lon="6.04564">
        <ele>245</ele>
        <time>2018-09-19T08:31:18Z</time>
      </trkpt>
      <trkpt lat="47.64813" lon="6.04559">
        <ele>245</ele>
        <time>2018-09-19T08:31:20Z</time>
      </trkpt>
      <trkpt lat="47.64818" lon="6.04554">
        <ele>246</ele>
        <time>2018-09-19T08:31:22Z</time>
      </trkpt>
      <trkpt lat="47.64823" lon="6.04548">
        <ele>246</ele>
        <time>2018-09-19T08:31:24Z</time>
      </trkpt>
      <trkpt lat="47.64827" lon="6.04544">
        <ele>246</ele>
        <time>2018-09-19T08:31:26Z</time>
      </trkpt>
      <trkpt lat="47.64832" lon="6.04539">
        <ele>246</ele>
        <time>2018-09-19T08:31:28Z</time>
      </trkpt>
      <trkpt lat="47.64836" lon="6.04534">
        <ele>246</ele>
        <time>2018-09-19T08:31:30Z</time>
      </trkpt>
      <trkpt lat="47.6484" lon="6.0453">
        <ele>246</ele>
        <time>2018-09-19T08:31:32Z</time>
      </trkpt>
      <trkpt lat="47.64845" lon="6.04525">
        <ele>245</ele>
        <time>2018-09-19T08:31:34Z</time>
      </trkpt>
      <trkpt lat="47.64849" lon="6.0452">
        <ele>245</ele>
        <time>2018-09-19T08:31:36Z</time>
      </trkpt>
      <trkpt lat="47.64854" lon="6.04515">
        <ele>245</ele>
        <time>2018-09-19T08:31:38Z</time>
      </trkpt>
      <trkpt lat="47.64859" lon="6.0451">
        <ele>245</ele>
        <time>2018-09-19T08:31:40Z</time>
      </trkpt>
      <trkpt lat="47.64864" lon="6.04504">
        <ele>245</ele>
        <time>2018-09-19T08:31:42Z</time>
      </trkpt>
      <trkpt lat="47.64869" lon="6.04499">
        <ele>244</ele>
        <time>2018-09-19T08:31:44Z</time>
      </trkpt>
      <trkpt lat="47.64875" lon="6.04494">
        <ele>244</ele>
        <time>2018-09-19T08:31:46Z</time>
      </trkpt>
      <trkpt lat="47.6488" lon="6.04488">
        <ele>244</ele>
        <time>2018-09-19T08:31:48Z</time>
      </trkpt>
      <trkpt lat="47.64886" lon="6.04482">
        <ele>244</ele>
        <time>2018-09-19T08:31:50Z</time>
      </trkpt>
      <trkpt lat="47.64892" lon="6.04475">
        <ele>244</ele>
        <time>2018-09-19T08:31:52Z</time>
      </trkpt>
      <trkpt lat="47.64901" lon="6.04465">
        <ele>244</ele>
        <time>2018-09-19T08:31:53Z</time>
      </trkpt>
      <trkpt lat="47.64906" lon="6.0446">
        <ele>244</ele>
        <time>2018-09-19T08:31:54Z</time>
      </trkpt>
      <trkpt lat="47.6491" lon="6.04456">
        <ele>243</ele>
        <time>2018-09-19T08:31:55Z</time>
      </trkpt>
      <trkpt lat="47.64914" lon="6.04451">
        <ele>243</ele>
        <time>2018-09-19T08:31:56Z</time>
      </trkpt>
      <trkpt lat="47.64919" lon="6.04446">
        <ele>242</ele>
        <time>2018-09-19T08:31:57Z</time>
      </trkpt>
      <trkpt lat="47.64924" lon="6.0444">
        <ele>242</ele>
        <time>2018-09-19T08:31:58Z</time>
      </trkpt>
      <trkpt lat="47.64928" lon="6.04435">
        <ele>242</ele>
        <time>2018-09-19T08:31:59Z</time>
      </trkpt>
      <trkpt lat="47.64933" lon="6.0443">
        <ele>241</ele>
        <time>2018-09-19T08:32:00Z</time>
      </trkpt>
      <trkpt lat="47.64938" lon="6.04425">
        <ele>241</ele>
        <time>2018-09-19T08:32:01Z</time>
      </trkpt>
      <trkpt lat="47.64942" lon="6.04419">
        <ele>241</ele>
        <time>2018-09-19T08:32:02Z</time>
      </trkpt>
      <trkpt lat="47.64947" lon="6.04414">
        <ele>240</ele>
        <time>2018-09-19T08:32:03Z</time>
      </trkpt>
      <trkpt lat="47.64951" lon="6.04409">
        <ele>240</ele>
        <time>2018-09-19T08:32:04Z</time>
      </trkpt>
      <trkpt lat="47.64955" lon="6.04404">
        <ele>240</ele>
        <time>2018-09-19T08:32:05Z</time>
      </trkpt>
      <trkpt lat="47.6496" lon="6.04398">
        <ele>240</ele>
        <time>2018-09-19T08:32:06Z</time>
      </trkpt>
      <trkpt lat="47.64965" lon="6.04392">
        <ele>239</ele>
        <time>2018-09-19T08:32:07Z</time>
      </trkpt>
      <trkpt lat="47.6497" lon="6.04386">
        <ele>239</ele>
        <time>2018-09-19T08:32:08Z</time>
      </trkpt>
      <trkpt lat="47.64975" lon="6.04381">
        <ele>239</ele>
        <time>2018-09-19T08:32:09Z</time>
      </trkpt>
      <trkpt lat="47.64981" lon="6.04375">
        <ele>239</ele>
        <time>2018-09-19T08:32:10Z</time>
      </trkpt>
      <trkpt lat="47.64986" lon="6.04369">
        <ele>239</ele>
        <time>2018-09-19T08:32:11Z</time>
      </trkpt>
      <trkpt lat="47.64991" lon="6.04362">
        <ele>239</ele>
        <time>2018-09-19T08:32:12Z</time>
      </trkpt>
      <trkpt lat="47.64997" lon="6.04357">
        <ele>238</ele>
        <time>2018-09-19T08:32:13Z</time>
      </trkpt>
      <trkpt lat="47.65003" lon="6.04351">
        <ele>237</ele>
        <time>2018-09-19T08:32:14Z</time>
      </trkpt>
      <trkpt lat="47.65008" lon="6.04344">
        <ele>237</ele>
        <time>2018-09-19T08:32:15Z</time>
      </trkpt>
      <trkpt lat="47.65014" lon="6.04338">
        <ele>237</ele>
        <time>2018-09-19T08:32:16Z</time>
      </trkpt>
      <trkpt lat="47.6502" lon="6.04333">
        <ele>236</ele>
        <time>2018-09-19T08:32:17Z</time>
      </trkpt>
      <trkpt lat="47.65026" lon="6.04327">
        <ele>236</ele>
        <time>2018-09-19T08:32:18Z</time>
      </trkpt>
      <trkpt lat="47.65032" lon="6.04321">
        <ele>236</ele>
        <time>2018-09-19T08:32:19Z</time>
      </trkpt>
      <trkpt lat="47.65038" lon="6.04315">
        <ele>236</ele>
        <time>2018-09-19T08:32:20Z</time>
      </trkpt>
      <trkpt lat="47.65044" lon="6.04308">
        <ele>235</ele>
        <time>2018-09-19T08:32:21Z</time>
      </trkpt>
      <trkpt lat="47.6505" lon="6.04301">
        <ele>235</ele>
        <time>2018-09-19T08:32:22Z</time>
      </trkpt>
      <trkpt lat="47.65056" lon="6.04295">
        <ele>235</ele>
        <time>2018-09-19T08:32:23Z</time>
      </trkpt>
      <trkpt lat="47.65061" lon="6.04288">
        <ele>235</ele>
        <time>2018-09-19T08:32:24Z</time>
      </trkpt>
      <trkpt lat="47.65067" lon="6.04282">
        <ele>235</ele>
        <time>2018-09-19T08:32:25Z</time>
      </trkpt>
      <trkpt lat="47.65073" lon="6.04275">
        <ele>235</ele>
        <time>2018-09-19T08:32:26Z</time>
      </trkpt>
      <trkpt lat="47.65078" lon="6.04269">
        <ele>235</ele>
        <time>2018-09-19T08:32:27Z</time>
      </trkpt>
      <trkpt lat="47.65084" lon="6.04262">
        <ele>235</ele>
        <time>2018-09-19T08:32:28Z</time>
      </trkpt>
      <trkpt lat="47.65089" lon="6.04256">
        <ele>235</ele>
        <time>2018-09-19T08:32:29Z</time>
      </trkpt>
      <trkpt lat="47.65095" lon="6.0425">
        <ele>234</ele>
        <time>2018-09-19T08:32:30Z</time>
      </trkpt>
      <trkpt lat="47.651" lon="6.04244">
        <ele>234</ele>
        <time>2018-09-19T08:32:31Z</time>
      </trkpt>
      <trkpt lat="47.65105" lon="6.04238">
        <ele>234</ele>
        <time>2018-09-19T08:32:32Z</time>
      </trkpt>
      <trkpt lat="47.6511" lon="6.04234">
        <ele>234</ele>
        <time>2018-09-19T08:32:33Z</time>
      </trkpt>
      <trkpt lat="47.65114" lon="6.04228">
        <ele>234</ele>
        <time>2018-09-19T08:32:34Z</time>
      </trkpt>
      <trkpt lat="47.65119" lon="6.04224">
        <ele>234</ele>
        <time>2018-09-19T08:32:35Z</time>
      </trkpt>
      <trkpt lat="47.65123" lon="6.04219">
        <ele>234</ele>
        <time>2018-09-19T08:32:36Z</time>
      </trkpt>
      <trkpt lat="47.65127" lon="6.04215">
        <ele>234</ele>
        <time>2018-09-19T08:32:37Z</time>
      </trkpt>
      <trkpt lat="47.6513" lon="6.04211">
        <ele>234</ele>
        <time>2018-09-19T08:32:38Z</time>
      </trkpt>
      <trkpt lat="47.65137" lon="6.04203">
        <ele>234</ele>
        <time>2018-09-19T08:32:40Z</time>
      </trkpt>
      <trkpt lat="47.65141" lon="6.04198">
        <ele>234</ele>
        <time>2018-09-19T08:32:42Z</time>
      </trkpt>
      <trkpt lat="47.65145" lon="6.04194">
        <ele>234</ele>
        <time>2018-09-19T08:32:44Z</time>
      </trkpt>
      <trkpt lat="47.65149" lon="6.0419">
        <ele>234</ele>
        <time>2018-09-19T08:32:46Z</time>
      </trkpt>
      <trkpt lat="47.65153" lon="6.04186">
        <ele>234</ele>
        <time>2018-09-19T08:32:48Z</time>
      </trkpt>
      <trkpt lat="47.65157" lon="6.04181">
        <ele>234</ele>
        <time>2018-09-19T08:32:50Z</time>
      </trkpt>
      <trkpt lat="47.65161" lon="6.04176">
        <ele>234</ele>
        <time>2018-09-19T08:32:52Z</time>
      </trkpt>
      <trkpt lat="47.65165" lon="6.04172">
        <ele>234</ele>
        <time>2018-09-19T08:32:54Z</time>
      </trkpt>
      <trkpt lat="47.6517" lon="6.04167">
        <ele>234</ele>
        <time>2018-09-19T08:32:56Z</time>
      </trkpt>
      <trkpt lat="47.65174" lon="6.04162">
        <ele>235</ele>
        <time>2018-09-19T08:32:58Z</time>
      </trkpt>
      <trkpt lat="47.65178" lon="6.04157">
        <ele>235</ele>
        <time>2018-09-19T08:33:00Z</time>
      </trkpt>
      <trkpt lat="47.65182" lon="6.04153">
        <ele>235</ele>
        <time>2018-09-19T08:33:02Z</time>
      </trkpt>
      <trkpt lat="47.65186" lon="6.04148">
        <ele>236</ele>
        <time>2018-09-19T08:33:04Z</time>
      </trkpt>
      <trkpt lat="47.65191" lon="6.04142">
        <ele>236</ele>
        <time>2018-09-19T08:33:07Z</time>
      </trkpt>
      <trkpt lat="47.65196" lon="6.04137">
        <ele>236</ele>
        <time>2018-09-19T08:33:10Z</time>
      </trkpt>
      <trkpt lat="47.65201" lon="6.04133">
        <ele>236</ele>
        <time>2018-09-19T08:33:13Z</time>
      </trkpt>
      <trkpt lat="47.65207" lon="6.04128">
        <ele>236</ele>
        <time>2018-09-19T08:33:16Z</time>
      </trkpt>
      <trkpt lat="47.65212" lon="6.04123">
        <ele>236</ele>
        <time>2018-09-19T08:33:19Z</time>
      </trkpt>
      <trkpt lat="47.65216" lon="6.04118">
        <ele>236</ele>
        <time>2018-09-19T08:33:22Z</time>
      </trkpt>
      <trkpt lat="47.6522" lon="6.04114">
        <ele>237</ele>
        <time>2018-09-19T08:33:25Z</time>
      </trkpt>
      <trkpt lat="47.65225" lon="6.0411">
        <ele>237</ele>
        <time>2018-09-19T08:33:28Z</time>
      </trkpt>
      <trkpt lat="47.6523" lon="6.04105">
        <ele>237</ele>
        <time>2018-09-19T08:33:31Z</time>
      </trkpt>
      <trkpt lat="47.65235" lon="6.041">
        <ele>237</ele>
        <time>2018-09-19T08:33:34Z</time>
      </trkpt>
      <trkpt lat="47.6524" lon="6.04095">
        <ele>237</ele>
        <time>2018-09-19T08:33:37Z</time>
      </trkpt>
      <trkpt lat="47.65245" lon="6.04089">
        <ele>238</ele>
        <time>2018-09-19T08:33:40Z</time>
      </trkpt>
      <trkpt lat="47.65249" lon="6.04085">
        <ele>238</ele>
        <time>2018-09-19T08:33:43Z</time>
      </trkpt>
      <trkpt lat="47.65254" lon="6.04079">
        <ele>238</ele>
        <time>2018-09-19T08:33:46Z</time>
      </trkpt>
      <trkpt lat="47.65259" lon="6.04074">
        <ele>239</ele>
        <time>2018-09-19T08:33:49Z</time>
      </trkpt>
      <trkpt lat="47.65264" lon="6.0407">
        <ele>239</ele>
        <time>2018-09-19T08:33:52Z</time>
      </trkpt>
      <trkpt lat="47.65269" lon="6.04065">
        <ele>240</ele>
        <time>2018-09-19T08:33:55Z</time>
      </trkpt>
      <trkpt lat="47.65275" lon="6.04061">
        <ele>240</ele>
        <time>2018-09-19T08:33:58Z</time>
      </trkpt>
      <trkpt lat="47.6528" lon="6.04057">
        <ele>240</ele>
        <time>2018-09-19T08:34:01Z</time>
      </trkpt>
      <trkpt lat="47.65285" lon="6.04053">
        <ele>240</ele>
        <time>2018-09-19T08:34:04Z</time>
      </trkpt>
      <trkpt lat="47.6529" lon="6.04049">
        <ele>240</ele>
        <time>2018-09-19T08:34:07Z</time>
      </trkpt>
      <trkpt lat="47.65295" lon="6.04046">
        <ele>240</ele>
        <time>2018-09-19T08:34:10Z</time>
      </trkpt>
      <trkpt lat="47.653" lon="6.04042">
        <ele>240</ele>
        <time>2018-09-19T08:34:13Z</time>
      </trkpt>
      <trkpt lat="47.65305" lon="6.04038">
        <ele>240</ele>
        <time>2018-09-19T08:34:16Z</time>
      </trkpt>
      <trkpt lat="47.65309" lon="6.04034">
        <ele>241</ele>
        <time>2018-09-19T08:34:18Z</time>
      </trkpt>
      <trkpt lat="47.65313" lon="6.04029">
        <ele>241</ele>
        <time>2018-09-19T08:34:21Z</time>
      </trkpt>
      <trkpt lat="47.65317" lon="6.04022">
        <ele>241</ele>
        <time>2018-09-19T08:34:24Z</time>
      </trkpt>
      <trkpt lat="47.65321" lon="6.04017">
        <ele>241</ele>
        <time>2018-09-19T08:34:27Z</time>
      </trkpt>
      <trkpt lat="47.65325" lon="6.0401">
        <ele>241</ele>
        <time>2018-09-19T08:34:30Z</time>
      </trkpt>
      <trkpt lat="47.65328" lon="6.04003">
        <ele>242</ele>
        <time>2018-09-19T08:34:33Z</time>
      </trkpt>
      <trkpt lat="47.65332" lon="6.03996">
        <ele>242</ele>
        <time>2018-09-19T08:34:36Z</time>
      </trkpt>
      <trkpt lat="47.65336" lon="6.03991">
        <ele>242</ele>
        <time>2018-09-19T08:34:38Z</time>
      </trkpt>
      <trkpt lat="47.6534" lon="6.03985">
        <ele>242</ele>
        <time>2018-09-19T08:34:40Z</time>
      </trkpt>
      <trkpt lat="47.65343" lon="6.0398">
        <ele>242</ele>
        <time>2018-09-19T08:34:42Z</time>
      </trkpt>
      <trkpt lat="47.65347" lon="6.03974">
        <ele>243</ele>
        <time>2018-09-19T08:34:44Z</time>
      </trkpt>
      <trkpt lat="47.65351" lon="6.03969">
        <ele>243</ele>
        <time>2018-09-19T08:34:46Z</time>
      </trkpt>
      <trkpt lat="47.65355" lon="6.03963">
        <ele>243</ele>
        <time>2018-09-19T08:34:48Z</time>
      </trkpt>
      <trkpt lat="47.65358" lon="6.03957">
        <ele>243</ele>
        <time>2018-09-19T08:34:50Z</time>
      </trkpt>
      <trkpt lat="47.65364" lon="6.0395">
        <ele>243</ele>
        <time>2018-09-19T08:34:53Z</time>
      </trkpt>
      <trkpt lat="47.65368" lon="6.03945">
        <ele>243</ele>
        <time>2018-09-19T08:34:55Z</time>
      </trkpt>
      <trkpt lat="47.65372" lon="6.0394">
        <ele>243</ele>
        <time>2018-09-19T08:34:57Z</time>
      </trkpt>
      <trkpt lat="47.65376" lon="6.03934">
        <ele>243</ele>
        <time>2018-09-19T08:34:59Z</time>
      </trkpt>
      <trkpt lat="47.6538" lon="6.03929">
        <ele>243</ele>
        <time>2018-09-19T08:35:01Z</time>
      </trkpt>
      <trkpt lat="47.65383" lon="6.03924">
        <ele>243</ele>
        <time>2018-09-19T08:35:03Z</time>
      </trkpt>
      <trkpt lat="47.65387" lon="6.03918">
        <ele>243</ele>
        <time>2018-09-19T08:35:05Z</time>
      </trkpt>
      <trkpt lat="47.65391" lon="6.03913">
        <ele>244</ele>
        <time>2018-09-19T08:35:07Z</time>
      </trkpt>
      <trkpt lat="47.65395" lon="6.03906">
        <ele>244</ele>
        <time>2018-09-19T08:35:09Z</time>
      </trkpt>
      <trkpt lat="47.65399" lon="6.039">
        <ele>244</ele>
        <time>2018-09-19T08:35:11Z</time>
      </trkpt>
      <trkpt lat="47.65404" lon="6.03894">
        <ele>244</ele>
        <time>2018-09-19T08:35:13Z</time>
      </trkpt>
      <trkpt lat="47.65409" lon="6.03887">
        <ele>244</ele>
        <time>2018-09-19T08:35:15Z</time>
      </trkpt>
      <trkpt lat="47.65415" lon="6.03879">
        <ele>244</ele>
        <time>2018-09-19T08:35:17Z</time>
      </trkpt>
      <trkpt lat="47.6542" lon="6.03872">
        <ele>241</ele>
        <time>2018-09-19T08:35:19Z</time>
      </trkpt>
      <trkpt lat="47.65423" lon="6.03867">
        <ele>241</ele>
        <time>2018-09-19T08:35:20Z</time>
      </trkpt>
      <trkpt lat="47.65433" lon="6.03854">
        <ele>241</ele>
        <time>2018-09-19T08:35:21Z</time>
      </trkpt>
      <trkpt lat="47.65436" lon="6.03849">
        <ele>241</ele>
        <time>2018-09-19T08:35:22Z</time>
      </trkpt>
      <trkpt lat="47.65439" lon="6.03844">
        <ele>241</ele>
        <time>2018-09-19T08:35:23Z</time>
      </trkpt>
      <trkpt lat="47.65443" lon="6.03839">
        <ele>241</ele>
        <time>2018-09-19T08:35:24Z</time>
      </trkpt>
      <trkpt lat="47.65446" lon="6.03834">
        <ele>241</ele>
        <time>2018-09-19T08:35:25Z</time>
      </trkpt>
      <trkpt lat="47.6545" lon="6.03829">
        <ele>241</ele>
        <time>2018-09-19T08:35:26Z</time>
      </trkpt>
      <trkpt lat="47.65454" lon="6.03825">
        <ele>241</ele>
        <time>2018-09-19T08:35:27Z</time>
      </trkpt>
      <trkpt lat="47.65457" lon="6.0382">
        <ele>241</ele>
        <time>2018-09-19T08:35:28Z</time>
      </trkpt>
      <trkpt lat="47.65461" lon="6.03816">
        <ele>241</ele>
        <time>2018-09-19T08:35:29Z</time>
      </trkpt>
      <trkpt lat="47.65465" lon="6.03812">
        <ele>241</ele>
        <time>2018-09-19T08:35:30Z</time>
      </trkpt>
      <trkpt lat="47.65469" lon="6.03808">
        <ele>241</ele>
        <time>2018-09-19T08:35:31Z</time>
      </trkpt>
      <trkpt lat="47.65473" lon="6.03803">
        <ele>241</ele>
        <time>2018-09-19T08:35:32Z</time>
      </trkpt>
      <trkpt lat="47.65478" lon="6.03798">
        <ele>241</ele>
        <time>2018-09-19T08:35:33Z</time>
      </trkpt>
      <trkpt lat="47.65481" lon="6.03794">
        <ele>241</ele>
        <time>2018-09-19T08:35:34Z</time>
      </trkpt>
      <trkpt lat="47.65486" lon="6.03789">
        <ele>241</ele>
        <time>2018-09-19T08:35:35Z</time>
      </trkpt>
      <trkpt lat="47.6549" lon="6.03784">
        <ele>241</ele>
        <time>2018-09-19T08:35:36Z</time>
      </trkpt>
      <trkpt lat="47.65494" lon="6.03779">
        <ele>241</ele>
        <time>2018-09-19T08:35:37Z</time>
      </trkpt>
      <trkpt lat="47.65499" lon="6.03774">
        <ele>240</ele>
        <time>2018-09-19T08:35:38Z</time>
      </trkpt>
      <trkpt lat="47.65503" lon="6.0377">
        <ele>238</ele>
        <time>2018-09-19T08:35:39Z</time>
      </trkpt>
      <trkpt lat="47.65507" lon="6.03766">
        <ele>238</ele>
        <time>2018-09-19T08:35:40Z</time>
      </trkpt>
      <trkpt lat="47.65512" lon="6.03761">
        <ele>238</ele>
        <time>2018-09-19T08:35:41Z</time>
      </trkpt>
      <trkpt lat="47.65517" lon="6.03758">
        <ele>238</ele>
        <time>2018-09-19T08:35:42Z</time>
      </trkpt>
      <trkpt lat="47.65522" lon="6.03755">
        <ele>238</ele>
        <time>2018-09-19T08:35:43Z</time>
      </trkpt>
      <trkpt lat="47.65526" lon="6.03753">
        <ele>237</ele>
        <time>2018-09-19T08:35:44Z</time>
      </trkpt>
      <trkpt lat="47.65534" lon="6.03749">
        <ele>239</ele>
        <time>2018-09-19T08:35:46Z</time>
      </trkpt>
      <trkpt lat="47.65542" lon="6.03747">
        <ele>238</ele>
        <time>2018-09-19T08:35:48Z</time>
      </trkpt>
      <trkpt lat="47.65549" lon="6.03744">
        <ele>238</ele>
        <time>2018-09-19T08:35:50Z</time>
      </trkpt>
      <trkpt lat="47.65557" lon="6.03741">
        <ele>238</ele>
        <time>2018-09-19T08:35:52Z</time>
      </trkpt>
      <trkpt lat="47.65565" lon="6.03739">
        <ele>237</ele>
        <time>2018-09-19T08:35:54Z</time>
      </trkpt>
      <trkpt lat="47.65573" lon="6.03735">
        <ele>237</ele>
        <time>2018-09-19T08:35:56Z</time>
      </trkpt>
      <trkpt lat="47.65578" lon="6.03733">
        <ele>237</ele>
        <time>2018-09-19T08:35:57Z</time>
      </trkpt>
      <trkpt lat="47.65582" lon="6.0373">
        <ele>237</ele>
        <time>2018-09-19T08:35:58Z</time>
      </trkpt>
      <trkpt lat="47.65586" lon="6.03727">
        <ele>236</ele>
        <time>2018-09-19T08:35:59Z</time>
      </trkpt>
      <trkpt lat="47.6559" lon="6.03724">
        <ele>236</ele>
        <time>2018-09-19T08:36:00Z</time>
      </trkpt>
      <trkpt lat="47.65594" lon="6.0372">
        <ele>236</ele>
        <time>2018-09-19T08:36:01Z</time>
      </trkpt>
      <trkpt lat="47.65598" lon="6.03716">
        <ele>236</ele>
        <time>2018-09-19T08:36:02Z</time>
      </trkpt>
      <trkpt lat="47.65605" lon="6.03709">
        <ele>236</ele>
        <time>2018-09-19T08:36:04Z</time>
      </trkpt>
      <trkpt lat="47.65611" lon="6.03703">
        <ele>236</ele>
        <time>2018-09-19T08:36:06Z</time>
      </trkpt>
      <trkpt lat="47.65617" lon="6.03696">
        <ele>236</ele>
        <time>2018-09-19T08:36:08Z</time>
      </trkpt>
      <trkpt lat="47.65622" lon="6.03691">
        <ele>236</ele>
        <time>2018-09-19T08:36:10Z</time>
      </trkpt>
      <trkpt lat="47.65628" lon="6.03685">
        <ele>236</ele>
        <time>2018-09-19T08:36:12Z</time>
      </trkpt>
      <trkpt lat="47.65634" lon="6.03679">
        <ele>236</ele>
        <time>2018-09-19T08:36:14Z</time>
      </trkpt>
      <trkpt lat="47.6564" lon="6.03673">
        <ele>236</ele>
        <time>2018-09-19T08:36:16Z</time>
      </trkpt>
      <trkpt lat="47.65646" lon="6.03666">
        <ele>237</ele>
        <time>2018-09-19T08:36:18Z</time>
      </trkpt>
      <trkpt lat="47.65652" lon="6.03659">
        <ele>237</ele>
        <time>2018-09-19T08:36:20Z</time>
      </trkpt>
      <trkpt lat="47.65659" lon="6.03651">
        <ele>237</ele>
        <time>2018-09-19T08:36:22Z</time>
      </trkpt>
      <trkpt lat="47.65663" lon="6.03647">
        <ele>237</ele>
        <time>2018-09-19T08:36:23Z</time>
      </trkpt>
      <trkpt lat="47.6567" lon="6.03641">
        <ele>235</ele>
        <time>2018-09-19T08:36:25Z</time>
      </trkpt>
      <trkpt lat="47.65674" lon="6.03637">
        <ele>235</ele>
        <time>2018-09-19T08:36:26Z</time>
      </trkpt>
      <trkpt lat="47.65678" lon="6.03633">
        <ele>235</ele>
        <time>2018-09-19T08:36:27Z</time>
      </trkpt>
      <trkpt lat="47.65683" lon="6.03628">
        <ele>235</ele>
        <time>2018-09-19T08:36:28Z</time>
      </trkpt>
      <trkpt lat="47.65686" lon="6.03624">
        <ele>235</ele>
        <time>2018-09-19T08:36:29Z</time>
      </trkpt>
      <trkpt lat="47.65691" lon="6.03619">
        <ele>235</ele>
        <time>2018-09-19T08:36:30Z</time>
      </trkpt>
      <trkpt lat="47.65695" lon="6.03614">
        <ele>235</ele>
        <time>2018-09-19T08:36:31Z</time>
      </trkpt>
      <trkpt lat="47.65699" lon="6.0361">
        <ele>235</ele>
        <time>2018-09-19T08:36:32Z</time>
      </trkpt>
      <trkpt lat="47.65703" lon="6.03605">
        <ele>234</ele>
        <time>2018-09-19T08:36:33Z</time>
      </trkpt>
      <trkpt lat="47.65707" lon="6.03601">
        <ele>234</ele>
        <time>2018-09-19T08:36:34Z</time>
      </trkpt>
      <trkpt lat="47.65712" lon="6.03597">
        <ele>234</ele>
        <time>2018-09-19T08:36:35Z</time>
      </trkpt>
      <trkpt lat="47.65716" lon="6.03593">
        <ele>234</ele>
        <time>2018-09-19T08:36:36Z</time>
      </trkpt>
      <trkpt lat="47.65723" lon="6.03585">
        <ele>234</ele>
        <time>2018-09-19T08:36:38Z</time>
      </trkpt>
      <trkpt lat="47.6573" lon="6.03578">
        <ele>233</ele>
        <time>2018-09-19T08:36:40Z</time>
      </trkpt>
      <trkpt lat="47.65735" lon="6.03572">
        <ele>233</ele>
        <time>2018-09-19T08:36:42Z</time>
      </trkpt>
      <trkpt lat="47.6574" lon="6.03567">
        <ele>233</ele>
        <time>2018-09-19T08:36:44Z</time>
      </trkpt>
      <trkpt lat="47.65746" lon="6.03562">
        <ele>233</ele>
        <time>2018-09-19T08:36:46Z</time>
      </trkpt>
      <trkpt lat="47.65751" lon="6.0356">
        <ele>232</ele>
        <time>2018-09-19T08:36:48Z</time>
      </trkpt>
      <trkpt lat="47.65757" lon="6.03557">
        <ele>232</ele>
        <time>2018-09-19T08:36:50Z</time>
      </trkpt>
      <trkpt lat="47.65763" lon="6.03554">
        <ele>232</ele>
        <time>2018-09-19T08:36:53Z</time>
      </trkpt>
      <trkpt lat="47.65768" lon="6.03551">
        <ele>232</ele>
        <time>2018-09-19T08:36:55Z</time>
      </trkpt>
      <trkpt lat="47.65773" lon="6.03548">
        <ele>232</ele>
        <time>2018-09-19T08:36:57Z</time>
      </trkpt>
      <trkpt lat="47.65778" lon="6.03543">
        <ele>232</ele>
        <time>2018-09-19T08:36:59Z</time>
      </trkpt>
      <trkpt lat="47.65783" lon="6.0354">
        <ele>232</ele>
        <time>2018-09-19T08:37:01Z</time>
      </trkpt>
      <trkpt lat="47.65787" lon="6.03536">
        <ele>232</ele>
        <time>2018-09-19T08:37:03Z</time>
      </trkpt>
      <trkpt lat="47.65791" lon="6.03532">
        <ele>232</ele>
        <time>2018-09-19T08:37:05Z</time>
      </trkpt>
      <trkpt lat="47.65796" lon="6.03528">
        <ele>232</ele>
        <time>2018-09-19T08:37:07Z</time>
      </trkpt>
      <trkpt lat="47.658" lon="6.03525">
        <ele>232</ele>
        <time>2018-09-19T08:37:09Z</time>
      </trkpt>
      <trkpt lat="47.65804" lon="6.03519">
        <ele>232</ele>
        <time>2018-09-19T08:37:12Z</time>
      </trkpt>
      <trkpt lat="47.65807" lon="6.03513">
        <ele>232</ele>
        <time>2018-09-19T08:37:31Z</time>
      </trkpt>
      <trkpt lat="47.65804" lon="6.03508">
        <ele>232</ele>
        <time>2018-09-19T08:37:50Z</time>
      </trkpt>
      <trkpt lat="47.65799" lon="6.03509">
        <ele>232</ele>
        <time>2018-09-19T08:38:01Z</time>
      </trkpt>
      <trkpt lat="47.65793" lon="6.03507">
        <ele>232</ele>
        <time>2018-09-19T08:38:07Z</time>
      </trkpt>
      <trkpt lat="47.65788" lon="6.03505">
        <ele>232</ele>
        <time>2018-09-19T08:38:10Z</time>
      </trkpt>
      <trkpt lat="47.65782" lon="6.03503">
        <ele>232</ele>
        <time>2018-09-19T08:38:13Z</time>
      </trkpt>
      <trkpt lat="47.65776" lon="6.035">
        <ele>232</ele>
        <time>2018-09-19T08:38:16Z</time>
      </trkpt>
      <trkpt lat="47.6577" lon="6.03497">
        <ele>232</ele>
        <time>2018-09-19T08:38:19Z</time>
      </trkpt>
      <trkpt lat="47.65765" lon="6.03495">
        <ele>232</ele>
        <time>2018-09-19T08:38:21Z</time>
      </trkpt>
      <trkpt lat="47.6576" lon="6.03493">
        <ele>232</ele>
        <time>2018-09-19T08:38:24Z</time>
      </trkpt>
      <trkpt lat="47.65754" lon="6.0349">
        <ele>232</ele>
        <time>2018-09-19T08:38:27Z</time>
      </trkpt>
      <trkpt lat="47.65748" lon="6.03488">
        <ele>233</ele>
        <time>2018-09-19T08:38:30Z</time>
      </trkpt>
      <trkpt lat="47.65742" lon="6.03485">
        <ele>233</ele>
        <time>2018-09-19T08:38:33Z</time>
      </trkpt>
      <trkpt lat="47.65736" lon="6.03482">
        <ele>233</ele>
        <time>2018-09-19T08:38:36Z</time>
      </trkpt>
      <trkpt lat="47.6573" lon="6.0348">
        <ele>233</ele>
        <time>2018-09-19T08:38:39Z</time>
      </trkpt>
      <trkpt lat="47.65725" lon="6.03478">
        <ele>233</ele>
        <time>2018-09-19T08:38:42Z</time>
      </trkpt>
      <trkpt lat="47.65721" lon="6.03476">
        <ele>233</ele>
        <time>2018-09-19T08:38:44Z</time>
      </trkpt>
      <trkpt lat="47.65716" lon="6.03474">
        <ele>233</ele>
        <time>2018-09-19T08:38:47Z</time>
      </trkpt>
      <trkpt lat="47.6571" lon="6.03471">
        <ele>233</ele>
        <time>2018-09-19T08:38:50Z</time>
      </trkpt>
      <trkpt lat="47.65704" lon="6.03469">
        <ele>233</ele>
        <time>2018-09-19T08:38:53Z</time>
      </trkpt>
      <trkpt lat="47.65698" lon="6.03466">
        <ele>233</ele>
        <time>2018-09-19T08:38:56Z</time>
      </trkpt>
      <trkpt lat="47.65694" lon="6.03464">
        <ele>233</ele>
        <time>2018-09-19T08:38:59Z</time>
      </trkpt>
      <trkpt lat="47.65688" lon="6.03461">
        <ele>233</ele>
        <time>2018-09-19T08:39:02Z</time>
      </trkpt>
      <trkpt lat="47.65682" lon="6.03459">
        <ele>233</ele>
        <time>2018-09-19T08:39:05Z</time>
      </trkpt>
      <trkpt lat="47.65677" lon="6.03457">
        <ele>233</ele>
        <time>2018-09-19T08:39:08Z</time>
      </trkpt>
      <trkpt lat="47.6567" lon="6.03456">
        <ele>233</ele>
        <time>2018-09-19T08:39:12Z</time>
      </trkpt>
      <trkpt lat="47.65665" lon="6.03454">
        <ele>234</ele>
        <time>2018-09-19T08:39:15Z</time>
      </trkpt>
      <trkpt lat="47.6566" lon="6.03453">
        <ele>234</ele>
        <time>2018-09-19T08:39:18Z</time>
      </trkpt>
      <trkpt lat="47.65655" lon="6.0345">
        <ele>234</ele>
        <time>2018-09-19T08:39:21Z</time>
      </trkpt>
      <trkpt lat="47.65649" lon="6.03448">
        <ele>234</ele>
        <time>2018-09-19T08:39:24Z</time>
      </trkpt>
      <trkpt lat="47.65643" lon="6.03445">
        <ele>234</ele>
        <time>2018-09-19T08:39:27Z</time>
      </trkpt>
      <trkpt lat="47.65636" lon="6.03442">
        <ele>235</ele>
        <time>2018-09-19T08:39:30Z</time>
      </trkpt>
      <trkpt lat="47.65632" lon="6.03441">
        <ele>235</ele>
        <time>2018-09-19T08:39:33Z</time>
      </trkpt>
      <trkpt lat="47.65627" lon="6.03437">
        <ele>235</ele>
        <time>2018-09-19T08:39:36Z</time>
      </trkpt>
      <trkpt lat="47.65623" lon="6.03433">
        <ele>235</ele>
        <time>2018-09-19T08:39:39Z</time>
      </trkpt>
      <trkpt lat="47.65619" lon="6.0343">
        <ele>235</ele>
        <time>2018-09-19T08:39:42Z</time>
      </trkpt>
      <trkpt lat="47.65614" lon="6.03427">
        <ele>235</ele>
        <time>2018-09-19T08:39:46Z</time>
      </trkpt>
      <trkpt lat="47.65609" lon="6.03423">
        <ele>235</ele>
        <time>2018-09-19T08:39:51Z</time>
      </trkpt>
      <trkpt lat="47.65604" lon="6.03423">
        <ele>235</ele>
        <time>2018-09-19T08:39:55Z</time>
      </trkpt>
      <trkpt lat="47.65598" lon="6.03425">
        <ele>235</ele>
        <time>2018-09-19T08:39:59Z</time>
      </trkpt>
      <trkpt lat="47.65592" lon="6.03426">
        <ele>236</ele>
        <time>2018-09-19T08:40:03Z</time>
      </trkpt>
      <trkpt lat="47.65586" lon="6.03426">
        <ele>236</ele>
        <time>2018-09-19T08:40:07Z</time>
      </trkpt>
      <trkpt lat="47.65581" lon="6.03426">
        <ele>236</ele>
        <time>2018-09-19T08:40:10Z</time>
      </trkpt>
      <trkpt lat="47.65575" lon="6.03426">
        <ele>236</ele>
        <time>2018-09-19T08:40:14Z</time>
      </trkpt>
      <trkpt lat="47.6557" lon="6.03426">
        <ele>236</ele>
        <time>2018-09-19T08:40:17Z</time>
      </trkpt>
      <trkpt lat="47.65565" lon="6.03426">
        <ele>236</ele>
        <time>2018-09-19T08:40:20Z</time>
      </trkpt>
      <trkpt lat="47.6556" lon="6.03427">
        <ele>236</ele>
        <time>2018-09-19T08:40:24Z</time>
      </trkpt>
      <trkpt lat="47.65555" lon="6.03428">
        <ele>236</ele>
        <time>2018-09-19T08:40:28Z</time>
      </trkpt>
      <trkpt lat="47.6555" lon="6.0343">
        <ele>236</ele>
        <time>2018-09-19T08:40:31Z</time>
      </trkpt>
      <trkpt lat="47.65545" lon="6.0343">
        <ele>236</ele>
        <time>2018-09-19T08:40:35Z</time>
      </trkpt>
      <trkpt lat="47.65541" lon="6.03431">
        <ele>236</ele>
        <time>2018-09-19T08:40:38Z</time>
      </trkpt>
      <trkpt lat="47.65535" lon="6.03431">
        <ele>236</ele>
        <time>2018-09-19T08:40:42Z</time>
      </trkpt>
      <trkpt lat="47.6553" lon="6.03432">
        <ele>236</ele>
        <time>2018-09-19T08:40:45Z</time>
      </trkpt>
      <trkpt lat="47.65525" lon="6.03432">
        <ele>236</ele>
        <time>2018-09-19T08:40:48Z</time>
      </trkpt>
      <trkpt lat="47.6552" lon="6.03433">
        <ele>236</ele>
        <time>2018-09-19T08:40:51Z</time>
      </trkpt>
      <trkpt lat="47.65515" lon="6.03434">
        <ele>236</ele>
        <time>2018-09-19T08:40:54Z</time>
      </trkpt>
      <trkpt lat="47.65509" lon="6.03434">
        <ele>236</ele>
        <time>2018-09-19T08:40:57Z</time>
      </trkpt>
      <trkpt lat="47.65503" lon="6.03435">
        <ele>236</ele>
        <time>2018-09-19T08:41:00Z</time>
      </trkpt>
      <trkpt lat="47.65497" lon="6.03436">
        <ele>235</ele>
        <time>2018-09-19T08:41:03Z</time>
      </trkpt>
      <trkpt lat="47.65492" lon="6.03438">
        <ele>235</ele>
        <time>2018-09-19T08:41:06Z</time>
      </trkpt>
      <trkpt lat="47.65487" lon="6.03439">
        <ele>235</ele>
        <time>2018-09-19T08:41:08Z</time>
      </trkpt>
      <trkpt lat="47.65481" lon="6.03439">
        <ele>235</ele>
        <time>2018-09-19T08:41:10Z</time>
      </trkpt>
      <trkpt lat="47.65476" lon="6.0344">
        <ele>235</ele>
        <time>2018-09-19T08:41:12Z</time>
      </trkpt>
      <trkpt lat="47.65471" lon="6.03441">
        <ele>235</ele>
        <time>2018-09-19T08:41:14Z</time>
      </trkpt>
      <trkpt lat="47.65466" lon="6.03441">
        <ele>235</ele>
        <time>2018-09-19T08:41:16Z</time>
      </trkpt>
      <trkpt lat="47.6546" lon="6.03442">
        <ele>235</ele>
        <time>2018-09-19T08:41:18Z</time>
      </trkpt>
      <trkpt lat="47.65455" lon="6.03443">
        <ele>235</ele>
        <time>2018-09-19T08:41:20Z</time>
      </trkpt>
      <trkpt lat="47.6545" lon="6.03443">
        <ele>235</ele>
        <time>2018-09-19T08:41:22Z</time>
      </trkpt>
      <trkpt lat="47.65445" lon="6.03442">
        <ele>235</ele>
        <time>2018-09-19T08:41:24Z</time>
      </trkpt>
      <trkpt lat="47.6544" lon="6.03441">
        <ele>234</ele>
        <time>2018-09-19T08:41:26Z</time>
      </trkpt>
      <trkpt lat="47.65435" lon="6.0344">
        <ele>234</ele>
        <time>2018-09-19T08:41:28Z</time>
      </trkpt>
      <trkpt lat="47.6543" lon="6.03441">
        <ele>234</ele>
        <time>2018-09-19T08:41:30Z</time>
      </trkpt>
      <trkpt lat="47.65424" lon="6.03442">
        <ele>234</ele>
        <time>2018-09-19T08:41:32Z</time>
      </trkpt>
      <trkpt lat="47.65418" lon="6.03442">
        <ele>234</ele>
        <time>2018-09-19T08:41:34Z</time>
      </trkpt>
      <trkpt lat="47.65412" lon="6.03443">
        <ele>232</ele>
        <time>2018-09-19T08:41:36Z</time>
      </trkpt>
      <trkpt lat="47.65405" lon="6.03443">
        <ele>232</ele>
        <time>2018-09-19T08:41:38Z</time>
      </trkpt>
      <trkpt lat="47.65398" lon="6.03444">
        <ele>232</ele>
        <time>2018-09-19T08:41:40Z</time>
      </trkpt>
      <trkpt lat="47.65392" lon="6.03445">
        <ele>232</ele>
        <time>2018-09-19T08:41:42Z</time>
      </trkpt>
      <trkpt lat="47.65386" lon="6.03446">
        <ele>232</ele>
        <time>2018-09-19T08:41:44Z</time>
      </trkpt>
      <trkpt lat="47.6538" lon="6.03447">
        <ele>232</ele>
        <time>2018-09-19T08:41:46Z</time>
      </trkpt>
      <trkpt lat="47.65375" lon="6.03447">
        <ele>232</ele>
        <time>2018-09-19T08:41:48Z</time>
      </trkpt>
      <trkpt lat="47.6537" lon="6.03442">
        <ele>231</ele>
        <time>2018-09-19T08:41:51Z</time>
      </trkpt>
      <trkpt lat="47.65368" lon="6.03435">
        <ele>231</ele>
        <time>2018-09-19T08:41:53Z</time>
      </trkpt>
      <trkpt lat="47.65368" lon="6.03427">
        <ele>231</ele>
        <time>2018-09-19T08:41:55Z</time>
      </trkpt>
      <trkpt lat="47.65368" lon="6.03416">
        <ele>229</ele>
        <time>2018-09-19T08:41:57Z</time>
      </trkpt>
      <trkpt lat="47.65368" lon="6.03405">
        <ele>229</ele>
        <time>2018-09-19T08:41:59Z</time>
      </trkpt>
      <trkpt lat="47.65367" lon="6.03393">
        <ele>229</ele>
        <time>2018-09-19T08:42:01Z</time>
      </trkpt>
      <trkpt lat="47.65367" lon="6.03381">
        <ele>228</ele>
        <time>2018-09-19T08:42:03Z</time>
      </trkpt>
      <trkpt lat="47.65362" lon="6.03365">
        <ele>228</ele>
        <time>2018-09-19T08:42:04Z</time>
      </trkpt>
      <trkpt lat="47.65361" lon="6.03353">
        <ele>227</ele>
        <time>2018-09-19T08:42:06Z</time>
      </trkpt>
      <trkpt lat="47.65359" lon="6.03342">
        <ele>227</ele>
        <time>2018-09-19T08:42:08Z</time>
      </trkpt>
      <trkpt lat="47.65356" lon="6.03332">
        <ele>225</ele>
        <time>2018-09-19T08:42:10Z</time>
      </trkpt>
      <trkpt lat="47.65354" lon="6.03323">
        <ele>225</ele>
        <time>2018-09-19T08:42:12Z</time>
      </trkpt>
      <trkpt lat="47.65353" lon="6.03313">
        <ele>225</ele>
        <time>2018-09-19T08:42:15Z</time>
      </trkpt>
      <trkpt lat="47.65352" lon="6.03305">
        <ele>225</ele>
        <time>2018-09-19T08:42:17Z</time>
      </trkpt>
      <trkpt lat="47.65351" lon="6.03295">
        <ele>225</ele>
        <time>2018-09-19T08:42:19Z</time>
      </trkpt>
      <trkpt lat="47.65349" lon="6.03282">
        <ele>225</ele>
        <time>2018-09-19T08:42:20Z</time>
      </trkpt>
      <trkpt lat="47.65348" lon="6.0327">
        <ele>224</ele>
        <time>2018-09-19T08:42:22Z</time>
      </trkpt>
      <trkpt lat="47.65346" lon="6.03261">
        <ele>223</ele>
        <time>2018-09-19T08:42:24Z</time>
      </trkpt>
      <trkpt lat="47.65344" lon="6.03251">
        <ele>223</ele>
        <time>2018-09-19T08:42:26Z</time>
      </trkpt>
      <trkpt lat="47.65342" lon="6.03242">
        <ele>222</ele>
        <time>2018-09-19T08:42:29Z</time>
      </trkpt>
      <trkpt lat="47.65341" lon="6.03234">
        <ele>222</ele>
        <time>2018-09-19T08:42:32Z</time>
      </trkpt>
      <trkpt lat="47.65339" lon="6.03225">
        <ele>222</ele>
        <time>2018-09-19T08:42:35Z</time>
      </trkpt>
      <trkpt lat="47.65338" lon="6.03216">
        <ele>222</ele>
        <time>2018-09-19T08:42:37Z</time>
      </trkpt>
      <trkpt lat="47.65337" lon="6.03205">
        <ele>222</ele>
        <time>2018-09-19T08:42:39Z</time>
      </trkpt>
      <trkpt lat="47.65334" lon="6.03179">
        <ele>220</ele>
        <time>2018-09-19T08:42:41Z</time>
      </trkpt>
      <trkpt lat="47.65333" lon="6.03172">
        <ele>219</ele>
        <time>2018-09-19T08:42:42Z</time>
      </trkpt>
      <trkpt lat="47.65333" lon="6.03163">
        <ele>218</ele>
        <time>2018-09-19T08:42:43Z</time>
      </trkpt>
      <trkpt lat="47.65332" lon="6.03156">
        <ele>217</ele>
        <time>2018-09-19T08:42:44Z</time>
      </trkpt>
      <trkpt lat="47.65331" lon="6.03149">
        <ele>217</ele>
        <time>2018-09-19T08:42:45Z</time>
      </trkpt>
      <trkpt lat="47.6533" lon="6.03141">
        <ele>216</ele>
        <time>2018-09-19T08:42:46Z</time>
      </trkpt>
      <trkpt lat="47.65329" lon="6.03132">
        <ele>215</ele>
        <time>2018-09-19T08:42:47Z</time>
      </trkpt>
      <trkpt lat="47.65329" lon="6.03124">
        <ele>215</ele>
        <time>2018-09-19T08:42:48Z</time>
      </trkpt>
      <trkpt lat="47.65328" lon="6.03116">
        <ele>215</ele>
        <time>2018-09-19T08:42:49Z</time>
      </trkpt>
      <trkpt lat="47.65327" lon="6.03109">
        <ele>214</ele>
        <time>2018-09-19T08:42:50Z</time>
      </trkpt>
      <trkpt lat="47.65326" lon="6.03102">
        <ele>214</ele>
        <time>2018-09-19T08:42:51Z</time>
      </trkpt>
      <trkpt lat="47.65324" lon="6.03091">
        <ele>214</ele>
        <time>2018-09-19T08:42:53Z</time>
      </trkpt>
      <trkpt lat="47.65323" lon="6.0308">
        <ele>212</ele>
        <time>2018-09-19T08:42:55Z</time>
      </trkpt>
      <trkpt lat="47.65323" lon="6.0307">
        <ele>212</ele>
        <time>2018-09-19T08:42:57Z</time>
      </trkpt>
      <trkpt lat="47.65324" lon="6.03063">
        <ele>212</ele>
        <time>2018-09-19T08:42:59Z</time>
      </trkpt>
      <trkpt lat="47.65324" lon="6.03053">
        <ele>211</ele>
        <time>2018-09-19T08:43:02Z</time>
      </trkpt>
      <trkpt lat="47.65324" lon="6.03045">
        <ele>211</ele>
        <time>2018-09-19T08:43:04Z</time>
      </trkpt>
      <trkpt lat="47.65323" lon="6.03037">
        <ele>211</ele>
        <time>2018-09-19T08:43:06Z</time>
      </trkpt>
      <trkpt lat="47.65322" lon="6.03029">
        <ele>211</ele>
        <time>2018-09-19T08:43:08Z</time>
      </trkpt>
      <trkpt lat="47.65319" lon="6.03024">
        <ele>210</ele>
        <time>2018-09-19T08:43:27Z</time>
      </trkpt>
      <trkpt lat="47.65317" lon="6.03015">
        <ele>210</ele>
        <time>2018-09-19T08:43:30Z</time>
      </trkpt>
      <trkpt lat="47.65316" lon="6.03007">
        <ele>210</ele>
        <time>2018-09-19T08:43:32Z</time>
      </trkpt>
      <trkpt lat="47.65315" lon="6.02999">
        <ele>209</ele>
        <time>2018-09-19T08:43:35Z</time>
      </trkpt>
      <trkpt lat="47.65314" lon="6.02992">
        <ele>209</ele>
        <time>2018-09-19T08:43:46Z</time>
      </trkpt>
      <trkpt lat="47.65311" lon="6.02987">
        <ele>209</ele>
        <time>2018-09-19T08:44:40Z</time>
      </trkpt>
      <trkpt lat="47.65305" lon="6.02989">
        <ele>209</ele>
        <time>2018-09-19T08:44:43Z</time>
      </trkpt>
      <trkpt lat="47.65299" lon="6.02991">
        <ele>209</ele>
        <time>2018-09-19T08:44:45Z</time>
      </trkpt>
      <trkpt lat="47.65287" lon="6.02996">
        <ele>208</ele>
        <time>2018-09-19T08:44:47Z</time>
      </trkpt>
      <trkpt lat="47.65279" lon="6.02998">
        <ele>208</ele>
        <time>2018-09-19T08:44:49Z</time>
      </trkpt>
      <trkpt lat="47.65271" lon="6.03">
        <ele>208</ele>
        <time>2018-09-19T08:44:51Z</time>
      </trkpt>
      <trkpt lat="47.65262" lon="6.03001">
        <ele>209</ele>
        <time>2018-09-19T08:44:53Z</time>
      </trkpt>
      <trkpt lat="47.65254" lon="6.03002">
        <ele>208</ele>
        <time>2018-09-19T08:44:55Z</time>
      </trkpt>
      <trkpt lat="47.65246" lon="6.03003">
        <ele>208</ele>
        <time>2018-09-19T08:44:57Z</time>
      </trkpt>
      <trkpt lat="47.65238" lon="6.03004">
        <ele>208</ele>
        <time>2018-09-19T08:44:59Z</time>
      </trkpt>
      <trkpt lat="47.65229" lon="6.03005">
        <ele>208</ele>
        <time>2018-09-19T08:45:01Z</time>
      </trkpt>
      <trkpt lat="47.65221" lon="6.03005">
        <ele>208</ele>
        <time>2018-09-19T08:45:03Z</time>
      </trkpt>
      <trkpt lat="47.65214" lon="6.03006">
        <ele>208</ele>
        <time>2018-09-19T08:45:05Z</time>
      </trkpt>
      <trkpt lat="47.65207" lon="6.03007">
        <ele>208</ele>
        <time>2018-09-19T08:45:07Z</time>
      </trkpt>
      <trkpt lat="47.65199" lon="6.03009">
        <ele>208</ele>
        <time>2018-09-19T08:45:09Z</time>
      </trkpt>
      <trkpt lat="47.65192" lon="6.03012">
        <ele>208</ele>
        <time>2018-09-19T08:45:11Z</time>
      </trkpt>
      <trkpt lat="47.65185" lon="6.03015">
        <ele>208</ele>
        <time>2018-09-19T08:45:13Z</time>
      </trkpt>
      <trkpt lat="47.65177" lon="6.0302">
        <ele>208</ele>
        <time>2018-09-19T08:45:15Z</time>
      </trkpt>
      <trkpt lat="47.6517" lon="6.03025">
        <ele>208</ele>
        <time>2018-09-19T08:45:17Z</time>
      </trkpt>
      <trkpt lat="47.65163" lon="6.0303">
        <ele>207</ele>
        <time>2018-09-19T08:45:19Z</time>
      </trkpt>
      <trkpt lat="47.65156" lon="6.03037">
        <ele>207</ele>
        <time>2018-09-19T08:45:21Z</time>
      </trkpt>
      <trkpt lat="47.6515" lon="6.03043">
        <ele>207</ele>
        <time>2018-09-19T08:45:23Z</time>
      </trkpt>
      <trkpt lat="47.65144" lon="6.03049">
        <ele>207</ele>
        <time>2018-09-19T08:45:25Z</time>
      </trkpt>
      <trkpt lat="47.65138" lon="6.03056">
        <ele>207</ele>
        <time>2018-09-19T08:45:27Z</time>
      </trkpt>
      <trkpt lat="47.65133" lon="6.03062">
        <ele>207</ele>
        <time>2018-09-19T08:45:29Z</time>
      </trkpt>
      <trkpt lat="47.65129" lon="6.03067">
        <ele>207</ele>
        <time>2018-09-19T08:45:31Z</time>
      </trkpt>
      <trkpt lat="47.65124" lon="6.03072">
        <ele>207</ele>
        <time>2018-09-19T08:45:33Z</time>
      </trkpt>
      <trkpt lat="47.65119" lon="6.03079">
        <ele>207</ele>
        <time>2018-09-19T08:45:35Z</time>
      </trkpt>
      <trkpt lat="47.65115" lon="6.03084">
        <ele>209</ele>
        <time>2018-09-19T08:45:37Z</time>
      </trkpt>
      <trkpt lat="47.65109" lon="6.03091">
        <ele>209</ele>
        <time>2018-09-19T08:45:39Z</time>
      </trkpt>
      <trkpt lat="47.65104" lon="6.03098">
        <ele>209</ele>
        <time>2018-09-19T08:45:41Z</time>
      </trkpt>
      <trkpt lat="47.65098" lon="6.03105">
        <ele>209</ele>
        <time>2018-09-19T08:45:43Z</time>
      </trkpt>
      <trkpt lat="47.65092" lon="6.03113">
        <ele>209</ele>
        <time>2018-09-19T08:45:45Z</time>
      </trkpt>
      <trkpt lat="47.65086" lon="6.03121">
        <ele>209</ele>
        <time>2018-09-19T08:45:47Z</time>
      </trkpt>
      <trkpt lat="47.65081" lon="6.0313">
        <ele>208</ele>
        <time>2018-09-19T08:45:49Z</time>
      </trkpt>
      <trkpt lat="47.65076" lon="6.0314">
        <ele>208</ele>
        <time>2018-09-19T08:45:51Z</time>
      </trkpt>
      <trkpt lat="47.65072" lon="6.03148">
        <ele>208</ele>
        <time>2018-09-19T08:45:53Z</time>
      </trkpt>
      <trkpt lat="47.65069" lon="6.03156">
        <ele>208</ele>
        <time>2018-09-19T08:45:55Z</time>
      </trkpt>
      <trkpt lat="47.65065" lon="6.03164">
        <ele>208</ele>
        <time>2018-09-19T08:45:57Z</time>
      </trkpt>
      <trkpt lat="47.65062" lon="6.0317">
        <ele>210</ele>
        <time>2018-09-19T08:45:59Z</time>
      </trkpt>
      <trkpt lat="47.65058" lon="6.03176">
        <ele>210</ele>
        <time>2018-09-19T08:46:01Z</time>
      </trkpt>
      <trkpt lat="47.65055" lon="6.03182">
        <ele>210</ele>
        <time>2018-09-19T08:46:03Z</time>
      </trkpt>
      <trkpt lat="47.65052" lon="6.03187">
        <ele>210</ele>
        <time>2018-09-19T08:46:05Z</time>
      </trkpt>
      <trkpt lat="47.65048" lon="6.03195">
        <ele>211</ele>
        <time>2018-09-19T08:46:08Z</time>
      </trkpt>
      <trkpt lat="47.65044" lon="6.03201">
        <ele>211</ele>
        <time>2018-09-19T08:46:11Z</time>
      </trkpt>
      <trkpt lat="47.6504" lon="6.03207">
        <ele>211</ele>
        <time>2018-09-19T08:46:14Z</time>
      </trkpt>
      <trkpt lat="47.65036" lon="6.03213">
        <ele>211</ele>
        <time>2018-09-19T08:46:17Z</time>
      </trkpt>
      <trkpt lat="47.65032" lon="6.03218">
        <ele>211</ele>
        <time>2018-09-19T08:46:20Z</time>
      </trkpt>
      <trkpt lat="47.65028" lon="6.03223">
        <ele>211</ele>
        <time>2018-09-19T08:46:23Z</time>
      </trkpt>
      <trkpt lat="47.65022" lon="6.03228">
        <ele>212</ele>
        <time>2018-09-19T08:46:26Z</time>
      </trkpt>
      <trkpt lat="47.65017" lon="6.03233">
        <ele>212</ele>
        <time>2018-09-19T08:46:29Z</time>
      </trkpt>
      <trkpt lat="47.65013" lon="6.03236">
        <ele>212</ele>
        <time>2018-09-19T08:46:31Z</time>
      </trkpt>
      <trkpt lat="47.65008" lon="6.0324">
        <ele>212</ele>
        <time>2018-09-19T08:46:33Z</time>
      </trkpt>
      <trkpt lat="47.65002" lon="6.03245">
        <ele>213</ele>
        <time>2018-09-19T08:46:35Z</time>
      </trkpt>
      <trkpt lat="47.64997" lon="6.03248">
        <ele>212</ele>
        <time>2018-09-19T08:46:37Z</time>
      </trkpt>
      <trkpt lat="47.64991" lon="6.03251">
        <ele>213</ele>
        <time>2018-09-19T08:46:39Z</time>
      </trkpt>
      <trkpt lat="47.64985" lon="6.03255">
        <ele>214</ele>
        <time>2018-09-19T08:46:41Z</time>
      </trkpt>
      <trkpt lat="47.64979" lon="6.0326">
        <ele>214</ele>
        <time>2018-09-19T08:46:43Z</time>
      </trkpt>
      <trkpt lat="47.64972" lon="6.03264">
        <ele>214</ele>
        <time>2018-09-19T08:46:45Z</time>
      </trkpt>
      <trkpt lat="47.64965" lon="6.03269">
        <ele>214</ele>
        <time>2018-09-19T08:46:47Z</time>
      </trkpt>
      <trkpt lat="47.64957" lon="6.03274">
        <ele>214</ele>
        <time>2018-09-19T08:46:49Z</time>
      </trkpt>
      <trkpt lat="47.64953" lon="6.03277">
        <ele>214</ele>
        <time>2018-09-19T08:46:50Z</time>
      </trkpt>
      <trkpt lat="47.64949" lon="6.0328">
        <ele>214</ele>
        <time>2018-09-19T08:46:51Z</time>
      </trkpt>
      <trkpt lat="47.64941" lon="6.03285">
        <ele>214</ele>
        <time>2018-09-19T08:46:53Z</time>
      </trkpt>
      <trkpt lat="47.64934" lon="6.0329">
        <ele>214</ele>
        <time>2018-09-19T08:46:55Z</time>
      </trkpt>
      <trkpt lat="47.64928" lon="6.03293">
        <ele>214</ele>
        <time>2018-09-19T08:46:57Z</time>
      </trkpt>
      <trkpt lat="47.64921" lon="6.03297">
        <ele>214</ele>
        <time>2018-09-19T08:46:59Z</time>
      </trkpt>
      <trkpt lat="47.64915" lon="6.03301">
        <ele>212</ele>
        <time>2018-09-19T08:47:01Z</time>
      </trkpt>
      <trkpt lat="47.64908" lon="6.03305">
        <ele>212</ele>
        <time>2018-09-19T08:47:03Z</time>
      </trkpt>
      <trkpt lat="47.64902" lon="6.03308">
        <ele>212</ele>
        <time>2018-09-19T08:47:05Z</time>
      </trkpt>
      <trkpt lat="47.64895" lon="6.03311">
        <ele>212</ele>
        <time>2018-09-19T08:47:07Z</time>
      </trkpt>
      <trkpt lat="47.64889" lon="6.03314">
        <ele>212</ele>
        <time>2018-09-19T08:47:09Z</time>
      </trkpt>
      <trkpt lat="47.64883" lon="6.03318">
        <ele>212</ele>
        <time>2018-09-19T08:47:11Z</time>
      </trkpt>
      <trkpt lat="47.64877" lon="6.03322">
        <ele>212</ele>
        <time>2018-09-19T08:47:13Z</time>
      </trkpt>
      <trkpt lat="47.64871" lon="6.03326">
        <ele>212</ele>
        <time>2018-09-19T08:47:15Z</time>
      </trkpt>
      <trkpt lat="47.64865" lon="6.0333">
        <ele>212</ele>
        <time>2018-09-19T08:47:17Z</time>
      </trkpt>
      <trkpt lat="47.64858" lon="6.03334">
        <ele>214</ele>
        <time>2018-09-19T08:47:19Z</time>
      </trkpt>
      <trkpt lat="47.64852" lon="6.03338">
        <ele>214</ele>
        <time>2018-09-19T08:47:21Z</time>
      </trkpt>
      <trkpt lat="47.64846" lon="6.03341">
        <ele>214</ele>
        <time>2018-09-19T08:47:23Z</time>
      </trkpt>
      <trkpt lat="47.6484" lon="6.03344">
        <ele>214</ele>
        <time>2018-09-19T08:47:25Z</time>
      </trkpt>
      <trkpt lat="47.64834" lon="6.03347">
        <ele>214</ele>
        <time>2018-09-19T08:47:27Z</time>
      </trkpt>
      <trkpt lat="47.64828" lon="6.03349">
        <ele>212</ele>
        <time>2018-09-19T08:47:29Z</time>
      </trkpt>
      <trkpt lat="47.64823" lon="6.03352">
        <ele>212</ele>
        <time>2018-09-19T08:47:31Z</time>
      </trkpt>
      <trkpt lat="47.64818" lon="6.03354">
        <ele>212</ele>
        <time>2018-09-19T08:47:33Z</time>
      </trkpt>
      <trkpt lat="47.64813" lon="6.03357">
        <ele>212</ele>
        <time>2018-09-19T08:47:35Z</time>
      </trkpt>
      <trkpt lat="47.64808" lon="6.03359">
        <ele>212</ele>
        <time>2018-09-19T08:47:37Z</time>
      </trkpt>
      <trkpt lat="47.64803" lon="6.03362">
        <ele>212</ele>
        <time>2018-09-19T08:47:39Z</time>
      </trkpt>
      <trkpt lat="47.64799" lon="6.03364">
        <ele>212</ele>
        <time>2018-09-19T08:47:41Z</time>
      </trkpt>
      <trkpt lat="47.64795" lon="6.03367">
        <ele>212</ele>
        <time>2018-09-19T08:47:43Z</time>
      </trkpt>
      <trkpt lat="47.6479" lon="6.0337">
        <ele>212</ele>
        <time>2018-09-19T08:47:45Z</time>
      </trkpt>
      <trkpt lat="47.64785" lon="6.03372">
        <ele>212</ele>
        <time>2018-09-19T08:47:47Z</time>
      </trkpt>
      <trkpt lat="47.6478" lon="6.03376">
        <ele>212</ele>
        <time>2018-09-19T08:47:49Z</time>
      </trkpt>
      <trkpt lat="47.64775" lon="6.03379">
        <ele>212</ele>
        <time>2018-09-19T08:47:51Z</time>
      </trkpt>
      <trkpt lat="47.64769" lon="6.03383">
        <ele>212</ele>
        <time>2018-09-19T08:47:54Z</time>
      </trkpt>
      <trkpt lat="47.64763" lon="6.03387">
        <ele>212</ele>
        <time>2018-09-19T08:47:56Z</time>
      </trkpt>
      <trkpt lat="47.64757" lon="6.03392">
        <ele>212</ele>
        <time>2018-09-19T08:47:58Z</time>
      </trkpt>
      <trkpt lat="47.6475" lon="6.03397">
        <ele>212</ele>
        <time>2018-09-19T08:48:00Z</time>
      </trkpt>
      <trkpt lat="47.64744" lon="6.03402">
        <ele>211</ele>
        <time>2018-09-19T08:48:02Z</time>
      </trkpt>
      <trkpt lat="47.64737" lon="6.03407">
        <ele>211</ele>
        <time>2018-09-19T08:48:04Z</time>
      </trkpt>
      <trkpt lat="47.64731" lon="6.03412">
        <ele>211</ele>
        <time>2018-09-19T08:48:06Z</time>
      </trkpt>
      <trkpt lat="47.64724" lon="6.03417">
        <ele>212</ele>
        <time>2018-09-19T08:48:08Z</time>
      </trkpt>
      <trkpt lat="47.64717" lon="6.03422">
        <ele>212</ele>
        <time>2018-09-19T08:48:10Z</time>
      </trkpt>
      <trkpt lat="47.6471" lon="6.03427">
        <ele>212</ele>
        <time>2018-09-19T08:48:12Z</time>
      </trkpt>
      <trkpt lat="47.64703" lon="6.03432">
        <ele>212</ele>
        <time>2018-09-19T08:48:14Z</time>
      </trkpt>
      <trkpt lat="47.64696" lon="6.03437">
        <ele>212</ele>
        <time>2018-09-19T08:48:16Z</time>
      </trkpt>
      <trkpt lat="47.64689" lon="6.03442">
        <ele>212</ele>
        <time>2018-09-19T08:48:18Z</time>
      </trkpt>
      <trkpt lat="47.64683" lon="6.03447">
        <ele>212</ele>
        <time>2018-09-19T08:48:20Z</time>
      </trkpt>
      <trkpt lat="47.64677" lon="6.03451">
        <ele>212</ele>
        <time>2018-09-19T08:48:22Z</time>
      </trkpt>
      <trkpt lat="47.64672" lon="6.03457">
        <ele>212</ele>
        <time>2018-09-19T08:48:24Z</time>
      </trkpt>
      <trkpt lat="47.64666" lon="6.03463">
        <ele>210</ele>
        <time>2018-09-19T08:48:26Z</time>
      </trkpt>
      <trkpt lat="47.64661" lon="6.03469">
        <ele>210</ele>
        <time>2018-09-19T08:48:28Z</time>
      </trkpt>
      <trkpt lat="47.64657" lon="6.03475">
        <ele>210</ele>
        <time>2018-09-19T08:48:30Z</time>
      </trkpt>
      <trkpt lat="47.64652" lon="6.03481">
        <ele>210</ele>
        <time>2018-09-19T08:48:32Z</time>
      </trkpt>
      <trkpt lat="47.64648" lon="6.03487">
        <ele>210</ele>
        <time>2018-09-19T08:48:34Z</time>
      </trkpt>
      <trkpt lat="47.64644" lon="6.03494">
        <ele>210</ele>
        <time>2018-09-19T08:48:36Z</time>
      </trkpt>
      <trkpt lat="47.64639" lon="6.03501">
        <ele>211</ele>
        <time>2018-09-19T08:48:38Z</time>
      </trkpt>
      <trkpt lat="47.64634" lon="6.03507">
        <ele>211</ele>
        <time>2018-09-19T08:48:40Z</time>
      </trkpt>
      <trkpt lat="47.64629" lon="6.03513">
        <ele>211</ele>
        <time>2018-09-19T08:48:42Z</time>
      </trkpt>
      <trkpt lat="47.64624" lon="6.0352">
        <ele>211</ele>
        <time>2018-09-19T08:48:44Z</time>
      </trkpt>
      <trkpt lat="47.64619" lon="6.03526">
        <ele>211</ele>
        <time>2018-09-19T08:48:46Z</time>
      </trkpt>
      <trkpt lat="47.64614" lon="6.03532">
        <ele>211</ele>
        <time>2018-09-19T08:48:48Z</time>
      </trkpt>
      <trkpt lat="47.64609" lon="6.03539">
        <ele>211</ele>
        <time>2018-09-19T08:48:50Z</time>
      </trkpt>
      <trkpt lat="47.64603" lon="6.03545">
        <ele>212</ele>
        <time>2018-09-19T08:48:52Z</time>
      </trkpt>
      <trkpt lat="47.64599" lon="6.03551">
        <ele>212</ele>
        <time>2018-09-19T08:48:54Z</time>
      </trkpt>
      <trkpt lat="47.64594" lon="6.03557">
        <ele>212</ele>
        <time>2018-09-19T08:48:56Z</time>
      </trkpt>
      <trkpt lat="47.6459" lon="6.03564">
        <ele>212</ele>
        <time>2018-09-19T08:48:58Z</time>
      </trkpt>
      <trkpt lat="47.64585" lon="6.03569">
        <ele>212</ele>
        <time>2018-09-19T08:49:00Z</time>
      </trkpt>
      <trkpt lat="47.6458" lon="6.03575">
        <ele>211</ele>
        <time>2018-09-19T08:49:02Z</time>
      </trkpt>
      <trkpt lat="47.64576" lon="6.03582">
        <ele>212</ele>
        <time>2018-09-19T08:49:04Z</time>
      </trkpt>
      <trkpt lat="47.64571" lon="6.03588">
        <ele>212</ele>
        <time>2018-09-19T08:49:06Z</time>
      </trkpt>
      <trkpt lat="47.64565" lon="6.03595">
        <ele>212</ele>
        <time>2018-09-19T08:49:08Z</time>
      </trkpt>
      <trkpt lat="47.64559" lon="6.036">
        <ele>212</ele>
        <time>2018-09-19T08:49:10Z</time>
      </trkpt>
      <trkpt lat="47.64552" lon="6.03606">
        <ele>211</ele>
        <time>2018-09-19T08:49:12Z</time>
      </trkpt>
      <trkpt lat="47.64544" lon="6.03609">
        <ele>211</ele>
        <time>2018-09-19T08:49:14Z</time>
      </trkpt>
      <trkpt lat="47.64537" lon="6.03612">
        <ele>211</ele>
        <time>2018-09-19T08:49:16Z</time>
      </trkpt>
      <trkpt lat="47.64525" lon="6.03617">
        <ele>211</ele>
        <time>2018-09-19T08:49:18Z</time>
      </trkpt>
      <trkpt lat="47.64518" lon="6.03618">
        <ele>211</ele>
        <time>2018-09-19T08:49:20Z</time>
      </trkpt>
      <trkpt lat="47.6451" lon="6.0362">
        <ele>211</ele>
        <time>2018-09-19T08:49:22Z</time>
      </trkpt>
      <trkpt lat="47.64502" lon="6.03622">
        <ele>211</ele>
        <time>2018-09-19T08:49:24Z</time>
      </trkpt>
      <trkpt lat="47.64495" lon="6.03622">
        <ele>211</ele>
        <time>2018-09-19T08:49:26Z</time>
      </trkpt>
      <trkpt lat="47.64487" lon="6.03624">
        <ele>211</ele>
        <time>2018-09-19T08:49:28Z</time>
      </trkpt>
      <trkpt lat="47.64479" lon="6.03624">
        <ele>211</ele>
        <time>2018-09-19T08:49:30Z</time>
      </trkpt>
      <trkpt lat="47.64471" lon="6.03625">
        <ele>211</ele>
        <time>2018-09-19T08:49:32Z</time>
      </trkpt>
      <trkpt lat="47.64464" lon="6.03624">
        <ele>211</ele>
        <time>2018-09-19T08:49:34Z</time>
      </trkpt>
      <trkpt lat="47.64456" lon="6.03624">
        <ele>211</ele>
        <time>2018-09-19T08:49:36Z</time>
      </trkpt>
      <trkpt lat="47.64449" lon="6.03623">
        <ele>211</ele>
        <time>2018-09-19T08:49:38Z</time>
      </trkpt>
      <trkpt lat="47.64442" lon="6.03623">
        <ele>211</ele>
        <time>2018-09-19T08:49:40Z</time>
      </trkpt>
      <trkpt lat="47.64436" lon="6.03623">
        <ele>211</ele>
        <time>2018-09-19T08:49:42Z</time>
      </trkpt>
      <trkpt lat="47.6443" lon="6.03622">
        <ele>211</ele>
        <time>2018-09-19T08:49:45Z</time>
      </trkpt>
      <trkpt lat="47.64425" lon="6.03623">
        <ele>211</ele>
        <time>2018-09-19T08:49:47Z</time>
      </trkpt>
      <trkpt lat="47.6442" lon="6.03627">
        <ele>211</ele>
        <time>2018-09-19T08:49:49Z</time>
      </trkpt>
      <trkpt lat="47.64415" lon="6.03632">
        <ele>212</ele>
        <time>2018-09-19T08:49:51Z</time>
      </trkpt>
      <trkpt lat="47.64411" lon="6.03638">
        <ele>212</ele>
        <time>2018-09-19T08:49:53Z</time>
      </trkpt>
      <trkpt lat="47.64408" lon="6.03644">
        <ele>212</ele>
        <time>2018-09-19T08:49:55Z</time>
      </trkpt>
      <trkpt lat="47.64406" lon="6.03651">
        <ele>212</ele>
        <time>2018-09-19T08:49:57Z</time>
      </trkpt>
      <trkpt lat="47.64403" lon="6.03658">
        <ele>212</ele>
        <time>2018-09-19T08:49:59Z</time>
      </trkpt>
      <trkpt lat="47.64401" lon="6.03664">
        <ele>212</ele>
        <time>2018-09-19T08:50:01Z</time>
      </trkpt>
      <trkpt lat="47.64399" lon="6.03672">
        <ele>214</ele>
        <time>2018-09-19T08:50:04Z</time>
      </trkpt>
      <trkpt lat="47.64397" lon="6.0368">
        <ele>214</ele>
        <time>2018-09-19T08:50:07Z</time>
      </trkpt>
      <trkpt lat="47.64394" lon="6.03686">
        <ele>214</ele>
        <time>2018-09-19T08:50:10Z</time>
      </trkpt>
      <trkpt lat="47.64392" lon="6.03692">
        <ele>214</ele>
        <time>2018-09-19T08:50:13Z</time>
      </trkpt>
      <trkpt lat="47.6439" lon="6.037">
        <ele>215</ele>
        <time>2018-09-19T08:50:17Z</time>
      </trkpt>
      <trkpt lat="47.64388" lon="6.03707">
        <ele>215</ele>
        <time>2018-09-19T08:50:21Z</time>
      </trkpt>
      <trkpt lat="47.64384" lon="6.03714">
        <ele>215</ele>
        <time>2018-09-19T08:50:25Z</time>
      </trkpt>
      <trkpt lat="47.64381" lon="6.0372">
        <ele>215</ele>
        <time>2018-09-19T08:50:29Z</time>
      </trkpt>
      <trkpt lat="47.64379" lon="6.03727">
        <ele>215</ele>
        <time>2018-09-19T08:50:33Z</time>
      </trkpt>
      <trkpt lat="47.64376" lon="6.03734">
        <ele>215</ele>
        <time>2018-09-19T08:50:37Z</time>
      </trkpt>
      <trkpt lat="47.64373" lon="6.03741">
        <ele>216</ele>
        <time>2018-09-19T08:50:42Z</time>
      </trkpt>
      <trkpt lat="47.64371" lon="6.03747">
        <ele>216</ele>
        <time>2018-09-19T08:50:46Z</time>
      </trkpt>
      <trkpt lat="47.64369" lon="6.03753">
        <ele>218</ele>
        <time>2018-09-19T08:50:50Z</time>
      </trkpt>
      <trkpt lat="47.64367" lon="6.0376">
        <ele>219</ele>
        <time>2018-09-19T08:50:55Z</time>
      </trkpt>
      <trkpt lat="47.64365" lon="6.03766">
        <ele>219</ele>
        <time>2018-09-19T08:50:59Z</time>
      </trkpt>
      <trkpt lat="47.64362" lon="6.03772">
        <ele>219</ele>
        <time>2018-09-19T08:51:03Z</time>
      </trkpt>
      <trkpt lat="47.6436" lon="6.0378">
        <ele>219</ele>
        <time>2018-09-19T08:51:08Z</time>
      </trkpt>
      <trkpt lat="47.64357" lon="6.03787">
        <ele>220</ele>
        <time>2018-09-19T08:51:12Z</time>
      </trkpt>
      <trkpt lat="47.64356" lon="6.03793">
        <ele>220</ele>
        <time>2018-09-19T08:51:16Z</time>
      </trkpt>
      <trkpt lat="47.64355" lon="6.03801">
        <ele>220</ele>
        <time>2018-09-19T08:51:21Z</time>
      </trkpt>
      <trkpt lat="47.64353" lon="6.03808">
        <ele>221</ele>
        <time>2018-09-19T08:51:26Z</time>
      </trkpt>
      <trkpt lat="47.64351" lon="6.03814">
        <ele>222</ele>
        <time>2018-09-19T08:51:30Z</time>
      </trkpt>
      <trkpt lat="47.64348" lon="6.0382">
        <ele>222</ele>
        <time>2018-09-19T08:51:35Z</time>
      </trkpt>
      <trkpt lat="47.64346" lon="6.03825">
        <ele>223</ele>
        <time>2018-09-19T08:51:39Z</time>
      </trkpt>
      <trkpt lat="47.64343" lon="6.0383">
        <ele>224</ele>
        <time>2018-09-19T08:51:43Z</time>
      </trkpt>
      <trkpt lat="47.64339" lon="6.03835">
        <ele>226</ele>
        <time>2018-09-19T08:51:47Z</time>
      </trkpt>
      <trkpt lat="47.64336" lon="6.03841">
        <ele>226</ele>
        <time>2018-09-19T08:51:51Z</time>
      </trkpt>
      <trkpt lat="47.64333" lon="6.03848">
        <ele>226</ele>
        <time>2018-09-19T08:51:56Z</time>
      </trkpt>
      <trkpt lat="47.6433" lon="6.03855">
        <ele>227</ele>
        <time>2018-09-19T08:52:01Z</time>
      </trkpt>
      <trkpt lat="47.64327" lon="6.03861">
        <ele>228</ele>
        <time>2018-09-19T08:52:06Z</time>
      </trkpt>
      <trkpt lat="47.64323" lon="6.03867">
        <ele>228</ele>
        <time>2018-09-19T08:52:10Z</time>
      </trkpt>
      <trkpt lat="47.6432" lon="6.03872">
        <ele>228</ele>
        <time>2018-09-19T08:52:13Z</time>
      </trkpt>
      <trkpt lat="47.64316" lon="6.03878">
        <ele>228</ele>
        <time>2018-09-19T08:52:17Z</time>
      </trkpt>
      <trkpt lat="47.64313" lon="6.03884">
        <ele>229</ele>
        <time>2018-09-19T08:52:22Z</time>
      </trkpt>
      <trkpt lat="47.6431" lon="6.0389">
        <ele>229</ele>
        <time>2018-09-19T08:52:26Z</time>
      </trkpt>
      <trkpt lat="47.64306" lon="6.03896">
        <ele>229</ele>
        <time>2018-09-19T08:52:31Z</time>
      </trkpt>
      <trkpt lat="47.64303" lon="6.03901">
        <ele>229</ele>
        <time>2018-09-19T08:52:35Z</time>
      </trkpt>
      <trkpt lat="47.64299" lon="6.03906">
        <ele>229</ele>
        <time>2018-09-19T08:52:39Z</time>
      </trkpt>
      <trkpt lat="47.64296" lon="6.0391">
        <ele>229</ele>
        <time>2018-09-19T08:52:43Z</time>
      </trkpt>
      <trkpt lat="47.64292" lon="6.03914">
        <ele>229</ele>
        <time>2018-09-19T08:52:47Z</time>
      </trkpt>
      <trkpt lat="47.64287" lon="6.03918">
        <ele>232</ele>
        <time>2018-09-19T08:52:51Z</time>
      </trkpt>
      <trkpt lat="47.64283" lon="6.03922">
        <ele>233</ele>
        <time>2018-09-19T08:52:55Z</time>
      </trkpt>
      <trkpt lat="47.64277" lon="6.03926">
        <ele>233</ele>
        <time>2018-09-19T08:52:59Z</time>
      </trkpt>
      <trkpt lat="47.64273" lon="6.03929">
        <ele>233</ele>
        <time>2018-09-19T08:53:02Z</time>
      </trkpt>
      <trkpt lat="47.64269" lon="6.03932">
        <ele>233</ele>
        <time>2018-09-19T08:53:05Z</time>
      </trkpt>
      <trkpt lat="47.64265" lon="6.03935">
        <ele>233</ele>
        <time>2018-09-19T08:53:08Z</time>
      </trkpt>
      <trkpt lat="47.6426" lon="6.03938">
        <ele>233</ele>
        <time>2018-09-19T08:53:11Z</time>
      </trkpt>
      <trkpt lat="47.64256" lon="6.03941">
        <ele>233</ele>
        <time>2018-09-19T08:53:14Z</time>
      </trkpt>
      <trkpt lat="47.64252" lon="6.03944">
        <ele>233</ele>
        <time>2018-09-19T08:53:17Z</time>
      </trkpt>
      <trkpt lat="47.64248" lon="6.03948">
        <ele>234</ele>
        <time>2018-09-19T08:53:20Z</time>
      </trkpt>
      <trkpt lat="47.64243" lon="6.03951">
        <ele>234</ele>
        <time>2018-09-19T08:53:23Z</time>
      </trkpt>
      <trkpt lat="47.64239" lon="6.03954">
        <ele>234</ele>
        <time>2018-09-19T08:53:26Z</time>
      </trkpt>
      <trkpt lat="47.64234" lon="6.03959">
        <ele>234</ele>
        <time>2018-09-19T08:53:30Z</time>
      </trkpt>
      <trkpt lat="47.64229" lon="6.03962">
        <ele>234</ele>
        <time>2018-09-19T08:53:34Z</time>
      </trkpt>
      <trkpt lat="47.64225" lon="6.03966">
        <ele>234</ele>
        <time>2018-09-19T08:53:37Z</time>
      </trkpt>
      <trkpt lat="47.6422" lon="6.0397">
        <ele>234</ele>
        <time>2018-09-19T08:53:40Z</time>
      </trkpt>
      <trkpt lat="47.64215" lon="6.03973">
        <ele>234</ele>
        <time>2018-09-19T08:53:43Z</time>
      </trkpt>
      <trkpt lat="47.6421" lon="6.03977">
        <ele>234</ele>
        <time>2018-09-19T08:53:47Z</time>
      </trkpt>
      <trkpt lat="47.64206" lon="6.03981">
        <ele>234</ele>
        <time>2018-09-19T08:53:50Z</time>
      </trkpt>
      <trkpt lat="47.64202" lon="6.03985">
        <ele>234</ele>
        <time>2018-09-19T08:53:53Z</time>
      </trkpt>
      <trkpt lat="47.64198" lon="6.03989">
        <ele>234</ele>
        <time>2018-09-19T08:53:56Z</time>
      </trkpt>
      <trkpt lat="47.64192" lon="6.03994">
        <ele>235</ele>
        <time>2018-09-19T08:53:59Z</time>
      </trkpt>
      <trkpt lat="47.64187" lon="6.03998">
        <ele>235</ele>
        <time>2018-09-19T08:54:01Z</time>
      </trkpt>
      <trkpt lat="47.64183" lon="6.04002">
        <ele>236</ele>
        <time>2018-09-19T08:54:03Z</time>
      </trkpt>
      <trkpt lat="47.64178" lon="6.04006">
        <ele>236</ele>
        <time>2018-09-19T08:54:05Z</time>
      </trkpt>
      <trkpt lat="47.64173" lon="6.0401">
        <ele>236</ele>
        <time>2018-09-19T08:54:07Z</time>
      </trkpt>
      <trkpt lat="47.64169" lon="6.04013">
        <ele>236</ele>
        <time>2018-09-19T08:54:09Z</time>
      </trkpt>
      <trkpt lat="47.64164" lon="6.04017">
        <ele>236</ele>
        <time>2018-09-19T08:54:11Z</time>
      </trkpt>
      <trkpt lat="47.64159" lon="6.04021">
        <ele>236</ele>
        <time>2018-09-19T08:54:13Z</time>
      </trkpt>
      <trkpt lat="47.64153" lon="6.04026">
        <ele>236</ele>
        <time>2018-09-19T08:54:16Z</time>
      </trkpt>
      <trkpt lat="47.64149" lon="6.04029">
        <ele>236</ele>
        <time>2018-09-19T08:54:18Z</time>
      </trkpt>
      <trkpt lat="47.64144" lon="6.04033">
        <ele>237</ele>
        <time>2018-09-19T08:54:21Z</time>
      </trkpt>
      <trkpt lat="47.64138" lon="6.04037">
        <ele>237</ele>
        <time>2018-09-19T08:54:24Z</time>
      </trkpt>
      <trkpt lat="47.64133" lon="6.04041">
        <ele>237</ele>
        <time>2018-09-19T08:54:27Z</time>
      </trkpt>
      <trkpt lat="47.64128" lon="6.04044">
        <ele>237</ele>
        <time>2018-09-19T08:54:30Z</time>
      </trkpt>
      <trkpt lat="47.64124" lon="6.04048">
        <ele>237</ele>
        <time>2018-09-19T08:54:33Z</time>
      </trkpt>
      <trkpt lat="47.64119" lon="6.04053">
        <ele>237</ele>
        <time>2018-09-19T08:54:36Z</time>
      </trkpt>
      <trkpt lat="47.64115" lon="6.04056">
        <ele>237</ele>
        <time>2018-09-19T08:54:38Z</time>
      </trkpt>
      <trkpt lat="47.64109" lon="6.0406">
        <ele>237</ele>
        <time>2018-09-19T08:54:41Z</time>
      </trkpt>
      <trkpt lat="47.64104" lon="6.04064">
        <ele>237</ele>
        <time>2018-09-19T08:54:44Z</time>
      </trkpt>
      <trkpt lat="47.641" lon="6.04067">
        <ele>237</ele>
        <time>2018-09-19T08:54:46Z</time>
      </trkpt>
      <trkpt lat="47.64095" lon="6.04071">
        <ele>237</ele>
        <time>2018-09-19T08:54:48Z</time>
      </trkpt>
      <trkpt lat="47.64091" lon="6.04074">
        <ele>238</ele>
        <time>2018-09-19T08:54:50Z</time>
      </trkpt>
      <trkpt lat="47.64086" lon="6.04078">
        <ele>238</ele>
        <time>2018-09-19T08:54:52Z</time>
      </trkpt>
      <trkpt lat="47.64082" lon="6.04081">
        <ele>238</ele>
        <time>2018-09-19T08:54:54Z</time>
      </trkpt>
      <trkpt lat="47.64077" lon="6.04084">
        <ele>238</ele>
        <time>2018-09-19T08:54:56Z</time>
      </trkpt>
      <trkpt lat="47.64072" lon="6.04088">
        <ele>239</ele>
        <time>2018-09-19T08:54:59Z</time>
      </trkpt>
      <trkpt lat="47.64067" lon="6.04092">
        <ele>239</ele>
        <time>2018-09-19T08:55:01Z</time>
      </trkpt>
      <trkpt lat="47.64061" lon="6.04096">
        <ele>239</ele>
        <time>2018-09-19T08:55:04Z</time>
      </trkpt>
      <trkpt lat="47.64057" lon="6.04099">
        <ele>239</ele>
        <time>2018-09-19T08:55:06Z</time>
      </trkpt>
      <trkpt lat="47.64052" lon="6.04103">
        <ele>239</ele>
        <time>2018-09-19T08:55:09Z</time>
      </trkpt>
      <trkpt lat="47.64047" lon="6.04107">
        <ele>239</ele>
        <time>2018-09-19T08:55:12Z</time>
      </trkpt>
      <trkpt lat="47.64042" lon="6.04111">
        <ele>239</ele>
        <time>2018-09-19T08:55:16Z</time>
      </trkpt>
      <trkpt lat="47.64037" lon="6.04115">
        <ele>240</ele>
        <time>2018-09-19T08:55:19Z</time>
      </trkpt>
      <trkpt lat="47.64032" lon="6.04119">
        <ele>240</ele>
        <time>2018-09-19T08:55:22Z</time>
      </trkpt>
      <trkpt lat="47.64027" lon="6.04122">
        <ele>240</ele>
        <time>2018-09-19T08:55:25Z</time>
      </trkpt>
      <trkpt lat="47.64022" lon="6.04125">
        <ele>240</ele>
        <time>2018-09-19T08:55:28Z</time>
      </trkpt>
      <trkpt lat="47.64017" lon="6.04129">
        <ele>240</ele>
        <time>2018-09-19T08:55:32Z</time>
      </trkpt>
      <trkpt lat="47.64012" lon="6.04133">
        <ele>240</ele>
        <time>2018-09-19T08:55:35Z</time>
      </trkpt>
      <trkpt lat="47.64007" lon="6.04137">
        <ele>240</ele>
        <time>2018-09-19T08:55:38Z</time>
      </trkpt>
      <trkpt lat="47.64001" lon="6.04141">
        <ele>240</ele>
        <time>2018-09-19T08:55:41Z</time>
      </trkpt>
      <trkpt lat="47.63996" lon="6.04145">
        <ele>240</ele>
        <time>2018-09-19T08:55:44Z</time>
      </trkpt>
      <trkpt lat="47.63991" lon="6.04149">
        <ele>240</ele>
        <time>2018-09-19T08:55:47Z</time>
      </trkpt>
      <trkpt lat="47.63986" lon="6.04153">
        <ele>240</ele>
        <time>2018-09-19T08:55:49Z</time>
      </trkpt>
      <trkpt lat="47.63983" lon="6.04156">
        <ele>240</ele>
        <time>2018-09-19T08:55:51Z</time>
      </trkpt>
      <trkpt lat="47.63977" lon="6.04162">
        <ele>240</ele>
        <time>2018-09-19T08:55:54Z</time>
      </trkpt>
      <trkpt lat="47.63973" lon="6.04165">
        <ele>240</ele>
        <time>2018-09-19T08:55:56Z</time>
      </trkpt>
      <trkpt lat="47.63968" lon="6.04169">
        <ele>240</ele>
        <time>2018-09-19T08:55:58Z</time>
      </trkpt>
      <trkpt lat="47.63963" lon="6.04172">
        <ele>240</ele>
        <time>2018-09-19T08:56:00Z</time>
      </trkpt>
      <trkpt lat="47.63958" lon="6.04175">
        <ele>240</ele>
        <time>2018-09-19T08:56:02Z</time>
      </trkpt>
      <trkpt lat="47.63954" lon="6.04178">
        <ele>240</ele>
        <time>2018-09-19T08:56:04Z</time>
      </trkpt>
      <trkpt lat="47.63949" lon="6.04182">
        <ele>240</ele>
        <time>2018-09-19T08:56:06Z</time>
      </trkpt>
      <trkpt lat="47.63945" lon="6.04185">
        <ele>240</ele>
        <time>2018-09-19T08:56:08Z</time>
      </trkpt>
      <trkpt lat="47.63941" lon="6.04189">
        <ele>240</ele>
        <time>2018-09-19T08:56:10Z</time>
      </trkpt>
      <trkpt lat="47.63935" lon="6.04194">
        <ele>240</ele>
        <time>2018-09-19T08:56:13Z</time>
      </trkpt>
      <trkpt lat="47.6393" lon="6.04198">
        <ele>240</ele>
        <time>2018-09-19T08:56:15Z</time>
      </trkpt>
      <trkpt lat="47.63924" lon="6.04202">
        <ele>240</ele>
        <time>2018-09-19T08:56:17Z</time>
      </trkpt>
      <trkpt lat="47.63918" lon="6.04207">
        <ele>240</ele>
        <time>2018-09-19T08:56:19Z</time>
      </trkpt>
      <trkpt lat="47.63911" lon="6.04213">
        <ele>238</ele>
        <time>2018-09-19T08:56:21Z</time>
      </trkpt>
      <trkpt lat="47.63903" lon="6.04218">
        <ele>238</ele>
        <time>2018-09-19T08:56:23Z</time>
      </trkpt>
      <trkpt lat="47.63889" lon="6.04231">
        <ele>238</ele>
        <time>2018-09-19T08:56:25Z</time>
      </trkpt>
      <trkpt lat="47.63884" lon="6.04234">
        <ele>238</ele>
        <time>2018-09-19T08:56:26Z</time>
      </trkpt>
      <trkpt lat="47.6388" lon="6.04237">
        <ele>238</ele>
        <time>2018-09-19T08:56:27Z</time>
      </trkpt>
      <trkpt lat="47.63876" lon="6.04239">
        <ele>238</ele>
        <time>2018-09-19T08:56:28Z</time>
      </trkpt>
      <trkpt lat="47.63871" lon="6.04243">
        <ele>238</ele>
        <time>2018-09-19T08:56:29Z</time>
      </trkpt>
      <trkpt lat="47.63867" lon="6.04245">
        <ele>238</ele>
        <time>2018-09-19T08:56:30Z</time>
      </trkpt>
      <trkpt lat="47.6386" lon="6.04251">
        <ele>238</ele>
        <time>2018-09-19T08:56:32Z</time>
      </trkpt>
      <trkpt lat="47.63852" lon="6.04256">
        <ele>238</ele>
        <time>2018-09-19T08:56:34Z</time>
      </trkpt>
      <trkpt lat="47.63846" lon="6.0426">
        <ele>238</ele>
        <time>2018-09-19T08:56:36Z</time>
      </trkpt>
      <trkpt lat="47.6384" lon="6.04265">
        <ele>238</ele>
        <time>2018-09-19T08:56:38Z</time>
      </trkpt>
      <trkpt lat="47.63836" lon="6.04268">
        <ele>238</ele>
        <time>2018-09-19T08:56:40Z</time>
      </trkpt>
      <trkpt lat="47.6383" lon="6.0427">
        <ele>237</ele>
        <time>2018-09-19T08:56:43Z</time>
      </trkpt>
      <trkpt lat="47.63826" lon="6.04277">
        <ele>237</ele>
        <time>2018-09-19T08:56:46Z</time>
      </trkpt>
      <trkpt lat="47.63826" lon="6.04285">
        <ele>237</ele>
        <time>2018-09-19T08:56:49Z</time>
      </trkpt>
      <trkpt lat="47.63828" lon="6.04293">
        <ele>238</ele>
        <time>2018-09-19T08:56:52Z</time>
      </trkpt>
      <trkpt lat="47.6383" lon="6.04299">
        <ele>238</ele>
        <time>2018-09-19T08:56:55Z</time>
      </trkpt>
      <trkpt lat="47.63832" lon="6.04307">
        <ele>238</ele>
        <time>2018-09-19T08:56:58Z</time>
      </trkpt>
      <trkpt lat="47.63834" lon="6.04314">
        <ele>239</ele>
        <time>2018-09-19T08:57:01Z</time>
      </trkpt>
      <trkpt lat="47.63836" lon="6.04322">
        <ele>238</ele>
        <time>2018-09-19T08:57:04Z</time>
      </trkpt>
      <trkpt lat="47.63837" lon="6.04329">
        <ele>238</ele>
        <time>2018-09-19T08:57:07Z</time>
      </trkpt>
      <trkpt lat="47.63839" lon="6.04337">
        <ele>239</ele>
        <time>2018-09-19T08:57:10Z</time>
      </trkpt>
      <trkpt lat="47.63841" lon="6.04346">
        <ele>239</ele>
        <time>2018-09-19T08:57:13Z</time>
      </trkpt>
      <trkpt lat="47.63842" lon="6.04352">
        <ele>240</ele>
        <time>2018-09-19T08:57:15Z</time>
      </trkpt>
      <trkpt lat="47.63843" lon="6.04359">
        <ele>240</ele>
        <time>2018-09-19T08:57:17Z</time>
      </trkpt>
      <trkpt lat="47.63845" lon="6.04368">
        <ele>240</ele>
        <time>2018-09-19T08:57:20Z</time>
      </trkpt>
      <trkpt lat="47.63847" lon="6.04375">
        <ele>241</ele>
        <time>2018-09-19T08:57:22Z</time>
      </trkpt>
      <trkpt lat="47.63849" lon="6.04384">
        <ele>241</ele>
        <time>2018-09-19T08:57:25Z</time>
      </trkpt>
      <trkpt lat="47.63851" lon="6.04393">
        <ele>241</ele>
        <time>2018-09-19T08:57:28Z</time>
      </trkpt>
      <trkpt lat="47.63853" lon="6.04402">
        <ele>241</ele>
        <time>2018-09-19T08:57:31Z</time>
      </trkpt>
      <trkpt lat="47.63855" lon="6.04411">
        <ele>241</ele>
        <time>2018-09-19T08:57:34Z</time>
      </trkpt>
      <trkpt lat="47.63857" lon="6.04419">
        <ele>242</ele>
        <time>2018-09-19T08:57:37Z</time>
      </trkpt>
      <trkpt lat="47.63859" lon="6.04425">
        <ele>242</ele>
        <time>2018-09-19T08:57:39Z</time>
      </trkpt>
      <trkpt lat="47.63862" lon="6.04433">
        <ele>242</ele>
        <time>2018-09-19T08:57:42Z</time>
      </trkpt>
      <trkpt lat="47.63864" lon="6.04442">
        <ele>242</ele>
        <time>2018-09-19T08:57:45Z</time>
      </trkpt>
      <trkpt lat="47.63866" lon="6.0445">
        <ele>242</ele>
        <time>2018-09-19T08:57:48Z</time>
      </trkpt>
      <trkpt lat="47.63869" lon="6.04457">
        <ele>242</ele>
        <time>2018-09-19T08:57:51Z</time>
      </trkpt>
      <trkpt lat="47.63872" lon="6.04465">
        <ele>242</ele>
        <time>2018-09-19T08:57:54Z</time>
      </trkpt>
      <trkpt lat="47.63874" lon="6.04472">
        <ele>242</ele>
        <time>2018-09-19T08:57:57Z</time>
      </trkpt>
      <trkpt lat="47.63876" lon="6.0448">
        <ele>242</ele>
        <time>2018-09-19T08:58:01Z</time>
      </trkpt>
      <trkpt lat="47.63879" lon="6.04486">
        <ele>242</ele>
        <time>2018-09-19T08:58:04Z</time>
      </trkpt>
      <trkpt lat="47.63882" lon="6.04493">
        <ele>242</ele>
        <time>2018-09-19T08:58:07Z</time>
      </trkpt>
      <trkpt lat="47.63885" lon="6.04501">
        <ele>243</ele>
        <time>2018-09-19T08:58:10Z</time>
      </trkpt>
      <trkpt lat="47.63888" lon="6.04509">
        <ele>243</ele>
        <time>2018-09-19T08:58:13Z</time>
      </trkpt>
      <trkpt lat="47.63891" lon="6.04516">
        <ele>243</ele>
        <time>2018-09-19T08:58:16Z</time>
      </trkpt>
      <trkpt lat="47.63894" lon="6.04523">
        <ele>243</ele>
        <time>2018-09-19T08:58:19Z</time>
      </trkpt>
      <trkpt lat="47.63897" lon="6.04531">
        <ele>243</ele>
        <time>2018-09-19T08:58:22Z</time>
      </trkpt>
      <trkpt lat="47.639" lon="6.04538">
        <ele>243</ele>
        <time>2018-09-19T08:58:25Z</time>
      </trkpt>
      <trkpt lat="47.63903" lon="6.04545">
        <ele>243</ele>
        <time>2018-09-19T08:58:28Z</time>
      </trkpt>
      <trkpt lat="47.63905" lon="6.04552">
        <ele>243</ele>
        <time>2018-09-19T08:58:31Z</time>
      </trkpt>
      <trkpt lat="47.63908" lon="6.04558">
        <ele>243</ele>
        <time>2018-09-19T08:58:34Z</time>
      </trkpt>
      <trkpt lat="47.63911" lon="6.04565">
        <ele>243</ele>
        <time>2018-09-19T08:58:37Z</time>
      </trkpt>
      <trkpt lat="47.63914" lon="6.04573">
        <ele>244</ele>
        <time>2018-09-19T08:58:40Z</time>
      </trkpt>
      <trkpt lat="47.63917" lon="6.04579">
        <ele>244</ele>
        <time>2018-09-19T08:58:43Z</time>
      </trkpt>
      <trkpt lat="47.6392" lon="6.04586">
        <ele>244</ele>
        <time>2018-09-19T08:58:46Z</time>
      </trkpt>
      <trkpt lat="47.63922" lon="6.04593">
        <ele>245</ele>
        <time>2018-09-19T08:58:49Z</time>
      </trkpt>
      <trkpt lat="47.63925" lon="6.04601">
        <ele>245</ele>
        <time>2018-09-19T08:58:52Z</time>
      </trkpt>
      <trkpt lat="47.63928" lon="6.04609">
        <ele>245</ele>
        <time>2018-09-19T08:58:55Z</time>
      </trkpt>
      <trkpt lat="47.63931" lon="6.04617">
        <ele>245</ele>
        <time>2018-09-19T08:58:58Z</time>
      </trkpt>
      <trkpt lat="47.63934" lon="6.04624">
        <ele>245</ele>
        <time>2018-09-19T08:59:01Z</time>
      </trkpt>
      <trkpt lat="47.63937" lon="6.04632">
        <ele>245</ele>
        <time>2018-09-19T08:59:04Z</time>
      </trkpt>
      <trkpt lat="47.6394" lon="6.04639">
        <ele>246</ele>
        <time>2018-09-19T08:59:07Z</time>
      </trkpt>
      <trkpt lat="47.63943" lon="6.04647">
        <ele>246</ele>
        <time>2018-09-19T08:59:10Z</time>
      </trkpt>
      <trkpt lat="47.63946" lon="6.04655">
        <ele>246</ele>
        <time>2018-09-19T08:59:13Z</time>
      </trkpt>
      <trkpt lat="47.63949" lon="6.04663">
        <ele>246</ele>
        <time>2018-09-19T08:59:16Z</time>
      </trkpt>
      <trkpt lat="47.63952" lon="6.04671">
        <ele>246</ele>
        <time>2018-09-19T08:59:19Z</time>
      </trkpt>
      <trkpt lat="47.63955" lon="6.04678">
        <ele>246</ele>
        <time>2018-09-19T08:59:22Z</time>
      </trkpt>
      <trkpt lat="47.63958" lon="6.04685">
        <ele>247</ele>
        <time>2018-09-19T08:59:25Z</time>
      </trkpt>
      <trkpt lat="47.6396" lon="6.04692">
        <ele>247</ele>
        <time>2018-09-19T08:59:28Z</time>
      </trkpt>
      <trkpt lat="47.63963" lon="6.04699">
        <ele>247</ele>
        <time>2018-09-19T08:59:31Z</time>
      </trkpt>
      <trkpt lat="47.63965" lon="6.04706">
        <ele>247</ele>
        <time>2018-09-19T08:59:34Z</time>
      </trkpt>
      <trkpt lat="47.63967" lon="6.04712">
        <ele>247</ele>
        <time>2018-09-19T08:59:37Z</time>
      </trkpt>
      <trkpt lat="47.6397" lon="6.04719">
        <ele>247</ele>
        <time>2018-09-19T08:59:40Z</time>
      </trkpt>
      <trkpt lat="47.63973" lon="6.04726">
        <ele>247</ele>
        <time>2018-09-19T08:59:43Z</time>
      </trkpt>
      <trkpt lat="47.63976" lon="6.04734">
        <ele>247</ele>
        <time>2018-09-19T08:59:46Z</time>
      </trkpt>
      <trkpt lat="47.63979" lon="6.04742">
        <ele>247</ele>
        <time>2018-09-19T08:59:49Z</time>
      </trkpt>
      <trkpt lat="47.63982" lon="6.04751">
        <ele>248</ele>
        <time>2018-09-19T08:59:52Z</time>
      </trkpt>
      <trkpt lat="47.63983" lon="6.04757">
        <ele>248</ele>
        <time>2018-09-19T08:59:54Z</time>
      </trkpt>
      <trkpt lat="47.63986" lon="6.04763">
        <ele>248</ele>
        <time>2018-09-19T08:59:56Z</time>
      </trkpt>
      <trkpt lat="47.63988" lon="6.04769">
        <ele>248</ele>
        <time>2018-09-19T08:59:58Z</time>
      </trkpt>
      <trkpt lat="47.6399" lon="6.04775">
        <ele>248</ele>
        <time>2018-09-19T09:00:00Z</time>
      </trkpt>
      <trkpt lat="47.63992" lon="6.04782">
        <ele>248</ele>
        <time>2018-09-19T09:00:02Z</time>
      </trkpt>
      <trkpt lat="47.63993" lon="6.04789">
        <ele>248</ele>
        <time>2018-09-19T09:00:04Z</time>
      </trkpt>
      <trkpt lat="47.63995" lon="6.04795">
        <ele>248</ele>
        <time>2018-09-19T09:00:06Z</time>
      </trkpt>
      <trkpt lat="47.63997" lon="6.04802">
        <ele>248</ele>
        <time>2018-09-19T09:00:08Z</time>
      </trkpt>
      <trkpt lat="47.63999" lon="6.04808">
        <ele>248</ele>
        <time>2018-09-19T09:00:10Z</time>
      </trkpt>
      <trkpt lat="47.64001" lon="6.04815">
        <ele>249</ele>
        <time>2018-09-19T09:00:12Z</time>
      </trkpt>
      <trkpt lat="47.64002" lon="6.04821">
        <ele>249</ele>
        <time>2018-09-19T09:00:14Z</time>
      </trkpt>
      <trkpt lat="47.64004" lon="6.04828">
        <ele>249</ele>
        <time>2018-09-19T09:00:16Z</time>
      </trkpt>
      <trkpt lat="47.64006" lon="6.04835">
        <ele>250</ele>
        <time>2018-09-19T09:00:18Z</time>
      </trkpt>
      <trkpt lat="47.64008" lon="6.04843">
        <ele>250</ele>
        <time>2018-09-19T09:00:20Z</time>
      </trkpt>
      <trkpt lat="47.64011" lon="6.0485">
        <ele>251</ele>
        <time>2018-09-19T09:00:22Z</time>
      </trkpt>
      <trkpt lat="47.64012" lon="6.04858">
        <ele>251</ele>
        <time>2018-09-19T09:00:24Z</time>
      </trkpt>
      <trkpt lat="47.64014" lon="6.04864">
        <ele>251</ele>
        <time>2018-09-19T09:00:26Z</time>
      </trkpt>
      <trkpt lat="47.64015" lon="6.04871">
        <ele>252</ele>
        <time>2018-09-19T09:00:28Z</time>
      </trkpt>
      <trkpt lat="47.64017" lon="6.04878">
        <ele>252</ele>
        <time>2018-09-19T09:00:30Z</time>
      </trkpt>
      <trkpt lat="47.64018" lon="6.04885">
        <ele>252</ele>
        <time>2018-09-19T09:00:32Z</time>
      </trkpt>
      <trkpt lat="47.64019" lon="6.04894">
        <ele>252</ele>
        <time>2018-09-19T09:00:35Z</time>
      </trkpt>
      <trkpt lat="47.6402" lon="6.04903">
        <ele>252</ele>
        <time>2018-09-19T09:00:38Z</time>
      </trkpt>
      <trkpt lat="47.64021" lon="6.04913">
        <ele>252</ele>
        <time>2018-09-19T09:00:41Z</time>
      </trkpt>
      <trkpt lat="47.64021" lon="6.04922">
        <ele>253</ele>
        <time>2018-09-19T09:00:44Z</time>
      </trkpt>
      <trkpt lat="47.64022" lon="6.04932">
        <ele>253</ele>
        <time>2018-09-19T09:00:47Z</time>
      </trkpt>
      <trkpt lat="47.64023" lon="6.04941">
        <ele>253</ele>
        <time>2018-09-19T09:00:50Z</time>
      </trkpt>
      <trkpt lat="47.64024" lon="6.04951">
        <ele>253</ele>
        <time>2018-09-19T09:00:53Z</time>
      </trkpt>
      <trkpt lat="47.64025" lon="6.0496">
        <ele>253</ele>
        <time>2018-09-19T09:00:56Z</time>
      </trkpt>
      <trkpt lat="47.64026" lon="6.0497">
        <ele>253</ele>
        <time>2018-09-19T09:00:59Z</time>
      </trkpt>
      <trkpt lat="47.64026" lon="6.04979">
        <ele>253</ele>
        <time>2018-09-19T09:01:02Z</time>
      </trkpt>
      <trkpt lat="47.64026" lon="6.04986">
        <ele>252</ele>
        <time>2018-09-19T09:01:04Z</time>
      </trkpt>
      <trkpt lat="47.64027" lon="6.04993">
        <ele>252</ele>
        <time>2018-09-19T09:01:06Z</time>
      </trkpt>
      <trkpt lat="47.64027" lon="6.05">
        <ele>252</ele>
        <time>2018-09-19T09:01:08Z</time>
      </trkpt>
      <trkpt lat="47.64027" lon="6.0501">
        <ele>253</ele>
        <time>2018-09-19T09:01:11Z</time>
      </trkpt>
      <trkpt lat="47.64027" lon="6.0502">
        <ele>253</ele>
        <time>2018-09-19T09:01:14Z</time>
      </trkpt>
      <trkpt lat="47.64027" lon="6.05029">
        <ele>253</ele>
        <time>2018-09-19T09:01:17Z</time>
      </trkpt>
      <trkpt lat="47.64027" lon="6.05039">
        <ele>253</ele>
        <time>2018-09-19T09:01:20Z</time>
      </trkpt>
      <trkpt lat="47.64027" lon="6.05046">
        <ele>253</ele>
        <time>2018-09-19T09:01:22Z</time>
      </trkpt>
      <trkpt lat="47.64027" lon="6.05054">
        <ele>253</ele>
        <time>2018-09-19T09:01:24Z</time>
      </trkpt>
      <trkpt lat="47.64026" lon="6.05063">
        <ele>253</ele>
        <time>2018-09-19T09:01:27Z</time>
      </trkpt>
      <trkpt lat="47.64025" lon="6.05072">
        <ele>253</ele>
        <time>2018-09-19T09:01:30Z</time>
      </trkpt>
      <trkpt lat="47.64022" lon="6.0508">
        <ele>253</ele>
        <time>2018-09-19T09:01:33Z</time>
      </trkpt>
      <trkpt lat="47.64018" lon="6.05086">
        <ele>254</ele>
        <time>2018-09-19T09:01:36Z</time>
      </trkpt>
      <trkpt lat="47.64013" lon="6.05093">
        <ele>254</ele>
        <time>2018-09-19T09:01:39Z</time>
      </trkpt>
      <trkpt lat="47.64008" lon="6.05099">
        <ele>254</ele>
        <time>2018-09-19T09:01:42Z</time>
      </trkpt>
      <trkpt lat="47.64003" lon="6.05104">
        <ele>254</ele>
        <time>2018-09-19T09:01:45Z</time>
      </trkpt>
      <trkpt lat="47.63998" lon="6.05109">
        <ele>255</ele>
        <time>2018-09-19T09:01:48Z</time>
      </trkpt>
      <trkpt lat="47.63993" lon="6.05115">
        <ele>255</ele>
        <time>2018-09-19T09:01:51Z</time>
      </trkpt>
      <trkpt lat="47.63989" lon="6.05121">
        <ele>256</ele>
        <time>2018-09-19T09:01:54Z</time>
      </trkpt>
      <trkpt lat="47.63984" lon="6.05127">
        <ele>256</ele>
        <time>2018-09-19T09:01:57Z</time>
      </trkpt>
      <trkpt lat="47.6398" lon="6.05133">
        <ele>256</ele>
        <time>2018-09-19T09:02:00Z</time>
      </trkpt>
      <trkpt lat="47.63975" lon="6.0514">
        <ele>256</ele>
        <time>2018-09-19T09:02:03Z</time>
      </trkpt>
      <trkpt lat="47.63972" lon="6.05144">
        <ele>256</ele>
        <time>2018-09-19T09:02:05Z</time>
      </trkpt>
      <trkpt lat="47.63968" lon="6.05149">
        <ele>257</ele>
        <time>2018-09-19T09:02:07Z</time>
      </trkpt>
      <trkpt lat="47.63964" lon="6.05153">
        <ele>257</ele>
        <time>2018-09-19T09:02:09Z</time>
      </trkpt>
      <trkpt lat="47.63959" lon="6.05159">
        <ele>257</ele>
        <time>2018-09-19T09:02:12Z</time>
      </trkpt>
      <trkpt lat="47.63955" lon="6.05165">
        <ele>257</ele>
        <time>2018-09-19T09:02:15Z</time>
      </trkpt>
      <trkpt lat="47.63951" lon="6.0517">
        <ele>261</ele>
        <time>2018-09-19T09:02:18Z</time>
      </trkpt>
      <trkpt lat="47.63947" lon="6.05175">
        <ele>262</ele>
        <time>2018-09-19T09:02:22Z</time>
      </trkpt>
      <trkpt lat="47.63943" lon="6.05179">
        <ele>262</ele>
        <time>2018-09-19T09:02:26Z</time>
      </trkpt>
      <trkpt lat="47.63939" lon="6.05183">
        <ele>262</ele>
        <time>2018-09-19T09:02:30Z</time>
      </trkpt>
      <trkpt lat="47.63935" lon="6.05187">
        <ele>262</ele>
        <time>2018-09-19T09:02:43Z</time>
      </trkpt>
      <trkpt lat="47.63931" lon="6.05191">
        <ele>263</ele>
        <time>2018-09-19T09:02:48Z</time>
      </trkpt>
      <trkpt lat="47.63927" lon="6.05194">
        <ele>263</ele>
        <time>2018-09-19T09:02:57Z</time>
      </trkpt>
      <trkpt lat="47.63927" lon="6.05201">
        <ele>263</ele>
        <time>2018-09-19T09:07:10Z</time>
      </trkpt>
      <trkpt lat="47.63928" lon="6.05208">
        <ele>264</ele>
        <time>2018-09-19T09:07:21Z</time>
      </trkpt>
      <trkpt lat="47.63929" lon="6.05216">
        <ele>264</ele>
        <time>2018-09-19T09:07:25Z</time>
      </trkpt>
      <trkpt lat="47.63931" lon="6.05224">
        <ele>265</ele>
        <time>2018-09-19T09:07:28Z</time>
      </trkpt>
      <trkpt lat="47.63932" lon="6.0523">
        <ele>266</ele>
        <time>2018-09-19T09:07:31Z</time>
      </trkpt>
      <trkpt lat="47.63932" lon="6.05238">
        <ele>266</ele>
        <time>2018-09-19T09:07:35Z</time>
      </trkpt>
      <trkpt lat="47.63934" lon="6.05246">
        <ele>267</ele>
        <time>2018-09-19T09:07:39Z</time>
      </trkpt>
      <trkpt lat="47.63935" lon="6.05255">
        <ele>269</ele>
        <time>2018-09-19T09:07:43Z</time>
      </trkpt>
      <trkpt lat="47.63936" lon="6.05262">
        <ele>269</ele>
        <time>2018-09-19T09:07:46Z</time>
      </trkpt>
      <trkpt lat="47.63938" lon="6.0527">
        <ele>268</ele>
        <time>2018-09-19T09:07:50Z</time>
      </trkpt>
      <trkpt lat="47.63939" lon="6.05278">
        <ele>268</ele>
        <time>2018-09-19T09:07:54Z</time>
      </trkpt>
      <trkpt lat="47.63941" lon="6.05285">
        <ele>268</ele>
        <time>2018-09-19T09:07:57Z</time>
      </trkpt>
      <trkpt lat="47.63942" lon="6.05292">
        <ele>268</ele>
        <time>2018-09-19T09:08:00Z</time>
      </trkpt>
      <trkpt lat="47.63944" lon="6.053">
        <ele>268</ele>
        <time>2018-09-19T09:08:03Z</time>
      </trkpt>
      <trkpt lat="47.63945" lon="6.05306">
        <ele>269</ele>
        <time>2018-09-19T09:08:06Z</time>
      </trkpt>
      <trkpt lat="47.63947" lon="6.05315">
        <ele>269</ele>
        <time>2018-09-19T09:08:10Z</time>
      </trkpt>
      <trkpt lat="47.63948" lon="6.05323">
        <ele>269</ele>
        <time>2018-09-19T09:08:13Z</time>
      </trkpt>
      <trkpt lat="47.63949" lon="6.05331">
        <ele>269</ele>
        <time>2018-09-19T09:08:16Z</time>
      </trkpt>
      <trkpt lat="47.6395" lon="6.05337">
        <ele>270</ele>
        <time>2018-09-19T09:08:19Z</time>
      </trkpt>
      <trkpt lat="47.63951" lon="6.05345">
        <ele>270</ele>
        <time>2018-09-19T09:08:22Z</time>
      </trkpt>
      <trkpt lat="47.63953" lon="6.05351">
        <ele>270</ele>
        <time>2018-09-19T09:08:24Z</time>
      </trkpt>
      <trkpt lat="47.63957" lon="6.05359">
        <ele>269</ele>
        <time>2018-09-19T09:08:27Z</time>
      </trkpt>
      <trkpt lat="47.63959" lon="6.05368">
        <ele>269</ele>
        <time>2018-09-19T09:08:30Z</time>
      </trkpt>
      <trkpt lat="47.63962" lon="6.05376">
        <ele>269</ele>
        <time>2018-09-19T09:08:33Z</time>
      </trkpt>
      <trkpt lat="47.63964" lon="6.05382">
        <ele>269</ele>
        <time>2018-09-19T09:08:35Z</time>
      </trkpt>
      <trkpt lat="47.63966" lon="6.0539">
        <ele>268</ele>
        <time>2018-09-19T09:08:38Z</time>
      </trkpt>
      <trkpt lat="47.63968" lon="6.05397">
        <ele>268</ele>
        <time>2018-09-19T09:08:40Z</time>
      </trkpt>
      <trkpt lat="47.63969" lon="6.05407">
        <ele>268</ele>
        <time>2018-09-19T09:08:43Z</time>
      </trkpt>
      <trkpt lat="47.63969" lon="6.05414">
        <ele>268</ele>
        <time>2018-09-19T09:08:46Z</time>
      </trkpt>
      <trkpt lat="47.63967" lon="6.05422">
        <ele>267</ele>
        <time>2018-09-19T09:08:49Z</time>
      </trkpt>
      <trkpt lat="47.63965" lon="6.05428">
        <ele>267</ele>
        <time>2018-09-19T09:08:52Z</time>
      </trkpt>
      <trkpt lat="47.63963" lon="6.05435">
        <ele>267</ele>
        <time>2018-09-19T09:08:57Z</time>
      </trkpt>
      <trkpt lat="47.63959" lon="6.0544">
        <ele>268</ele>
        <time>2018-09-19T09:09:01Z</time>
      </trkpt>
      <trkpt lat="47.63955" lon="6.05447">
        <ele>268</ele>
        <time>2018-09-19T09:09:05Z</time>
      </trkpt>
      <trkpt lat="47.63951" lon="6.05455">
        <ele>268</ele>
        <time>2018-09-19T09:09:08Z</time>
      </trkpt>
      <trkpt lat="47.63949" lon="6.05463">
        <ele>268</ele>
        <time>2018-09-19T09:09:10Z</time>
      </trkpt>
      <trkpt lat="47.63948" lon="6.05472">
        <ele>267</ele>
        <time>2018-09-19T09:09:12Z</time>
      </trkpt>
      <trkpt lat="47.63948" lon="6.05479">
        <ele>267</ele>
        <time>2018-09-19T09:09:14Z</time>
      </trkpt>
      <trkpt lat="47.63949" lon="6.05488">
        <ele>267</ele>
        <time>2018-09-19T09:09:17Z</time>
      </trkpt>
      <trkpt lat="47.63951" lon="6.05498">
        <ele>267</ele>
        <time>2018-09-19T09:09:20Z</time>
      </trkpt>
      <trkpt lat="47.63952" lon="6.05507">
        <ele>266</ele>
        <time>2018-09-19T09:09:23Z</time>
      </trkpt>
      <trkpt lat="47.63954" lon="6.05517">
        <ele>265</ele>
        <time>2018-09-19T09:09:26Z</time>
      </trkpt>
      <trkpt lat="47.63955" lon="6.05524">
        <ele>265</ele>
        <time>2018-09-19T09:09:28Z</time>
      </trkpt>
      <trkpt lat="47.63957" lon="6.0553">
        <ele>265</ele>
        <time>2018-09-19T09:09:30Z</time>
      </trkpt>
      <trkpt lat="47.63959" lon="6.05538">
        <ele>265</ele>
        <time>2018-09-19T09:09:32Z</time>
      </trkpt>
      <trkpt lat="47.6396" lon="6.05545">
        <ele>265</ele>
        <time>2018-09-19T09:09:34Z</time>
      </trkpt>
      <trkpt lat="47.63962" lon="6.05552">
        <ele>265</ele>
        <time>2018-09-19T09:09:36Z</time>
      </trkpt>
      <trkpt lat="47.63964" lon="6.05559">
        <ele>265</ele>
        <time>2018-09-19T09:09:38Z</time>
      </trkpt>
      <trkpt lat="47.63965" lon="6.05566">
        <ele>265</ele>
        <time>2018-09-19T09:09:40Z</time>
      </trkpt>
      <trkpt lat="47.63967" lon="6.05574">
        <ele>265</ele>
        <time>2018-09-19T09:09:42Z</time>
      </trkpt>
      <trkpt lat="47.63969" lon="6.05581">
        <ele>265</ele>
        <time>2018-09-19T09:09:44Z</time>
      </trkpt>
      <trkpt lat="47.63971" lon="6.05589">
        <ele>264</ele>
        <time>2018-09-19T09:09:46Z</time>
      </trkpt>
      <trkpt lat="47.63973" lon="6.05597">
        <ele>264</ele>
        <time>2018-09-19T09:09:48Z</time>
      </trkpt>
      <trkpt lat="47.63975" lon="6.05605">
        <ele>264</ele>
        <time>2018-09-19T09:09:50Z</time>
      </trkpt>
      <trkpt lat="47.63977" lon="6.05614">
        <ele>264</ele>
        <time>2018-09-19T09:09:52Z</time>
      </trkpt>
      <trkpt lat="47.63978" lon="6.05623">
        <ele>264</ele>
        <time>2018-09-19T09:09:54Z</time>
      </trkpt>
      <trkpt lat="47.6398" lon="6.05631">
        <ele>263</ele>
        <time>2018-09-19T09:09:56Z</time>
      </trkpt>
      <trkpt lat="47.63982" lon="6.0564">
        <ele>263</ele>
        <time>2018-09-19T09:09:58Z</time>
      </trkpt>
      <trkpt lat="47.63984" lon="6.05648">
        <ele>263</ele>
        <time>2018-09-19T09:10:00Z</time>
      </trkpt>
      <trkpt lat="47.63986" lon="6.05657">
        <ele>263</ele>
        <time>2018-09-19T09:10:02Z</time>
      </trkpt>
      <trkpt lat="47.63988" lon="6.05667">
        <ele>262</ele>
        <time>2018-09-19T09:10:04Z</time>
      </trkpt>
      <trkpt lat="47.63992" lon="6.05681">
        <ele>262</ele>
        <time>2018-09-19T09:10:05Z</time>
      </trkpt>
      <trkpt lat="47.63994" lon="6.05692">
        <ele>262</ele>
        <time>2018-09-19T09:10:07Z</time>
      </trkpt>
      <trkpt lat="47.63997" lon="6.05703">
        <ele>262</ele>
        <time>2018-09-19T09:10:09Z</time>
      </trkpt>
      <trkpt lat="47.64" lon="6.05715">
        <ele>260</ele>
        <time>2018-09-19T09:10:11Z</time>
      </trkpt>
      <trkpt lat="47.64003" lon="6.05728">
        <ele>260</ele>
        <time>2018-09-19T09:10:13Z</time>
      </trkpt>
      <trkpt lat="47.64005" lon="6.0574">
        <ele>261</ele>
        <time>2018-09-19T09:10:15Z</time>
      </trkpt>
      <trkpt lat="47.64008" lon="6.0575">
        <ele>261</ele>
        <time>2018-09-19T09:10:17Z</time>
      </trkpt>
      <trkpt lat="47.6401" lon="6.05758">
        <ele>261</ele>
        <time>2018-09-19T09:10:19Z</time>
      </trkpt>
      <trkpt lat="47.64012" lon="6.05767">
        <ele>261</ele>
        <time>2018-09-19T09:10:22Z</time>
      </trkpt>
      <trkpt lat="47.64014" lon="6.05776">
        <ele>261</ele>
        <time>2018-09-19T09:10:25Z</time>
      </trkpt>
      <trkpt lat="47.64016" lon="6.05786">
        <ele>261</ele>
        <time>2018-09-19T09:10:28Z</time>
      </trkpt>
      <trkpt lat="47.64017" lon="6.05795">
        <ele>261</ele>
        <time>2018-09-19T09:10:31Z</time>
      </trkpt>
      <trkpt lat="47.6402" lon="6.05804">
        <ele>261</ele>
        <time>2018-09-19T09:10:34Z</time>
      </trkpt>
      <trkpt lat="47.64022" lon="6.05811">
        <ele>262</ele>
        <time>2018-09-19T09:10:36Z</time>
      </trkpt>
      <trkpt lat="47.64023" lon="6.05817">
        <ele>262</ele>
        <time>2018-09-19T09:10:38Z</time>
      </trkpt>
      <trkpt lat="47.64024" lon="6.05824">
        <ele>262</ele>
        <time>2018-09-19T09:10:40Z</time>
      </trkpt>
      <trkpt lat="47.64026" lon="6.0583">
        <ele>262</ele>
        <time>2018-09-19T09:10:42Z</time>
      </trkpt>
      <trkpt lat="47.64028" lon="6.05836">
        <ele>263</ele>
        <time>2018-09-19T09:10:44Z</time>
      </trkpt>
      <trkpt lat="47.64029" lon="6.05843">
        <ele>263</ele>
        <time>2018-09-19T09:10:46Z</time>
      </trkpt>
      <trkpt lat="47.6403" lon="6.05849">
        <ele>263</ele>
        <time>2018-09-19T09:10:48Z</time>
      </trkpt>
      <trkpt lat="47.64032" lon="6.05858">
        <ele>263</ele>
        <time>2018-09-19T09:10:51Z</time>
      </trkpt>
      <trkpt lat="47.64035" lon="6.05867">
        <ele>263</ele>
        <time>2018-09-19T09:10:54Z</time>
      </trkpt>
      <trkpt lat="47.64037" lon="6.05875">
        <ele>263</ele>
        <time>2018-09-19T09:10:57Z</time>
      </trkpt>
      <trkpt lat="47.6404" lon="6.05883">
        <ele>263</ele>
        <time>2018-09-19T09:11:00Z</time>
      </trkpt>
      <trkpt lat="47.64043" lon="6.0589">
        <ele>263</ele>
        <time>2018-09-19T09:11:03Z</time>
      </trkpt>
      <trkpt lat="47.64046" lon="6.05897">
        <ele>263</ele>
        <time>2018-09-19T09:11:06Z</time>
      </trkpt>
      <trkpt lat="47.6405" lon="6.05903">
        <ele>263</ele>
        <time>2018-09-19T09:11:09Z</time>
      </trkpt>
      <trkpt lat="47.64054" lon="6.05909">
        <ele>264</ele>
        <time>2018-09-19T09:11:12Z</time>
      </trkpt>
      <trkpt lat="47.64058" lon="6.05916">
        <ele>264</ele>
        <time>2018-09-19T09:11:15Z</time>
      </trkpt>
      <trkpt lat="47.64062" lon="6.05923">
        <ele>264</ele>
        <time>2018-09-19T09:11:18Z</time>
      </trkpt>
      <trkpt lat="47.64067" lon="6.0593">
        <ele>264</ele>
        <time>2018-09-19T09:11:21Z</time>
      </trkpt>
      <trkpt lat="47.64071" lon="6.05937">
        <ele>264</ele>
        <time>2018-09-19T09:11:24Z</time>
      </trkpt>
      <trkpt lat="47.64075" lon="6.05944">
        <ele>264</ele>
        <time>2018-09-19T09:11:27Z</time>
      </trkpt>
      <trkpt lat="47.64079" lon="6.05951">
        <ele>264</ele>
        <time>2018-09-19T09:11:30Z</time>
      </trkpt>
      <trkpt lat="47.64083" lon="6.05958">
        <ele>264</ele>
        <time>2018-09-19T09:11:33Z</time>
      </trkpt>
      <trkpt lat="47.64087" lon="6.05965">
        <ele>263</ele>
        <time>2018-09-19T09:11:36Z</time>
      </trkpt>
      <trkpt lat="47.64091" lon="6.05969">
        <ele>263</ele>
        <time>2018-09-19T09:11:38Z</time>
      </trkpt>
      <trkpt lat="47.64094" lon="6.05974">
        <ele>263</ele>
        <time>2018-09-19T09:11:40Z</time>
      </trkpt>
      <trkpt lat="47.64098" lon="6.05979">
        <ele>263</ele>
        <time>2018-09-19T09:11:42Z</time>
      </trkpt>
      <trkpt lat="47.64102" lon="6.05985">
        <ele>263</ele>
        <time>2018-09-19T09:11:44Z</time>
      </trkpt>
      <trkpt lat="47.64105" lon="6.0599">
        <ele>263</ele>
        <time>2018-09-19T09:11:46Z</time>
      </trkpt>
      <trkpt lat="47.64109" lon="6.05996">
        <ele>263</ele>
        <time>2018-09-19T09:11:48Z</time>
      </trkpt>
      <trkpt lat="47.64114" lon="6.06002">
        <ele>263</ele>
        <time>2018-09-19T09:11:50Z</time>
      </trkpt>
      <trkpt lat="47.64118" lon="6.06009">
        <ele>263</ele>
        <time>2018-09-19T09:11:52Z</time>
      </trkpt>
      <trkpt lat="47.64122" lon="6.06016">
        <ele>263</ele>
        <time>2018-09-19T09:11:54Z</time>
      </trkpt>
      <trkpt lat="47.64127" lon="6.06025">
        <ele>263</ele>
        <time>2018-09-19T09:11:56Z</time>
      </trkpt>
      <trkpt lat="47.64132" lon="6.06032">
        <ele>263</ele>
        <time>2018-09-19T09:11:58Z</time>
      </trkpt>
      <trkpt lat="47.64137" lon="6.0604">
        <ele>263</ele>
        <time>2018-09-19T09:12:00Z</time>
      </trkpt>
      <trkpt lat="47.64142" lon="6.06047">
        <ele>263</ele>
        <time>2018-09-19T09:12:02Z</time>
      </trkpt>
      <trkpt lat="47.64146" lon="6.06054">
        <ele>263</ele>
        <time>2018-09-19T09:12:04Z</time>
      </trkpt>
      <trkpt lat="47.6415" lon="6.06061">
        <ele>264</ele>
        <time>2018-09-19T09:12:06Z</time>
      </trkpt>
      <trkpt lat="47.64155" lon="6.06067">
        <ele>264</ele>
        <time>2018-09-19T09:12:08Z</time>
      </trkpt>
      <trkpt lat="47.64159" lon="6.06073">
        <ele>264</ele>
        <time>2018-09-19T09:12:10Z</time>
      </trkpt>
      <trkpt lat="47.64163" lon="6.06079">
        <ele>264</ele>
        <time>2018-09-19T09:12:12Z</time>
      </trkpt>
      <trkpt lat="47.64166" lon="6.06085">
        <ele>264</ele>
        <time>2018-09-19T09:12:14Z</time>
      </trkpt>
      <trkpt lat="47.6417" lon="6.06091">
        <ele>264</ele>
        <time>2018-09-19T09:12:16Z</time>
      </trkpt>
      <trkpt lat="47.64174" lon="6.06097">
        <ele>263</ele>
        <time>2018-09-19T09:12:18Z</time>
      </trkpt>
      <trkpt lat="47.64178" lon="6.06103">
        <ele>263</ele>
        <time>2018-09-19T09:12:20Z</time>
      </trkpt>
      <trkpt lat="47.64182" lon="6.06109">
        <ele>263</ele>
        <time>2018-09-19T09:12:22Z</time>
      </trkpt>
      <trkpt lat="47.64187" lon="6.06115">
        <ele>263</ele>
        <time>2018-09-19T09:12:24Z</time>
      </trkpt>
      <trkpt lat="47.64191" lon="6.06123">
        <ele>263</ele>
        <time>2018-09-19T09:12:26Z</time>
      </trkpt>
      <trkpt lat="47.64195" lon="6.06131">
        <ele>263</ele>
        <time>2018-09-19T09:12:28Z</time>
      </trkpt>
      <trkpt lat="47.64196" lon="6.06139">
        <ele>263</ele>
        <time>2018-09-19T09:12:30Z</time>
      </trkpt>
      <trkpt lat="47.64196" lon="6.06147">
        <ele>263</ele>
        <time>2018-09-19T09:12:32Z</time>
      </trkpt>
      <trkpt lat="47.64196" lon="6.06154">
        <ele>263</ele>
        <time>2018-09-19T09:12:34Z</time>
      </trkpt>
      <trkpt lat="47.64193" lon="6.06164">
        <ele>263</ele>
        <time>2018-09-19T09:12:37Z</time>
      </trkpt>
      <trkpt lat="47.64191" lon="6.06172">
        <ele>265</ele>
        <time>2018-09-19T09:12:40Z</time>
      </trkpt>
      <trkpt lat="47.6419" lon="6.0618">
        <ele>265</ele>
        <time>2018-09-19T09:12:43Z</time>
      </trkpt>
      <trkpt lat="47.64188" lon="6.06188">
        <ele>265</ele>
        <time>2018-09-19T09:12:46Z</time>
      </trkpt>
      <trkpt lat="47.64185" lon="6.06196">
        <ele>265</ele>
        <time>2018-09-19T09:12:49Z</time>
      </trkpt>
      <trkpt lat="47.64183" lon="6.06204">
        <ele>265</ele>
        <time>2018-09-19T09:12:52Z</time>
      </trkpt>
      <trkpt lat="47.64179" lon="6.06212">
        <ele>265</ele>
        <time>2018-09-19T09:12:55Z</time>
      </trkpt>
      <trkpt lat="47.64177" lon="6.06221">
        <ele>265</ele>
        <time>2018-09-19T09:12:58Z</time>
      </trkpt>
      <trkpt lat="47.64173" lon="6.0623">
        <ele>266</ele>
        <time>2018-09-19T09:13:01Z</time>
      </trkpt>
      <trkpt lat="47.6417" lon="6.06238">
        <ele>266</ele>
        <time>2018-09-19T09:13:04Z</time>
      </trkpt>
      <trkpt lat="47.64168" lon="6.06246">
        <ele>267</ele>
        <time>2018-09-19T09:13:07Z</time>
      </trkpt>
      <trkpt lat="47.64165" lon="6.06254">
        <ele>267</ele>
        <time>2018-09-19T09:13:10Z</time>
      </trkpt>
      <trkpt lat="47.64163" lon="6.06262">
        <ele>267</ele>
        <time>2018-09-19T09:13:13Z</time>
      </trkpt>
      <trkpt lat="47.6416" lon="6.0627">
        <ele>267</ele>
        <time>2018-09-19T09:13:16Z</time>
      </trkpt>
      <trkpt lat="47.64156" lon="6.06278">
        <ele>267</ele>
        <time>2018-09-19T09:13:19Z</time>
      </trkpt>
      <trkpt lat="47.64153" lon="6.06286">
        <ele>267</ele>
        <time>2018-09-19T09:13:22Z</time>
      </trkpt>
      <trkpt lat="47.64151" lon="6.06292">
        <ele>267</ele>
        <time>2018-09-19T09:13:24Z</time>
      </trkpt>
      <trkpt lat="47.64149" lon="6.06298">
        <ele>267</ele>
        <time>2018-09-19T09:13:26Z</time>
      </trkpt>
      <trkpt lat="47.64146" lon="6.06304">
        <ele>267</ele>
        <time>2018-09-19T09:13:28Z</time>
      </trkpt>
      <trkpt lat="47.64144" lon="6.0631">
        <ele>267</ele>
        <time>2018-09-19T09:13:30Z</time>
      </trkpt>
      <trkpt lat="47.64142" lon="6.06317">
        <ele>267</ele>
        <time>2018-09-19T09:13:32Z</time>
      </trkpt>
      <trkpt lat="47.64139" lon="6.06323">
        <ele>267</ele>
        <time>2018-09-19T09:13:34Z</time>
      </trkpt>
      <trkpt lat="47.64137" lon="6.0633">
        <ele>267</ele>
        <time>2018-09-19T09:13:36Z</time>
      </trkpt>
      <trkpt lat="47.64135" lon="6.06336">
        <ele>267</ele>
        <time>2018-09-19T09:13:38Z</time>
      </trkpt>
      <trkpt lat="47.64132" lon="6.06342">
        <ele>267</ele>
        <time>2018-09-19T09:13:40Z</time>
      </trkpt>
      <trkpt lat="47.6413" lon="6.06348">
        <ele>267</ele>
        <time>2018-09-19T09:13:42Z</time>
      </trkpt>
      <trkpt lat="47.64127" lon="6.06355">
        <ele>267</ele>
        <time>2018-09-19T09:13:44Z</time>
      </trkpt>
      <trkpt lat="47.64124" lon="6.06361">
        <ele>267</ele>
        <time>2018-09-19T09:13:46Z</time>
      </trkpt>
      <trkpt lat="47.64121" lon="6.06367">
        <ele>267</ele>
        <time>2018-09-19T09:13:48Z</time>
      </trkpt>
      <trkpt lat="47.64118" lon="6.06374">
        <ele>267</ele>
        <time>2018-09-19T09:13:50Z</time>
      </trkpt>
      <trkpt lat="47.64115" lon="6.0638">
        <ele>267</ele>
        <time>2018-09-19T09:13:52Z</time>
      </trkpt>
      <trkpt lat="47.64112" lon="6.06386">
        <ele>267</ele>
        <time>2018-09-19T09:13:54Z</time>
      </trkpt>
      <trkpt lat="47.64109" lon="6.06393">
        <ele>267</ele>
        <time>2018-09-19T09:13:56Z</time>
      </trkpt>
      <trkpt lat="47.64107" lon="6.06399">
        <ele>267</ele>
        <time>2018-09-19T09:13:58Z</time>
      </trkpt>
      <trkpt lat="47.64104" lon="6.06406">
        <ele>268</ele>
        <time>2018-09-19T09:14:00Z</time>
      </trkpt>
      <trkpt lat="47.64101" lon="6.06412">
        <ele>268</ele>
        <time>2018-09-19T09:14:02Z</time>
      </trkpt>
      <trkpt lat="47.64098" lon="6.06419">
        <ele>268</ele>
        <time>2018-09-19T09:14:04Z</time>
      </trkpt>
      <trkpt lat="47.64094" lon="6.06425">
        <ele>268</ele>
        <time>2018-09-19T09:14:06Z</time>
      </trkpt>
      <trkpt lat="47.64091" lon="6.06432">
        <ele>268</ele>
        <time>2018-09-19T09:14:08Z</time>
      </trkpt>
      <trkpt lat="47.64088" lon="6.06439">
        <ele>268</ele>
        <time>2018-09-19T09:14:10Z</time>
      </trkpt>
      <trkpt lat="47.64084" lon="6.06445">
        <ele>268</ele>
        <time>2018-09-19T09:14:12Z</time>
      </trkpt>
      <trkpt lat="47.64081" lon="6.06452">
        <ele>268</ele>
        <time>2018-09-19T09:14:14Z</time>
      </trkpt>
      <trkpt lat="47.64078" lon="6.06457">
        <ele>268</ele>
        <time>2018-09-19T09:14:16Z</time>
      </trkpt>
      <trkpt lat="47.64074" lon="6.06463">
        <ele>268</ele>
        <time>2018-09-19T09:14:18Z</time>
      </trkpt>
      <trkpt lat="47.6407" lon="6.06469">
        <ele>268</ele>
        <time>2018-09-19T09:14:20Z</time>
      </trkpt>
      <trkpt lat="47.64067" lon="6.06475">
        <ele>268</ele>
        <time>2018-09-19T09:14:22Z</time>
      </trkpt>
      <trkpt lat="47.64064" lon="6.0648">
        <ele>268</ele>
        <time>2018-09-19T09:14:24Z</time>
      </trkpt>
      <trkpt lat="47.6406" lon="6.06486">
        <ele>268</ele>
        <time>2018-09-19T09:14:26Z</time>
      </trkpt>
      <trkpt lat="47.64057" lon="6.06491">
        <ele>268</ele>
        <time>2018-09-19T09:14:28Z</time>
      </trkpt>
      <trkpt lat="47.64053" lon="6.06496">
        <ele>268</ele>
        <time>2018-09-19T09:14:30Z</time>
      </trkpt>
      <trkpt lat="47.6405" lon="6.06501">
        <ele>268</ele>
        <time>2018-09-19T09:14:32Z</time>
      </trkpt>
      <trkpt lat="47.64046" lon="6.06509">
        <ele>268</ele>
        <time>2018-09-19T09:14:35Z</time>
      </trkpt>
      <trkpt lat="47.64042" lon="6.06516">
        <ele>268</ele>
        <time>2018-09-19T09:14:38Z</time>
      </trkpt>
      <trkpt lat="47.64038" lon="6.06524">
        <ele>269</ele>
        <time>2018-09-19T09:14:41Z</time>
      </trkpt>
      <trkpt lat="47.64036" lon="6.06533">
        <ele>269</ele>
        <time>2018-09-19T09:14:44Z</time>
      </trkpt>
      <trkpt lat="47.64036" lon="6.06542">
        <ele>269</ele>
        <time>2018-09-19T09:14:47Z</time>
      </trkpt>
      <trkpt lat="47.64041" lon="6.0655">
        <ele>269</ele>
        <time>2018-09-19T09:14:50Z</time>
      </trkpt>
      <trkpt lat="47.64046" lon="6.06553">
        <ele>268</ele>
        <time>2018-09-19T09:14:52Z</time>
      </trkpt>
      <trkpt lat="47.64052" lon="6.06555">
        <ele>268</ele>
        <time>2018-09-19T09:14:54Z</time>
      </trkpt>
      <trkpt lat="47.64058" lon="6.06556">
        <ele>268</ele>
        <time>2018-09-19T09:14:56Z</time>
      </trkpt>
      <trkpt lat="47.64064" lon="6.06556">
        <ele>268</ele>
        <time>2018-09-19T09:14:58Z</time>
      </trkpt>
      <trkpt lat="47.6407" lon="6.06557">
        <ele>268</ele>
        <time>2018-09-19T09:15:00Z</time>
      </trkpt>
      <trkpt lat="47.64076" lon="6.06559">
        <ele>268</ele>
        <time>2018-09-19T09:15:02Z</time>
      </trkpt>
      <trkpt lat="47.64084" lon="6.0656">
        <ele>267</ele>
        <time>2018-09-19T09:15:04Z</time>
      </trkpt>
      <trkpt lat="47.64091" lon="6.06562">
        <ele>267</ele>
        <time>2018-09-19T09:15:06Z</time>
      </trkpt>
      <trkpt lat="47.64099" lon="6.06563">
        <ele>267</ele>
        <time>2018-09-19T09:15:08Z</time>
      </trkpt>
      <trkpt lat="47.64114" lon="6.06564">
        <ele>267</ele>
        <time>2018-09-19T09:15:10Z</time>
      </trkpt>
      <trkpt lat="47.64119" lon="6.06563">
        <ele>267</ele>
        <time>2018-09-19T09:15:11Z</time>
      </trkpt>
      <trkpt lat="47.64125" lon="6.06563">
        <ele>267</ele>
        <time>2018-09-19T09:15:12Z</time>
      </trkpt>
      <trkpt lat="47.6413" lon="6.06561">
        <ele>267</ele>
        <time>2018-09-19T09:15:13Z</time>
      </trkpt>
      <trkpt lat="47.64136" lon="6.0656">
        <ele>267</ele>
        <time>2018-09-19T09:15:14Z</time>
      </trkpt>
      <trkpt lat="47.64141" lon="6.06558">
        <ele>267</ele>
        <time>2018-09-19T09:15:15Z</time>
      </trkpt>
      <trkpt lat="47.64147" lon="6.06556">
        <ele>267</ele>
        <time>2018-09-19T09:15:16Z</time>
      </trkpt>
      <trkpt lat="47.64154" lon="6.06552">
        <ele>267</ele>
        <time>2018-09-19T09:15:17Z</time>
      </trkpt>
      <trkpt lat="47.64159" lon="6.06549">
        <ele>267</ele>
        <time>2018-09-19T09:15:18Z</time>
      </trkpt>
      <trkpt lat="47.64165" lon="6.06545">
        <ele>267</ele>
        <time>2018-09-19T09:15:19Z</time>
      </trkpt>
      <trkpt lat="47.6417" lon="6.06541">
        <ele>266</ele>
        <time>2018-09-19T09:15:20Z</time>
      </trkpt>
      <trkpt lat="47.64176" lon="6.06538">
        <ele>266</ele>
        <time>2018-09-19T09:15:21Z</time>
      </trkpt>
      <trkpt lat="47.64181" lon="6.06535">
        <ele>266</ele>
        <time>2018-09-19T09:15:22Z</time>
      </trkpt>
      <trkpt lat="47.64186" lon="6.06531">
        <ele>266</ele>
        <time>2018-09-19T09:15:23Z</time>
      </trkpt>
      <trkpt lat="47.64191" lon="6.06528">
        <ele>266</ele>
        <time>2018-09-19T09:15:24Z</time>
      </trkpt>
      <trkpt lat="47.64196" lon="6.06525">
        <ele>266</ele>
        <time>2018-09-19T09:15:25Z</time>
      </trkpt>
      <trkpt lat="47.64201" lon="6.06522">
        <ele>266</ele>
        <time>2018-09-19T09:15:26Z</time>
      </trkpt>
      <trkpt lat="47.64205" lon="6.06519">
        <ele>266</ele>
        <time>2018-09-19T09:15:27Z</time>
      </trkpt>
      <trkpt lat="47.6421" lon="6.06517">
        <ele>266</ele>
        <time>2018-09-19T09:15:28Z</time>
      </trkpt>
      <trkpt lat="47.64214" lon="6.06514">
        <ele>266</ele>
        <time>2018-09-19T09:15:29Z</time>
      </trkpt>
      <trkpt lat="47.64218" lon="6.06511">
        <ele>266</ele>
        <time>2018-09-19T09:15:30Z</time>
      </trkpt>
      <trkpt lat="47.64226" lon="6.06507">
        <ele>266</ele>
        <time>2018-09-19T09:15:32Z</time>
      </trkpt>
      <trkpt lat="47.64234" lon="6.06502">
        <ele>266</ele>
        <time>2018-09-19T09:15:34Z</time>
      </trkpt>
      <trkpt lat="47.6424" lon="6.06498">
        <ele>266</ele>
        <time>2018-09-19T09:15:36Z</time>
      </trkpt>
      <trkpt lat="47.64247" lon="6.06494">
        <ele>266</ele>
        <time>2018-09-19T09:15:38Z</time>
      </trkpt>
      <trkpt lat="47.64253" lon="6.0649">
        <ele>265</ele>
        <time>2018-09-19T09:15:40Z</time>
      </trkpt>
      <trkpt lat="47.64259" lon="6.06487">
        <ele>265</ele>
        <time>2018-09-19T09:15:42Z</time>
      </trkpt>
      <trkpt lat="47.64265" lon="6.06484">
        <ele>265</ele>
        <time>2018-09-19T09:15:44Z</time>
      </trkpt>
      <trkpt lat="47.64273" lon="6.06481">
        <ele>265</ele>
        <time>2018-09-19T09:15:46Z</time>
      </trkpt>
      <trkpt lat="47.64281" lon="6.06477">
        <ele>264</ele>
        <time>2018-09-19T09:15:48Z</time>
      </trkpt>
      <trkpt lat="47.6429" lon="6.06472">
        <ele>264</ele>
        <time>2018-09-19T09:15:50Z</time>
      </trkpt>
      <trkpt lat="47.64294" lon="6.0647">
        <ele>264</ele>
        <time>2018-09-19T09:15:51Z</time>
      </trkpt>
      <trkpt lat="47.64298" lon="6.06468">
        <ele>264</ele>
        <time>2018-09-19T09:15:52Z</time>
      </trkpt>
      <trkpt lat="47.64303" lon="6.06466">
        <ele>264</ele>
        <time>2018-09-19T09:15:53Z</time>
      </trkpt>
      <trkpt lat="47.64308" lon="6.06464">
        <ele>264</ele>
        <time>2018-09-19T09:15:54Z</time>
      </trkpt>
      <trkpt lat="47.64313" lon="6.06463">
        <ele>264</ele>
        <time>2018-09-19T09:15:55Z</time>
      </trkpt>
      <trkpt lat="47.64318" lon="6.0646">
        <ele>264</ele>
        <time>2018-09-19T09:15:56Z</time>
      </trkpt>
      <trkpt lat="47.64324" lon="6.06458">
        <ele>264</ele>
        <time>2018-09-19T09:15:57Z</time>
      </trkpt>
      <trkpt lat="47.6433" lon="6.06456">
        <ele>264</ele>
        <time>2018-09-19T09:15:58Z</time>
      </trkpt>
      <trkpt lat="47.64336" lon="6.06453">
        <ele>261</ele>
        <time>2018-09-19T09:15:59Z</time>
      </trkpt>
      <trkpt lat="47.64342" lon="6.06451">
        <ele>261</ele>
        <time>2018-09-19T09:16:00Z</time>
      </trkpt>
      <trkpt lat="47.64348" lon="6.06448">
        <ele>261</ele>
        <time>2018-09-19T09:16:01Z</time>
      </trkpt>
      <trkpt lat="47.64354" lon="6.06446">
        <ele>261</ele>
        <time>2018-09-19T09:16:02Z</time>
      </trkpt>
      <trkpt lat="47.6436" lon="6.06444">
        <ele>261</ele>
        <time>2018-09-19T09:16:03Z</time>
      </trkpt>
      <trkpt lat="47.64367" lon="6.06441">
        <ele>261</ele>
        <time>2018-09-19T09:16:04Z</time>
      </trkpt>
      <trkpt lat="47.64374" lon="6.0644">
        <ele>261</ele>
        <time>2018-09-19T09:16:05Z</time>
      </trkpt>
      <trkpt lat="47.64382" lon="6.06439">
        <ele>261</ele>
        <time>2018-09-19T09:16:06Z</time>
      </trkpt>
      <trkpt lat="47.64391" lon="6.06438">
        <ele>260</ele>
        <time>2018-09-19T09:16:07Z</time>
      </trkpt>
      <trkpt lat="47.64399" lon="6.06439">
        <ele>260</ele>
        <time>2018-09-19T09:16:08Z</time>
      </trkpt>
      <trkpt lat="47.64408" lon="6.0644">
        <ele>260</ele>
        <time>2018-09-19T09:16:09Z</time>
      </trkpt>
      <trkpt lat="47.64416" lon="6.06444">
        <ele>260</ele>
        <time>2018-09-19T09:16:10Z</time>
      </trkpt>
      <trkpt lat="47.64425" lon="6.06448">
        <ele>258</ele>
        <time>2018-09-19T09:16:11Z</time>
      </trkpt>
      <trkpt lat="47.64433" lon="6.06452">
        <ele>258</ele>
        <time>2018-09-19T09:16:12Z</time>
      </trkpt>
      <trkpt lat="47.64441" lon="6.06457">
        <ele>258</ele>
        <time>2018-09-19T09:16:13Z</time>
      </trkpt>
      <trkpt lat="47.64448" lon="6.06462">
        <ele>257</ele>
        <time>2018-09-19T09:16:14Z</time>
      </trkpt>
      <trkpt lat="47.64456" lon="6.06468">
        <ele>257</ele>
        <time>2018-09-19T09:16:15Z</time>
      </trkpt>
      <trkpt lat="47.64463" lon="6.06474">
        <ele>257</ele>
        <time>2018-09-19T09:16:16Z</time>
      </trkpt>
      <trkpt lat="47.64471" lon="6.06479">
        <ele>257</ele>
        <time>2018-09-19T09:16:17Z</time>
      </trkpt>
      <trkpt lat="47.64478" lon="6.06485">
        <ele>257</ele>
        <time>2018-09-19T09:16:18Z</time>
      </trkpt>
      <trkpt lat="47.64485" lon="6.06491">
        <ele>257</ele>
        <time>2018-09-19T09:16:19Z</time>
      </trkpt>
      <trkpt lat="47.64492" lon="6.06497">
        <ele>256</ele>
        <time>2018-09-19T09:16:20Z</time>
      </trkpt>
      <trkpt lat="47.64499" lon="6.06502">
        <ele>256</ele>
        <time>2018-09-19T09:16:21Z</time>
      </trkpt>
      <trkpt lat="47.64506" lon="6.06506">
        <ele>256</ele>
        <time>2018-09-19T09:16:22Z</time>
      </trkpt>
      <trkpt lat="47.64514" lon="6.0651">
        <ele>255</ele>
        <time>2018-09-19T09:16:23Z</time>
      </trkpt>
      <trkpt lat="47.64521" lon="6.06513">
        <ele>255</ele>
        <time>2018-09-19T09:16:24Z</time>
      </trkpt>
      <trkpt lat="47.64529" lon="6.06515">
        <ele>255</ele>
        <time>2018-09-19T09:16:25Z</time>
      </trkpt>
      <trkpt lat="47.64537" lon="6.06517">
        <ele>255</ele>
        <time>2018-09-19T09:16:26Z</time>
      </trkpt>
      <trkpt lat="47.64545" lon="6.06519">
        <ele>255</ele>
        <time>2018-09-19T09:16:27Z</time>
      </trkpt>
      <trkpt lat="47.64554" lon="6.06519">
        <ele>254</ele>
        <time>2018-09-19T09:16:28Z</time>
      </trkpt>
      <trkpt lat="47.64562" lon="6.0652">
        <ele>254</ele>
        <time>2018-09-19T09:16:29Z</time>
      </trkpt>
      <trkpt lat="47.6457" lon="6.0652">
        <ele>254</ele>
        <time>2018-09-19T09:16:30Z</time>
      </trkpt>
      <trkpt lat="47.64578" lon="6.0652">
        <ele>254</ele>
        <time>2018-09-19T09:16:31Z</time>
      </trkpt>
      <trkpt lat="47.64587" lon="6.0652">
        <ele>253</ele>
        <time>2018-09-19T09:16:32Z</time>
      </trkpt>
      <trkpt lat="47.64595" lon="6.06519">
        <ele>253</ele>
        <time>2018-09-19T09:16:33Z</time>
      </trkpt>
      <trkpt lat="47.64603" lon="6.06518">
        <ele>252</ele>
        <time>2018-09-19T09:16:34Z</time>
      </trkpt>
      <trkpt lat="47.64612" lon="6.06515">
        <ele>252</ele>
        <time>2018-09-19T09:16:35Z</time>
      </trkpt>
      <trkpt lat="47.6462" lon="6.06511">
        <ele>252</ele>
        <time>2018-09-19T09:16:36Z</time>
      </trkpt>
      <trkpt lat="47.64628" lon="6.06507">
        <ele>252</ele>
        <time>2018-09-19T09:16:37Z</time>
      </trkpt>
      <trkpt lat="47.64636" lon="6.06502">
        <ele>252</ele>
        <time>2018-09-19T09:16:38Z</time>
      </trkpt>
      <trkpt lat="47.64644" lon="6.06498">
        <ele>251</ele>
        <time>2018-09-19T09:16:39Z</time>
      </trkpt>
      <trkpt lat="47.64651" lon="6.06493">
        <ele>251</ele>
        <time>2018-09-19T09:16:40Z</time>
      </trkpt>
      <trkpt lat="47.64659" lon="6.06488">
        <ele>251</ele>
        <time>2018-09-19T09:16:41Z</time>
      </trkpt>
      <trkpt lat="47.64666" lon="6.06482">
        <ele>251</ele>
        <time>2018-09-19T09:16:42Z</time>
      </trkpt>
      <trkpt lat="47.64673" lon="6.06476">
        <ele>250</ele>
        <time>2018-09-19T09:16:43Z</time>
      </trkpt>
      <trkpt lat="47.64679" lon="6.06472">
        <ele>250</ele>
        <time>2018-09-19T09:16:44Z</time>
      </trkpt>
      <trkpt lat="47.64685" lon="6.06467">
        <ele>250</ele>
        <time>2018-09-19T09:16:45Z</time>
      </trkpt>
      <trkpt lat="47.64691" lon="6.06465">
        <ele>250</ele>
        <time>2018-09-19T09:16:46Z</time>
      </trkpt>
      <trkpt lat="47.64697" lon="6.06464">
        <ele>250</ele>
        <time>2018-09-19T09:16:47Z</time>
      </trkpt>
      <trkpt lat="47.64703" lon="6.06465">
        <ele>250</ele>
        <time>2018-09-19T09:16:48Z</time>
      </trkpt>
      <trkpt lat="47.64708" lon="6.06468">
        <ele>250</ele>
        <time>2018-09-19T09:16:49Z</time>
      </trkpt>
      <trkpt lat="47.64713" lon="6.06474">
        <ele>250</ele>
        <time>2018-09-19T09:16:50Z</time>
      </trkpt>
      <trkpt lat="47.64716" lon="6.0648">
        <ele>250</ele>
        <time>2018-09-19T09:16:51Z</time>
      </trkpt>
      <trkpt lat="47.64719" lon="6.06486">
        <ele>250</ele>
        <time>2018-09-19T09:16:52Z</time>
      </trkpt>
      <trkpt lat="47.64721" lon="6.06492">
        <ele>250</ele>
        <time>2018-09-19T09:16:53Z</time>
      </trkpt>
      <trkpt lat="47.64723" lon="6.06499">
        <ele>250</ele>
        <time>2018-09-19T09:16:54Z</time>
      </trkpt>
      <trkpt lat="47.64726" lon="6.06504">
        <ele>251</ele>
        <time>2018-09-19T09:16:55Z</time>
      </trkpt>
      <trkpt lat="47.6473" lon="6.06515">
        <ele>251</ele>
        <time>2018-09-19T09:16:57Z</time>
      </trkpt>
      <trkpt lat="47.64734" lon="6.06521">
        <ele>251</ele>
        <time>2018-09-19T09:16:59Z</time>
      </trkpt>
      <trkpt lat="47.64737" lon="6.06527">
        <ele>251</ele>
        <time>2018-09-19T09:17:01Z</time>
      </trkpt>
      <trkpt lat="47.6474" lon="6.06533">
        <ele>252</ele>
        <time>2018-09-19T09:17:03Z</time>
      </trkpt>
      <trkpt lat="47.64743" lon="6.06539">
        <ele>252</ele>
        <time>2018-09-19T09:17:05Z</time>
      </trkpt>
      <trkpt lat="47.64746" lon="6.06545">
        <ele>252</ele>
        <time>2018-09-19T09:17:07Z</time>
      </trkpt>
      <trkpt lat="47.64749" lon="6.0655">
        <ele>252</ele>
        <time>2018-09-19T09:17:09Z</time>
      </trkpt>
      <trkpt lat="47.64752" lon="6.06556">
        <ele>252</ele>
        <time>2018-09-19T09:17:11Z</time>
      </trkpt>
      <trkpt lat="47.64755" lon="6.06562">
        <ele>252</ele>
        <time>2018-09-19T09:17:13Z</time>
      </trkpt>
      <trkpt lat="47.64758" lon="6.06569">
        <ele>253</ele>
        <time>2018-09-19T09:17:15Z</time>
      </trkpt>
      <trkpt lat="47.64761" lon="6.06574">
        <ele>253</ele>
        <time>2018-09-19T09:17:17Z</time>
      </trkpt>
      <trkpt lat="47.64763" lon="6.0658">
        <ele>253</ele>
        <time>2018-09-19T09:17:19Z</time>
      </trkpt>
      <trkpt lat="47.64766" lon="6.06587">
        <ele>254</ele>
        <time>2018-09-19T09:17:22Z</time>
      </trkpt>
      <trkpt lat="47.6477" lon="6.06595">
        <ele>255</ele>
        <time>2018-09-19T09:17:25Z</time>
      </trkpt>
      <trkpt lat="47.64773" lon="6.06602">
        <ele>255</ele>
        <time>2018-09-19T09:17:28Z</time>
      </trkpt>
      <trkpt lat="47.64777" lon="6.06609">
        <ele>255</ele>
        <time>2018-09-19T09:17:31Z</time>
      </trkpt>
      <trkpt lat="47.6478" lon="6.06617">
        <ele>255</ele>
        <time>2018-09-19T09:17:34Z</time>
      </trkpt>
      <trkpt lat="47.64783" lon="6.06625">
        <ele>256</ele>
        <time>2018-09-19T09:17:37Z</time>
      </trkpt>
      <trkpt lat="47.64786" lon="6.06632">
        <ele>256</ele>
        <time>2018-09-19T09:17:40Z</time>
      </trkpt>
      <trkpt lat="47.64788" lon="6.06639">
        <ele>256</ele>
        <time>2018-09-19T09:17:43Z</time>
      </trkpt>
      <trkpt lat="47.6479" lon="6.06647">
        <ele>256</ele>
        <time>2018-09-19T09:17:46Z</time>
      </trkpt>
      <trkpt lat="47.64793" lon="6.06654">
        <ele>256</ele>
        <time>2018-09-19T09:17:49Z</time>
      </trkpt>
      <trkpt lat="47.64796" lon="6.0666">
        <ele>257</ele>
        <time>2018-09-19T09:17:52Z</time>
      </trkpt>
      <trkpt lat="47.648" lon="6.06665">
        <ele>257</ele>
        <time>2018-09-19T09:17:55Z</time>
      </trkpt>
      <trkpt lat="47.64803" lon="6.06671">
        <ele>261</ele>
        <time>2018-09-19T09:17:58Z</time>
      </trkpt>
      <trkpt lat="47.64807" lon="6.06676">
        <ele>261</ele>
        <time>2018-09-19T09:18:01Z</time>
      </trkpt>
      <trkpt lat="47.6481" lon="6.06681">
        <ele>261</ele>
        <time>2018-09-19T09:18:04Z</time>
      </trkpt>
      <trkpt lat="47.64814" lon="6.06686">
        <ele>261</ele>
        <time>2018-09-19T09:18:07Z</time>
      </trkpt>
      <trkpt lat="47.64818" lon="6.06692">
        <ele>261</ele>
        <time>2018-09-19T09:18:11Z</time>
      </trkpt>
      <trkpt lat="47.64822" lon="6.06698">
        <ele>262</ele>
        <time>2018-09-19T09:18:15Z</time>
      </trkpt>
      <trkpt lat="47.64826" lon="6.06703">
        <ele>262</ele>
        <time>2018-09-19T09:18:18Z</time>
      </trkpt>
      <trkpt lat="47.64829" lon="6.06709">
        <ele>262</ele>
        <time>2018-09-19T09:18:21Z</time>
      </trkpt>
      <trkpt lat="47.64833" lon="6.06713">
        <ele>263</ele>
        <time>2018-09-19T09:18:24Z</time>
      </trkpt>
      <trkpt lat="47.64837" lon="6.06718">
        <ele>262</ele>
        <time>2018-09-19T09:18:27Z</time>
      </trkpt>
      <trkpt lat="47.64841" lon="6.06723">
        <ele>262</ele>
        <time>2018-09-19T09:18:30Z</time>
      </trkpt>
      <trkpt lat="47.64845" lon="6.06728">
        <ele>262</ele>
        <time>2018-09-19T09:18:33Z</time>
      </trkpt>
      <trkpt lat="47.64849" lon="6.06732">
        <ele>263</ele>
        <time>2018-09-19T09:18:36Z</time>
      </trkpt>
      <trkpt lat="47.64853" lon="6.06737">
        <ele>263</ele>
        <time>2018-09-19T09:18:40Z</time>
      </trkpt>
      <trkpt lat="47.64857" lon="6.06743">
        <ele>262</ele>
        <time>2018-09-19T09:18:44Z</time>
      </trkpt>
      <trkpt lat="47.64861" lon="6.06747">
        <ele>262</ele>
        <time>2018-09-19T09:18:47Z</time>
      </trkpt>
      <trkpt lat="47.64865" lon="6.06753">
        <ele>266</ele>
        <time>2018-09-19T09:18:50Z</time>
      </trkpt>
      <trkpt lat="47.6487" lon="6.06759">
        <ele>266</ele>
        <time>2018-09-19T09:18:53Z</time>
      </trkpt>
      <trkpt lat="47.64874" lon="6.06766">
        <ele>266</ele>
        <time>2018-09-19T09:18:56Z</time>
      </trkpt>
      <trkpt lat="47.64878" lon="6.06772">
        <ele>266</ele>
        <time>2018-09-19T09:18:59Z</time>
      </trkpt>
      <trkpt lat="47.64882" lon="6.06776">
        <ele>266</ele>
        <time>2018-09-19T09:19:01Z</time>
      </trkpt>
      <trkpt lat="47.64887" lon="6.06783">
        <ele>266</ele>
        <time>2018-09-19T09:19:04Z</time>
      </trkpt>
      <trkpt lat="47.64891" lon="6.06788">
        <ele>266</ele>
        <time>2018-09-19T09:19:06Z</time>
      </trkpt>
      <trkpt lat="47.64894" lon="6.06792">
        <ele>266</ele>
        <time>2018-09-19T09:19:08Z</time>
      </trkpt>
      <trkpt lat="47.64898" lon="6.06797">
        <ele>266</ele>
        <time>2018-09-19T09:19:10Z</time>
      </trkpt>
      <trkpt lat="47.64903" lon="6.06802">
        <ele>266</ele>
        <time>2018-09-19T09:19:12Z</time>
      </trkpt>
      <trkpt lat="47.64908" lon="6.06808">
        <ele>267</ele>
        <time>2018-09-19T09:19:14Z</time>
      </trkpt>
      <trkpt lat="47.64913" lon="6.06815">
        <ele>267</ele>
        <time>2018-09-19T09:19:16Z</time>
      </trkpt>
      <trkpt lat="47.64918" lon="6.06822">
        <ele>264</ele>
        <time>2018-09-19T09:19:18Z</time>
      </trkpt>
      <trkpt lat="47.64923" lon="6.06832">
        <ele>265</ele>
        <time>2018-09-19T09:19:20Z</time>
      </trkpt>
      <trkpt lat="47.64928" lon="6.06843">
        <ele>264</ele>
        <time>2018-09-19T09:19:22Z</time>
      </trkpt>
      <trkpt lat="47.6493" lon="6.06854">
        <ele>263</ele>
        <time>2018-09-19T09:19:24Z</time>
      </trkpt>
      <trkpt lat="47.64933" lon="6.06863">
        <ele>262</ele>
        <time>2018-09-19T09:19:26Z</time>
      </trkpt>
      <trkpt lat="47.6494" lon="6.06881">
        <ele>262</ele>
        <time>2018-09-19T09:19:28Z</time>
      </trkpt>
      <trkpt lat="47.64943" lon="6.06885">
        <ele>262</ele>
        <time>2018-09-19T09:19:29Z</time>
      </trkpt>
      <trkpt lat="47.64947" lon="6.06891">
        <ele>262</ele>
        <time>2018-09-19T09:19:30Z</time>
      </trkpt>
      <trkpt lat="47.6495" lon="6.06896">
        <ele>261</ele>
        <time>2018-09-19T09:19:31Z</time>
      </trkpt>
      <trkpt lat="47.64954" lon="6.06902">
        <ele>261</ele>
        <time>2018-09-19T09:19:32Z</time>
      </trkpt>
      <trkpt lat="47.64959" lon="6.06908">
        <ele>261</ele>
        <time>2018-09-19T09:19:33Z</time>
      </trkpt>
      <trkpt lat="47.64963" lon="6.06915">
        <ele>260</ele>
        <time>2018-09-19T09:19:34Z</time>
      </trkpt>
      <trkpt lat="47.64969" lon="6.06923">
        <ele>258</ele>
        <time>2018-09-19T09:19:35Z</time>
      </trkpt>
      <trkpt lat="47.64974" lon="6.06931">
        <ele>258</ele>
        <time>2018-09-19T09:19:36Z</time>
      </trkpt>
      <trkpt lat="47.64978" lon="6.06938">
        <ele>257</ele>
        <time>2018-09-19T09:19:37Z</time>
      </trkpt>
      <trkpt lat="47.64983" lon="6.06945">
        <ele>257</ele>
        <time>2018-09-19T09:19:38Z</time>
      </trkpt>
      <trkpt lat="47.64988" lon="6.06952">
        <ele>257</ele>
        <time>2018-09-19T09:19:39Z</time>
      </trkpt>
      <trkpt lat="47.64993" lon="6.0696">
        <ele>257</ele>
        <time>2018-09-19T09:19:40Z</time>
      </trkpt>
      <trkpt lat="47.64998" lon="6.06967">
        <ele>257</ele>
        <time>2018-09-19T09:19:41Z</time>
      </trkpt>
      <trkpt lat="47.65003" lon="6.06974">
        <ele>253</ele>
        <time>2018-09-19T09:19:42Z</time>
      </trkpt>
      <trkpt lat="47.65008" lon="6.06981">
        <ele>253</ele>
        <time>2018-09-19T09:19:43Z</time>
      </trkpt>
      <trkpt lat="47.65013" lon="6.06988">
        <ele>253</ele>
        <time>2018-09-19T09:19:44Z</time>
      </trkpt>
      <trkpt lat="47.65019" lon="6.06995">
        <ele>253</ele>
        <time>2018-09-19T09:19:45Z</time>
      </trkpt>
      <trkpt lat="47.65024" lon="6.07002">
        <ele>253</ele>
        <time>2018-09-19T09:19:46Z</time>
      </trkpt>
      <trkpt lat="47.65029" lon="6.07009">
        <ele>252</ele>
        <time>2018-09-19T09:19:47Z</time>
      </trkpt>
      <trkpt lat="47.65034" lon="6.07017">
        <ele>252</ele>
        <time>2018-09-19T09:19:48Z</time>
      </trkpt>
      <trkpt lat="47.65039" lon="6.07024">
        <ele>252</ele>
        <time>2018-09-19T09:19:49Z</time>
      </trkpt>
      <trkpt lat="47.65043" lon="6.07031">
        <ele>252</ele>
        <time>2018-09-19T09:19:50Z</time>
      </trkpt>
      <trkpt lat="47.65048" lon="6.07037">
        <ele>252</ele>
        <time>2018-09-19T09:19:51Z</time>
      </trkpt>
      <trkpt lat="47.65053" lon="6.07043">
        <ele>252</ele>
        <time>2018-09-19T09:19:52Z</time>
      </trkpt>
      <trkpt lat="47.65057" lon="6.0705">
        <ele>252</ele>
        <time>2018-09-19T09:19:53Z</time>
      </trkpt>
      <trkpt lat="47.65061" lon="6.07056">
        <ele>252</ele>
        <time>2018-09-19T09:19:54Z</time>
      </trkpt>
      <trkpt lat="47.65065" lon="6.07062">
        <ele>252</ele>
        <time>2018-09-19T09:19:55Z</time>
      </trkpt>
      <trkpt lat="47.65068" lon="6.07066">
        <ele>252</ele>
        <time>2018-09-19T09:19:56Z</time>
      </trkpt>
      <trkpt lat="47.65075" lon="6.07075">
        <ele>253</ele>
        <time>2018-09-19T09:19:58Z</time>
      </trkpt>
      <trkpt lat="47.65081" lon="6.07082">
        <ele>253</ele>
        <time>2018-09-19T09:20:00Z</time>
      </trkpt>
      <trkpt lat="47.65087" lon="6.0709">
        <ele>252</ele>
        <time>2018-09-19T09:20:02Z</time>
      </trkpt>
      <trkpt lat="47.65091" lon="6.07098">
        <ele>251</ele>
        <time>2018-09-19T09:20:04Z</time>
      </trkpt>
      <trkpt lat="47.65095" lon="6.07104">
        <ele>251</ele>
        <time>2018-09-19T09:20:06Z</time>
      </trkpt>
      <trkpt lat="47.65099" lon="6.07108">
        <ele>250</ele>
        <time>2018-09-19T09:20:08Z</time>
      </trkpt>
      <trkpt lat="47.65105" lon="6.07115">
        <ele>250</ele>
        <time>2018-09-19T09:20:10Z</time>
      </trkpt>
      <trkpt lat="47.6511" lon="6.0712">
        <ele>249</ele>
        <time>2018-09-19T09:20:12Z</time>
      </trkpt>
      <trkpt lat="47.65116" lon="6.07126">
        <ele>249</ele>
        <time>2018-09-19T09:20:14Z</time>
      </trkpt>
      <trkpt lat="47.65122" lon="6.07136">
        <ele>249</ele>
        <time>2018-09-19T09:20:15Z</time>
      </trkpt>
      <trkpt lat="47.65126" lon="6.07143">
        <ele>248</ele>
        <time>2018-09-19T09:20:16Z</time>
      </trkpt>
      <trkpt lat="47.65129" lon="6.0715">
        <ele>248</ele>
        <time>2018-09-19T09:20:17Z</time>
      </trkpt>
      <trkpt lat="47.65131" lon="6.07159">
        <ele>248</ele>
        <time>2018-09-19T09:20:18Z</time>
      </trkpt>
      <trkpt lat="47.65133" lon="6.07167">
        <ele>245</ele>
        <time>2018-09-19T09:20:19Z</time>
      </trkpt>
      <trkpt lat="47.65134" lon="6.07175">
        <ele>245</ele>
        <time>2018-09-19T09:20:20Z</time>
      </trkpt>
      <trkpt lat="47.65135" lon="6.07182">
        <ele>245</ele>
        <time>2018-09-19T09:20:21Z</time>
      </trkpt>
      <trkpt lat="47.65136" lon="6.07189">
        <ele>245</ele>
        <time>2018-09-19T09:20:22Z</time>
      </trkpt>
      <trkpt lat="47.65136" lon="6.07198">
        <ele>245</ele>
        <time>2018-09-19T09:20:24Z</time>
      </trkpt>
      <trkpt lat="47.65138" lon="6.07205">
        <ele>245</ele>
        <time>2018-09-19T09:20:27Z</time>
      </trkpt>
      <trkpt lat="47.65139" lon="6.07212">
        <ele>245</ele>
        <time>2018-09-19T09:20:30Z</time>
      </trkpt>
      <trkpt lat="47.6514" lon="6.07221">
        <ele>245</ele>
        <time>2018-09-19T09:20:34Z</time>
      </trkpt>
      <trkpt lat="47.6514" lon="6.07228">
        <ele>245</ele>
        <time>2018-09-19T09:20:37Z</time>
      </trkpt>
      <trkpt lat="47.65141" lon="6.07236">
        <ele>245</ele>
        <time>2018-09-19T09:20:40Z</time>
      </trkpt>
      <trkpt lat="47.65145" lon="6.07242">
        <ele>245</ele>
        <time>2018-09-19T09:20:44Z</time>
      </trkpt>
      <trkpt lat="47.6515" lon="6.07244">
        <ele>245</ele>
        <time>2018-09-19T09:20:47Z</time>
      </trkpt>
      <trkpt lat="47.65156" lon="6.07245">
        <ele>245</ele>
        <time>2018-09-19T09:20:49Z</time>
      </trkpt>
      <trkpt lat="47.65162" lon="6.07245">
        <ele>244</ele>
        <time>2018-09-19T09:20:51Z</time>
      </trkpt>
      <trkpt lat="47.65168" lon="6.07244">
        <ele>244</ele>
        <time>2018-09-19T09:20:53Z</time>
      </trkpt>
      <trkpt lat="47.65175" lon="6.07243">
        <ele>244</ele>
        <time>2018-09-19T09:20:55Z</time>
      </trkpt>
      <trkpt lat="47.65183" lon="6.07241">
        <ele>244</ele>
        <time>2018-09-19T09:20:57Z</time>
      </trkpt>
      <trkpt lat="47.65192" lon="6.0724">
        <ele>243</ele>
        <time>2018-09-19T09:20:59Z</time>
      </trkpt>
      <trkpt lat="47.65201" lon="6.07238">
        <ele>243</ele>
        <time>2018-09-19T09:21:01Z</time>
      </trkpt>
      <trkpt lat="47.65219" lon="6.07235">
        <ele>243</ele>
        <time>2018-09-19T09:21:03Z</time>
      </trkpt>
      <trkpt lat="47.65227" lon="6.07234">
        <ele>243</ele>
        <time>2018-09-19T09:21:05Z</time>
      </trkpt>
      <trkpt lat="47.65236" lon="6.07233">
        <ele>243</ele>
        <time>2018-09-19T09:21:07Z</time>
      </trkpt>
      <trkpt lat="47.65244" lon="6.07232">
        <ele>243</ele>
        <time>2018-09-19T09:21:09Z</time>
      </trkpt>
      <trkpt lat="47.65253" lon="6.07231">
        <ele>243</ele>
        <time>2018-09-19T09:21:11Z</time>
      </trkpt>
      <trkpt lat="47.65261" lon="6.0723">
        <ele>243</ele>
        <time>2018-09-19T09:21:13Z</time>
      </trkpt>
      <trkpt lat="47.65269" lon="6.07229">
        <ele>243</ele>
        <time>2018-09-19T09:21:15Z</time>
      </trkpt>
      <trkpt lat="47.65276" lon="6.07228">
        <ele>244</ele>
        <time>2018-09-19T09:21:17Z</time>
      </trkpt>
      <trkpt lat="47.65283" lon="6.07227">
        <ele>244</ele>
        <time>2018-09-19T09:21:19Z</time>
      </trkpt>
      <trkpt lat="47.6529" lon="6.07226">
        <ele>244</ele>
        <time>2018-09-19T09:21:21Z</time>
      </trkpt>
      <trkpt lat="47.65297" lon="6.07224">
        <ele>244</ele>
        <time>2018-09-19T09:21:23Z</time>
      </trkpt>
      <trkpt lat="47.65304" lon="6.07223">
        <ele>244</ele>
        <time>2018-09-19T09:21:25Z</time>
      </trkpt>
      <trkpt lat="47.65309" lon="6.07222">
        <ele>244</ele>
        <time>2018-09-19T09:21:28Z</time>
      </trkpt>
      <trkpt lat="47.65314" lon="6.07222">
        <ele>244</ele>
        <time>2018-09-19T09:21:30Z</time>
      </trkpt>
      <trkpt lat="47.65319" lon="6.07222">
        <ele>244</ele>
        <time>2018-09-19T09:21:32Z</time>
      </trkpt>
      <trkpt lat="47.65324" lon="6.07221">
        <ele>245</ele>
        <time>2018-09-19T09:21:34Z</time>
      </trkpt>
      <trkpt lat="47.65329" lon="6.0722">
        <ele>245</ele>
        <time>2018-09-19T09:21:36Z</time>
      </trkpt>
      <trkpt lat="47.65335" lon="6.07218">
        <ele>248</ele>
        <time>2018-09-19T09:21:38Z</time>
      </trkpt>
      <trkpt lat="47.6534" lon="6.07216">
        <ele>248</ele>
        <time>2018-09-19T09:21:40Z</time>
      </trkpt>
      <trkpt lat="47.65345" lon="6.07214">
        <ele>248</ele>
        <time>2018-09-19T09:21:42Z</time>
      </trkpt>
      <trkpt lat="47.65351" lon="6.07213">
        <ele>249</ele>
        <time>2018-09-19T09:21:44Z</time>
      </trkpt>
      <trkpt lat="47.65356" lon="6.07214">
        <ele>249</ele>
        <time>2018-09-19T09:21:46Z</time>
      </trkpt>
      <trkpt lat="47.65362" lon="6.07215">
        <ele>249</ele>
        <time>2018-09-19T09:21:48Z</time>
      </trkpt>
      <trkpt lat="47.65366" lon="6.07219">
        <ele>249</ele>
        <time>2018-09-19T09:21:50Z</time>
      </trkpt>
      <trkpt lat="47.6537" lon="6.07225">
        <ele>250</ele>
        <time>2018-09-19T09:21:53Z</time>
      </trkpt>
      <trkpt lat="47.65373" lon="6.07233">
        <ele>250</ele>
        <time>2018-09-19T09:21:56Z</time>
      </trkpt>
      <trkpt lat="47.65375" lon="6.0724">
        <ele>250</ele>
        <time>2018-09-19T09:21:59Z</time>
      </trkpt>
      <trkpt lat="47.65377" lon="6.07247">
        <ele>250</ele>
        <time>2018-09-19T09:22:02Z</time>
      </trkpt>
      <trkpt lat="47.65379" lon="6.07253">
        <ele>251</ele>
        <time>2018-09-19T09:22:05Z</time>
      </trkpt>
      <trkpt lat="47.65382" lon="6.0726">
        <ele>251</ele>
        <time>2018-09-19T09:22:08Z</time>
      </trkpt>
      <trkpt lat="47.65385" lon="6.07268">
        <ele>251</ele>
        <time>2018-09-19T09:22:11Z</time>
      </trkpt>
      <trkpt lat="47.65388" lon="6.07276">
        <ele>251</ele>
        <time>2018-09-19T09:22:14Z</time>
      </trkpt>
      <trkpt lat="47.65392" lon="6.07284">
        <ele>251</ele>
        <time>2018-09-19T09:22:17Z</time>
      </trkpt>
      <trkpt lat="47.65394" lon="6.07292">
        <ele>252</ele>
        <time>2018-09-19T09:22:20Z</time>
      </trkpt>
      <trkpt lat="47.65397" lon="6.07299">
        <ele>252</ele>
        <time>2018-09-19T09:22:23Z</time>
      </trkpt>
      <trkpt lat="47.654" lon="6.07306">
        <ele>252</ele>
        <time>2018-09-19T09:22:26Z</time>
      </trkpt>
      <trkpt lat="47.65402" lon="6.07312">
        <ele>252</ele>
        <time>2018-09-19T09:22:29Z</time>
      </trkpt>
      <trkpt lat="47.65404" lon="6.07319">
        <ele>253</ele>
        <time>2018-09-19T09:22:32Z</time>
      </trkpt>
      <trkpt lat="47.65407" lon="6.07326">
        <ele>253</ele>
        <time>2018-09-19T09:22:35Z</time>
      </trkpt>
      <trkpt lat="47.65409" lon="6.07334">
        <ele>254</ele>
        <time>2018-09-19T09:22:38Z</time>
      </trkpt>
      <trkpt lat="47.65412" lon="6.07342">
        <ele>254</ele>
        <time>2018-09-19T09:22:41Z</time>
      </trkpt>
      <trkpt lat="47.65415" lon="6.07349">
        <ele>254</ele>
        <time>2018-09-19T09:22:44Z</time>
      </trkpt>
      <trkpt lat="47.65417" lon="6.07355">
        <ele>255</ele>
        <time>2018-09-19T09:22:47Z</time>
      </trkpt>
      <trkpt lat="47.65422" lon="6.07361">
        <ele>255</ele>
        <time>2018-09-19T09:22:51Z</time>
      </trkpt>
      <trkpt lat="47.65427" lon="6.07364">
        <ele>255</ele>
        <time>2018-09-19T09:22:54Z</time>
      </trkpt>
      <trkpt lat="47.65433" lon="6.07367">
        <ele>255</ele>
        <time>2018-09-19T09:22:57Z</time>
      </trkpt>
      <trkpt lat="47.65439" lon="6.07369">
        <ele>255</ele>
        <time>2018-09-19T09:23:00Z</time>
      </trkpt>
      <trkpt lat="47.65445" lon="6.0737">
        <ele>255</ele>
        <time>2018-09-19T09:23:04Z</time>
      </trkpt>
      <trkpt lat="47.6545" lon="6.07371">
        <ele>255</ele>
        <time>2018-09-19T09:23:07Z</time>
      </trkpt>
      <trkpt lat="47.65455" lon="6.07372">
        <ele>255</ele>
        <time>2018-09-19T09:23:10Z</time>
      </trkpt>
      <trkpt lat="47.65461" lon="6.07373">
        <ele>255</ele>
        <time>2018-09-19T09:23:13Z</time>
      </trkpt>
      <trkpt lat="47.65467" lon="6.07373">
        <ele>255</ele>
        <time>2018-09-19T09:23:16Z</time>
      </trkpt>
      <trkpt lat="47.65472" lon="6.07374">
        <ele>255</ele>
        <time>2018-09-19T09:23:19Z</time>
      </trkpt>
      <trkpt lat="47.65477" lon="6.07374">
        <ele>255</ele>
        <time>2018-09-19T09:23:23Z</time>
      </trkpt>
      <trkpt lat="47.65483" lon="6.07375">
        <ele>255</ele>
        <time>2018-09-19T09:23:27Z</time>
      </trkpt>
      <trkpt lat="47.65489" lon="6.07375">
        <ele>255</ele>
        <time>2018-09-19T09:23:30Z</time>
      </trkpt>
      <trkpt lat="47.65495" lon="6.07376">
        <ele>255</ele>
        <time>2018-09-19T09:23:33Z</time>
      </trkpt>
      <trkpt lat="47.65501" lon="6.07377">
        <ele>254</ele>
        <time>2018-09-19T09:23:36Z</time>
      </trkpt>
      <trkpt lat="47.65506" lon="6.07378">
        <ele>254</ele>
        <time>2018-09-19T09:23:38Z</time>
      </trkpt>
      <trkpt lat="47.65512" lon="6.07379">
        <ele>254</ele>
        <time>2018-09-19T09:23:40Z</time>
      </trkpt>
      <trkpt lat="47.65517" lon="6.0738">
        <ele>254</ele>
        <time>2018-09-19T09:23:42Z</time>
      </trkpt>
      <trkpt lat="47.65524" lon="6.07381">
        <ele>254</ele>
        <time>2018-09-19T09:23:44Z</time>
      </trkpt>
      <trkpt lat="47.65531" lon="6.07383">
        <ele>254</ele>
        <time>2018-09-19T09:23:46Z</time>
      </trkpt>
      <trkpt lat="47.65538" lon="6.07386">
        <ele>254</ele>
        <time>2018-09-19T09:23:48Z</time>
      </trkpt>
      <trkpt lat="47.65543" lon="6.07387">
        <ele>254</ele>
        <time>2018-09-19T09:23:49Z</time>
      </trkpt>
      <trkpt lat="47.65551" lon="6.0739">
        <ele>254</ele>
        <time>2018-09-19T09:23:51Z</time>
      </trkpt>
      <trkpt lat="47.65568" lon="6.07396">
        <ele>253</ele>
        <time>2018-09-19T09:23:53Z</time>
      </trkpt>
      <trkpt lat="47.65573" lon="6.07398">
        <ele>253</ele>
        <time>2018-09-19T09:23:54Z</time>
      </trkpt>
      <trkpt lat="47.65578" lon="6.07398">
        <ele>253</ele>
        <time>2018-09-19T09:23:55Z</time>
      </trkpt>
      <trkpt lat="47.65583" lon="6.07398">
        <ele>253</ele>
        <time>2018-09-19T09:23:56Z</time>
      </trkpt>
      <trkpt lat="47.65588" lon="6.07399">
        <ele>252</ele>
        <time>2018-09-19T09:23:57Z</time>
      </trkpt>
      <trkpt lat="47.65593" lon="6.07399">
        <ele>252</ele>
        <time>2018-09-19T09:23:58Z</time>
      </trkpt>
      <trkpt lat="47.65598" lon="6.07399">
        <ele>252</ele>
        <time>2018-09-19T09:23:59Z</time>
      </trkpt>
      <trkpt lat="47.65604" lon="6.074">
        <ele>252</ele>
        <time>2018-09-19T09:24:00Z</time>
      </trkpt>
      <trkpt lat="47.6561" lon="6.07401">
        <ele>251</ele>
        <time>2018-09-19T09:24:01Z</time>
      </trkpt>
      <trkpt lat="47.65615" lon="6.07401">
        <ele>251</ele>
        <time>2018-09-19T09:24:02Z</time>
      </trkpt>
      <trkpt lat="47.65621" lon="6.07401">
        <ele>251</ele>
        <time>2018-09-19T09:24:03Z</time>
      </trkpt>
      <trkpt lat="47.65627" lon="6.07402">
        <ele>251</ele>
        <time>2018-09-19T09:24:04Z</time>
      </trkpt>
      <trkpt lat="47.65632" lon="6.07402">
        <ele>251</ele>
        <time>2018-09-19T09:24:05Z</time>
      </trkpt>
      <trkpt lat="47.65637" lon="6.07402">
        <ele>251</ele>
        <time>2018-09-19T09:24:06Z</time>
      </trkpt>
      <trkpt lat="47.65642" lon="6.07402">
        <ele>251</ele>
        <time>2018-09-19T09:24:07Z</time>
      </trkpt>
      <trkpt lat="47.65647" lon="6.07402">
        <ele>251</ele>
        <time>2018-09-19T09:24:08Z</time>
      </trkpt>
      <trkpt lat="47.65651" lon="6.07402">
        <ele>251</ele>
        <time>2018-09-19T09:24:09Z</time>
      </trkpt>
      <trkpt lat="47.65656" lon="6.07402">
        <ele>251</ele>
        <time>2018-09-19T09:24:10Z</time>
      </trkpt>
      <trkpt lat="47.65664" lon="6.07401">
        <ele>251</ele>
        <time>2018-09-19T09:24:12Z</time>
      </trkpt>
      <trkpt lat="47.65672" lon="6.07402">
        <ele>251</ele>
        <time>2018-09-19T09:24:14Z</time>
      </trkpt>
      <trkpt lat="47.6568" lon="6.07403">
        <ele>251</ele>
        <time>2018-09-19T09:24:16Z</time>
      </trkpt>
      <trkpt lat="47.65688" lon="6.07403">
        <ele>251</ele>
        <time>2018-09-19T09:24:18Z</time>
      </trkpt>
      <trkpt lat="47.65695" lon="6.07403">
        <ele>251</ele>
        <time>2018-09-19T09:24:20Z</time>
      </trkpt>
      <trkpt lat="47.65703" lon="6.07403">
        <ele>251</ele>
        <time>2018-09-19T09:24:22Z</time>
      </trkpt>
      <trkpt lat="47.6571" lon="6.07403">
        <ele>251</ele>
        <time>2018-09-19T09:24:24Z</time>
      </trkpt>
      <trkpt lat="47.65717" lon="6.07403">
        <ele>251</ele>
        <time>2018-09-19T09:24:26Z</time>
      </trkpt>
      <trkpt lat="47.65723" lon="6.07403">
        <ele>251</ele>
        <time>2018-09-19T09:24:28Z</time>
      </trkpt>
      <trkpt lat="47.65729" lon="6.07403">
        <ele>252</ele>
        <time>2018-09-19T09:24:30Z</time>
      </trkpt>
      <trkpt lat="47.65736" lon="6.07404">
        <ele>252</ele>
        <time>2018-09-19T09:24:33Z</time>
      </trkpt>
      <trkpt lat="47.65741" lon="6.07404">
        <ele>252</ele>
        <time>2018-09-19T09:24:35Z</time>
      </trkpt>
      <trkpt lat="47.65747" lon="6.07404">
        <ele>252</ele>
        <time>2018-09-19T09:24:37Z</time>
      </trkpt>
      <trkpt lat="47.65752" lon="6.07404">
        <ele>253</ele>
        <time>2018-09-19T09:24:39Z</time>
      </trkpt>
      <trkpt lat="47.65758" lon="6.07405">
        <ele>253</ele>
        <time>2018-09-19T09:24:41Z</time>
      </trkpt>
      <trkpt lat="47.65764" lon="6.07405">
        <ele>252</ele>
        <time>2018-09-19T09:24:43Z</time>
      </trkpt>
      <trkpt lat="47.6577" lon="6.07405">
        <ele>252</ele>
        <time>2018-09-19T09:24:45Z</time>
      </trkpt>
      <trkpt lat="47.65776" lon="6.07405">
        <ele>252</ele>
        <time>2018-09-19T09:24:47Z</time>
      </trkpt>
      <trkpt lat="47.65781" lon="6.07405">
        <ele>252</ele>
        <time>2018-09-19T09:24:49Z</time>
      </trkpt>
      <trkpt lat="47.65787" lon="6.07406">
        <ele>252</ele>
        <time>2018-09-19T09:24:51Z</time>
      </trkpt>
      <trkpt lat="47.65792" lon="6.07406">
        <ele>252</ele>
        <time>2018-09-19T09:24:53Z</time>
      </trkpt>
      <trkpt lat="47.65798" lon="6.07406">
        <ele>253</ele>
        <time>2018-09-19T09:24:55Z</time>
      </trkpt>
      <trkpt lat="47.65803" lon="6.07406">
        <ele>253</ele>
        <time>2018-09-19T09:24:57Z</time>
      </trkpt>
      <trkpt lat="47.65809" lon="6.07406">
        <ele>253</ele>
        <time>2018-09-19T09:24:59Z</time>
      </trkpt>
      <trkpt lat="47.65815" lon="6.07406">
        <ele>253</ele>
        <time>2018-09-19T09:25:01Z</time>
      </trkpt>
      <trkpt lat="47.6582" lon="6.07406">
        <ele>253</ele>
        <time>2018-09-19T09:25:03Z</time>
      </trkpt>
      <trkpt lat="47.65826" lon="6.07406">
        <ele>253</ele>
        <time>2018-09-19T09:25:05Z</time>
      </trkpt>
      <trkpt lat="47.65831" lon="6.07406">
        <ele>253</ele>
        <time>2018-09-19T09:25:07Z</time>
      </trkpt>
      <trkpt lat="47.65837" lon="6.07406">
        <ele>254</ele>
        <time>2018-09-19T09:25:09Z</time>
      </trkpt>
      <trkpt lat="47.65843" lon="6.07406">
        <ele>254</ele>
        <time>2018-09-19T09:25:11Z</time>
      </trkpt>
      <trkpt lat="47.65849" lon="6.07406">
        <ele>254</ele>
        <time>2018-09-19T09:25:13Z</time>
      </trkpt>
      <trkpt lat="47.65854" lon="6.07407">
        <ele>254</ele>
        <time>2018-09-19T09:25:15Z</time>
      </trkpt>
      <trkpt lat="47.6586" lon="6.07407">
        <ele>254</ele>
        <time>2018-09-19T09:25:17Z</time>
      </trkpt>
      <trkpt lat="47.65866" lon="6.07408">
        <ele>254</ele>
        <time>2018-09-19T09:25:19Z</time>
      </trkpt>
      <trkpt lat="47.65873" lon="6.0741">
        <ele>254</ele>
        <time>2018-09-19T09:25:21Z</time>
      </trkpt>
      <trkpt lat="47.65879" lon="6.07413">
        <ele>254</ele>
        <time>2018-09-19T09:25:23Z</time>
      </trkpt>
      <trkpt lat="47.65886" lon="6.07415">
        <ele>255</ele>
        <time>2018-09-19T09:25:25Z</time>
      </trkpt>
      <trkpt lat="47.65892" lon="6.07417">
        <ele>256</ele>
        <time>2018-09-19T09:25:27Z</time>
      </trkpt>
      <trkpt lat="47.65899" lon="6.07418">
        <ele>256</ele>
        <time>2018-09-19T09:25:29Z</time>
      </trkpt>
      <trkpt lat="47.65903" lon="6.07419">
        <ele>256</ele>
        <time>2018-09-19T09:25:31Z</time>
      </trkpt>
      <trkpt lat="47.65908" lon="6.0742">
        <ele>256</ele>
        <time>2018-09-19T09:25:33Z</time>
      </trkpt>
      <trkpt lat="47.65914" lon="6.07421">
        <ele>256</ele>
        <time>2018-09-19T09:25:35Z</time>
      </trkpt>
      <trkpt lat="47.6592" lon="6.07421">
        <ele>256</ele>
        <time>2018-09-19T09:25:37Z</time>
      </trkpt>
      <trkpt lat="47.65926" lon="6.07421">
        <ele>256</ele>
        <time>2018-09-19T09:25:39Z</time>
      </trkpt>
      <trkpt lat="47.65932" lon="6.0742">
        <ele>256</ele>
        <time>2018-09-19T09:25:41Z</time>
      </trkpt>
      <trkpt lat="47.65939" lon="6.0742">
        <ele>255</ele>
        <time>2018-09-19T09:25:43Z</time>
      </trkpt>
      <trkpt lat="47.65946" lon="6.0742">
        <ele>255</ele>
        <time>2018-09-19T09:25:45Z</time>
      </trkpt>
      <trkpt lat="47.65952" lon="6.07419">
        <ele>255</ele>
        <time>2018-09-19T09:25:47Z</time>
      </trkpt>
      <trkpt lat="47.65959" lon="6.07418">
        <ele>255</ele>
        <time>2018-09-19T09:25:49Z</time>
      </trkpt>
      <trkpt lat="47.65967" lon="6.07417">
        <ele>255</ele>
        <time>2018-09-19T09:25:51Z</time>
      </trkpt>
      <trkpt lat="47.65974" lon="6.07416">
        <ele>254</ele>
        <time>2018-09-19T09:25:53Z</time>
      </trkpt>
      <trkpt lat="47.6599" lon="6.07413">
        <ele>254</ele>
        <time>2018-09-19T09:25:55Z</time>
      </trkpt>
      <trkpt lat="47.65998" lon="6.07411">
        <ele>254</ele>
        <time>2018-09-19T09:25:57Z</time>
      </trkpt>
      <trkpt lat="47.66007" lon="6.07409">
        <ele>253</ele>
        <time>2018-09-19T09:25:59Z</time>
      </trkpt>
      <trkpt lat="47.66012" lon="6.07409">
        <ele>253</ele>
        <time>2018-09-19T09:26:00Z</time>
      </trkpt>
      <trkpt lat="47.66017" lon="6.0741">
        <ele>253</ele>
        <time>2018-09-19T09:26:01Z</time>
      </trkpt>
      <trkpt lat="47.66022" lon="6.07411">
        <ele>253</ele>
        <time>2018-09-19T09:26:02Z</time>
      </trkpt>
      <trkpt lat="47.66027" lon="6.07413">
        <ele>252</ele>
        <time>2018-09-19T09:26:03Z</time>
      </trkpt>
      <trkpt lat="47.66033" lon="6.07414">
        <ele>252</ele>
        <time>2018-09-19T09:26:04Z</time>
      </trkpt>
      <trkpt lat="47.66038" lon="6.07416">
        <ele>252</ele>
        <time>2018-09-19T09:26:05Z</time>
      </trkpt>
      <trkpt lat="47.66044" lon="6.07418">
        <ele>252</ele>
        <time>2018-09-19T09:26:06Z</time>
      </trkpt>
      <trkpt lat="47.66049" lon="6.0742">
        <ele>252</ele>
        <time>2018-09-19T09:26:07Z</time>
      </trkpt>
      <trkpt lat="47.66054" lon="6.0742">
        <ele>252</ele>
        <time>2018-09-19T09:26:08Z</time>
      </trkpt>
      <trkpt lat="47.6606" lon="6.07421">
        <ele>252</ele>
        <time>2018-09-19T09:26:09Z</time>
      </trkpt>
      <trkpt lat="47.66065" lon="6.07422">
        <ele>252</ele>
        <time>2018-09-19T09:26:10Z</time>
      </trkpt>
      <trkpt lat="47.6607" lon="6.07423">
        <ele>251</ele>
        <time>2018-09-19T09:26:11Z</time>
      </trkpt>
      <trkpt lat="47.66075" lon="6.07423">
        <ele>251</ele>
        <time>2018-09-19T09:26:12Z</time>
      </trkpt>
      <trkpt lat="47.6608" lon="6.07424">
        <ele>251</ele>
        <time>2018-09-19T09:26:13Z</time>
      </trkpt>
      <trkpt lat="47.66085" lon="6.07424">
        <ele>251</ele>
        <time>2018-09-19T09:26:14Z</time>
      </trkpt>
      <trkpt lat="47.6609" lon="6.07423">
        <ele>251</ele>
        <time>2018-09-19T09:26:15Z</time>
      </trkpt>
      <trkpt lat="47.66094" lon="6.07423">
        <ele>251</ele>
        <time>2018-09-19T09:26:16Z</time>
      </trkpt>
      <trkpt lat="47.66099" lon="6.07423">
        <ele>251</ele>
        <time>2018-09-19T09:26:17Z</time>
      </trkpt>
      <trkpt lat="47.66104" lon="6.07422">
        <ele>251</ele>
        <time>2018-09-19T09:26:18Z</time>
      </trkpt>
      <trkpt lat="47.6611" lon="6.07422">
        <ele>251</ele>
        <time>2018-09-19T09:26:19Z</time>
      </trkpt>
      <trkpt lat="47.66115" lon="6.07422">
        <ele>251</ele>
        <time>2018-09-19T09:26:20Z</time>
      </trkpt>
      <trkpt lat="47.66121" lon="6.07422">
        <ele>251</ele>
        <time>2018-09-19T09:26:21Z</time>
      </trkpt>
      <trkpt lat="47.66126" lon="6.07422">
        <ele>251</ele>
        <time>2018-09-19T09:26:22Z</time>
      </trkpt>
      <trkpt lat="47.66131" lon="6.07422">
        <ele>251</ele>
        <time>2018-09-19T09:26:23Z</time>
      </trkpt>
      <trkpt lat="47.66136" lon="6.07422">
        <ele>251</ele>
        <time>2018-09-19T09:26:24Z</time>
      </trkpt>
      <trkpt lat="47.66142" lon="6.07422">
        <ele>251</ele>
        <time>2018-09-19T09:26:25Z</time>
      </trkpt>
      <trkpt lat="47.66147" lon="6.07422">
        <ele>250</ele>
        <time>2018-09-19T09:26:26Z</time>
      </trkpt>
      <trkpt lat="47.66153" lon="6.07422">
        <ele>250</ele>
        <time>2018-09-19T09:26:27Z</time>
      </trkpt>
      <trkpt lat="47.66158" lon="6.07423">
        <ele>250</ele>
        <time>2018-09-19T09:26:28Z</time>
      </trkpt>
      <trkpt lat="47.66163" lon="6.07423">
        <ele>250</ele>
        <time>2018-09-19T09:26:29Z</time>
      </trkpt>
      <trkpt lat="47.66168" lon="6.07424">
        <ele>250</ele>
        <time>2018-09-19T09:26:30Z</time>
      </trkpt>
      <trkpt lat="47.66174" lon="6.07426">
        <ele>250</ele>
        <time>2018-09-19T09:26:31Z</time>
      </trkpt>
      <trkpt lat="47.66179" lon="6.07428">
        <ele>250</ele>
        <time>2018-09-19T09:26:32Z</time>
      </trkpt>
      <trkpt lat="47.66184" lon="6.0743">
        <ele>251</ele>
        <time>2018-09-19T09:26:33Z</time>
      </trkpt>
      <trkpt lat="47.66188" lon="6.07432">
        <ele>251</ele>
        <time>2018-09-19T09:26:34Z</time>
      </trkpt>
      <trkpt lat="47.66193" lon="6.07433">
        <ele>251</ele>
        <time>2018-09-19T09:26:35Z</time>
      </trkpt>
      <trkpt lat="47.66201" lon="6.07438">
        <ele>251</ele>
        <time>2018-09-19T09:26:37Z</time>
      </trkpt>
      <trkpt lat="47.66206" lon="6.0744">
        <ele>251</ele>
        <time>2018-09-19T09:26:38Z</time>
      </trkpt>
      <trkpt lat="47.66211" lon="6.07442">
        <ele>251</ele>
        <time>2018-09-19T09:26:39Z</time>
      </trkpt>
      <trkpt lat="47.66215" lon="6.07444">
        <ele>251</ele>
        <time>2018-09-19T09:26:40Z</time>
      </trkpt>
      <trkpt lat="47.6622" lon="6.07445">
        <ele>251</ele>
        <time>2018-09-19T09:26:41Z</time>
      </trkpt>
      <trkpt lat="47.66224" lon="6.07447">
        <ele>251</ele>
        <time>2018-09-19T09:26:42Z</time>
      </trkpt>
      <trkpt lat="47.66233" lon="6.0745">
        <ele>251</ele>
        <time>2018-09-19T09:26:44Z</time>
      </trkpt>
      <trkpt lat="47.66241" lon="6.07453">
        <ele>251</ele>
        <time>2018-09-19T09:26:46Z</time>
      </trkpt>
      <trkpt lat="47.66248" lon="6.07455">
        <ele>251</ele>
        <time>2018-09-19T09:26:48Z</time>
      </trkpt>
      <trkpt lat="47.66255" lon="6.07457">
        <ele>251</ele>
        <time>2018-09-19T09:26:50Z</time>
      </trkpt>
      <trkpt lat="47.66262" lon="6.07458">
        <ele>251</ele>
        <time>2018-09-19T09:26:52Z</time>
      </trkpt>
      <trkpt lat="47.66269" lon="6.07459">
        <ele>251</ele>
        <time>2018-09-19T09:26:54Z</time>
      </trkpt>
      <trkpt lat="47.66276" lon="6.0746">
        <ele>250</ele>
        <time>2018-09-19T09:26:56Z</time>
      </trkpt>
      <trkpt lat="47.66282" lon="6.07459">
        <ele>250</ele>
        <time>2018-09-19T09:26:58Z</time>
      </trkpt>
      <trkpt lat="47.6629" lon="6.07459">
        <ele>250</ele>
        <time>2018-09-19T09:27:00Z</time>
      </trkpt>
      <trkpt lat="47.66298" lon="6.07459">
        <ele>250</ele>
        <time>2018-09-19T09:27:02Z</time>
      </trkpt>
      <trkpt lat="47.66306" lon="6.07458">
        <ele>250</ele>
        <time>2018-09-19T09:27:04Z</time>
      </trkpt>
      <trkpt lat="47.66314" lon="6.07457">
        <ele>250</ele>
        <time>2018-09-19T09:27:06Z</time>
      </trkpt>
      <trkpt lat="47.66319" lon="6.07456">
        <ele>250</ele>
        <time>2018-09-19T09:27:07Z</time>
      </trkpt>
      <trkpt lat="47.66328" lon="6.07453">
        <ele>250</ele>
        <time>2018-09-19T09:27:09Z</time>
      </trkpt>
      <trkpt lat="47.66333" lon="6.07452">
        <ele>247</ele>
        <time>2018-09-19T09:27:10Z</time>
      </trkpt>
      <trkpt lat="47.6634" lon="6.0745">
        <ele>247</ele>
        <time>2018-09-19T09:27:11Z</time>
      </trkpt>
      <trkpt lat="47.66346" lon="6.07448">
        <ele>246</ele>
        <time>2018-09-19T09:27:12Z</time>
      </trkpt>
      <trkpt lat="47.66352" lon="6.07447">
        <ele>246</ele>
        <time>2018-09-19T09:27:13Z</time>
      </trkpt>
      <trkpt lat="47.66358" lon="6.07446">
        <ele>246</ele>
        <time>2018-09-19T09:27:14Z</time>
      </trkpt>
      <trkpt lat="47.66363" lon="6.07444">
        <ele>246</ele>
        <time>2018-09-19T09:27:15Z</time>
      </trkpt>
      <trkpt lat="47.66369" lon="6.07444">
        <ele>245</ele>
        <time>2018-09-19T09:27:16Z</time>
      </trkpt>
      <trkpt lat="47.66376" lon="6.07443">
        <ele>245</ele>
        <time>2018-09-19T09:27:17Z</time>
      </trkpt>
      <trkpt lat="47.66382" lon="6.07443">
        <ele>245</ele>
        <time>2018-09-19T09:27:18Z</time>
      </trkpt>
      <trkpt lat="47.66388" lon="6.07442">
        <ele>244</ele>
        <time>2018-09-19T09:27:19Z</time>
      </trkpt>
      <trkpt lat="47.66393" lon="6.07441">
        <ele>244</ele>
        <time>2018-09-19T09:27:20Z</time>
      </trkpt>
      <trkpt lat="47.66399" lon="6.07441">
        <ele>244</ele>
        <time>2018-09-19T09:27:21Z</time>
      </trkpt>
      <trkpt lat="47.66405" lon="6.0744">
        <ele>244</ele>
        <time>2018-09-19T09:27:22Z</time>
      </trkpt>
      <trkpt lat="47.6641" lon="6.0744">
        <ele>243</ele>
        <time>2018-09-19T09:27:23Z</time>
      </trkpt>
      <trkpt lat="47.66417" lon="6.0744">
        <ele>243</ele>
        <time>2018-09-19T09:27:24Z</time>
      </trkpt>
      <trkpt lat="47.66423" lon="6.0744">
        <ele>237</ele>
        <time>2018-09-19T09:27:25Z</time>
      </trkpt>
      <trkpt lat="47.6643" lon="6.07442">
        <ele>237</ele>
        <time>2018-09-19T09:27:26Z</time>
      </trkpt>
      <trkpt lat="47.66436" lon="6.07445">
        <ele>236</ele>
        <time>2018-09-19T09:27:27Z</time>
      </trkpt>
      <trkpt lat="47.66441" lon="6.07449">
        <ele>236</ele>
        <time>2018-09-19T09:27:28Z</time>
      </trkpt>
      <trkpt lat="47.66445" lon="6.07455">
        <ele>235</ele>
        <time>2018-09-19T09:27:29Z</time>
      </trkpt>
      <trkpt lat="47.66449" lon="6.07462">
        <ele>235</ele>
        <time>2018-09-19T09:27:30Z</time>
      </trkpt>
      <trkpt lat="47.66453" lon="6.07471">
        <ele>235</ele>
        <time>2018-09-19T09:27:31Z</time>
      </trkpt>
      <trkpt lat="47.66457" lon="6.07481">
        <ele>234</ele>
        <time>2018-09-19T09:27:32Z</time>
      </trkpt>
      <trkpt lat="47.66461" lon="6.07489">
        <ele>234</ele>
        <time>2018-09-19T09:27:33Z</time>
      </trkpt>
      <trkpt lat="47.66465" lon="6.07497">
        <ele>234</ele>
        <time>2018-09-19T09:27:34Z</time>
      </trkpt>
      <trkpt lat="47.6647" lon="6.07504">
        <ele>232</ele>
        <time>2018-09-19T09:27:35Z</time>
      </trkpt>
      <trkpt lat="47.66474" lon="6.07511">
        <ele>232</ele>
        <time>2018-09-19T09:27:36Z</time>
      </trkpt>
      <trkpt lat="47.66479" lon="6.07517">
        <ele>232</ele>
        <time>2018-09-19T09:27:37Z</time>
      </trkpt>
      <trkpt lat="47.66485" lon="6.07523">
        <ele>231</ele>
        <time>2018-09-19T09:27:38Z</time>
      </trkpt>
      <trkpt lat="47.66491" lon="6.07529">
        <ele>231</ele>
        <time>2018-09-19T09:27:39Z</time>
      </trkpt>
      <trkpt lat="47.66497" lon="6.07534">
        <ele>231</ele>
        <time>2018-09-19T09:27:40Z</time>
      </trkpt>
      <trkpt lat="47.66503" lon="6.07539">
        <ele>227</ele>
        <time>2018-09-19T09:27:41Z</time>
      </trkpt>
      <trkpt lat="47.66509" lon="6.07544">
        <ele>226</ele>
        <time>2018-09-19T09:27:42Z</time>
      </trkpt>
      <trkpt lat="47.66515" lon="6.07551">
        <ele>226</ele>
        <time>2018-09-19T09:27:43Z</time>
      </trkpt>
      <trkpt lat="47.66521" lon="6.07557">
        <ele>226</ele>
        <time>2018-09-19T09:27:44Z</time>
      </trkpt>
      <trkpt lat="47.66527" lon="6.07564">
        <ele>226</ele>
        <time>2018-09-19T09:27:45Z</time>
      </trkpt>
      <trkpt lat="47.66533" lon="6.07572">
        <ele>226</ele>
        <time>2018-09-19T09:27:46Z</time>
      </trkpt>
      <trkpt lat="47.66539" lon="6.0758">
        <ele>226</ele>
        <time>2018-09-19T09:27:47Z</time>
      </trkpt>
      <trkpt lat="47.66545" lon="6.07588">
        <ele>226</ele>
        <time>2018-09-19T09:27:48Z</time>
      </trkpt>
      <trkpt lat="47.66551" lon="6.07596">
        <ele>226</ele>
        <time>2018-09-19T09:27:49Z</time>
      </trkpt>
      <trkpt lat="47.66557" lon="6.07605">
        <ele>226</ele>
        <time>2018-09-19T09:27:50Z</time>
      </trkpt>
      <trkpt lat="47.66563" lon="6.07613">
        <ele>226</ele>
        <time>2018-09-19T09:27:51Z</time>
      </trkpt>
      <trkpt lat="47.66569" lon="6.07621">
        <ele>226</ele>
        <time>2018-09-19T09:27:52Z</time>
      </trkpt>
      <trkpt lat="47.66575" lon="6.07629">
        <ele>226</ele>
        <time>2018-09-19T09:27:53Z</time>
      </trkpt>
      <trkpt lat="47.66581" lon="6.07637">
        <ele>226</ele>
        <time>2018-09-19T09:27:54Z</time>
      </trkpt>
      <trkpt lat="47.66587" lon="6.07646">
        <ele>224</ele>
        <time>2018-09-19T09:27:55Z</time>
      </trkpt>
      <trkpt lat="47.66592" lon="6.07654">
        <ele>224</ele>
        <time>2018-09-19T09:27:56Z</time>
      </trkpt>
      <trkpt lat="47.66598" lon="6.07662">
        <ele>224</ele>
        <time>2018-09-19T09:27:57Z</time>
      </trkpt>
      <trkpt lat="47.66604" lon="6.07669">
        <ele>225</ele>
        <time>2018-09-19T09:27:58Z</time>
      </trkpt>
      <trkpt lat="47.66609" lon="6.07677">
        <ele>224</ele>
        <time>2018-09-19T09:27:59Z</time>
      </trkpt>
      <trkpt lat="47.66615" lon="6.07684">
        <ele>224</ele>
        <time>2018-09-19T09:28:00Z</time>
      </trkpt>
      <trkpt lat="47.66621" lon="6.0769">
        <ele>224</ele>
        <time>2018-09-19T09:28:01Z</time>
      </trkpt>
      <trkpt lat="47.66626" lon="6.07697">
        <ele>224</ele>
        <time>2018-09-19T09:28:02Z</time>
      </trkpt>
      <trkpt lat="47.66632" lon="6.07703">
        <ele>224</ele>
        <time>2018-09-19T09:28:03Z</time>
      </trkpt>
      <trkpt lat="47.66638" lon="6.07708">
        <ele>224</ele>
        <time>2018-09-19T09:28:04Z</time>
      </trkpt>
      <trkpt lat="47.66643" lon="6.07715">
        <ele>224</ele>
        <time>2018-09-19T09:28:05Z</time>
      </trkpt>
      <trkpt lat="47.66649" lon="6.0772">
        <ele>224</ele>
        <time>2018-09-19T09:28:06Z</time>
      </trkpt>
      <trkpt lat="47.66655" lon="6.07723">
        <ele>224</ele>
        <time>2018-09-19T09:28:07Z</time>
      </trkpt>
      <trkpt lat="47.6666" lon="6.07727">
        <ele>224</ele>
        <time>2018-09-19T09:28:08Z</time>
      </trkpt>
      <trkpt lat="47.66665" lon="6.07733">
        <ele>224</ele>
        <time>2018-09-19T09:28:09Z</time>
      </trkpt>
      <trkpt lat="47.66671" lon="6.07736">
        <ele>223</ele>
        <time>2018-09-19T09:28:10Z</time>
      </trkpt>
      <trkpt lat="47.66676" lon="6.07741">
        <ele>223</ele>
        <time>2018-09-19T09:28:11Z</time>
      </trkpt>
      <trkpt lat="47.6668" lon="6.07745">
        <ele>223</ele>
        <time>2018-09-19T09:28:12Z</time>
      </trkpt>
      <trkpt lat="47.66686" lon="6.0775">
        <ele>223</ele>
        <time>2018-09-19T09:28:13Z</time>
      </trkpt>
      <trkpt lat="47.6669" lon="6.07755">
        <ele>224</ele>
        <time>2018-09-19T09:28:14Z</time>
      </trkpt>
      <trkpt lat="47.66695" lon="6.0776">
        <ele>224</ele>
        <time>2018-09-19T09:28:15Z</time>
      </trkpt>
      <trkpt lat="47.66699" lon="6.07765">
        <ele>224</ele>
        <time>2018-09-19T09:28:16Z</time>
      </trkpt>
      <trkpt lat="47.66703" lon="6.0777">
        <ele>224</ele>
        <time>2018-09-19T09:28:17Z</time>
      </trkpt>
      <trkpt lat="47.66707" lon="6.07775">
        <ele>224</ele>
        <time>2018-09-19T09:28:18Z</time>
      </trkpt>
      <trkpt lat="47.6671" lon="6.07781">
        <ele>224</ele>
        <time>2018-09-19T09:28:19Z</time>
      </trkpt>
      <trkpt lat="47.66713" lon="6.07786">
        <ele>224</ele>
        <time>2018-09-19T09:28:20Z</time>
      </trkpt>
      <trkpt lat="47.66717" lon="6.07791">
        <ele>224</ele>
        <time>2018-09-19T09:28:21Z</time>
      </trkpt>
      <trkpt lat="47.6672" lon="6.07797">
        <ele>224</ele>
        <time>2018-09-19T09:28:22Z</time>
      </trkpt>
      <trkpt lat="47.66724" lon="6.07802">
        <ele>224</ele>
        <time>2018-09-19T09:28:23Z</time>
      </trkpt>
      <trkpt lat="47.66727" lon="6.07807">
        <ele>224</ele>
        <time>2018-09-19T09:28:24Z</time>
      </trkpt>
      <trkpt lat="47.6673" lon="6.07812">
        <ele>224</ele>
        <time>2018-09-19T09:28:25Z</time>
      </trkpt>
      <trkpt lat="47.66734" lon="6.07817">
        <ele>224</ele>
        <time>2018-09-19T09:28:26Z</time>
      </trkpt>
      <trkpt lat="47.66737" lon="6.07822">
        <ele>224</ele>
        <time>2018-09-19T09:28:27Z</time>
      </trkpt>
      <trkpt lat="47.6674" lon="6.07827">
        <ele>224</ele>
        <time>2018-09-19T09:28:28Z</time>
      </trkpt>
      <trkpt lat="47.66743" lon="6.07832">
        <ele>223</ele>
        <time>2018-09-19T09:28:29Z</time>
      </trkpt>
      <trkpt lat="47.66747" lon="6.07836">
        <ele>224</ele>
        <time>2018-09-19T09:28:30Z</time>
      </trkpt>
      <trkpt lat="47.6675" lon="6.07841">
        <ele>223</ele>
        <time>2018-09-19T09:28:31Z</time>
      </trkpt>
      <trkpt lat="47.66757" lon="6.07851">
        <ele>224</ele>
        <time>2018-09-19T09:28:33Z</time>
      </trkpt>
      <trkpt lat="47.6676" lon="6.07856">
        <ele>224</ele>
        <time>2018-09-19T09:28:34Z</time>
      </trkpt>
      <trkpt lat="47.66763" lon="6.07861">
        <ele>224</ele>
        <time>2018-09-19T09:28:35Z</time>
      </trkpt>
      <trkpt lat="47.66769" lon="6.07871">
        <ele>224</ele>
        <time>2018-09-19T09:28:37Z</time>
      </trkpt>
      <trkpt lat="47.66772" lon="6.07876">
        <ele>224</ele>
        <time>2018-09-19T09:28:38Z</time>
      </trkpt>
      <trkpt lat="47.66778" lon="6.07884">
        <ele>224</ele>
        <time>2018-09-19T09:28:40Z</time>
      </trkpt>
      <trkpt lat="47.66783" lon="6.07892">
        <ele>224</ele>
        <time>2018-09-19T09:28:42Z</time>
      </trkpt>
      <trkpt lat="47.66787" lon="6.07899">
        <ele>224</ele>
        <time>2018-09-19T09:28:45Z</time>
      </trkpt>
      <trkpt lat="47.66791" lon="6.07906">
        <ele>224</ele>
        <time>2018-09-19T09:28:47Z</time>
      </trkpt>
      <trkpt lat="47.66796" lon="6.07913">
        <ele>224</ele>
        <time>2018-09-19T09:28:49Z</time>
      </trkpt>
      <trkpt lat="47.66799" lon="6.07921">
        <ele>226</ele>
        <time>2018-09-19T09:28:51Z</time>
      </trkpt>
      <trkpt lat="47.66803" lon="6.07927">
        <ele>226</ele>
        <time>2018-09-19T09:28:53Z</time>
      </trkpt>
      <trkpt lat="47.66806" lon="6.07934">
        <ele>226</ele>
        <time>2018-09-19T09:28:55Z</time>
      </trkpt>
      <trkpt lat="47.6681" lon="6.07942">
        <ele>226</ele>
        <time>2018-09-19T09:28:57Z</time>
      </trkpt>
      <trkpt lat="47.66813" lon="6.07948">
        <ele>227</ele>
        <time>2018-09-19T09:28:59Z</time>
      </trkpt>
      <trkpt lat="47.66816" lon="6.07956">
        <ele>227</ele>
        <time>2018-09-19T09:29:01Z</time>
      </trkpt>
      <trkpt lat="47.66821" lon="6.07963">
        <ele>227</ele>
        <time>2018-09-19T09:29:03Z</time>
      </trkpt>
      <trkpt lat="47.66825" lon="6.07968">
        <ele>227</ele>
        <time>2018-09-19T09:29:05Z</time>
      </trkpt>
      <trkpt lat="47.6683" lon="6.07972">
        <ele>227</ele>
        <time>2018-09-19T09:29:07Z</time>
      </trkpt>
      <trkpt lat="47.66837" lon="6.07971">
        <ele>227</ele>
        <time>2018-09-19T09:29:09Z</time>
      </trkpt>
      <trkpt lat="47.66845" lon="6.07967">
        <ele>227</ele>
        <time>2018-09-19T09:29:11Z</time>
      </trkpt>
      <trkpt lat="47.66849" lon="6.07964">
        <ele>227</ele>
        <time>2018-09-19T09:29:12Z</time>
      </trkpt>
      <trkpt lat="47.66857" lon="6.0796">
        <ele>227</ele>
        <time>2018-09-19T09:29:14Z</time>
      </trkpt>
      <trkpt lat="47.66871" lon="6.07964">
        <ele>227</ele>
        <time>2018-09-19T09:29:16Z</time>
      </trkpt>
      <trkpt lat="47.66878" lon="6.07972">
        <ele>227</ele>
        <time>2018-09-19T09:29:18Z</time>
      </trkpt>
      <trkpt lat="47.66882" lon="6.07976">
        <ele>227</ele>
        <time>2018-09-19T09:29:19Z</time>
      </trkpt>
      <trkpt lat="47.66886" lon="6.0798">
        <ele>227</ele>
        <time>2018-09-19T09:29:20Z</time>
      </trkpt>
      <trkpt lat="47.66891" lon="6.07988">
        <ele>227</ele>
        <time>2018-09-19T09:29:22Z</time>
      </trkpt>
      <trkpt lat="47.66897" lon="6.07996">
        <ele>227</ele>
        <time>2018-09-19T09:29:24Z</time>
      </trkpt>
      <trkpt lat="47.66904" lon="6.08005">
        <ele>228</ele>
        <time>2018-09-19T09:29:26Z</time>
      </trkpt>
      <trkpt lat="47.66911" lon="6.08012">
        <ele>228</ele>
        <time>2018-09-19T09:29:28Z</time>
      </trkpt>
      <trkpt lat="47.66918" lon="6.0801">
        <ele>227</ele>
        <time>2018-09-19T09:29:30Z</time>
      </trkpt>
      <trkpt lat="47.66924" lon="6.08003">
        <ele>227</ele>
        <time>2018-09-19T09:29:32Z</time>
      </trkpt>
      <trkpt lat="47.6693" lon="6.07996">
        <ele>227</ele>
        <time>2018-09-19T09:29:34Z</time>
      </trkpt>
      <trkpt lat="47.66936" lon="6.07989">
        <ele>227</ele>
        <time>2018-09-19T09:29:36Z</time>
      </trkpt>
      <trkpt lat="47.66943" lon="6.07981">
        <ele>227</ele>
        <time>2018-09-19T09:29:38Z</time>
      </trkpt>
      <trkpt lat="47.66947" lon="6.07976">
        <ele>227</ele>
        <time>2018-09-19T09:29:39Z</time>
      </trkpt>
      <trkpt lat="47.66953" lon="6.07969">
        <ele>227</ele>
        <time>2018-09-19T09:29:41Z</time>
      </trkpt>
      <trkpt lat="47.66956" lon="6.07963">
        <ele>227</ele>
        <time>2018-09-19T09:29:42Z</time>
      </trkpt>
      <trkpt lat="47.66959" lon="6.07957">
        <ele>227</ele>
        <time>2018-09-19T09:29:43Z</time>
      </trkpt>
      <trkpt lat="47.66962" lon="6.07951">
        <ele>227</ele>
        <time>2018-09-19T09:29:44Z</time>
      </trkpt>
      <trkpt lat="47.66965" lon="6.07946">
        <ele>227</ele>
        <time>2018-09-19T09:29:45Z</time>
      </trkpt>
      <trkpt lat="47.66967" lon="6.0794">
        <ele>227</ele>
        <time>2018-09-19T09:29:46Z</time>
      </trkpt>
      <trkpt lat="47.6697" lon="6.07934">
        <ele>227</ele>
        <time>2018-09-19T09:29:47Z</time>
      </trkpt>
      <trkpt lat="47.66974" lon="6.07926">
        <ele>227</ele>
        <time>2018-09-19T09:29:49Z</time>
      </trkpt>
      <trkpt lat="47.66978" lon="6.07917">
        <ele>227</ele>
        <time>2018-09-19T09:29:51Z</time>
      </trkpt>
      <trkpt lat="47.66981" lon="6.07911">
        <ele>228</ele>
        <time>2018-09-19T09:29:53Z</time>
      </trkpt>
      <trkpt lat="47.66987" lon="6.07909">
        <ele>228</ele>
        <time>2018-09-19T09:29:57Z</time>
      </trkpt>
      <trkpt lat="47.66994" lon="6.07912">
        <ele>227</ele>
        <time>2018-09-19T09:30:00Z</time>
      </trkpt>
      <trkpt lat="47.66998" lon="6.07915">
        <ele>227</ele>
        <time>2018-09-19T09:30:02Z</time>
      </trkpt>
      <trkpt lat="47.67004" lon="6.07917">
        <ele>227</ele>
        <time>2018-09-19T09:30:05Z</time>
      </trkpt>
      <trkpt lat="47.6701" lon="6.07919">
        <ele>227</ele>
        <time>2018-09-19T09:30:08Z</time>
      </trkpt>
      <trkpt lat="47.67015" lon="6.07921">
        <ele>227</ele>
        <time>2018-09-19T09:30:11Z</time>
      </trkpt>
      <trkpt lat="47.67021" lon="6.07923">
        <ele>227</ele>
        <time>2018-09-19T09:30:14Z</time>
      </trkpt>
      <trkpt lat="47.67026" lon="6.07922">
        <ele>227</ele>
        <time>2018-09-19T09:30:17Z</time>
      </trkpt>
      <trkpt lat="47.67031" lon="6.07921">
        <ele>227</ele>
        <time>2018-09-19T09:30:20Z</time>
      </trkpt>
      <trkpt lat="47.67036" lon="6.07918">
        <ele>228</ele>
        <time>2018-09-19T09:30:23Z</time>
      </trkpt>
      <trkpt lat="47.6704" lon="6.07914">
        <ele>230</ele>
        <time>2018-09-19T09:30:27Z</time>
      </trkpt>
      <trkpt lat="47.67044" lon="6.07909">
        <ele>230</ele>
        <time>2018-09-19T09:30:30Z</time>
      </trkpt>
      <trkpt lat="47.67048" lon="6.07905">
        <ele>230</ele>
        <time>2018-09-19T09:30:33Z</time>
      </trkpt>
      <trkpt lat="47.67051" lon="6.07899">
        <ele>230</ele>
        <time>2018-09-19T09:30:36Z</time>
      </trkpt>
      <trkpt lat="47.67054" lon="6.07892">
        <ele>230</ele>
        <time>2018-09-19T09:30:40Z</time>
      </trkpt>
      <trkpt lat="47.67057" lon="6.07886">
        <ele>231</ele>
        <time>2018-09-19T09:30:44Z</time>
      </trkpt>
      <trkpt lat="47.6706" lon="6.0788">
        <ele>231</ele>
        <time>2018-09-19T09:30:48Z</time>
      </trkpt>
      <trkpt lat="47.67063" lon="6.07874">
        <ele>231</ele>
        <time>2018-09-19T09:30:53Z</time>
      </trkpt>
      <trkpt lat="47.67065" lon="6.07868">
        <ele>231</ele>
        <time>2018-09-19T09:30:57Z</time>
      </trkpt>
      <trkpt lat="47.67069" lon="6.07863">
        <ele>232</ele>
        <time>2018-09-19T09:31:01Z</time>
      </trkpt>
      <trkpt lat="47.67073" lon="6.07857">
        <ele>232</ele>
        <time>2018-09-19T09:31:06Z</time>
      </trkpt>
      <trkpt lat="47.67077" lon="6.07852">
        <ele>233</ele>
        <time>2018-09-19T09:31:11Z</time>
      </trkpt>
      <trkpt lat="47.67082" lon="6.07848">
        <ele>233</ele>
        <time>2018-09-19T09:31:15Z</time>
      </trkpt>
      <trkpt lat="47.67086" lon="6.07844">
        <ele>234</ele>
        <time>2018-09-19T09:31:19Z</time>
      </trkpt>
      <trkpt lat="47.67091" lon="6.07839">
        <ele>234</ele>
        <time>2018-09-19T09:31:23Z</time>
      </trkpt>
      <trkpt lat="47.67095" lon="6.07836">
        <ele>234</ele>
        <time>2018-09-19T09:31:27Z</time>
      </trkpt>
      <trkpt lat="47.671" lon="6.07833">
        <ele>237</ele>
        <time>2018-09-19T09:31:32Z</time>
      </trkpt>
      <trkpt lat="47.67105" lon="6.07831">
        <ele>237</ele>
        <time>2018-09-19T09:31:36Z</time>
      </trkpt>
      <trkpt lat="47.6711" lon="6.0783">
        <ele>237</ele>
        <time>2018-09-19T09:31:40Z</time>
      </trkpt>
      <trkpt lat="47.67115" lon="6.07828">
        <ele>238</ele>
        <time>2018-09-19T09:31:43Z</time>
      </trkpt>
      <trkpt lat="47.6712" lon="6.07826">
        <ele>238</ele>
        <time>2018-09-19T09:31:46Z</time>
      </trkpt>
      <trkpt lat="47.67125" lon="6.07824">
        <ele>238</ele>
        <time>2018-09-19T09:31:49Z</time>
      </trkpt>
      <trkpt lat="47.6713" lon="6.07823">
        <ele>238</ele>
        <time>2018-09-19T09:31:52Z</time>
      </trkpt>
      <trkpt lat="47.67136" lon="6.07822">
        <ele>238</ele>
        <time>2018-09-19T09:31:55Z</time>
      </trkpt>
      <trkpt lat="47.67141" lon="6.0782">
        <ele>238</ele>
        <time>2018-09-19T09:31:58Z</time>
      </trkpt>
      <trkpt lat="47.67146" lon="6.07818">
        <ele>238</ele>
        <time>2018-09-19T09:32:01Z</time>
      </trkpt>
      <trkpt lat="47.67151" lon="6.07817">
        <ele>238</ele>
        <time>2018-09-19T09:32:04Z</time>
      </trkpt>
      <trkpt lat="47.67157" lon="6.07816">
        <ele>238</ele>
        <time>2018-09-19T09:32:08Z</time>
      </trkpt>
      <trkpt lat="47.67162" lon="6.07814">
        <ele>238</ele>
        <time>2018-09-19T09:32:12Z</time>
      </trkpt>
      <trkpt lat="47.67167" lon="6.07813">
        <ele>240</ele>
        <time>2018-09-19T09:32:15Z</time>
      </trkpt>
      <trkpt lat="47.67172" lon="6.0781">
        <ele>240</ele>
        <time>2018-09-19T09:32:18Z</time>
      </trkpt>
      <trkpt lat="47.67176" lon="6.07808">
        <ele>240</ele>
        <time>2018-09-19T09:32:21Z</time>
      </trkpt>
      <trkpt lat="47.67181" lon="6.07806">
        <ele>241</ele>
        <time>2018-09-19T09:32:24Z</time>
      </trkpt>
      <trkpt lat="47.67185" lon="6.07803">
        <ele>241</ele>
        <time>2018-09-19T09:32:27Z</time>
      </trkpt>
      <trkpt lat="47.67189" lon="6.07798">
        <ele>241</ele>
        <time>2018-09-19T09:32:30Z</time>
      </trkpt>
      <trkpt lat="47.67193" lon="6.07796">
        <ele>241</ele>
        <time>2018-09-19T09:32:33Z</time>
      </trkpt>
      <trkpt lat="47.67198" lon="6.07795">
        <ele>242</ele>
        <time>2018-09-19T09:32:36Z</time>
      </trkpt>
      <trkpt lat="47.67203" lon="6.07792">
        <ele>242</ele>
        <time>2018-09-19T09:32:39Z</time>
      </trkpt>
      <trkpt lat="47.67208" lon="6.07788">
        <ele>242</ele>
        <time>2018-09-19T09:32:42Z</time>
      </trkpt>
      <trkpt lat="47.67212" lon="6.07784">
        <ele>242</ele>
        <time>2018-09-19T09:32:45Z</time>
      </trkpt>
      <trkpt lat="47.67218" lon="6.07781">
        <ele>243</ele>
        <time>2018-09-19T09:32:49Z</time>
      </trkpt>
      <trkpt lat="47.67223" lon="6.07777">
        <ele>243</ele>
        <time>2018-09-19T09:32:52Z</time>
      </trkpt>
      <trkpt lat="47.67229" lon="6.07774">
        <ele>244</ele>
        <time>2018-09-19T09:32:55Z</time>
      </trkpt>
      <trkpt lat="47.67234" lon="6.0777">
        <ele>244</ele>
        <time>2018-09-19T09:32:58Z</time>
      </trkpt>
      <trkpt lat="47.67239" lon="6.07764">
        <ele>245</ele>
        <time>2018-09-19T09:33:01Z</time>
      </trkpt>
      <trkpt lat="47.67242" lon="6.07759">
        <ele>246</ele>
        <time>2018-09-19T09:33:03Z</time>
      </trkpt>
      <trkpt lat="47.67246" lon="6.07754">
        <ele>248</ele>
        <time>2018-09-19T09:33:05Z</time>
      </trkpt>
      <trkpt lat="47.6725" lon="6.07749">
        <ele>249</ele>
        <time>2018-09-19T09:33:07Z</time>
      </trkpt>
      <trkpt lat="47.67253" lon="6.07744">
        <ele>251</ele>
        <time>2018-09-19T09:33:09Z</time>
      </trkpt>
      <trkpt lat="47.67255" lon="6.07738">
        <ele>252</ele>
        <time>2018-09-19T09:33:11Z</time>
      </trkpt>
      <trkpt lat="47.67258" lon="6.07733">
        <ele>253</ele>
        <time>2018-09-19T09:33:13Z</time>
      </trkpt>
      <trkpt lat="47.67261" lon="6.07726">
        <ele>253</ele>
        <time>2018-09-19T09:33:16Z</time>
      </trkpt>
      <trkpt lat="47.67265" lon="6.0772">
        <ele>254</ele>
        <time>2018-09-19T09:33:19Z</time>
      </trkpt>
      <trkpt lat="47.67269" lon="6.07714">
        <ele>255</ele>
        <time>2018-09-19T09:33:22Z</time>
      </trkpt>
      <trkpt lat="47.67273" lon="6.07707">
        <ele>255</ele>
        <time>2018-09-19T09:33:25Z</time>
      </trkpt>
      <trkpt lat="47.67277" lon="6.07701">
        <ele>256</ele>
        <time>2018-09-19T09:33:28Z</time>
      </trkpt>
      <trkpt lat="47.67281" lon="6.07695">
        <ele>256</ele>
        <time>2018-09-19T09:33:31Z</time>
      </trkpt>
      <trkpt lat="47.67284" lon="6.07688">
        <ele>256</ele>
        <time>2018-09-19T09:33:34Z</time>
      </trkpt>
      <trkpt lat="47.67288" lon="6.07682">
        <ele>256</ele>
        <time>2018-09-19T09:33:37Z</time>
      </trkpt>
      <trkpt lat="47.6729" lon="6.07675">
        <ele>257</ele>
        <time>2018-09-19T09:33:40Z</time>
      </trkpt>
      <trkpt lat="47.67293" lon="6.07667">
        <ele>257</ele>
        <time>2018-09-19T09:33:43Z</time>
      </trkpt>
      <trkpt lat="47.67297" lon="6.07661">
        <ele>261</ele>
        <time>2018-09-19T09:33:46Z</time>
      </trkpt>
      <trkpt lat="47.67302" lon="6.07656">
        <ele>261</ele>
        <time>2018-09-19T09:33:48Z</time>
      </trkpt>
      <trkpt lat="47.67308" lon="6.07652">
        <ele>261</ele>
        <time>2018-09-19T09:33:50Z</time>
      </trkpt>
      <trkpt lat="47.67313" lon="6.07649">
        <ele>261</ele>
        <time>2018-09-19T09:33:52Z</time>
      </trkpt>
      <trkpt lat="47.67317" lon="6.07644">
        <ele>261</ele>
        <time>2018-09-19T09:33:55Z</time>
      </trkpt>
      <trkpt lat="47.67321" lon="6.07639">
        <ele>261</ele>
        <time>2018-09-19T09:33:57Z</time>
      </trkpt>
      <trkpt lat="47.67324" lon="6.0763">
        <ele>261</ele>
        <time>2018-09-19T09:34:00Z</time>
      </trkpt>
      <trkpt lat="47.67326" lon="6.07622">
        <ele>261</ele>
        <time>2018-09-19T09:34:03Z</time>
      </trkpt>
      <trkpt lat="47.67329" lon="6.07616">
        <ele>261</ele>
        <time>2018-09-19T09:34:06Z</time>
      </trkpt>
      <trkpt lat="47.67333" lon="6.0761">
        <ele>261</ele>
        <time>2018-09-19T09:34:09Z</time>
      </trkpt>
      <trkpt lat="47.67337" lon="6.07605">
        <ele>264</ele>
        <time>2018-09-19T09:34:12Z</time>
      </trkpt>
      <trkpt lat="47.67342" lon="6.076">
        <ele>264</ele>
        <time>2018-09-19T09:34:14Z</time>
      </trkpt>
      <trkpt lat="47.67347" lon="6.07596">
        <ele>264</ele>
        <time>2018-09-19T09:34:16Z</time>
      </trkpt>
      <trkpt lat="47.67351" lon="6.07592">
        <ele>264</ele>
        <time>2018-09-19T09:34:18Z</time>
      </trkpt>
      <trkpt lat="47.67355" lon="6.07585">
        <ele>264</ele>
        <time>2018-09-19T09:34:21Z</time>
      </trkpt>
      <trkpt lat="47.67359" lon="6.0758">
        <ele>265</ele>
        <time>2018-09-19T09:34:23Z</time>
      </trkpt>
      <trkpt lat="47.67362" lon="6.07575">
        <ele>265</ele>
        <time>2018-09-19T09:34:25Z</time>
      </trkpt>
      <trkpt lat="47.67366" lon="6.0757">
        <ele>265</ele>
        <time>2018-09-19T09:34:27Z</time>
      </trkpt>
      <trkpt lat="47.67369" lon="6.07564">
        <ele>266</ele>
        <time>2018-09-19T09:34:29Z</time>
      </trkpt>
      <trkpt lat="47.67372" lon="6.07559">
        <ele>266</ele>
        <time>2018-09-19T09:34:31Z</time>
      </trkpt>
      <trkpt lat="47.67376" lon="6.07554">
        <ele>266</ele>
        <time>2018-09-19T09:34:33Z</time>
      </trkpt>
      <trkpt lat="47.67379" lon="6.07546">
        <ele>266</ele>
        <time>2018-09-19T09:34:36Z</time>
      </trkpt>
      <trkpt lat="47.67382" lon="6.0754">
        <ele>266</ele>
        <time>2018-09-19T09:34:38Z</time>
      </trkpt>
      <trkpt lat="47.67385" lon="6.07534">
        <ele>266</ele>
        <time>2018-09-19T09:34:40Z</time>
      </trkpt>
      <trkpt lat="47.67389" lon="6.07528">
        <ele>266</ele>
        <time>2018-09-19T09:34:42Z</time>
      </trkpt>
      <trkpt lat="47.67392" lon="6.07523">
        <ele>266</ele>
        <time>2018-09-19T09:34:44Z</time>
      </trkpt>
      <trkpt lat="47.67395" lon="6.07517">
        <ele>266</ele>
        <time>2018-09-19T09:34:47Z</time>
      </trkpt>
      <trkpt lat="47.67399" lon="6.0751">
        <ele>266</ele>
        <time>2018-09-19T09:34:50Z</time>
      </trkpt>
      <trkpt lat="47.67403" lon="6.07504">
        <ele>266</ele>
        <time>2018-09-19T09:34:54Z</time>
      </trkpt>
      <trkpt lat="47.67405" lon="6.07498">
        <ele>266</ele>
        <time>2018-09-19T09:34:57Z</time>
      </trkpt>
      <trkpt lat="47.67407" lon="6.07491">
        <ele>266</ele>
        <time>2018-09-19T09:35:00Z</time>
      </trkpt>
      <trkpt lat="47.67411" lon="6.07484">
        <ele>266</ele>
        <time>2018-09-19T09:35:03Z</time>
      </trkpt>
      <trkpt lat="47.67416" lon="6.07476">
        <ele>265</ele>
        <time>2018-09-19T09:35:05Z</time>
      </trkpt>
      <trkpt lat="47.6742" lon="6.07469">
        <ele>268</ele>
        <time>2018-09-19T09:35:07Z</time>
      </trkpt>
      <trkpt lat="47.67424" lon="6.07462">
        <ele>268</ele>
        <time>2018-09-19T09:35:09Z</time>
      </trkpt>
      <trkpt lat="47.67427" lon="6.07455">
        <ele>268</ele>
        <time>2018-09-19T09:35:11Z</time>
      </trkpt>
      <trkpt lat="47.67429" lon="6.07449">
        <ele>268</ele>
        <time>2018-09-19T09:35:13Z</time>
      </trkpt>
      <trkpt lat="47.67432" lon="6.07441">
        <ele>268</ele>
        <time>2018-09-19T09:35:15Z</time>
      </trkpt>
      <trkpt lat="47.67434" lon="6.07435">
        <ele>268</ele>
        <time>2018-09-19T09:35:17Z</time>
      </trkpt>
      <trkpt lat="47.67437" lon="6.07426">
        <ele>267</ele>
        <time>2018-09-19T09:35:20Z</time>
      </trkpt>
      <trkpt lat="47.67441" lon="6.07419">
        <ele>268</ele>
        <time>2018-09-19T09:35:23Z</time>
      </trkpt>
      <trkpt lat="47.67444" lon="6.07414">
        <ele>268</ele>
        <time>2018-09-19T09:35:25Z</time>
      </trkpt>
      <trkpt lat="47.67448" lon="6.07406">
        <ele>268</ele>
        <time>2018-09-19T09:35:28Z</time>
      </trkpt>
      <trkpt lat="47.6745" lon="6.074">
        <ele>269</ele>
        <time>2018-09-19T09:35:30Z</time>
      </trkpt>
      <trkpt lat="47.67452" lon="6.07393">
        <ele>269</ele>
        <time>2018-09-19T09:35:32Z</time>
      </trkpt>
      <trkpt lat="47.67453" lon="6.07383">
        <ele>269</ele>
        <time>2018-09-19T09:35:35Z</time>
      </trkpt>
      <trkpt lat="47.67454" lon="6.07375">
        <ele>269</ele>
        <time>2018-09-19T09:35:37Z</time>
      </trkpt>
      <trkpt lat="47.67455" lon="6.07368">
        <ele>269</ele>
        <time>2018-09-19T09:35:39Z</time>
      </trkpt>
      <trkpt lat="47.67458" lon="6.07359">
        <ele>270</ele>
        <time>2018-09-19T09:35:42Z</time>
      </trkpt>
      <trkpt lat="47.6746" lon="6.07353">
        <ele>270</ele>
        <time>2018-09-19T09:35:45Z</time>
      </trkpt>
      <trkpt lat="47.67461" lon="6.07346">
        <ele>270</ele>
        <time>2018-09-19T09:35:49Z</time>
      </trkpt>
      <trkpt lat="47.67462" lon="6.07338">
        <ele>270</ele>
        <time>2018-09-19T09:35:53Z</time>
      </trkpt>
      <trkpt lat="47.67463" lon="6.0733">
        <ele>271</ele>
        <time>2018-09-19T09:35:57Z</time>
      </trkpt>
      <trkpt lat="47.67465" lon="6.07322">
        <ele>271</ele>
        <time>2018-09-19T09:36:02Z</time>
      </trkpt>
      <trkpt lat="47.67466" lon="6.07315">
        <ele>271</ele>
        <time>2018-09-19T09:36:07Z</time>
      </trkpt>
      <trkpt lat="47.67468" lon="6.07305">
        <ele>271</ele>
        <time>2018-09-19T09:36:11Z</time>
      </trkpt>
      <trkpt lat="47.67469" lon="6.07298">
        <ele>271</ele>
        <time>2018-09-19T09:36:14Z</time>
      </trkpt>
      <trkpt lat="47.67471" lon="6.07289">
        <ele>271</ele>
        <time>2018-09-19T09:36:18Z</time>
      </trkpt>
      <trkpt lat="47.67473" lon="6.07281">
        <ele>271</ele>
        <time>2018-09-19T09:36:21Z</time>
      </trkpt>
      <trkpt lat="47.67474" lon="6.07273">
        <ele>272</ele>
        <time>2018-09-19T09:36:25Z</time>
      </trkpt>
      <trkpt lat="47.67475" lon="6.07266">
        <ele>272</ele>
        <time>2018-09-19T09:36:29Z</time>
      </trkpt>
      <trkpt lat="47.67476" lon="6.07257">
        <ele>272</ele>
        <time>2018-09-19T09:36:33Z</time>
      </trkpt>
      <trkpt lat="47.67479" lon="6.07249">
        <ele>273</ele>
        <time>2018-09-19T09:36:36Z</time>
      </trkpt>
      <trkpt lat="47.67479" lon="6.07241">
        <ele>273</ele>
        <time>2018-09-19T09:36:38Z</time>
      </trkpt>
      <trkpt lat="47.67479" lon="6.07233">
        <ele>273</ele>
        <time>2018-09-19T09:36:41Z</time>
      </trkpt>
      <trkpt lat="47.67479" lon="6.07225">
        <ele>273</ele>
        <time>2018-09-19T09:36:45Z</time>
      </trkpt>
      <trkpt lat="47.67478" lon="6.07217">
        <ele>273</ele>
        <time>2018-09-19T09:36:48Z</time>
      </trkpt>
      <trkpt lat="47.67476" lon="6.07208">
        <ele>273</ele>
        <time>2018-09-19T09:36:51Z</time>
      </trkpt>
      <trkpt lat="47.67475" lon="6.072">
        <ele>273</ele>
        <time>2018-09-19T09:36:55Z</time>
      </trkpt>
      <trkpt lat="47.67474" lon="6.07193">
        <ele>273</ele>
        <time>2018-09-19T09:36:58Z</time>
      </trkpt>
      <trkpt lat="47.67474" lon="6.07186">
        <ele>273</ele>
        <time>2018-09-19T09:37:02Z</time>
      </trkpt>
      <trkpt lat="47.67475" lon="6.07178">
        <ele>273</ele>
        <time>2018-09-19T09:37:06Z</time>
      </trkpt>
      <trkpt lat="47.67476" lon="6.0717">
        <ele>273</ele>
        <time>2018-09-19T09:37:10Z</time>
      </trkpt>
      <trkpt lat="47.67476" lon="6.07162">
        <ele>275</ele>
        <time>2018-09-19T09:37:14Z</time>
      </trkpt>
      <trkpt lat="47.67477" lon="6.07154">
        <ele>275</ele>
        <time>2018-09-19T09:37:18Z</time>
      </trkpt>
      <trkpt lat="47.67479" lon="6.07146">
        <ele>276</ele>
        <time>2018-09-19T09:37:23Z</time>
      </trkpt>
      <trkpt lat="47.67479" lon="6.07137">
        <ele>276</ele>
        <time>2018-09-19T09:37:28Z</time>
      </trkpt>
      <trkpt lat="47.67481" lon="6.07129">
        <ele>276</ele>
        <time>2018-09-19T09:37:31Z</time>
      </trkpt>
      <trkpt lat="47.67483" lon="6.07122">
        <ele>276</ele>
        <time>2018-09-19T09:37:35Z</time>
      </trkpt>
      <trkpt lat="47.67484" lon="6.07115">
        <ele>277</ele>
        <time>2018-09-19T09:37:39Z</time>
      </trkpt>
      <trkpt lat="47.67485" lon="6.07107">
        <ele>277</ele>
        <time>2018-09-19T09:37:42Z</time>
      </trkpt>
      <trkpt lat="47.67487" lon="6.07101">
        <ele>277</ele>
        <time>2018-09-19T09:37:44Z</time>
      </trkpt>
      <trkpt lat="47.67489" lon="6.07095">
        <ele>278</ele>
        <time>2018-09-19T09:37:46Z</time>
      </trkpt>
      <trkpt lat="47.67491" lon="6.07088">
        <ele>278</ele>
        <time>2018-09-19T09:37:49Z</time>
      </trkpt>
      <trkpt lat="47.67493" lon="6.0708">
        <ele>279</ele>
        <time>2018-09-19T09:37:52Z</time>
      </trkpt>
      <trkpt lat="47.67494" lon="6.07072">
        <ele>279</ele>
        <time>2018-09-19T09:37:55Z</time>
      </trkpt>
      <trkpt lat="47.67496" lon="6.07065">
        <ele>279</ele>
        <time>2018-09-19T09:37:58Z</time>
      </trkpt>
      <trkpt lat="47.675" lon="6.07059">
        <ele>280</ele>
        <time>2018-09-19T09:38:02Z</time>
      </trkpt>
      <trkpt lat="47.67502" lon="6.07052">
        <ele>280</ele>
        <time>2018-09-19T09:38:06Z</time>
      </trkpt>
      <trkpt lat="47.67504" lon="6.07046">
        <ele>281</ele>
        <time>2018-09-19T09:38:09Z</time>
      </trkpt>
      <trkpt lat="47.67504" lon="6.07038">
        <ele>281</ele>
        <time>2018-09-19T09:38:12Z</time>
      </trkpt>
      <trkpt lat="47.67504" lon="6.07029">
        <ele>281</ele>
        <time>2018-09-19T09:38:14Z</time>
      </trkpt>
      <trkpt lat="47.67504" lon="6.0702">
        <ele>281</ele>
        <time>2018-09-19T09:38:16Z</time>
      </trkpt>
      <trkpt lat="47.67503" lon="6.07011">
        <ele>281</ele>
        <time>2018-09-19T09:38:19Z</time>
      </trkpt>
      <trkpt lat="47.67504" lon="6.07001">
        <ele>281</ele>
        <time>2018-09-19T09:38:22Z</time>
      </trkpt>
      <trkpt lat="47.67506" lon="6.06994">
        <ele>282</ele>
        <time>2018-09-19T09:38:24Z</time>
      </trkpt>
      <trkpt lat="47.67507" lon="6.06987">
        <ele>282</ele>
        <time>2018-09-19T09:38:26Z</time>
      </trkpt>
      <trkpt lat="47.67509" lon="6.06978">
        <ele>282</ele>
        <time>2018-09-19T09:38:29Z</time>
      </trkpt>
      <trkpt lat="47.6751" lon="6.0697">
        <ele>283</ele>
        <time>2018-09-19T09:38:32Z</time>
      </trkpt>
      <trkpt lat="47.67511" lon="6.06962">
        <ele>283</ele>
        <time>2018-09-19T09:38:35Z</time>
      </trkpt>
      <trkpt lat="47.67513" lon="6.06956">
        <ele>283</ele>
        <time>2018-09-19T09:38:49Z</time>
      </trkpt>
      <trkpt lat="47.67516" lon="6.06949">
        <ele>283</ele>
        <time>2018-09-19T09:38:54Z</time>
      </trkpt>
      <trkpt lat="47.67515" lon="6.06942">
        <ele>283</ele>
        <time>2018-09-19T09:38:57Z</time>
      </trkpt>
      <trkpt lat="47.67514" lon="6.06936">
        <ele>283</ele>
        <time>2018-09-19T09:38:59Z</time>
      </trkpt>
      <trkpt lat="47.67515" lon="6.06928">
        <ele>283</ele>
        <time>2018-09-19T09:39:02Z</time>
      </trkpt>
      <trkpt lat="47.67517" lon="6.0692">
        <ele>283</ele>
        <time>2018-09-19T09:39:05Z</time>
      </trkpt>
      <trkpt lat="47.67519" lon="6.06912">
        <ele>283</ele>
        <time>2018-09-19T09:39:07Z</time>
      </trkpt>
      <trkpt lat="47.67522" lon="6.06905">
        <ele>283</ele>
        <time>2018-09-19T09:39:09Z</time>
      </trkpt>
      <trkpt lat="47.67526" lon="6.06898">
        <ele>283</ele>
        <time>2018-09-19T09:39:11Z</time>
      </trkpt>
      <trkpt lat="47.67529" lon="6.06891">
        <ele>283</ele>
        <time>2018-09-19T09:39:13Z</time>
      </trkpt>
      <trkpt lat="47.67532" lon="6.06883">
        <ele>283</ele>
        <time>2018-09-19T09:39:15Z</time>
      </trkpt>
      <trkpt lat="47.67534" lon="6.06877">
        <ele>283</ele>
        <time>2018-09-19T09:39:17Z</time>
      </trkpt>
      <trkpt lat="47.67537" lon="6.06868">
        <ele>283</ele>
        <time>2018-09-19T09:39:20Z</time>
      </trkpt>
      <trkpt lat="47.67539" lon="6.0686">
        <ele>283</ele>
        <time>2018-09-19T09:39:23Z</time>
      </trkpt>
      <trkpt lat="47.67541" lon="6.06854">
        <ele>282</ele>
        <time>2018-09-19T09:39:25Z</time>
      </trkpt>
      <trkpt lat="47.67544" lon="6.06845">
        <ele>282</ele>
        <time>2018-09-19T09:39:28Z</time>
      </trkpt>
      <trkpt lat="47.67546" lon="6.06837">
        <ele>282</ele>
        <time>2018-09-19T09:39:30Z</time>
      </trkpt>
      <trkpt lat="47.67546" lon="6.06828">
        <ele>281</ele>
        <time>2018-09-19T09:39:32Z</time>
      </trkpt>
      <trkpt lat="47.67547" lon="6.06818">
        <ele>281</ele>
        <time>2018-09-19T09:39:34Z</time>
      </trkpt>
      <trkpt lat="47.67548" lon="6.06805">
        <ele>280</ele>
        <time>2018-09-19T09:39:36Z</time>
      </trkpt>
      <trkpt lat="47.6755" lon="6.06794">
        <ele>280</ele>
        <time>2018-09-19T09:39:38Z</time>
      </trkpt>
      <trkpt lat="47.67552" lon="6.06786">
        <ele>280</ele>
        <time>2018-09-19T09:39:40Z</time>
      </trkpt>
      <trkpt lat="47.67553" lon="6.06778">
        <ele>280</ele>
        <time>2018-09-19T09:39:42Z</time>
      </trkpt>
      <trkpt lat="47.67554" lon="6.06771">
        <ele>280</ele>
        <time>2018-09-19T09:39:44Z</time>
      </trkpt>
      <trkpt lat="47.67554" lon="6.06762">
        <ele>280</ele>
        <time>2018-09-19T09:39:47Z</time>
      </trkpt>
      <trkpt lat="47.67556" lon="6.06754">
        <ele>280</ele>
        <time>2018-09-19T09:39:49Z</time>
      </trkpt>
      <trkpt lat="47.67557" lon="6.06745">
        <ele>278</ele>
        <time>2018-09-19T09:39:51Z</time>
      </trkpt>
      <trkpt lat="47.67558" lon="6.06735">
        <ele>278</ele>
        <time>2018-09-19T09:39:53Z</time>
      </trkpt>
      <trkpt lat="47.67559" lon="6.06727">
        <ele>278</ele>
        <time>2018-09-19T09:39:55Z</time>
      </trkpt>
      <trkpt lat="47.67559" lon="6.06719">
        <ele>278</ele>
        <time>2018-09-19T09:39:57Z</time>
      </trkpt>
      <trkpt lat="47.67559" lon="6.0671">
        <ele>278</ele>
        <time>2018-09-19T09:39:59Z</time>
      </trkpt>
      <trkpt lat="47.67559" lon="6.06703">
        <ele>277</ele>
        <time>2018-09-19T09:40:01Z</time>
      </trkpt>
      <trkpt lat="47.67559" lon="6.06695">
        <ele>277</ele>
        <time>2018-09-19T09:40:03Z</time>
      </trkpt>
      <trkpt lat="47.67559" lon="6.06688">
        <ele>277</ele>
        <time>2018-09-19T09:40:05Z</time>
      </trkpt>
      <trkpt lat="47.6756" lon="6.06679">
        <ele>277</ele>
        <time>2018-09-19T09:40:08Z</time>
      </trkpt>
      <trkpt lat="47.6756" lon="6.06671">
        <ele>276</ele>
        <time>2018-09-19T09:40:11Z</time>
      </trkpt>
      <trkpt lat="47.67561" lon="6.06662">
        <ele>275</ele>
        <time>2018-09-19T09:40:14Z</time>
      </trkpt>
      <trkpt lat="47.67562" lon="6.06655">
        <ele>275</ele>
        <time>2018-09-19T09:40:16Z</time>
      </trkpt>
      <trkpt lat="47.67562" lon="6.06647">
        <ele>275</ele>
        <time>2018-09-19T09:40:18Z</time>
      </trkpt>
      <trkpt lat="47.67564" lon="6.06637">
        <ele>275</ele>
        <time>2018-09-19T09:40:20Z</time>
      </trkpt>
      <trkpt lat="47.67566" lon="6.06627">
        <ele>275</ele>
        <time>2018-09-19T09:40:22Z</time>
      </trkpt>
      <trkpt lat="47.67569" lon="6.06617">
        <ele>275</ele>
        <time>2018-09-19T09:40:24Z</time>
      </trkpt>
      <trkpt lat="47.67572" lon="6.06606">
        <ele>274</ele>
        <time>2018-09-19T09:40:26Z</time>
      </trkpt>
      <trkpt lat="47.67576" lon="6.06596">
        <ele>274</ele>
        <time>2018-09-19T09:40:28Z</time>
      </trkpt>
      <trkpt lat="47.6758" lon="6.06587">
        <ele>273</ele>
        <time>2018-09-19T09:40:30Z</time>
      </trkpt>
      <trkpt lat="47.67584" lon="6.06579">
        <ele>273</ele>
        <time>2018-09-19T09:40:32Z</time>
      </trkpt>
      <trkpt lat="47.67586" lon="6.06572">
        <ele>273</ele>
        <time>2018-09-19T09:40:34Z</time>
      </trkpt>
      <trkpt lat="47.67589" lon="6.06566">
        <ele>273</ele>
        <time>2018-09-19T09:40:36Z</time>
      </trkpt>
      <trkpt lat="47.6759" lon="6.06559">
        <ele>273</ele>
        <time>2018-09-19T09:40:38Z</time>
      </trkpt>
      <trkpt lat="47.67592" lon="6.06551">
        <ele>273</ele>
        <time>2018-09-19T09:40:40Z</time>
      </trkpt>
      <trkpt lat="47.67595" lon="6.06544">
        <ele>273</ele>
        <time>2018-09-19T09:40:42Z</time>
      </trkpt>
      <trkpt lat="47.67597" lon="6.06538">
        <ele>273</ele>
        <time>2018-09-19T09:40:44Z</time>
      </trkpt>
      <trkpt lat="47.676" lon="6.06532">
        <ele>273</ele>
        <time>2018-09-19T09:40:47Z</time>
      </trkpt>
      <trkpt lat="47.67603" lon="6.06526">
        <ele>273</ele>
        <time>2018-09-19T09:40:50Z</time>
      </trkpt>
      <trkpt lat="47.67607" lon="6.06518">
        <ele>273</ele>
        <time>2018-09-19T09:40:53Z</time>
      </trkpt>
      <trkpt lat="47.6761" lon="6.0651">
        <ele>273</ele>
        <time>2018-09-19T09:40:56Z</time>
      </trkpt>
      <trkpt lat="47.67613" lon="6.06502">
        <ele>273</ele>
        <time>2018-09-19T09:40:59Z</time>
      </trkpt>
      <trkpt lat="47.67616" lon="6.06496">
        <ele>272</ele>
        <time>2018-09-19T09:41:02Z</time>
      </trkpt>
      <trkpt lat="47.6762" lon="6.06488">
        <ele>272</ele>
        <time>2018-09-19T09:41:05Z</time>
      </trkpt>
      <trkpt lat="47.67622" lon="6.06482">
        <ele>272</ele>
        <time>2018-09-19T09:41:07Z</time>
      </trkpt>
      <trkpt lat="47.67624" lon="6.06473">
        <ele>272</ele>
        <time>2018-09-19T09:41:10Z</time>
      </trkpt>
      <trkpt lat="47.67625" lon="6.06466">
        <ele>272</ele>
        <time>2018-09-19T09:41:13Z</time>
      </trkpt>
      <trkpt lat="47.67628" lon="6.06459">
        <ele>272</ele>
        <time>2018-09-19T09:41:17Z</time>
      </trkpt>
      <trkpt lat="47.67632" lon="6.06451">
        <ele>272</ele>
        <time>2018-09-19T09:41:20Z</time>
      </trkpt>
      <trkpt lat="47.67635" lon="6.06445">
        <ele>272</ele>
        <time>2018-09-19T09:41:22Z</time>
      </trkpt>
      <trkpt lat="47.67637" lon="6.06439">
        <ele>273</ele>
        <time>2018-09-19T09:41:24Z</time>
      </trkpt>
      <trkpt lat="47.6764" lon="6.06433">
        <ele>273</ele>
        <time>2018-09-19T09:41:26Z</time>
      </trkpt>
      <trkpt lat="47.67643" lon="6.06427">
        <ele>273</ele>
        <time>2018-09-19T09:41:28Z</time>
      </trkpt>
      <trkpt lat="47.67646" lon="6.06421">
        <ele>273</ele>
        <time>2018-09-19T09:41:30Z</time>
      </trkpt>
      <trkpt lat="47.67649" lon="6.06414">
        <ele>273</ele>
        <time>2018-09-19T09:41:32Z</time>
      </trkpt>
      <trkpt lat="47.67652" lon="6.06408">
        <ele>273</ele>
        <time>2018-09-19T09:41:34Z</time>
      </trkpt>
      <trkpt lat="47.67656" lon="6.06402">
        <ele>273</ele>
        <time>2018-09-19T09:41:37Z</time>
      </trkpt>
      <trkpt lat="47.67659" lon="6.06396">
        <ele>273</ele>
        <time>2018-09-19T09:41:40Z</time>
      </trkpt>
      <trkpt lat="47.67662" lon="6.06389">
        <ele>273</ele>
        <time>2018-09-19T09:41:43Z</time>
      </trkpt>
      <trkpt lat="47.67664" lon="6.06382">
        <ele>273</ele>
        <time>2018-09-19T09:41:46Z</time>
      </trkpt>
      <trkpt lat="47.67666" lon="6.06376">
        <ele>273</ele>
        <time>2018-09-19T09:41:49Z</time>
      </trkpt>
      <trkpt lat="47.6767" lon="6.0637">
        <ele>276</ele>
        <time>2018-09-19T09:41:52Z</time>
      </trkpt>
      <trkpt lat="47.67674" lon="6.06365">
        <ele>276</ele>
        <time>2018-09-19T09:41:54Z</time>
      </trkpt>
      <trkpt lat="47.67676" lon="6.06358">
        <ele>276</ele>
        <time>2018-09-19T09:41:56Z</time>
      </trkpt>
      <trkpt lat="47.67679" lon="6.06349">
        <ele>275</ele>
        <time>2018-09-19T09:41:59Z</time>
      </trkpt>
      <trkpt lat="47.67682" lon="6.06342">
        <ele>275</ele>
        <time>2018-09-19T09:42:02Z</time>
      </trkpt>
      <trkpt lat="47.67685" lon="6.06335">
        <ele>275</ele>
        <time>2018-09-19T09:42:06Z</time>
      </trkpt>
      <trkpt lat="47.67689" lon="6.06329">
        <ele>276</ele>
        <time>2018-09-19T09:42:09Z</time>
      </trkpt>
      <trkpt lat="47.67693" lon="6.06324">
        <ele>276</ele>
        <time>2018-09-19T09:42:12Z</time>
      </trkpt>
      <trkpt lat="47.67698" lon="6.06317">
        <ele>276</ele>
        <time>2018-09-19T09:42:15Z</time>
      </trkpt>
      <trkpt lat="47.67703" lon="6.06311">
        <ele>276</ele>
        <time>2018-09-19T09:42:18Z</time>
      </trkpt>
      <trkpt lat="47.67706" lon="6.06306">
        <ele>276</ele>
        <time>2018-09-19T09:42:20Z</time>
      </trkpt>
      <trkpt lat="47.67711" lon="6.06299">
        <ele>276</ele>
        <time>2018-09-19T09:42:23Z</time>
      </trkpt>
      <trkpt lat="47.67714" lon="6.06295">
        <ele>276</ele>
        <time>2018-09-19T09:42:25Z</time>
      </trkpt>
      <trkpt lat="47.67718" lon="6.06291">
        <ele>277</ele>
        <time>2018-09-19T09:42:27Z</time>
      </trkpt>
      <trkpt lat="47.67722" lon="6.06285">
        <ele>277</ele>
        <time>2018-09-19T09:42:29Z</time>
      </trkpt>
      <trkpt lat="47.67725" lon="6.06279">
        <ele>277</ele>
        <time>2018-09-19T09:42:31Z</time>
      </trkpt>
      <trkpt lat="47.67727" lon="6.06271">
        <ele>277</ele>
        <time>2018-09-19T09:42:33Z</time>
      </trkpt>
      <trkpt lat="47.67729" lon="6.06264">
        <ele>277</ele>
        <time>2018-09-19T09:42:35Z</time>
      </trkpt>
      <trkpt lat="47.67731" lon="6.06257">
        <ele>277</ele>
        <time>2018-09-19T09:42:37Z</time>
      </trkpt>
      <trkpt lat="47.67733" lon="6.06249">
        <ele>276</ele>
        <time>2018-09-19T09:42:40Z</time>
      </trkpt>
      <trkpt lat="47.67737" lon="6.0624">
        <ele>276</ele>
        <time>2018-09-19T09:42:43Z</time>
      </trkpt>
      <trkpt lat="47.67741" lon="6.06231">
        <ele>276</ele>
        <time>2018-09-19T09:42:45Z</time>
      </trkpt>
      <trkpt lat="47.67745" lon="6.06223">
        <ele>275</ele>
        <time>2018-09-19T09:42:47Z</time>
      </trkpt>
      <trkpt lat="47.67749" lon="6.06216">
        <ele>275</ele>
        <time>2018-09-19T09:42:49Z</time>
      </trkpt>
      <trkpt lat="47.67752" lon="6.06209">
        <ele>275</ele>
        <time>2018-09-19T09:42:51Z</time>
      </trkpt>
      <trkpt lat="47.67755" lon="6.06202">
        <ele>275</ele>
        <time>2018-09-19T09:42:53Z</time>
      </trkpt>
      <trkpt lat="47.67759" lon="6.06195">
        <ele>274</ele>
        <time>2018-09-19T09:42:55Z</time>
      </trkpt>
      <trkpt lat="47.67763" lon="6.06186">
        <ele>274</ele>
        <time>2018-09-19T09:42:57Z</time>
      </trkpt>
      <trkpt lat="47.67767" lon="6.06179">
        <ele>274</ele>
        <time>2018-09-19T09:42:59Z</time>
      </trkpt>
      <trkpt lat="47.67771" lon="6.0617">
        <ele>274</ele>
        <time>2018-09-19T09:43:01Z</time>
      </trkpt>
      <trkpt lat="47.67774" lon="6.0616">
        <ele>272</ele>
        <time>2018-09-19T09:43:03Z</time>
      </trkpt>
      <trkpt lat="47.67775" lon="6.06152">
        <ele>272</ele>
        <time>2018-09-19T09:43:05Z</time>
      </trkpt>
      <trkpt lat="47.67776" lon="6.06143">
        <ele>272</ele>
        <time>2018-09-19T09:43:07Z</time>
      </trkpt>
      <trkpt lat="47.67776" lon="6.06133">
        <ele>272</ele>
        <time>2018-09-19T09:43:09Z</time>
      </trkpt>
      <trkpt lat="47.67777" lon="6.06126">
        <ele>271</ele>
        <time>2018-09-19T09:43:11Z</time>
      </trkpt>
      <trkpt lat="47.67778" lon="6.06116">
        <ele>271</ele>
        <time>2018-09-19T09:43:14Z</time>
      </trkpt>
      <trkpt lat="47.6778" lon="6.06109">
        <ele>271</ele>
        <time>2018-09-19T09:43:16Z</time>
      </trkpt>
      <trkpt lat="47.67782" lon="6.06103">
        <ele>271</ele>
        <time>2018-09-19T09:43:18Z</time>
      </trkpt>
      <trkpt lat="47.67786" lon="6.06097">
        <ele>271</ele>
        <time>2018-09-19T09:43:21Z</time>
      </trkpt>
      <trkpt lat="47.67788" lon="6.06089">
        <ele>271</ele>
        <time>2018-09-19T09:43:24Z</time>
      </trkpt>
      <trkpt lat="47.67791" lon="6.06084">
        <ele>271</ele>
        <time>2018-09-19T09:43:26Z</time>
      </trkpt>
      <trkpt lat="47.67796" lon="6.06084">
        <ele>271</ele>
        <time>2018-09-19T09:43:29Z</time>
      </trkpt>
      <trkpt lat="47.67801" lon="6.0609">
        <ele>271</ele>
        <time>2018-09-19T09:43:32Z</time>
      </trkpt>
      <trkpt lat="47.67803" lon="6.06097">
        <ele>271</ele>
        <time>2018-09-19T09:43:35Z</time>
      </trkpt>
      <trkpt lat="47.67804" lon="6.06105">
        <ele>271</ele>
        <time>2018-09-19T09:43:39Z</time>
      </trkpt>
      <trkpt lat="47.67805" lon="6.06113">
        <ele>271</ele>
        <time>2018-09-19T09:43:42Z</time>
      </trkpt>
      <trkpt lat="47.67806" lon="6.0612">
        <ele>271</ele>
        <time>2018-09-19T09:43:44Z</time>
      </trkpt>
      <trkpt lat="47.67807" lon="6.06127">
        <ele>271</ele>
        <time>2018-09-19T09:43:46Z</time>
      </trkpt>
      <trkpt lat="47.6781" lon="6.06138">
        <ele>271</ele>
        <time>2018-09-19T09:43:48Z</time>
      </trkpt>
      <trkpt lat="47.67814" lon="6.06147">
        <ele>271</ele>
        <time>2018-09-19T09:43:50Z</time>
      </trkpt>
      <trkpt lat="47.67818" lon="6.06156">
        <ele>271</ele>
        <time>2018-09-19T09:43:52Z</time>
      </trkpt>
      <trkpt lat="47.67821" lon="6.06166">
        <ele>271</ele>
        <time>2018-09-19T09:43:54Z</time>
      </trkpt>
      <trkpt lat="47.67825" lon="6.06175">
        <ele>271</ele>
        <time>2018-09-19T09:43:56Z</time>
      </trkpt>
      <trkpt lat="47.6783" lon="6.06184">
        <ele>272</ele>
        <time>2018-09-19T09:43:58Z</time>
      </trkpt>
      <trkpt lat="47.67835" lon="6.06193">
        <ele>270</ele>
        <time>2018-09-19T09:44:00Z</time>
      </trkpt>
      <trkpt lat="47.67839" lon="6.06202">
        <ele>270</ele>
        <time>2018-09-19T09:44:02Z</time>
      </trkpt>
      <trkpt lat="47.67845" lon="6.06212">
        <ele>270</ele>
        <time>2018-09-19T09:44:04Z</time>
      </trkpt>
      <trkpt lat="47.6785" lon="6.06223">
        <ele>270</ele>
        <time>2018-09-19T09:44:06Z</time>
      </trkpt>
      <trkpt lat="47.67854" lon="6.06233">
        <ele>271</ele>
        <time>2018-09-19T09:44:08Z</time>
      </trkpt>
      <trkpt lat="47.67856" lon="6.06238">
        <ele>271</ele>
        <time>2018-09-19T09:44:09Z</time>
      </trkpt>
      <trkpt lat="47.67861" lon="6.06247">
        <ele>271</ele>
        <time>2018-09-19T09:44:11Z</time>
      </trkpt>
      <trkpt lat="47.67864" lon="6.06253">
        <ele>274</ele>
        <time>2018-09-19T09:44:13Z</time>
      </trkpt>
      <trkpt lat="47.67867" lon="6.06259">
        <ele>274</ele>
        <time>2018-09-19T09:44:16Z</time>
      </trkpt>
      <trkpt lat="47.6787" lon="6.06265">
        <ele>274</ele>
        <time>2018-09-19T09:44:20Z</time>
      </trkpt>
      <trkpt lat="47.67874" lon="6.06271">
        <ele>274</ele>
        <time>2018-09-19T09:44:24Z</time>
      </trkpt>
      <trkpt lat="47.67878" lon="6.06278">
        <ele>274</ele>
        <time>2018-09-19T09:44:27Z</time>
      </trkpt>
      <trkpt lat="47.67883" lon="6.06283">
        <ele>274</ele>
        <time>2018-09-19T09:44:30Z</time>
      </trkpt>
      <trkpt lat="47.67887" lon="6.06288">
        <ele>274</ele>
        <time>2018-09-19T09:44:34Z</time>
      </trkpt>
      <trkpt lat="47.67889" lon="6.06294">
        <ele>274</ele>
        <time>2018-09-19T09:44:45Z</time>
      </trkpt>
      <trkpt lat="47.67891" lon="6.06301">
        <ele>274</ele>
        <time>2018-09-19T09:44:57Z</time>
      </trkpt>
      <trkpt lat="47.67895" lon="6.06305">
        <ele>274</ele>
        <time>2018-09-19T09:45:03Z</time>
      </trkpt>
      <trkpt lat="47.679" lon="6.06304">
        <ele>274</ele>
        <time>2018-09-19T09:45:08Z</time>
      </trkpt>
      <trkpt lat="47.67905" lon="6.06303">
        <ele>274</ele>
        <time>2018-09-19T09:45:13Z</time>
      </trkpt>
      <trkpt lat="47.6791" lon="6.06304">
        <ele>274</ele>
        <time>2018-09-19T09:45:18Z</time>
      </trkpt>
      <trkpt lat="47.67914" lon="6.06306">
        <ele>274</ele>
        <time>2018-09-19T09:45:22Z</time>
      </trkpt>
      <trkpt lat="47.67918" lon="6.0631">
        <ele>272</ele>
        <time>2018-09-19T09:45:30Z</time>
      </trkpt>
      <trkpt lat="47.67923" lon="6.06312">
        <ele>272</ele>
        <time>2018-09-19T09:45:37Z</time>
      </trkpt>
      <trkpt lat="47.67929" lon="6.06313">
        <ele>272</ele>
        <time>2018-09-19T09:45:41Z</time>
      </trkpt>
      <trkpt lat="47.67934" lon="6.06316">
        <ele>272</ele>
        <time>2018-09-19T09:45:45Z</time>
      </trkpt>
      <trkpt lat="47.67938" lon="6.0632">
        <ele>272</ele>
        <time>2018-09-19T09:45:49Z</time>
      </trkpt>
      <trkpt lat="47.67941" lon="6.06326">
        <ele>272</ele>
        <time>2018-09-19T09:45:54Z</time>
      </trkpt>
      <trkpt lat="47.67946" lon="6.06331">
        <ele>272</ele>
        <time>2018-09-19T09:45:58Z</time>
      </trkpt>
      <trkpt lat="47.67951" lon="6.06336">
        <ele>275</ele>
        <time>2018-09-19T09:46:01Z</time>
      </trkpt>
      <trkpt lat="47.67955" lon="6.06338">
        <ele>275</ele>
        <time>2018-09-19T09:46:04Z</time>
      </trkpt>
      <trkpt lat="47.67959" lon="6.06343">
        <ele>276</ele>
        <time>2018-09-19T09:46:09Z</time>
      </trkpt>
      <trkpt lat="47.67964" lon="6.0635">
        <ele>276</ele>
        <time>2018-09-19T09:46:13Z</time>
      </trkpt>
      <trkpt lat="47.67969" lon="6.06356">
        <ele>276</ele>
        <time>2018-09-19T09:46:16Z</time>
      </trkpt>
      <trkpt lat="47.67973" lon="6.06361">
        <ele>276</ele>
        <time>2018-09-19T09:46:19Z</time>
      </trkpt>
      <trkpt lat="47.67977" lon="6.06368">
        <ele>276</ele>
        <time>2018-09-19T09:46:22Z</time>
      </trkpt>
      <trkpt lat="47.67981" lon="6.06373">
        <ele>276</ele>
        <time>2018-09-19T09:46:24Z</time>
      </trkpt>
      <trkpt lat="47.67985" lon="6.0638">
        <ele>277</ele>
        <time>2018-09-19T09:46:26Z</time>
      </trkpt>
      <trkpt lat="47.67989" lon="6.06387">
        <ele>277</ele>
        <time>2018-09-19T09:46:28Z</time>
      </trkpt>
      <trkpt lat="47.67993" lon="6.06394">
        <ele>277</ele>
        <time>2018-09-19T09:46:30Z</time>
      </trkpt>
      <trkpt lat="47.67998" lon="6.06401">
        <ele>278</ele>
        <time>2018-09-19T09:46:32Z</time>
      </trkpt>
      <trkpt lat="47.68002" lon="6.06407">
        <ele>276</ele>
        <time>2018-09-19T09:46:34Z</time>
      </trkpt>
      <trkpt lat="47.68006" lon="6.06413">
        <ele>277</ele>
        <time>2018-09-19T09:46:36Z</time>
      </trkpt>
      <trkpt lat="47.68009" lon="6.06419">
        <ele>277</ele>
        <time>2018-09-19T09:46:38Z</time>
      </trkpt>
      <trkpt lat="47.68013" lon="6.06427">
        <ele>276</ele>
        <time>2018-09-19T09:46:40Z</time>
      </trkpt>
      <trkpt lat="47.68016" lon="6.06436">
        <ele>275</ele>
        <time>2018-09-19T09:46:42Z</time>
      </trkpt>
      <trkpt lat="47.68021" lon="6.06445">
        <ele>275</ele>
        <time>2018-09-19T09:46:44Z</time>
      </trkpt>
      <trkpt lat="47.68026" lon="6.06454">
        <ele>274</ele>
        <time>2018-09-19T09:46:46Z</time>
      </trkpt>
      <trkpt lat="47.68029" lon="6.06464">
        <ele>274</ele>
        <time>2018-09-19T09:46:48Z</time>
      </trkpt>
      <trkpt lat="47.68032" lon="6.06475">
        <ele>274</ele>
        <time>2018-09-19T09:46:50Z</time>
      </trkpt>
      <trkpt lat="47.68038" lon="6.06486">
        <ele>274</ele>
        <time>2018-09-19T09:46:52Z</time>
      </trkpt>
      <trkpt lat="47.68041" lon="6.06492">
        <ele>274</ele>
        <time>2018-09-19T09:46:53Z</time>
      </trkpt>
      <trkpt lat="47.68044" lon="6.06499">
        <ele>273</ele>
        <time>2018-09-19T09:46:54Z</time>
      </trkpt>
      <trkpt lat="47.68047" lon="6.06506">
        <ele>274</ele>
        <time>2018-09-19T09:46:55Z</time>
      </trkpt>
      <trkpt lat="47.68049" lon="6.06513">
        <ele>274</ele>
        <time>2018-09-19T09:46:56Z</time>
      </trkpt>
      <trkpt lat="47.68052" lon="6.06519">
        <ele>274</ele>
        <time>2018-09-19T09:46:57Z</time>
      </trkpt>
      <trkpt lat="47.68054" lon="6.06526">
        <ele>273</ele>
        <time>2018-09-19T09:46:58Z</time>
      </trkpt>
      <trkpt lat="47.68057" lon="6.06532">
        <ele>273</ele>
        <time>2018-09-19T09:46:59Z</time>
      </trkpt>
      <trkpt lat="47.68061" lon="6.06544">
        <ele>273</ele>
        <time>2018-09-19T09:47:01Z</time>
      </trkpt>
      <trkpt lat="47.68064" lon="6.0655">
        <ele>273</ele>
        <time>2018-09-19T09:47:02Z</time>
      </trkpt>
      <trkpt lat="47.68067" lon="6.06556">
        <ele>273</ele>
        <time>2018-09-19T09:47:03Z</time>
      </trkpt>
      <trkpt lat="47.68069" lon="6.06562">
        <ele>273</ele>
        <time>2018-09-19T09:47:04Z</time>
      </trkpt>
      <trkpt lat="47.68073" lon="6.06567">
        <ele>272</ele>
        <time>2018-09-19T09:47:05Z</time>
      </trkpt>
      <trkpt lat="47.68076" lon="6.06571">
        <ele>272</ele>
        <time>2018-09-19T09:47:06Z</time>
      </trkpt>
      <trkpt lat="47.68081" lon="6.06577">
        <ele>271</ele>
        <time>2018-09-19T09:47:07Z</time>
      </trkpt>
      <trkpt lat="47.68088" lon="6.06584">
        <ele>270</ele>
        <time>2018-09-19T09:47:09Z</time>
      </trkpt>
      <trkpt lat="47.68093" lon="6.06592">
        <ele>269</ele>
        <time>2018-09-19T09:47:11Z</time>
      </trkpt>
      <trkpt lat="47.68098" lon="6.06598">
        <ele>269</ele>
        <time>2018-09-19T09:47:13Z</time>
      </trkpt>
      <trkpt lat="47.68102" lon="6.06605">
        <ele>269</ele>
        <time>2018-09-19T09:47:15Z</time>
      </trkpt>
      <trkpt lat="47.68106" lon="6.06611">
        <ele>269</ele>
        <time>2018-09-19T09:47:17Z</time>
      </trkpt>
      <trkpt lat="47.68111" lon="6.06617">
        <ele>269</ele>
        <time>2018-09-19T09:47:19Z</time>
      </trkpt>
      <trkpt lat="47.68115" lon="6.06623">
        <ele>268</ele>
        <time>2018-09-19T09:47:21Z</time>
      </trkpt>
      <trkpt lat="47.6812" lon="6.06629">
        <ele>268</ele>
        <time>2018-09-19T09:47:23Z</time>
      </trkpt>
      <trkpt lat="47.68123" lon="6.06636">
        <ele>268</ele>
        <time>2018-09-19T09:47:25Z</time>
      </trkpt>
      <trkpt lat="47.68125" lon="6.06642">
        <ele>268</ele>
        <time>2018-09-19T09:47:27Z</time>
      </trkpt>
      <trkpt lat="47.68128" lon="6.06651">
        <ele>268</ele>
        <time>2018-09-19T09:47:30Z</time>
      </trkpt>
      <trkpt lat="47.68131" lon="6.0666">
        <ele>268</ele>
        <time>2018-09-19T09:47:32Z</time>
      </trkpt>
      <trkpt lat="47.68135" lon="6.06667">
        <ele>270</ele>
        <time>2018-09-19T09:47:34Z</time>
      </trkpt>
      <trkpt lat="47.68138" lon="6.06675">
        <ele>270</ele>
        <time>2018-09-19T09:47:36Z</time>
      </trkpt>
      <trkpt lat="47.68142" lon="6.06684">
        <ele>270</ele>
        <time>2018-09-19T09:47:38Z</time>
      </trkpt>
      <trkpt lat="47.68145" lon="6.06692">
        <ele>270</ele>
        <time>2018-09-19T09:47:40Z</time>
      </trkpt>
      <trkpt lat="47.68149" lon="6.067">
        <ele>270</ele>
        <time>2018-09-19T09:47:42Z</time>
      </trkpt>
      <trkpt lat="47.68151" lon="6.06707">
        <ele>270</ele>
        <time>2018-09-19T09:47:44Z</time>
      </trkpt>
      <trkpt lat="47.68153" lon="6.06714">
        <ele>270</ele>
        <time>2018-09-19T09:47:46Z</time>
      </trkpt>
      <trkpt lat="47.68155" lon="6.06721">
        <ele>270</ele>
        <time>2018-09-19T09:47:48Z</time>
      </trkpt>
      <trkpt lat="47.68157" lon="6.06728">
        <ele>270</ele>
        <time>2018-09-19T09:47:50Z</time>
      </trkpt>
      <trkpt lat="47.68159" lon="6.06735">
        <ele>269</ele>
        <time>2018-09-19T09:47:52Z</time>
      </trkpt>
      <trkpt lat="47.68162" lon="6.06744">
        <ele>268</ele>
        <time>2018-09-19T09:47:55Z</time>
      </trkpt>
      <trkpt lat="47.68165" lon="6.06749">
        <ele>267</ele>
        <time>2018-09-19T09:47:57Z</time>
      </trkpt>
      <trkpt lat="47.68168" lon="6.06755">
        <ele>265</ele>
        <time>2018-09-19T09:47:59Z</time>
      </trkpt>
      <trkpt lat="47.68172" lon="6.06761">
        <ele>263</ele>
        <time>2018-09-19T09:48:01Z</time>
      </trkpt>
      <trkpt lat="47.68176" lon="6.06768">
        <ele>261</ele>
        <time>2018-09-19T09:48:04Z</time>
      </trkpt>
      <trkpt lat="47.68179" lon="6.06773">
        <ele>260</ele>
        <time>2018-09-19T09:48:07Z</time>
      </trkpt>
      <trkpt lat="47.68185" lon="6.06778">
        <ele>259</ele>
        <time>2018-09-19T09:48:10Z</time>
      </trkpt>
      <trkpt lat="47.6819" lon="6.06783">
        <ele>259</ele>
        <time>2018-09-19T09:48:12Z</time>
      </trkpt>
      <trkpt lat="47.68195" lon="6.06788">
        <ele>258</ele>
        <time>2018-09-19T09:48:14Z</time>
      </trkpt>
      <trkpt lat="47.682" lon="6.06794">
        <ele>257</ele>
        <time>2018-09-19T09:48:16Z</time>
      </trkpt>
      <trkpt lat="47.68205" lon="6.068">
        <ele>257</ele>
        <time>2018-09-19T09:48:18Z</time>
      </trkpt>
      <trkpt lat="47.68211" lon="6.06804">
        <ele>256</ele>
        <time>2018-09-19T09:48:20Z</time>
      </trkpt>
      <trkpt lat="47.68218" lon="6.06806">
        <ele>255</ele>
        <time>2018-09-19T09:48:22Z</time>
      </trkpt>
      <trkpt lat="47.68225" lon="6.06802">
        <ele>255</ele>
        <time>2018-09-19T09:48:24Z</time>
      </trkpt>
      <trkpt lat="47.68232" lon="6.06796">
        <ele>254</ele>
        <time>2018-09-19T09:48:26Z</time>
      </trkpt>
      <trkpt lat="47.68239" lon="6.06788">
        <ele>254</ele>
        <time>2018-09-19T09:48:28Z</time>
      </trkpt>
      <trkpt lat="47.68242" lon="6.06782">
        <ele>254</ele>
        <time>2018-09-19T09:48:29Z</time>
      </trkpt>
      <trkpt lat="47.68245" lon="6.06777">
        <ele>253</ele>
        <time>2018-09-19T09:48:30Z</time>
      </trkpt>
      <trkpt lat="47.68248" lon="6.06771">
        <ele>253</ele>
        <time>2018-09-19T09:48:31Z</time>
      </trkpt>
      <trkpt lat="47.68256" lon="6.06753">
        <ele>248</ele>
        <time>2018-09-19T09:48:32Z</time>
      </trkpt>
      <trkpt lat="47.68259" lon="6.06747">
        <ele>248</ele>
        <time>2018-09-19T09:48:33Z</time>
      </trkpt>
      <trkpt lat="47.68262" lon="6.06741">
        <ele>248</ele>
        <time>2018-09-19T09:48:34Z</time>
      </trkpt>
      <trkpt lat="47.68265" lon="6.06735">
        <ele>248</ele>
        <time>2018-09-19T09:48:35Z</time>
      </trkpt>
      <trkpt lat="47.68268" lon="6.06729">
        <ele>248</ele>
        <time>2018-09-19T09:48:36Z</time>
      </trkpt>
      <trkpt lat="47.6827" lon="6.06722">
        <ele>248</ele>
        <time>2018-09-19T09:48:37Z</time>
      </trkpt>
      <trkpt lat="47.68273" lon="6.06716">
        <ele>248</ele>
        <time>2018-09-19T09:48:38Z</time>
      </trkpt>
      <trkpt lat="47.68276" lon="6.0671">
        <ele>248</ele>
        <time>2018-09-19T09:48:39Z</time>
      </trkpt>
      <trkpt lat="47.68279" lon="6.06703">
        <ele>247</ele>
        <time>2018-09-19T09:48:40Z</time>
      </trkpt>
      <trkpt lat="47.68282" lon="6.06697">
        <ele>247</ele>
        <time>2018-09-19T09:48:41Z</time>
      </trkpt>
      <trkpt lat="47.68286" lon="6.0669">
        <ele>247</ele>
        <time>2018-09-19T09:48:42Z</time>
      </trkpt>
      <trkpt lat="47.68289" lon="6.06684">
        <ele>247</ele>
        <time>2018-09-19T09:48:43Z</time>
      </trkpt>
      <trkpt lat="47.68293" lon="6.06674">
        <ele>247</ele>
        <time>2018-09-19T09:48:45Z</time>
      </trkpt>
      <trkpt lat="47.68296" lon="6.06668">
        <ele>246</ele>
        <time>2018-09-19T09:48:46Z</time>
      </trkpt>
      <trkpt lat="47.68299" lon="6.06661">
        <ele>246</ele>
        <time>2018-09-19T09:48:47Z</time>
      </trkpt>
      <trkpt lat="47.68301" lon="6.06654">
        <ele>246</ele>
        <time>2018-09-19T09:48:48Z</time>
      </trkpt>
      <trkpt lat="47.68304" lon="6.06649">
        <ele>246</ele>
        <time>2018-09-19T09:48:49Z</time>
      </trkpt>
      <trkpt lat="47.68307" lon="6.06643">
        <ele>246</ele>
        <time>2018-09-19T09:48:50Z</time>
      </trkpt>
      <trkpt lat="47.6831" lon="6.06637">
        <ele>246</ele>
        <time>2018-09-19T09:48:51Z</time>
      </trkpt>
      <trkpt lat="47.68313" lon="6.06632">
        <ele>245</ele>
        <time>2018-09-19T09:48:52Z</time>
      </trkpt>
      <trkpt lat="47.68318" lon="6.06622">
        <ele>245</ele>
        <time>2018-09-19T09:48:54Z</time>
      </trkpt>
      <trkpt lat="47.68323" lon="6.06612">
        <ele>245</ele>
        <time>2018-09-19T09:48:56Z</time>
      </trkpt>
      <trkpt lat="47.68327" lon="6.06601">
        <ele>244</ele>
        <time>2018-09-19T09:48:58Z</time>
      </trkpt>
      <trkpt lat="47.68329" lon="6.06594">
        <ele>243</ele>
        <time>2018-09-19T09:48:59Z</time>
      </trkpt>
      <trkpt lat="47.68332" lon="6.06583">
        <ele>241</ele>
        <time>2018-09-19T09:49:01Z</time>
      </trkpt>
      <trkpt lat="47.68335" lon="6.06573">
        <ele>241</ele>
        <time>2018-09-19T09:49:03Z</time>
      </trkpt>
      <trkpt lat="47.68337" lon="6.06566">
        <ele>240</ele>
        <time>2018-09-19T09:49:04Z</time>
      </trkpt>
      <trkpt lat="47.68338" lon="6.0656">
        <ele>240</ele>
        <time>2018-09-19T09:49:05Z</time>
      </trkpt>
      <trkpt lat="47.68341" lon="6.06548">
        <ele>240</ele>
        <time>2018-09-19T09:49:07Z</time>
      </trkpt>
      <trkpt lat="47.68344" lon="6.06538">
        <ele>240</ele>
        <time>2018-09-19T09:49:09Z</time>
      </trkpt>
      <trkpt lat="47.68345" lon="6.06531">
        <ele>240</ele>
        <time>2018-09-19T09:49:10Z</time>
      </trkpt>
      <trkpt lat="47.68349" lon="6.06519">
        <ele>240</ele>
        <time>2018-09-19T09:49:12Z</time>
      </trkpt>
      <trkpt lat="47.68351" lon="6.06513">
        <ele>240</ele>
        <time>2018-09-19T09:49:13Z</time>
      </trkpt>
      <trkpt lat="47.68355" lon="6.06501">
        <ele>240</ele>
        <time>2018-09-19T09:49:14Z</time>
      </trkpt>
      <trkpt lat="47.68358" lon="6.06489">
        <ele>239</ele>
        <time>2018-09-19T09:49:16Z</time>
      </trkpt>
      <trkpt lat="47.68363" lon="6.06478">
        <ele>239</ele>
        <time>2018-09-19T09:49:18Z</time>
      </trkpt>
      <trkpt lat="47.68366" lon="6.06467">
        <ele>238</ele>
        <time>2018-09-19T09:49:20Z</time>
      </trkpt>
      <trkpt lat="47.68369" lon="6.06455">
        <ele>238</ele>
        <time>2018-09-19T09:49:22Z</time>
      </trkpt>
      <trkpt lat="47.68372" lon="6.06444">
        <ele>238</ele>
        <time>2018-09-19T09:49:24Z</time>
      </trkpt>
      <trkpt lat="47.68374" lon="6.06434">
        <ele>238</ele>
        <time>2018-09-19T09:49:26Z</time>
      </trkpt>
      <trkpt lat="47.68375" lon="6.06427">
        <ele>238</ele>
        <time>2018-09-19T09:49:27Z</time>
      </trkpt>
      <trkpt lat="47.68378" lon="6.06415">
        <ele>237</ele>
        <time>2018-09-19T09:49:29Z</time>
      </trkpt>
      <trkpt lat="47.68382" lon="6.06405">
        <ele>237</ele>
        <time>2018-09-19T09:49:31Z</time>
      </trkpt>
      <trkpt lat="47.68385" lon="6.06394">
        <ele>237</ele>
        <time>2018-09-19T09:49:33Z</time>
      </trkpt>
      <trkpt lat="47.68389" lon="6.06384">
        <ele>237</ele>
        <time>2018-09-19T09:49:35Z</time>
      </trkpt>
      <trkpt lat="47.68392" lon="6.06372">
        <ele>237</ele>
        <time>2018-09-19T09:49:37Z</time>
      </trkpt>
      <trkpt lat="47.68395" lon="6.06361">
        <ele>237</ele>
        <time>2018-09-19T09:49:39Z</time>
      </trkpt>
      <trkpt lat="47.68398" lon="6.06349">
        <ele>237</ele>
        <time>2018-09-19T09:49:41Z</time>
      </trkpt>
      <trkpt lat="47.68402" lon="6.06338">
        <ele>236</ele>
        <time>2018-09-19T09:49:43Z</time>
      </trkpt>
      <trkpt lat="47.68405" lon="6.06327">
        <ele>236</ele>
        <time>2018-09-19T09:49:45Z</time>
      </trkpt>
      <trkpt lat="47.68409" lon="6.06315">
        <ele>236</ele>
        <time>2018-09-19T09:49:47Z</time>
      </trkpt>
      <trkpt lat="47.68411" lon="6.06309">
        <ele>236</ele>
        <time>2018-09-19T09:49:48Z</time>
      </trkpt>
      <trkpt lat="47.68415" lon="6.06297">
        <ele>236</ele>
        <time>2018-09-19T09:49:50Z</time>
      </trkpt>
      <trkpt lat="47.6842" lon="6.06286">
        <ele>236</ele>
        <time>2018-09-19T09:49:52Z</time>
      </trkpt>
      <trkpt lat="47.68423" lon="6.06274">
        <ele>236</ele>
        <time>2018-09-19T09:49:54Z</time>
      </trkpt>
      <trkpt lat="47.68427" lon="6.06264">
        <ele>237</ele>
        <time>2018-09-19T09:49:56Z</time>
      </trkpt>
      <trkpt lat="47.6843" lon="6.06253">
        <ele>237</ele>
        <time>2018-09-19T09:49:58Z</time>
      </trkpt>
      <trkpt lat="47.68433" lon="6.06243">
        <ele>237</ele>
        <time>2018-09-19T09:50:00Z</time>
      </trkpt>
      <trkpt lat="47.68437" lon="6.06232">
        <ele>237</ele>
        <time>2018-09-19T09:50:02Z</time>
      </trkpt>
      <trkpt lat="47.6844" lon="6.06222">
        <ele>237</ele>
        <time>2018-09-19T09:50:04Z</time>
      </trkpt>
      <trkpt lat="47.68444" lon="6.06211">
        <ele>237</ele>
        <time>2018-09-19T09:50:06Z</time>
      </trkpt>
      <trkpt lat="47.68448" lon="6.062">
        <ele>236</ele>
        <time>2018-09-19T09:50:08Z</time>
      </trkpt>
      <trkpt lat="47.68451" lon="6.06189">
        <ele>236</ele>
        <time>2018-09-19T09:50:10Z</time>
      </trkpt>
      <trkpt lat="47.68453" lon="6.06183">
        <ele>236</ele>
        <time>2018-09-19T09:50:11Z</time>
      </trkpt>
      <trkpt lat="47.68456" lon="6.06177">
        <ele>236</ele>
        <time>2018-09-19T09:50:12Z</time>
      </trkpt>
      <trkpt lat="47.68458" lon="6.06171">
        <ele>236</ele>
        <time>2018-09-19T09:50:13Z</time>
      </trkpt>
      <trkpt lat="47.6846" lon="6.06164">
        <ele>237</ele>
        <time>2018-09-19T09:50:14Z</time>
      </trkpt>
      <trkpt lat="47.68462" lon="6.06158">
        <ele>237</ele>
        <time>2018-09-19T09:50:15Z</time>
      </trkpt>
      <trkpt lat="47.68464" lon="6.06152">
        <ele>237</ele>
        <time>2018-09-19T09:50:16Z</time>
      </trkpt>
      <trkpt lat="47.68466" lon="6.06145">
        <ele>237</ele>
        <time>2018-09-19T09:50:17Z</time>
      </trkpt>
      <trkpt lat="47.68468" lon="6.06139">
        <ele>237</ele>
        <time>2018-09-19T09:50:18Z</time>
      </trkpt>
      <trkpt lat="47.68471" lon="6.06132">
        <ele>237</ele>
        <time>2018-09-19T09:50:19Z</time>
      </trkpt>
      <trkpt lat="47.68473" lon="6.06126">
        <ele>237</ele>
        <time>2018-09-19T09:50:20Z</time>
      </trkpt>
      <trkpt lat="47.68475" lon="6.06119">
        <ele>237</ele>
        <time>2018-09-19T09:50:21Z</time>
      </trkpt>
      <trkpt lat="47.68478" lon="6.06113">
        <ele>237</ele>
        <time>2018-09-19T09:50:22Z</time>
      </trkpt>
      <trkpt lat="47.6848" lon="6.06106">
        <ele>237</ele>
        <time>2018-09-19T09:50:23Z</time>
      </trkpt>
      <trkpt lat="47.68482" lon="6.061">
        <ele>237</ele>
        <time>2018-09-19T09:50:24Z</time>
      </trkpt>
      <trkpt lat="47.68484" lon="6.06093">
        <ele>237</ele>
        <time>2018-09-19T09:50:25Z</time>
      </trkpt>
      <trkpt lat="47.68487" lon="6.06086">
        <ele>237</ele>
        <time>2018-09-19T09:50:26Z</time>
      </trkpt>
      <trkpt lat="47.68491" lon="6.06075">
        <ele>237</ele>
        <time>2018-09-19T09:50:28Z</time>
      </trkpt>
      <trkpt lat="47.68496" lon="6.06065">
        <ele>237</ele>
        <time>2018-09-19T09:50:30Z</time>
      </trkpt>
      <trkpt lat="47.685" lon="6.06053">
        <ele>238</ele>
        <time>2018-09-19T09:50:32Z</time>
      </trkpt>
      <trkpt lat="47.68505" lon="6.06043">
        <ele>238</ele>
        <time>2018-09-19T09:50:34Z</time>
      </trkpt>
      <trkpt lat="47.68509" lon="6.06031">
        <ele>238</ele>
        <time>2018-09-19T09:50:36Z</time>
      </trkpt>
      <trkpt lat="47.68514" lon="6.0602">
        <ele>238</ele>
        <time>2018-09-19T09:50:38Z</time>
      </trkpt>
      <trkpt lat="47.68516" lon="6.06014">
        <ele>238</ele>
        <time>2018-09-19T09:50:39Z</time>
      </trkpt>
      <trkpt lat="47.68519" lon="6.06009">
        <ele>238</ele>
        <time>2018-09-19T09:50:40Z</time>
      </trkpt>
      <trkpt lat="47.68522" lon="6.06003">
        <ele>238</ele>
        <time>2018-09-19T09:50:41Z</time>
      </trkpt>
      <trkpt lat="47.68524" lon="6.05996">
        <ele>238</ele>
        <time>2018-09-19T09:50:42Z</time>
      </trkpt>
      <trkpt lat="47.68527" lon="6.05989">
        <ele>238</ele>
        <time>2018-09-19T09:50:43Z</time>
      </trkpt>
      <trkpt lat="47.68529" lon="6.05981">
        <ele>239</ele>
        <time>2018-09-19T09:50:44Z</time>
      </trkpt>
      <trkpt lat="47.68534" lon="6.05968">
        <ele>239</ele>
        <time>2018-09-19T09:50:46Z</time>
      </trkpt>
      <trkpt lat="47.68538" lon="6.05957">
        <ele>239</ele>
        <time>2018-09-19T09:50:48Z</time>
      </trkpt>
      <trkpt lat="47.68542" lon="6.05945">
        <ele>239</ele>
        <time>2018-09-19T09:50:50Z</time>
      </trkpt>
      <trkpt lat="47.68546" lon="6.05934">
        <ele>239</ele>
        <time>2018-09-19T09:50:52Z</time>
      </trkpt>
      <trkpt lat="47.68549" lon="6.05923">
        <ele>239</ele>
        <time>2018-09-19T09:50:54Z</time>
      </trkpt>
      <trkpt lat="47.68552" lon="6.05914">
        <ele>240</ele>
        <time>2018-09-19T09:50:56Z</time>
      </trkpt>
      <trkpt lat="47.68556" lon="6.05905">
        <ele>240</ele>
        <time>2018-09-19T09:50:58Z</time>
      </trkpt>
      <trkpt lat="47.6856" lon="6.05897">
        <ele>240</ele>
        <time>2018-09-19T09:51:00Z</time>
      </trkpt>
      <trkpt lat="47.68563" lon="6.05888">
        <ele>240</ele>
        <time>2018-09-19T09:51:02Z</time>
      </trkpt>
      <trkpt lat="47.68565" lon="6.05882">
        <ele>241</ele>
        <time>2018-09-19T09:51:04Z</time>
      </trkpt>
      <trkpt lat="47.68568" lon="6.05875">
        <ele>241</ele>
        <time>2018-09-19T09:51:07Z</time>
      </trkpt>
      <trkpt lat="47.68572" lon="6.05867">
        <ele>241</ele>
        <time>2018-09-19T09:51:10Z</time>
      </trkpt>
      <trkpt lat="47.68574" lon="6.05861">
        <ele>241</ele>
        <time>2018-09-19T09:51:12Z</time>
      </trkpt>
      <trkpt lat="47.68577" lon="6.05854">
        <ele>241</ele>
        <time>2018-09-19T09:51:14Z</time>
      </trkpt>
      <trkpt lat="47.68579" lon="6.05848">
        <ele>241</ele>
        <time>2018-09-19T09:51:16Z</time>
      </trkpt>
      <trkpt lat="47.68581" lon="6.05841">
        <ele>242</ele>
        <time>2018-09-19T09:51:18Z</time>
      </trkpt>
      <trkpt lat="47.68584" lon="6.05835">
        <ele>242</ele>
        <time>2018-09-19T09:51:20Z</time>
      </trkpt>
      <trkpt lat="47.68586" lon="6.05829">
        <ele>243</ele>
        <time>2018-09-19T09:51:22Z</time>
      </trkpt>
      <trkpt lat="47.68589" lon="6.05822">
        <ele>244</ele>
        <time>2018-09-19T09:51:24Z</time>
      </trkpt>
      <trkpt lat="47.68591" lon="6.05815">
        <ele>245</ele>
        <time>2018-09-19T09:51:26Z</time>
      </trkpt>
      <trkpt lat="47.68594" lon="6.05809">
        <ele>245</ele>
        <time>2018-09-19T09:51:28Z</time>
      </trkpt>
      <trkpt lat="47.68597" lon="6.05801">
        <ele>246</ele>
        <time>2018-09-19T09:51:31Z</time>
      </trkpt>
      <trkpt lat="47.686" lon="6.05794">
        <ele>246</ele>
        <time>2018-09-19T09:51:34Z</time>
      </trkpt>
      <trkpt lat="47.68604" lon="6.05787">
        <ele>246</ele>
        <time>2018-09-19T09:51:37Z</time>
      </trkpt>
      <trkpt lat="47.68608" lon="6.0578">
        <ele>246</ele>
        <time>2018-09-19T09:51:40Z</time>
      </trkpt>
      <trkpt lat="47.68612" lon="6.05774">
        <ele>247</ele>
        <time>2018-09-19T09:51:43Z</time>
      </trkpt>
      <trkpt lat="47.68616" lon="6.05766">
        <ele>247</ele>
        <time>2018-09-19T09:51:46Z</time>
      </trkpt>
      <trkpt lat="47.68621" lon="6.0576">
        <ele>247</ele>
        <time>2018-09-19T09:51:49Z</time>
      </trkpt>
      <trkpt lat="47.68625" lon="6.05755">
        <ele>247</ele>
        <time>2018-09-19T09:51:52Z</time>
      </trkpt>
      <trkpt lat="47.68629" lon="6.0575">
        <ele>247</ele>
        <time>2018-09-19T09:51:55Z</time>
      </trkpt>
      <trkpt lat="47.68634" lon="6.05744">
        <ele>249</ele>
        <time>2018-09-19T09:51:58Z</time>
      </trkpt>
      <trkpt lat="47.68638" lon="6.05738">
        <ele>249</ele>
        <time>2018-09-19T09:52:01Z</time>
      </trkpt>
      <trkpt lat="47.68643" lon="6.05732">
        <ele>249</ele>
        <time>2018-09-19T09:52:04Z</time>
      </trkpt>
      <trkpt lat="47.68646" lon="6.05726">
        <ele>249</ele>
        <time>2018-09-19T09:52:07Z</time>
      </trkpt>
      <trkpt lat="47.6865" lon="6.05721">
        <ele>250</ele>
        <time>2018-09-19T09:52:10Z</time>
      </trkpt>
      <trkpt lat="47.68653" lon="6.05716">
        <ele>250</ele>
        <time>2018-09-19T09:52:13Z</time>
      </trkpt>
      <trkpt lat="47.68657" lon="6.0571">
        <ele>250</ele>
        <time>2018-09-19T09:52:16Z</time>
      </trkpt>
      <trkpt lat="47.6866" lon="6.05705">
        <ele>250</ele>
        <time>2018-09-19T09:52:19Z</time>
      </trkpt>
      <trkpt lat="47.68663" lon="6.057">
        <ele>251</ele>
        <time>2018-09-19T09:52:22Z</time>
      </trkpt>
      <trkpt lat="47.68666" lon="6.05695">
        <ele>251</ele>
        <time>2018-09-19T09:52:25Z</time>
      </trkpt>
      <trkpt lat="47.68669" lon="6.05689">
        <ele>250</ele>
        <time>2018-09-19T09:52:28Z</time>
      </trkpt>
      <trkpt lat="47.68673" lon="6.05682">
        <ele>251</ele>
        <time>2018-09-19T09:52:32Z</time>
      </trkpt>
      <trkpt lat="47.68676" lon="6.05677">
        <ele>251</ele>
        <time>2018-09-19T09:52:35Z</time>
      </trkpt>
      <trkpt lat="47.68679" lon="6.05672">
        <ele>251</ele>
        <time>2018-09-19T09:52:38Z</time>
      </trkpt>
      <trkpt lat="47.68683" lon="6.05665">
        <ele>251</ele>
        <time>2018-09-19T09:52:41Z</time>
      </trkpt>
      <trkpt lat="47.68685" lon="6.0566">
        <ele>251</ele>
        <time>2018-09-19T09:52:44Z</time>
      </trkpt>
      <trkpt lat="47.68689" lon="6.05653">
        <ele>251</ele>
        <time>2018-09-19T09:52:48Z</time>
      </trkpt>
      <trkpt lat="47.68692" lon="6.05647">
        <ele>251</ele>
        <time>2018-09-19T09:52:52Z</time>
      </trkpt>
      <trkpt lat="47.68696" lon="6.05641">
        <ele>251</ele>
        <time>2018-09-19T09:52:56Z</time>
      </trkpt>
      <trkpt lat="47.68699" lon="6.05635">
        <ele>251</ele>
        <time>2018-09-19T09:53:00Z</time>
      </trkpt>
      <trkpt lat="47.68703" lon="6.0563">
        <ele>251</ele>
        <time>2018-09-19T09:53:04Z</time>
      </trkpt>
      <trkpt lat="47.68707" lon="6.05625">
        <ele>251</ele>
        <time>2018-09-19T09:53:08Z</time>
      </trkpt>
      <trkpt lat="47.68711" lon="6.05619">
        <ele>250</ele>
        <time>2018-09-19T09:53:12Z</time>
      </trkpt>
      <trkpt lat="47.68716" lon="6.05613">
        <ele>250</ele>
        <time>2018-09-19T09:53:15Z</time>
      </trkpt>
      <trkpt lat="47.68716" lon="6.05606">
        <ele>250</ele>
        <time>2018-09-19T09:53:19Z</time>
      </trkpt>
      <trkpt lat="47.68711" lon="6.05602">
        <ele>250</ele>
        <time>2018-09-19T09:53:24Z</time>
      </trkpt>
      <trkpt lat="47.68706" lon="6.056">
        <ele>251</ele>
        <time>2018-09-19T09:53:29Z</time>
      </trkpt>
      <trkpt lat="47.68701" lon="6.05599">
        <ele>251</ele>
        <time>2018-09-19T09:53:33Z</time>
      </trkpt>
      <trkpt lat="47.68695" lon="6.05596">
        <ele>251</ele>
        <time>2018-09-19T09:53:46Z</time>
      </trkpt>
      <trkpt lat="47.68691" lon="6.05591">
        <ele>251</ele>
        <time>2018-09-19T09:53:51Z</time>
      </trkpt>
      <trkpt lat="47.6869" lon="6.05584">
        <ele>251</ele>
        <time>2018-09-19T09:53:58Z</time>
      </trkpt>
      <trkpt lat="47.68693" lon="6.05577">
        <ele>250</ele>
        <time>2018-09-19T09:54:02Z</time>
      </trkpt>
      <trkpt lat="47.68695" lon="6.05568">
        <ele>250</ele>
        <time>2018-09-19T09:54:05Z</time>
      </trkpt>
      <trkpt lat="47.68697" lon="6.05561">
        <ele>250</ele>
        <time>2018-09-19T09:54:07Z</time>
      </trkpt>
      <trkpt lat="47.687" lon="6.05552">
        <ele>249</ele>
        <time>2018-09-19T09:54:10Z</time>
      </trkpt>
      <trkpt lat="47.68702" lon="6.05545">
        <ele>249</ele>
        <time>2018-09-19T09:54:12Z</time>
      </trkpt>
      <trkpt lat="47.68704" lon="6.05536">
        <ele>249</ele>
        <time>2018-09-19T09:54:14Z</time>
      </trkpt>
      <trkpt lat="47.68705" lon="6.05527">
        <ele>249</ele>
        <time>2018-09-19T09:54:16Z</time>
      </trkpt>
      <trkpt lat="47.68706" lon="6.05518">
        <ele>249</ele>
        <time>2018-09-19T09:54:18Z</time>
      </trkpt>
      <trkpt lat="47.68705" lon="6.05508">
        <ele>249</ele>
        <time>2018-09-19T09:54:20Z</time>
      </trkpt>
      <trkpt lat="47.68704" lon="6.05498">
        <ele>247</ele>
        <time>2018-09-19T09:54:22Z</time>
      </trkpt>
      <trkpt lat="47.68703" lon="6.05489">
        <ele>247</ele>
        <time>2018-09-19T09:54:24Z</time>
      </trkpt>
      <trkpt lat="47.68701" lon="6.05479">
        <ele>247</ele>
        <time>2018-09-19T09:54:26Z</time>
      </trkpt>
      <trkpt lat="47.68697" lon="6.05471">
        <ele>247</ele>
        <time>2018-09-19T09:54:28Z</time>
      </trkpt>
      <trkpt lat="47.68692" lon="6.05466">
        <ele>247</ele>
        <time>2018-09-19T09:54:30Z</time>
      </trkpt>
      <trkpt lat="47.68686" lon="6.05463">
        <ele>247</ele>
        <time>2018-09-19T09:54:32Z</time>
      </trkpt>
      <trkpt lat="47.6868" lon="6.05464">
        <ele>247</ele>
        <time>2018-09-19T09:54:34Z</time>
      </trkpt>
      <trkpt lat="47.68675" lon="6.05465">
        <ele>247</ele>
        <time>2018-09-19T09:54:36Z</time>
      </trkpt>
      <trkpt lat="47.68669" lon="6.05465">
        <ele>247</ele>
        <time>2018-09-19T09:54:38Z</time>
      </trkpt>
      <trkpt lat="47.68663" lon="6.05464">
        <ele>249</ele>
        <time>2018-09-19T09:54:40Z</time>
      </trkpt>
      <trkpt lat="47.68657" lon="6.05462">
        <ele>249</ele>
        <time>2018-09-19T09:54:42Z</time>
      </trkpt>
      <trkpt lat="47.68651" lon="6.05457">
        <ele>249</ele>
        <time>2018-09-19T09:54:44Z</time>
      </trkpt>
      <trkpt lat="47.68647" lon="6.05451">
        <ele>249</ele>
        <time>2018-09-19T09:54:46Z</time>
      </trkpt>
      <trkpt lat="47.68645" lon="6.05443">
        <ele>249</ele>
        <time>2018-09-19T09:54:48Z</time>
      </trkpt>
      <trkpt lat="47.68642" lon="6.05436">
        <ele>248</ele>
        <time>2018-09-19T09:54:50Z</time>
      </trkpt>
      <trkpt lat="47.68641" lon="6.0543">
        <ele>248</ele>
        <time>2018-09-19T09:54:52Z</time>
      </trkpt>
      <trkpt lat="47.68644" lon="6.0542">
        <ele>248</ele>
        <time>2018-09-19T09:54:54Z</time>
      </trkpt>
      <trkpt lat="47.68647" lon="6.05409">
        <ele>246</ele>
        <time>2018-09-19T09:54:56Z</time>
      </trkpt>
      <trkpt lat="47.68651" lon="6.05391">
        <ele>245</ele>
        <time>2018-09-19T09:54:57Z</time>
      </trkpt>
      <trkpt lat="47.68653" lon="6.05384">
        <ele>245</ele>
        <time>2018-09-19T09:54:58Z</time>
      </trkpt>
      <trkpt lat="47.68654" lon="6.05376">
        <ele>245</ele>
        <time>2018-09-19T09:54:59Z</time>
      </trkpt>
      <trkpt lat="47.68655" lon="6.05369">
        <ele>244</ele>
        <time>2018-09-19T09:55:00Z</time>
      </trkpt>
      <trkpt lat="47.68656" lon="6.05362">
        <ele>244</ele>
        <time>2018-09-19T09:55:02Z</time>
      </trkpt>
      <trkpt lat="47.68653" lon="6.05354">
        <ele>244</ele>
        <time>2018-09-19T09:55:05Z</time>
      </trkpt>
      <trkpt lat="47.68648" lon="6.0535">
        <ele>244</ele>
        <time>2018-09-19T09:55:07Z</time>
      </trkpt>
      <trkpt lat="47.68643" lon="6.05348">
        <ele>244</ele>
        <time>2018-09-19T09:55:09Z</time>
      </trkpt>
      <trkpt lat="47.68636" lon="6.05346">
        <ele>244</ele>
        <time>2018-09-19T09:55:11Z</time>
      </trkpt>
      <trkpt lat="47.6863" lon="6.05345">
        <ele>244</ele>
        <time>2018-09-19T09:55:13Z</time>
      </trkpt>
      <trkpt lat="47.68623" lon="6.05344">
        <ele>244</ele>
        <time>2018-09-19T09:55:15Z</time>
      </trkpt>
      <trkpt lat="47.68617" lon="6.05343">
        <ele>244</ele>
        <time>2018-09-19T09:55:17Z</time>
      </trkpt>
      <trkpt lat="47.68611" lon="6.05341">
        <ele>244</ele>
        <time>2018-09-19T09:55:19Z</time>
      </trkpt>
      <trkpt lat="47.68604" lon="6.05339">
        <ele>243</ele>
        <time>2018-09-19T09:55:21Z</time>
      </trkpt>
      <trkpt lat="47.68599" lon="6.05337">
        <ele>243</ele>
        <time>2018-09-19T09:55:23Z</time>
      </trkpt>
      <trkpt lat="47.68593" lon="6.05336">
        <ele>243</ele>
        <time>2018-09-19T09:55:25Z</time>
      </trkpt>
      <trkpt lat="47.68587" lon="6.05334">
        <ele>242</ele>
        <time>2018-09-19T09:55:27Z</time>
      </trkpt>
      <trkpt lat="47.68581" lon="6.05332">
        <ele>242</ele>
        <time>2018-09-19T09:55:29Z</time>
      </trkpt>
      <trkpt lat="47.68575" lon="6.0533">
        <ele>241</ele>
        <time>2018-09-19T09:55:31Z</time>
      </trkpt>
      <trkpt lat="47.68569" lon="6.05329">
        <ele>241</ele>
        <time>2018-09-19T09:55:33Z</time>
      </trkpt>
      <trkpt lat="47.68563" lon="6.05327">
        <ele>241</ele>
        <time>2018-09-19T09:55:35Z</time>
      </trkpt>
      <trkpt lat="47.68557" lon="6.05324">
        <ele>241</ele>
        <time>2018-09-19T09:55:37Z</time>
      </trkpt>
      <trkpt lat="47.68551" lon="6.0532">
        <ele>241</ele>
        <time>2018-09-19T09:55:39Z</time>
      </trkpt>
      <trkpt lat="47.68544" lon="6.05314">
        <ele>241</ele>
        <time>2018-09-19T09:55:41Z</time>
      </trkpt>
      <trkpt lat="47.68533" lon="6.05297">
        <ele>240</ele>
        <time>2018-09-19T09:55:43Z</time>
      </trkpt>
      <trkpt lat="47.68531" lon="6.0529">
        <ele>240</ele>
        <time>2018-09-19T09:55:44Z</time>
      </trkpt>
      <trkpt lat="47.68529" lon="6.05283">
        <ele>240</ele>
        <time>2018-09-19T09:55:45Z</time>
      </trkpt>
      <trkpt lat="47.68528" lon="6.05276">
        <ele>240</ele>
        <time>2018-09-19T09:55:46Z</time>
      </trkpt>
      <trkpt lat="47.68527" lon="6.05269">
        <ele>240</ele>
        <time>2018-09-19T09:55:47Z</time>
      </trkpt>
      <trkpt lat="47.68526" lon="6.05262">
        <ele>240</ele>
        <time>2018-09-19T09:55:48Z</time>
      </trkpt>
      <trkpt lat="47.68524" lon="6.05251">
        <ele>240</ele>
        <time>2018-09-19T09:55:50Z</time>
      </trkpt>
      <trkpt lat="47.68523" lon="6.05244">
        <ele>238</ele>
        <time>2018-09-19T09:55:52Z</time>
      </trkpt>
      <trkpt lat="47.68523" lon="6.05236">
        <ele>238</ele>
        <time>2018-09-19T09:55:55Z</time>
      </trkpt>
      <trkpt lat="47.68528" lon="6.0523">
        <ele>238</ele>
        <time>2018-09-19T09:55:58Z</time>
      </trkpt>
      <trkpt lat="47.68535" lon="6.05224">
        <ele>238</ele>
        <time>2018-09-19T09:56:00Z</time>
      </trkpt>
      <trkpt lat="47.68549" lon="6.05213">
        <ele>237</ele>
        <time>2018-09-19T09:56:02Z</time>
      </trkpt>
      <trkpt lat="47.68553" lon="6.05209">
        <ele>237</ele>
        <time>2018-09-19T09:56:03Z</time>
      </trkpt>
      <trkpt lat="47.68557" lon="6.05205">
        <ele>237</ele>
        <time>2018-09-19T09:56:04Z</time>
      </trkpt>
      <trkpt lat="47.68561" lon="6.05201">
        <ele>237</ele>
        <time>2018-09-19T09:56:05Z</time>
      </trkpt>
      <trkpt lat="47.68565" lon="6.05197">
        <ele>237</ele>
        <time>2018-09-19T09:56:06Z</time>
      </trkpt>
      <trkpt lat="47.68569" lon="6.05194">
        <ele>237</ele>
        <time>2018-09-19T09:56:07Z</time>
      </trkpt>
      <trkpt lat="47.68573" lon="6.0519">
        <ele>237</ele>
        <time>2018-09-19T09:56:08Z</time>
      </trkpt>
      <trkpt lat="47.68578" lon="6.05186">
        <ele>237</ele>
        <time>2018-09-19T09:56:09Z</time>
      </trkpt>
      <trkpt lat="47.68584" lon="6.05182">
        <ele>236</ele>
        <time>2018-09-19T09:56:10Z</time>
      </trkpt>
      <trkpt lat="47.68589" lon="6.05178">
        <ele>236</ele>
        <time>2018-09-19T09:56:11Z</time>
      </trkpt>
      <trkpt lat="47.68594" lon="6.05174">
        <ele>236</ele>
        <time>2018-09-19T09:56:12Z</time>
      </trkpt>
      <trkpt lat="47.68599" lon="6.0517">
        <ele>236</ele>
        <time>2018-09-19T09:56:13Z</time>
      </trkpt>
      <trkpt lat="47.68604" lon="6.05167">
        <ele>236</ele>
        <time>2018-09-19T09:56:14Z</time>
      </trkpt>
      <trkpt lat="47.68609" lon="6.05162">
        <ele>235</ele>
        <time>2018-09-19T09:56:15Z</time>
      </trkpt>
      <trkpt lat="47.68616" lon="6.05156">
        <ele>235</ele>
        <time>2018-09-19T09:56:17Z</time>
      </trkpt>
      <trkpt lat="47.68618" lon="6.0515">
        <ele>235</ele>
        <time>2018-09-19T09:56:19Z</time>
      </trkpt>
      <trkpt lat="47.68622" lon="6.05147">
        <ele>235</ele>
        <time>2018-09-19T09:56:22Z</time>
      </trkpt>
      <trkpt lat="47.68627" lon="6.05148">
        <ele>235</ele>
        <time>2018-09-19T09:56:29Z</time>
      </trkpt>
      <trkpt lat="47.68632" lon="6.05145">
        <ele>235</ele>
        <time>2018-09-19T09:56:32Z</time>
      </trkpt>
      <trkpt lat="47.68636" lon="6.05142">
        <ele>235</ele>
        <time>2018-09-19T09:56:34Z</time>
      </trkpt>
      <trkpt lat="47.6864" lon="6.05138">
        <ele>235</ele>
        <time>2018-09-19T09:56:36Z</time>
      </trkpt>
      <trkpt lat="47.68645" lon="6.05134">
        <ele>235</ele>
        <time>2018-09-19T09:56:38Z</time>
      </trkpt>
      <trkpt lat="47.6865" lon="6.0513">
        <ele>235</ele>
        <time>2018-09-19T09:56:40Z</time>
      </trkpt>
      <trkpt lat="47.68657" lon="6.05125">
        <ele>235</ele>
        <time>2018-09-19T09:56:42Z</time>
      </trkpt>
      <trkpt lat="47.68664" lon="6.05119">
        <ele>235</ele>
        <time>2018-09-19T09:56:44Z</time>
      </trkpt>
      <trkpt lat="47.68671" lon="6.05113">
        <ele>234</ele>
        <time>2018-09-19T09:56:46Z</time>
      </trkpt>
      <trkpt lat="47.68678" lon="6.05107">
        <ele>234</ele>
        <time>2018-09-19T09:56:48Z</time>
      </trkpt>
      <trkpt lat="47.68688" lon="6.05097">
        <ele>234</ele>
        <time>2018-09-19T09:56:49Z</time>
      </trkpt>
      <trkpt lat="47.68692" lon="6.05092">
        <ele>234</ele>
        <time>2018-09-19T09:56:50Z</time>
      </trkpt>
      <trkpt lat="47.68696" lon="6.05088">
        <ele>234</ele>
        <time>2018-09-19T09:56:51Z</time>
      </trkpt>
      <trkpt lat="47.687" lon="6.05084">
        <ele>234</ele>
        <time>2018-09-19T09:56:52Z</time>
      </trkpt>
      <trkpt lat="47.68706" lon="6.05076">
        <ele>233</ele>
        <time>2018-09-19T09:56:54Z</time>
      </trkpt>
      <trkpt lat="47.6871" lon="6.05071">
        <ele>233</ele>
        <time>2018-09-19T09:56:55Z</time>
      </trkpt>
      <trkpt lat="47.68714" lon="6.05065">
        <ele>233</ele>
        <time>2018-09-19T09:56:56Z</time>
      </trkpt>
      <trkpt lat="47.6872" lon="6.05056">
        <ele>232</ele>
        <time>2018-09-19T09:56:58Z</time>
      </trkpt>
      <trkpt lat="47.68724" lon="6.0505">
        <ele>232</ele>
        <time>2018-09-19T09:56:59Z</time>
      </trkpt>
      <trkpt lat="47.68727" lon="6.05046">
        <ele>232</ele>
        <time>2018-09-19T09:57:00Z</time>
      </trkpt>
      <trkpt lat="47.68731" lon="6.05041">
        <ele>232</ele>
        <time>2018-09-19T09:57:01Z</time>
      </trkpt>
      <trkpt lat="47.68734" lon="6.05035">
        <ele>232</ele>
        <time>2018-09-19T09:57:02Z</time>
      </trkpt>
      <trkpt lat="47.68737" lon="6.0503">
        <ele>232</ele>
        <time>2018-09-19T09:57:03Z</time>
      </trkpt>
      <trkpt lat="47.68743" lon="6.05021">
        <ele>232</ele>
        <time>2018-09-19T09:57:05Z</time>
      </trkpt>
      <trkpt lat="47.68746" lon="6.05016">
        <ele>232</ele>
        <time>2018-09-19T09:57:06Z</time>
      </trkpt>
      <trkpt lat="47.68749" lon="6.05012">
        <ele>232</ele>
        <time>2018-09-19T09:57:07Z</time>
      </trkpt>
      <trkpt lat="47.68756" lon="6.05003">
        <ele>231</ele>
        <time>2018-09-19T09:57:09Z</time>
      </trkpt>
      <trkpt lat="47.6876" lon="6.04997">
        <ele>231</ele>
        <time>2018-09-19T09:57:10Z</time>
      </trkpt>
      <trkpt lat="47.68763" lon="6.04992">
        <ele>230</ele>
        <time>2018-09-19T09:57:11Z</time>
      </trkpt>
      <trkpt lat="47.68767" lon="6.04987">
        <ele>230</ele>
        <time>2018-09-19T09:57:12Z</time>
      </trkpt>
      <trkpt lat="47.68771" lon="6.04982">
        <ele>230</ele>
        <time>2018-09-19T09:57:13Z</time>
      </trkpt>
      <trkpt lat="47.68774" lon="6.04977">
        <ele>230</ele>
        <time>2018-09-19T09:57:14Z</time>
      </trkpt>
      <trkpt lat="47.68778" lon="6.04972">
        <ele>230</ele>
        <time>2018-09-19T09:57:15Z</time>
      </trkpt>
      <trkpt lat="47.68781" lon="6.04968">
        <ele>230</ele>
        <time>2018-09-19T09:57:16Z</time>
      </trkpt>
      <trkpt lat="47.68785" lon="6.0496">
        <ele>230</ele>
        <time>2018-09-19T09:57:18Z</time>
      </trkpt>
      <trkpt lat="47.68787" lon="6.04953">
        <ele>230</ele>
        <time>2018-09-19T09:57:20Z</time>
      </trkpt>
      <trkpt lat="47.68791" lon="6.04946">
        <ele>230</ele>
        <time>2018-09-19T09:57:23Z</time>
      </trkpt>
      <trkpt lat="47.68793" lon="6.0494">
        <ele>230</ele>
        <time>2018-09-19T09:57:36Z</time>
      </trkpt>
      <trkpt lat="47.68793" lon="6.04931">
        <ele>230</ele>
        <time>2018-09-19T09:57:41Z</time>
      </trkpt>
      <trkpt lat="47.68791" lon="6.04921">
        <ele>230</ele>
        <time>2018-09-19T09:57:44Z</time>
      </trkpt>
      <trkpt lat="47.6879" lon="6.04912">
        <ele>229</ele>
        <time>2018-09-19T09:57:46Z</time>
      </trkpt>
      <trkpt lat="47.68788" lon="6.04903">
        <ele>229</ele>
        <time>2018-09-19T09:57:48Z</time>
      </trkpt>
      <trkpt lat="47.68786" lon="6.04893">
        <ele>229</ele>
        <time>2018-09-19T09:57:50Z</time>
      </trkpt>
      <trkpt lat="47.68783" lon="6.04884">
        <ele>229</ele>
        <time>2018-09-19T09:57:52Z</time>
      </trkpt>
      <trkpt lat="47.6878" lon="6.04874">
        <ele>229</ele>
        <time>2018-09-19T09:57:54Z</time>
      </trkpt>
      <trkpt lat="47.68776" lon="6.04866">
        <ele>230</ele>
        <time>2018-09-19T09:57:56Z</time>
      </trkpt>
      <trkpt lat="47.68772" lon="6.04859">
        <ele>230</ele>
        <time>2018-09-19T09:57:58Z</time>
      </trkpt>
      <trkpt lat="47.6877" lon="6.04852">
        <ele>230</ele>
        <time>2018-09-19T09:58:00Z</time>
      </trkpt>
      <trkpt lat="47.68769" lon="6.04846">
        <ele>230</ele>
        <time>2018-09-19T09:58:02Z</time>
      </trkpt>
      <trkpt lat="47.68769" lon="6.04839">
        <ele>230</ele>
        <time>2018-09-19T09:58:04Z</time>
      </trkpt>
      <trkpt lat="47.68767" lon="6.04829">
        <ele>230</ele>
        <time>2018-09-19T09:58:07Z</time>
      </trkpt>
      <trkpt lat="47.68764" lon="6.0482">
        <ele>230</ele>
        <time>2018-09-19T09:58:10Z</time>
      </trkpt>
      <trkpt lat="47.68762" lon="6.04814">
        <ele>230</ele>
        <time>2018-09-19T09:58:12Z</time>
      </trkpt>
      <trkpt lat="47.6876" lon="6.04807">
        <ele>230</ele>
        <time>2018-09-19T09:58:14Z</time>
      </trkpt>
      <trkpt lat="47.68759" lon="6.04801">
        <ele>230</ele>
        <time>2018-09-19T09:58:16Z</time>
      </trkpt>
      <trkpt lat="47.68757" lon="6.04794">
        <ele>230</ele>
        <time>2018-09-19T09:58:18Z</time>
      </trkpt>
      <trkpt lat="47.68755" lon="6.04788">
        <ele>230</ele>
        <time>2018-09-19T09:58:20Z</time>
      </trkpt>
      <trkpt lat="47.68753" lon="6.04779">
        <ele>230</ele>
        <time>2018-09-19T09:58:23Z</time>
      </trkpt>
      <trkpt lat="47.68751" lon="6.04771">
        <ele>230</ele>
        <time>2018-09-19T09:58:26Z</time>
      </trkpt>
      <trkpt lat="47.68748" lon="6.04763">
        <ele>232</ele>
        <time>2018-09-19T09:58:29Z</time>
      </trkpt>
      <trkpt lat="47.68746" lon="6.04754">
        <ele>231</ele>
        <time>2018-09-19T09:58:32Z</time>
      </trkpt>
      <trkpt lat="47.68744" lon="6.04746">
        <ele>232</ele>
        <time>2018-09-19T09:58:34Z</time>
      </trkpt>
      <trkpt lat="47.68742" lon="6.04739">
        <ele>232</ele>
        <time>2018-09-19T09:58:36Z</time>
      </trkpt>
      <trkpt lat="47.6874" lon="6.0473">
        <ele>233</ele>
        <time>2018-09-19T09:58:38Z</time>
      </trkpt>
      <trkpt lat="47.68737" lon="6.04721">
        <ele>233</ele>
        <time>2018-09-19T09:58:40Z</time>
      </trkpt>
      <trkpt lat="47.68734" lon="6.04713">
        <ele>233</ele>
        <time>2018-09-19T09:58:42Z</time>
      </trkpt>
      <trkpt lat="47.68731" lon="6.04705">
        <ele>233</ele>
        <time>2018-09-19T09:58:44Z</time>
      </trkpt>
      <trkpt lat="47.68728" lon="6.04698">
        <ele>233</ele>
        <time>2018-09-19T09:58:46Z</time>
      </trkpt>
      <trkpt lat="47.68725" lon="6.04692">
        <ele>233</ele>
        <time>2018-09-19T09:58:48Z</time>
      </trkpt>
      <trkpt lat="47.68722" lon="6.04686">
        <ele>233</ele>
        <time>2018-09-19T09:58:50Z</time>
      </trkpt>
      <trkpt lat="47.68718" lon="6.0468">
        <ele>233</ele>
        <time>2018-09-19T09:58:52Z</time>
      </trkpt>
      <trkpt lat="47.68715" lon="6.04673">
        <ele>233</ele>
        <time>2018-09-19T09:58:54Z</time>
      </trkpt>
      <trkpt lat="47.68711" lon="6.04668">
        <ele>234</ele>
        <time>2018-09-19T09:58:56Z</time>
      </trkpt>
      <trkpt lat="47.68708" lon="6.04662">
        <ele>233</ele>
        <time>2018-09-19T09:58:58Z</time>
      </trkpt>
      <trkpt lat="47.68706" lon="6.04656">
        <ele>233</ele>
        <time>2018-09-19T09:59:00Z</time>
      </trkpt>
      <trkpt lat="47.68702" lon="6.0465">
        <ele>233</ele>
        <time>2018-09-19T09:59:02Z</time>
      </trkpt>
      <trkpt lat="47.68699" lon="6.04644">
        <ele>233</ele>
        <time>2018-09-19T09:59:04Z</time>
      </trkpt>
      <trkpt lat="47.68695" lon="6.04638">
        <ele>233</ele>
        <time>2018-09-19T09:59:06Z</time>
      </trkpt>
      <trkpt lat="47.68691" lon="6.0463">
        <ele>233</ele>
        <time>2018-09-19T09:59:08Z</time>
      </trkpt>
      <trkpt lat="47.68688" lon="6.04623">
        <ele>233</ele>
        <time>2018-09-19T09:59:10Z</time>
      </trkpt>
      <trkpt lat="47.68685" lon="6.04614">
        <ele>233</ele>
        <time>2018-09-19T09:59:12Z</time>
      </trkpt>
      <trkpt lat="47.68681" lon="6.04605">
        <ele>233</ele>
        <time>2018-09-19T09:59:14Z</time>
      </trkpt>
      <trkpt lat="47.68678" lon="6.04595">
        <ele>234</ele>
        <time>2018-09-19T09:59:16Z</time>
      </trkpt>
      <trkpt lat="47.68674" lon="6.04585">
        <ele>234</ele>
        <time>2018-09-19T09:59:18Z</time>
      </trkpt>
      <trkpt lat="47.6867" lon="6.04575">
        <ele>233</ele>
        <time>2018-09-19T09:59:20Z</time>
      </trkpt>
      <trkpt lat="47.68664" lon="6.04565">
        <ele>232</ele>
        <time>2018-09-19T09:59:22Z</time>
      </trkpt>
      <trkpt lat="47.68658" lon="6.04557">
        <ele>231</ele>
        <time>2018-09-19T09:59:24Z</time>
      </trkpt>
      <trkpt lat="47.68652" lon="6.0455">
        <ele>230</ele>
        <time>2018-09-19T09:59:26Z</time>
      </trkpt>
      <trkpt lat="47.68646" lon="6.04543">
        <ele>230</ele>
        <time>2018-09-19T09:59:28Z</time>
      </trkpt>
      <trkpt lat="47.68639" lon="6.04538">
        <ele>230</ele>
        <time>2018-09-19T09:59:30Z</time>
      </trkpt>
      <trkpt lat="47.68632" lon="6.04535">
        <ele>229</ele>
        <time>2018-09-19T09:59:32Z</time>
      </trkpt>
      <trkpt lat="47.68627" lon="6.04538">
        <ele>229</ele>
        <time>2018-09-19T09:59:34Z</time>
      </trkpt>
      <trkpt lat="47.68624" lon="6.04545">
        <ele>229</ele>
        <time>2018-09-19T09:59:37Z</time>
      </trkpt>
    </trkseg>
  </trk>
</gpx>